<?xml version="1.0" encoding="UTF-8" standalone="no" ?>
<gpx xmlns="http://www.topografix.com/GPX/1/1" xmlns:xsi="http://www.w3.org/2001/XMLSchema-instance" xsi:schemaLocation="http://www.topografix.com/GPX/1/1 http://www.topografix.com/GPX/1/1/gpx.xsd" version="1.1" creator="VisuGPX - https://www.visugpx.com">
  <metadata>
    <name>20150823 Bonneval Vallonbrun</name>
    <desc><![CDATA[Etape 6 du GR5]]></desc>
  </metadata>
  <trk>
    <name><![CDATA[20150823 Bonneval Vallonbrun_1]]></name>
    <trkseg>
      <trkpt lat="45.37174" lon="7.04671">
        <ele>1795.1</ele>
        <time>2015-08-23T07:24:18Z</time>
      </trkpt>
      <trkpt lat="45.37173" lon="7.04672">
        <ele>1795.1</ele>
        <time>2015-08-23T07:24:23Z</time>
      </trkpt>
      <trkpt lat="45.3717" lon="7.04671">
        <ele>1795.1</ele>
        <time>2015-08-23T07:24:28Z</time>
      </trkpt>
      <trkpt lat="45.3717" lon="7.04671">
        <ele>1795.1</ele>
        <time>2015-08-23T07:24:38Z</time>
      </trkpt>
      <trkpt lat="45.37166" lon="7.0467">
        <ele>1795.1</ele>
        <time>2015-08-23T07:24:53Z</time>
      </trkpt>
      <trkpt lat="45.37166" lon="7.0467">
        <ele>1795.1</ele>
        <time>2015-08-23T07:24:58Z</time>
      </trkpt>
      <trkpt lat="45.37167" lon="7.04671">
        <ele>1797.5508</ele>
        <time>2015-08-23T07:25:13Z</time>
      </trkpt>
      <trkpt lat="45.37167" lon="7.04671">
        <ele>1797.5508</ele>
        <time>2015-08-23T07:25:28Z</time>
      </trkpt>
      <trkpt lat="45.37168" lon="7.04672">
        <ele>1797.5508</ele>
        <time>2015-08-23T07:25:33Z</time>
      </trkpt>
      <trkpt lat="45.37174" lon="7.04667">
        <ele>1797.5508</ele>
        <time>2015-08-23T07:25:43Z</time>
      </trkpt>
      <trkpt lat="45.37182" lon="7.04663">
        <ele>1807.2599</ele>
        <time>2015-08-23T07:25:48Z</time>
      </trkpt>
      <trkpt lat="45.3719" lon="7.04658">
        <ele>1807.2599</ele>
        <time>2015-08-23T07:25:58Z</time>
      </trkpt>
      <trkpt lat="45.37194" lon="7.04658">
        <ele>1817.2277</ele>
        <time>2015-08-23T07:26:03Z</time>
      </trkpt>
      <trkpt lat="45.372" lon="7.04654">
        <ele>1817.2277</ele>
        <time>2015-08-23T07:26:13Z</time>
      </trkpt>
      <trkpt lat="45.372" lon="7.04654">
        <ele>1817.2277</ele>
        <time>2015-08-23T07:26:18Z</time>
      </trkpt>
      <trkpt lat="45.37204" lon="7.04647">
        <ele>1827.7019</ele>
        <time>2015-08-23T07:26:28Z</time>
      </trkpt>
      <trkpt lat="45.37205" lon="7.04645">
        <ele>1827.7019</ele>
        <time>2015-08-23T07:26:33Z</time>
      </trkpt>
      <trkpt lat="45.37215" lon="7.04636">
        <ele>1837.2756</ele>
        <time>2015-08-23T07:26:43Z</time>
      </trkpt>
      <trkpt lat="45.37219" lon="7.04632">
        <ele>1837.2756</ele>
        <time>2015-08-23T07:26:48Z</time>
      </trkpt>
      <trkpt lat="45.37223" lon="7.04631">
        <ele>1845.9564</ele>
        <time>2015-08-23T07:26:58Z</time>
      </trkpt>
      <trkpt lat="45.37226" lon="7.04629">
        <ele>1845.9564</ele>
        <time>2015-08-23T07:27:03Z</time>
      </trkpt>
      <trkpt lat="45.37232" lon="7.04626">
        <ele>1853.4229</ele>
        <time>2015-08-23T07:27:13Z</time>
      </trkpt>
      <trkpt lat="45.37238" lon="7.04626">
        <ele>1853.4229</ele>
        <time>2015-08-23T07:27:18Z</time>
      </trkpt>
      <trkpt lat="45.37249" lon="7.04629">
        <ele>1859.7786</ele>
        <time>2015-08-23T07:27:33Z</time>
      </trkpt>
      <trkpt lat="45.37253" lon="7.04632">
        <ele>1859.7786</ele>
        <time>2015-08-23T07:27:38Z</time>
      </trkpt>
      <trkpt lat="45.37258" lon="7.04642">
        <ele>1865.1937</ele>
        <time>2015-08-23T07:27:48Z</time>
      </trkpt>
      <trkpt lat="45.37261" lon="7.04645">
        <ele>1865.1937</ele>
        <time>2015-08-23T07:27:53Z</time>
      </trkpt>
      <trkpt lat="45.37264" lon="7.04649">
        <ele>1865.1937</ele>
        <time>2015-08-23T07:28:03Z</time>
      </trkpt>
      <trkpt lat="45.37266" lon="7.04651">
        <ele>1869.8159</ele>
        <time>2015-08-23T07:28:08Z</time>
      </trkpt>
      <trkpt lat="45.3727" lon="7.04654">
        <ele>1869.8159</ele>
        <time>2015-08-23T07:28:18Z</time>
      </trkpt>
      <trkpt lat="45.37272" lon="7.04654">
        <ele>1869.8159</ele>
        <time>2015-08-23T07:28:23Z</time>
      </trkpt>
      <trkpt lat="45.37272" lon="7.04654">
        <ele>1869.8159</ele>
        <time>2015-08-23T07:28:33Z</time>
      </trkpt>
      <trkpt lat="45.37274" lon="7.04655">
        <ele>1869.8159</ele>
        <time>2015-08-23T07:28:38Z</time>
      </trkpt>
      <trkpt lat="45.37281" lon="7.04657">
        <ele>1873.6742</ele>
        <time>2015-08-23T07:28:53Z</time>
      </trkpt>
      <trkpt lat="45.37283" lon="7.04658">
        <ele>1873.6742</ele>
        <time>2015-08-23T07:28:58Z</time>
      </trkpt>
      <trkpt lat="45.37284" lon="7.04658">
        <ele>1873.6742</ele>
        <time>2015-08-23T07:29:08Z</time>
      </trkpt>
      <trkpt lat="45.37286" lon="7.04658">
        <ele>1873.6742</ele>
        <time>2015-08-23T07:29:28Z</time>
      </trkpt>
      <trkpt lat="45.37286" lon="7.04658">
        <ele>1873.6742</ele>
        <time>2015-08-23T07:29:38Z</time>
      </trkpt>
      <trkpt lat="45.37287" lon="7.04659">
        <ele>1873.6742</ele>
        <time>2015-08-23T07:30:58Z</time>
      </trkpt>
      <trkpt lat="45.37288" lon="7.04662">
        <ele>1876.8887</ele>
        <time>2015-08-23T07:31:03Z</time>
      </trkpt>
      <trkpt lat="45.37288" lon="7.04662">
        <ele>1876.8887</ele>
        <time>2015-08-23T07:31:13Z</time>
      </trkpt>
      <trkpt lat="45.37288" lon="7.04663">
        <ele>1876.8887</ele>
        <time>2015-08-23T07:31:48Z</time>
      </trkpt>
      <trkpt lat="45.37288" lon="7.04663">
        <ele>1876.8887</ele>
        <time>2015-08-23T07:31:58Z</time>
      </trkpt>
      <trkpt lat="45.37289" lon="7.04664">
        <ele>1876.8887</ele>
        <time>2015-08-23T07:32:33Z</time>
      </trkpt>
      <trkpt lat="45.37291" lon="7.04665">
        <ele>1876.8887</ele>
        <time>2015-08-23T07:33:33Z</time>
      </trkpt>
      <trkpt lat="45.37292" lon="7.04665">
        <ele>1876.8887</ele>
        <time>2015-08-23T07:33:38Z</time>
      </trkpt>
      <trkpt lat="45.37295" lon="7.04666">
        <ele>1876.8887</ele>
        <time>2015-08-23T07:33:48Z</time>
      </trkpt>
      <trkpt lat="45.37296" lon="7.04666">
        <ele>1878.9344</ele>
        <time>2015-08-23T07:33:53Z</time>
      </trkpt>
      <trkpt lat="45.37296" lon="7.04666">
        <ele>1878.9344</ele>
        <time>2015-08-23T07:34:08Z</time>
      </trkpt>
      <trkpt lat="45.37295" lon="7.04665">
        <ele>1878.9344</ele>
        <time>2015-08-23T07:34:23Z</time>
      </trkpt>
      <trkpt lat="45.37295" lon="7.04665">
        <ele>1878.9344</ele>
        <time>2015-08-23T07:34:28Z</time>
      </trkpt>
      <trkpt lat="45.37295" lon="7.04665">
        <ele>1878.9344</ele>
        <time>2015-08-23T07:35:23Z</time>
      </trkpt>
      <trkpt lat="45.37295" lon="7.04664">
        <ele>1878.9344</ele>
        <time>2015-08-23T07:35:28Z</time>
      </trkpt>
      <trkpt lat="45.37296" lon="7.04661">
        <ele>1878.9344</ele>
        <time>2015-08-23T07:35:38Z</time>
      </trkpt>
      <trkpt lat="45.37297" lon="7.04659">
        <ele>1878.9344</ele>
        <time>2015-08-23T07:35:43Z</time>
      </trkpt>
      <trkpt lat="45.37298" lon="7.04658">
        <ele>1878.9344</ele>
        <time>2015-08-23T07:35:53Z</time>
      </trkpt>
      <trkpt lat="45.37297" lon="7.04658">
        <ele>1878.9344</ele>
        <time>2015-08-23T07:36:13Z</time>
      </trkpt>
      <trkpt lat="45.373" lon="7.04665">
        <ele>1880.0448</ele>
        <time>2015-08-23T07:36:28Z</time>
      </trkpt>
      <trkpt lat="45.37303" lon="7.04671">
        <ele>1880.0448</ele>
        <time>2015-08-23T07:36:33Z</time>
      </trkpt>
      <trkpt lat="45.37304" lon="7.04683">
        <ele>1880.6136</ele>
        <time>2015-08-23T07:36:43Z</time>
      </trkpt>
      <trkpt lat="45.37303" lon="7.04689">
        <ele>1880.6136</ele>
        <time>2015-08-23T07:36:48Z</time>
      </trkpt>
      <trkpt lat="45.37304" lon="7.047">
        <ele>1880.6494</ele>
        <time>2015-08-23T07:36:58Z</time>
      </trkpt>
      <trkpt lat="45.37305" lon="7.04704">
        <ele>1880.6494</ele>
        <time>2015-08-23T07:37:03Z</time>
      </trkpt>
      <trkpt lat="45.37308" lon="7.04714">
        <ele>1880.2999</ele>
        <time>2015-08-23T07:37:13Z</time>
      </trkpt>
      <trkpt lat="45.3731" lon="7.0472">
        <ele>1880.2999</ele>
        <time>2015-08-23T07:37:18Z</time>
      </trkpt>
      <trkpt lat="45.37316" lon="7.04728">
        <ele>1879.879</ele>
        <time>2015-08-23T07:37:28Z</time>
      </trkpt>
      <trkpt lat="45.37319" lon="7.04732">
        <ele>1879.879</ele>
        <time>2015-08-23T07:37:33Z</time>
      </trkpt>
      <trkpt lat="45.37324" lon="7.04737">
        <ele>1879.2664</ele>
        <time>2015-08-23T07:37:43Z</time>
      </trkpt>
      <trkpt lat="45.37326" lon="7.0474">
        <ele>1879.2664</ele>
        <time>2015-08-23T07:37:48Z</time>
      </trkpt>
      <trkpt lat="45.3733" lon="7.04748">
        <ele>1878.5328</ele>
        <time>2015-08-23T07:37:58Z</time>
      </trkpt>
      <trkpt lat="45.37332" lon="7.04754">
        <ele>1878.5328</ele>
        <time>2015-08-23T07:38:03Z</time>
      </trkpt>
      <trkpt lat="45.37336" lon="7.04759">
        <ele>1877.6372</ele>
        <time>2015-08-23T07:38:13Z</time>
      </trkpt>
      <trkpt lat="45.37338" lon="7.04763">
        <ele>1877.6372</ele>
        <time>2015-08-23T07:38:18Z</time>
      </trkpt>
      <trkpt lat="45.37341" lon="7.04767">
        <ele>1877.6372</ele>
        <time>2015-08-23T07:38:28Z</time>
      </trkpt>
      <trkpt lat="45.37343" lon="7.04774">
        <ele>1876.6256</ele>
        <time>2015-08-23T07:38:33Z</time>
      </trkpt>
      <trkpt lat="45.37346" lon="7.04785">
        <ele>1876.6256</ele>
        <time>2015-08-23T07:38:48Z</time>
      </trkpt>
      <trkpt lat="45.37348" lon="7.04788">
        <ele>1875.9054</ele>
        <time>2015-08-23T07:38:53Z</time>
      </trkpt>
      <trkpt lat="45.3735" lon="7.04794">
        <ele>1875.9054</ele>
        <time>2015-08-23T07:39:03Z</time>
      </trkpt>
      <trkpt lat="45.37351" lon="7.04795">
        <ele>1875.9054</ele>
        <time>2015-08-23T07:39:08Z</time>
      </trkpt>
      <trkpt lat="45.37351" lon="7.04806">
        <ele>1875.19</ele>
        <time>2015-08-23T07:39:18Z</time>
      </trkpt>
      <trkpt lat="45.37353" lon="7.04812">
        <ele>1875.19</ele>
        <time>2015-08-23T07:39:23Z</time>
      </trkpt>
      <trkpt lat="45.37357" lon="7.04819">
        <ele>1874.354</ele>
        <time>2015-08-23T07:39:33Z</time>
      </trkpt>
      <trkpt lat="45.37359" lon="7.04822">
        <ele>1874.354</ele>
        <time>2015-08-23T07:39:38Z</time>
      </trkpt>
      <trkpt lat="45.37366" lon="7.04827">
        <ele>1873.672</ele>
        <time>2015-08-23T07:39:48Z</time>
      </trkpt>
      <trkpt lat="45.37367" lon="7.04827">
        <ele>1873.672</ele>
        <time>2015-08-23T07:39:53Z</time>
      </trkpt>
      <trkpt lat="45.37372" lon="7.04828">
        <ele>1873.672</ele>
        <time>2015-08-23T07:40:03Z</time>
      </trkpt>
      <trkpt lat="45.37373" lon="7.04829">
        <ele>1873.672</ele>
        <time>2015-08-23T07:40:08Z</time>
      </trkpt>
      <trkpt lat="45.37378" lon="7.04832">
        <ele>1873.242</ele>
        <time>2015-08-23T07:40:18Z</time>
      </trkpt>
      <trkpt lat="45.37379" lon="7.04832">
        <ele>1873.242</ele>
        <time>2015-08-23T07:40:23Z</time>
      </trkpt>
      <trkpt lat="45.37383" lon="7.04841">
        <ele>1873.242</ele>
        <time>2015-08-23T07:40:38Z</time>
      </trkpt>
      <trkpt lat="45.37383" lon="7.04841">
        <ele>1873.242</ele>
        <time>2015-08-23T07:40:43Z</time>
      </trkpt>
      <trkpt lat="45.37383" lon="7.04841">
        <ele>1873.3336</ele>
        <time>2015-08-23T07:40:58Z</time>
      </trkpt>
      <trkpt lat="45.3738" lon="7.04833">
        <ele>1873.3336</ele>
        <time>2015-08-23T07:41:08Z</time>
      </trkpt>
      <trkpt lat="45.37377" lon="7.04831">
        <ele>1873.3772</ele>
        <time>2015-08-23T07:41:13Z</time>
      </trkpt>
      <trkpt lat="45.37376" lon="7.04824">
        <ele>1873.3772</ele>
        <time>2015-08-23T07:41:23Z</time>
      </trkpt>
      <trkpt lat="45.37376" lon="7.0482">
        <ele>1873.3772</ele>
        <time>2015-08-23T07:41:28Z</time>
      </trkpt>
      <trkpt lat="45.37375" lon="7.04808">
        <ele>1873.2898</ele>
        <time>2015-08-23T07:41:38Z</time>
      </trkpt>
      <trkpt lat="45.37374" lon="7.04801">
        <ele>1873.2898</ele>
        <time>2015-08-23T07:41:43Z</time>
      </trkpt>
      <trkpt lat="45.37373" lon="7.04788">
        <ele>1873.2045</ele>
        <time>2015-08-23T07:41:53Z</time>
      </trkpt>
      <trkpt lat="45.37373" lon="7.04779">
        <ele>1873.2045</ele>
        <time>2015-08-23T07:41:58Z</time>
      </trkpt>
      <trkpt lat="45.37374" lon="7.04767">
        <ele>1873.119</ele>
        <time>2015-08-23T07:42:08Z</time>
      </trkpt>
      <trkpt lat="45.37372" lon="7.04761">
        <ele>1873.119</ele>
        <time>2015-08-23T07:42:13Z</time>
      </trkpt>
      <trkpt lat="45.37368" lon="7.04753">
        <ele>1872.8245</ele>
        <time>2015-08-23T07:42:23Z</time>
      </trkpt>
      <trkpt lat="45.37368" lon="7.04743">
        <ele>1872.8245</ele>
        <time>2015-08-23T07:42:28Z</time>
      </trkpt>
      <trkpt lat="45.37368" lon="7.04732">
        <ele>1872.3228</ele>
        <time>2015-08-23T07:42:38Z</time>
      </trkpt>
      <trkpt lat="45.37367" lon="7.04726">
        <ele>1872.3228</ele>
        <time>2015-08-23T07:42:43Z</time>
      </trkpt>
      <trkpt lat="45.37363" lon="7.04707">
        <ele>1871.5607</ele>
        <time>2015-08-23T07:42:58Z</time>
      </trkpt>
      <trkpt lat="45.37361" lon="7.04697">
        <ele>1871.5607</ele>
        <time>2015-08-23T07:43:03Z</time>
      </trkpt>
      <trkpt lat="45.37358" lon="7.04686">
        <ele>1870.8124</ele>
        <time>2015-08-23T07:43:13Z</time>
      </trkpt>
      <trkpt lat="45.37359" lon="7.04677">
        <ele>1870.8124</ele>
        <time>2015-08-23T07:43:18Z</time>
      </trkpt>
      <trkpt lat="45.37364" lon="7.04666">
        <ele>1870.0424</ele>
        <time>2015-08-23T07:43:28Z</time>
      </trkpt>
      <trkpt lat="45.37365" lon="7.04657">
        <ele>1870.0424</ele>
        <time>2015-08-23T07:43:33Z</time>
      </trkpt>
      <trkpt lat="45.37362" lon="7.04648">
        <ele>1869.4316</ele>
        <time>2015-08-23T07:43:43Z</time>
      </trkpt>
      <trkpt lat="45.37362" lon="7.04641">
        <ele>1869.4316</ele>
        <time>2015-08-23T07:43:48Z</time>
      </trkpt>
      <trkpt lat="45.37361" lon="7.04628">
        <ele>1868.9388</ele>
        <time>2015-08-23T07:43:58Z</time>
      </trkpt>
      <trkpt lat="45.37361" lon="7.04623">
        <ele>1868.9388</ele>
        <time>2015-08-23T07:44:03Z</time>
      </trkpt>
      <trkpt lat="45.3736" lon="7.04607">
        <ele>1868.3674</ele>
        <time>2015-08-23T07:44:13Z</time>
      </trkpt>
      <trkpt lat="45.3736" lon="7.04601">
        <ele>1868.3674</ele>
        <time>2015-08-23T07:44:18Z</time>
      </trkpt>
      <trkpt lat="45.37363" lon="7.04591">
        <ele>1867.8064</ele>
        <time>2015-08-23T07:44:28Z</time>
      </trkpt>
      <trkpt lat="45.37361" lon="7.04586">
        <ele>1867.8064</ele>
        <time>2015-08-23T07:44:33Z</time>
      </trkpt>
      <trkpt lat="45.37361" lon="7.04582">
        <ele>1867.8064</ele>
        <time>2015-08-23T07:44:43Z</time>
      </trkpt>
      <trkpt lat="45.3736" lon="7.04582">
        <ele>1867.8064</ele>
        <time>2015-08-23T07:44:48Z</time>
      </trkpt>
      <trkpt lat="45.37361" lon="7.04581">
        <ele>1867.8064</ele>
        <time>2015-08-23T07:44:58Z</time>
      </trkpt>
      <trkpt lat="45.37363" lon="7.0458">
        <ele>1867.53</ele>
        <time>2015-08-23T07:45:38Z</time>
      </trkpt>
      <trkpt lat="45.37363" lon="7.0458">
        <ele>1867.53</ele>
        <time>2015-08-23T07:45:48Z</time>
      </trkpt>
      <trkpt lat="45.37364" lon="7.04575">
        <ele>1867.53</ele>
        <time>2015-08-23T07:48:23Z</time>
      </trkpt>
      <trkpt lat="45.37363" lon="7.04569">
        <ele>1867.53</ele>
        <time>2015-08-23T07:48:28Z</time>
      </trkpt>
      <trkpt lat="45.37364" lon="7.04554">
        <ele>1867.5479</ele>
        <time>2015-08-23T07:48:38Z</time>
      </trkpt>
      <trkpt lat="45.37366" lon="7.04542">
        <ele>1867.5479</ele>
        <time>2015-08-23T07:48:43Z</time>
      </trkpt>
      <trkpt lat="45.37369" lon="7.04529">
        <ele>1867.6459</ele>
        <time>2015-08-23T07:48:53Z</time>
      </trkpt>
      <trkpt lat="45.37372" lon="7.04523">
        <ele>1867.6459</ele>
        <time>2015-08-23T07:48:58Z</time>
      </trkpt>
      <trkpt lat="45.37375" lon="7.04513">
        <ele>1867.6504</ele>
        <time>2015-08-23T07:49:08Z</time>
      </trkpt>
      <trkpt lat="45.37377" lon="7.0451">
        <ele>1867.6504</ele>
        <time>2015-08-23T07:49:13Z</time>
      </trkpt>
      <trkpt lat="45.37377" lon="7.04499">
        <ele>1867.7404</ele>
        <time>2015-08-23T07:49:23Z</time>
      </trkpt>
      <trkpt lat="45.37376" lon="7.04494">
        <ele>1867.7404</ele>
        <time>2015-08-23T07:49:28Z</time>
      </trkpt>
      <trkpt lat="45.37376" lon="7.04481">
        <ele>1867.9484</ele>
        <time>2015-08-23T07:49:38Z</time>
      </trkpt>
      <trkpt lat="45.37375" lon="7.04473">
        <ele>1867.9484</ele>
        <time>2015-08-23T07:49:43Z</time>
      </trkpt>
      <trkpt lat="45.37372" lon="7.04453">
        <ele>1868.3636</ele>
        <time>2015-08-23T07:49:58Z</time>
      </trkpt>
      <trkpt lat="45.37371" lon="7.0445">
        <ele>1868.3636</ele>
        <time>2015-08-23T07:50:03Z</time>
      </trkpt>
      <trkpt lat="45.37369" lon="7.04438">
        <ele>1868.5262</ele>
        <time>2015-08-23T07:50:13Z</time>
      </trkpt>
      <trkpt lat="45.37368" lon="7.0443">
        <ele>1868.5262</ele>
        <time>2015-08-23T07:50:18Z</time>
      </trkpt>
      <trkpt lat="45.37365" lon="7.04419">
        <ele>1868.762</ele>
        <time>2015-08-23T07:50:28Z</time>
      </trkpt>
      <trkpt lat="45.37361" lon="7.04412">
        <ele>1868.762</ele>
        <time>2015-08-23T07:50:33Z</time>
      </trkpt>
      <trkpt lat="45.37358" lon="7.04399">
        <ele>1869.1162</ele>
        <time>2015-08-23T07:50:43Z</time>
      </trkpt>
      <trkpt lat="45.37357" lon="7.04395">
        <ele>1869.1162</ele>
        <time>2015-08-23T07:50:48Z</time>
      </trkpt>
      <trkpt lat="45.37354" lon="7.04381">
        <ele>1869.5244</ele>
        <time>2015-08-23T07:50:58Z</time>
      </trkpt>
      <trkpt lat="45.37354" lon="7.04376">
        <ele>1869.5244</ele>
        <time>2015-08-23T07:51:03Z</time>
      </trkpt>
      <trkpt lat="45.37352" lon="7.04364">
        <ele>1870.0016</ele>
        <time>2015-08-23T07:51:13Z</time>
      </trkpt>
      <trkpt lat="45.37351" lon="7.04358">
        <ele>1870.0016</ele>
        <time>2015-08-23T07:51:18Z</time>
      </trkpt>
      <trkpt lat="45.37348" lon="7.04338">
        <ele>1870.5309</ele>
        <time>2015-08-23T07:51:33Z</time>
      </trkpt>
      <trkpt lat="45.37347" lon="7.04331">
        <ele>1870.5309</ele>
        <time>2015-08-23T07:51:38Z</time>
      </trkpt>
      <trkpt lat="45.37346" lon="7.04318">
        <ele>1871.096</ele>
        <time>2015-08-23T07:51:48Z</time>
      </trkpt>
      <trkpt lat="45.37345" lon="7.04313">
        <ele>1871.096</ele>
        <time>2015-08-23T07:51:53Z</time>
      </trkpt>
      <trkpt lat="45.37342" lon="7.04299">
        <ele>1871.6666</ele>
        <time>2015-08-23T07:52:03Z</time>
      </trkpt>
      <trkpt lat="45.37341" lon="7.04292">
        <ele>1871.6666</ele>
        <time>2015-08-23T07:52:08Z</time>
      </trkpt>
      <trkpt lat="45.37339" lon="7.0428">
        <ele>1872.29</ele>
        <time>2015-08-23T07:52:18Z</time>
      </trkpt>
      <trkpt lat="45.37339" lon="7.04274">
        <ele>1872.29</ele>
        <time>2015-08-23T07:52:23Z</time>
      </trkpt>
      <trkpt lat="45.37337" lon="7.04262">
        <ele>1873.0391</ele>
        <time>2015-08-23T07:52:33Z</time>
      </trkpt>
      <trkpt lat="45.37334" lon="7.04258">
        <ele>1873.0391</ele>
        <time>2015-08-23T07:52:38Z</time>
      </trkpt>
      <trkpt lat="45.37332" lon="7.04244">
        <ele>1873.8151</ele>
        <time>2015-08-23T07:52:48Z</time>
      </trkpt>
      <trkpt lat="45.37332" lon="7.04238">
        <ele>1873.8151</ele>
        <time>2015-08-23T07:52:53Z</time>
      </trkpt>
      <trkpt lat="45.37328" lon="7.04226">
        <ele>1874.5728</ele>
        <time>2015-08-23T07:53:03Z</time>
      </trkpt>
      <trkpt lat="45.37326" lon="7.04221">
        <ele>1874.5728</ele>
        <time>2015-08-23T07:53:08Z</time>
      </trkpt>
      <trkpt lat="45.37322" lon="7.04209">
        <ele>1875.4785</ele>
        <time>2015-08-23T07:53:18Z</time>
      </trkpt>
      <trkpt lat="45.3732" lon="7.04204">
        <ele>1875.4785</ele>
        <time>2015-08-23T07:53:23Z</time>
      </trkpt>
      <trkpt lat="45.3732" lon="7.04189">
        <ele>1876.4619</ele>
        <time>2015-08-23T07:53:33Z</time>
      </trkpt>
      <trkpt lat="45.37318" lon="7.04184">
        <ele>1876.4619</ele>
        <time>2015-08-23T07:53:38Z</time>
      </trkpt>
      <trkpt lat="45.37315" lon="7.04182">
        <ele>1876.4619</ele>
        <time>2015-08-23T07:53:48Z</time>
      </trkpt>
      <trkpt lat="45.37313" lon="7.04179">
        <ele>1877.6505</ele>
        <time>2015-08-23T07:53:53Z</time>
      </trkpt>
      <trkpt lat="45.37307" lon="7.04159">
        <ele>1878.9093</ele>
        <time>2015-08-23T07:54:08Z</time>
      </trkpt>
      <trkpt lat="45.37306" lon="7.04153">
        <ele>1878.9093</ele>
        <time>2015-08-23T07:54:13Z</time>
      </trkpt>
      <trkpt lat="45.37304" lon="7.04145">
        <ele>1880.188</ele>
        <time>2015-08-23T07:54:23Z</time>
      </trkpt>
      <trkpt lat="45.37302" lon="7.04139">
        <ele>1880.188</ele>
        <time>2015-08-23T07:54:28Z</time>
      </trkpt>
      <trkpt lat="45.37301" lon="7.04127">
        <ele>1881.3522</ele>
        <time>2015-08-23T07:54:38Z</time>
      </trkpt>
      <trkpt lat="45.37299" lon="7.0412">
        <ele>1881.3522</ele>
        <time>2015-08-23T07:54:43Z</time>
      </trkpt>
      <trkpt lat="45.37297" lon="7.04106">
        <ele>1882.4111</ele>
        <time>2015-08-23T07:54:53Z</time>
      </trkpt>
      <trkpt lat="45.37296" lon="7.04099">
        <ele>1882.4111</ele>
        <time>2015-08-23T07:54:58Z</time>
      </trkpt>
      <trkpt lat="45.37291" lon="7.04089">
        <ele>1883.5198</ele>
        <time>2015-08-23T07:55:08Z</time>
      </trkpt>
      <trkpt lat="45.3729" lon="7.04083">
        <ele>1883.5198</ele>
        <time>2015-08-23T07:55:13Z</time>
      </trkpt>
      <trkpt lat="45.3729" lon="7.04071">
        <ele>1884.7471</ele>
        <time>2015-08-23T07:55:23Z</time>
      </trkpt>
      <trkpt lat="45.37288" lon="7.04066">
        <ele>1884.7471</ele>
        <time>2015-08-23T07:55:28Z</time>
      </trkpt>
      <trkpt lat="45.37288" lon="7.04052">
        <ele>1885.9667</ele>
        <time>2015-08-23T07:55:38Z</time>
      </trkpt>
      <trkpt lat="45.37287" lon="7.04048">
        <ele>1885.9667</ele>
        <time>2015-08-23T07:55:43Z</time>
      </trkpt>
      <trkpt lat="45.37282" lon="7.04037">
        <ele>1887.2659</ele>
        <time>2015-08-23T07:55:53Z</time>
      </trkpt>
      <trkpt lat="45.37283" lon="7.04029">
        <ele>1887.2659</ele>
        <time>2015-08-23T07:55:58Z</time>
      </trkpt>
      <trkpt lat="45.37278" lon="7.0402">
        <ele>1888.6232</ele>
        <time>2015-08-23T07:56:08Z</time>
      </trkpt>
      <trkpt lat="45.37276" lon="7.04015">
        <ele>1888.6232</ele>
        <time>2015-08-23T07:56:13Z</time>
      </trkpt>
      <trkpt lat="45.37274" lon="7.03994">
        <ele>1890.0188</ele>
        <time>2015-08-23T07:56:28Z</time>
      </trkpt>
      <trkpt lat="45.3727" lon="7.03989">
        <ele>1890.0188</ele>
        <time>2015-08-23T07:56:33Z</time>
      </trkpt>
      <trkpt lat="45.37265" lon="7.0398">
        <ele>1891.3759</ele>
        <time>2015-08-23T07:56:43Z</time>
      </trkpt>
      <trkpt lat="45.37263" lon="7.03972">
        <ele>1891.3759</ele>
        <time>2015-08-23T07:56:48Z</time>
      </trkpt>
      <trkpt lat="45.37261" lon="7.03961">
        <ele>1892.7399</ele>
        <time>2015-08-23T07:56:58Z</time>
      </trkpt>
      <trkpt lat="45.37262" lon="7.03957">
        <ele>1892.7399</ele>
        <time>2015-08-23T07:57:03Z</time>
      </trkpt>
      <trkpt lat="45.37259" lon="7.03944">
        <ele>1893.9934</ele>
        <time>2015-08-23T07:57:13Z</time>
      </trkpt>
      <trkpt lat="45.37258" lon="7.0394">
        <ele>1893.9934</ele>
        <time>2015-08-23T07:57:18Z</time>
      </trkpt>
      <trkpt lat="45.37254" lon="7.03927">
        <ele>1895.2595</ele>
        <time>2015-08-23T07:57:28Z</time>
      </trkpt>
      <trkpt lat="45.37254" lon="7.03922">
        <ele>1895.2595</ele>
        <time>2015-08-23T07:57:33Z</time>
      </trkpt>
      <trkpt lat="45.3725" lon="7.0391">
        <ele>1896.5364</ele>
        <time>2015-08-23T07:57:43Z</time>
      </trkpt>
      <trkpt lat="45.37248" lon="7.03905">
        <ele>1896.5364</ele>
        <time>2015-08-23T07:57:48Z</time>
      </trkpt>
      <trkpt lat="45.37247" lon="7.03899">
        <ele>1896.5364</ele>
        <time>2015-08-23T07:57:58Z</time>
      </trkpt>
      <trkpt lat="45.37245" lon="7.0389">
        <ele>1897.7932</ele>
        <time>2015-08-23T07:58:13Z</time>
      </trkpt>
      <trkpt lat="45.37246" lon="7.03886">
        <ele>1897.7932</ele>
        <time>2015-08-23T07:58:18Z</time>
      </trkpt>
      <trkpt lat="45.37238" lon="7.03868">
        <ele>1899.2036</ele>
        <time>2015-08-23T07:58:33Z</time>
      </trkpt>
      <trkpt lat="45.37236" lon="7.03863">
        <ele>1899.2036</ele>
        <time>2015-08-23T07:58:38Z</time>
      </trkpt>
      <trkpt lat="45.37229" lon="7.03858">
        <ele>1900.6537</ele>
        <time>2015-08-23T07:58:48Z</time>
      </trkpt>
      <trkpt lat="45.37226" lon="7.03853">
        <ele>1900.6537</ele>
        <time>2015-08-23T07:58:53Z</time>
      </trkpt>
      <trkpt lat="45.3722" lon="7.03843">
        <ele>1902.1823</ele>
        <time>2015-08-23T07:59:03Z</time>
      </trkpt>
      <trkpt lat="45.37219" lon="7.03836">
        <ele>1902.1823</ele>
        <time>2015-08-23T07:59:08Z</time>
      </trkpt>
      <trkpt lat="45.37218" lon="7.03822">
        <ele>1903.7383</ele>
        <time>2015-08-23T07:59:18Z</time>
      </trkpt>
      <trkpt lat="45.37218" lon="7.03815">
        <ele>1903.7383</ele>
        <time>2015-08-23T07:59:23Z</time>
      </trkpt>
      <trkpt lat="45.37215" lon="7.03815">
        <ele>1903.7383</ele>
        <time>2015-08-23T07:59:33Z</time>
      </trkpt>
      <trkpt lat="45.37215" lon="7.03814">
        <ele>1905.3179</ele>
        <time>2015-08-23T07:59:38Z</time>
      </trkpt>
      <trkpt lat="45.37219" lon="7.03812">
        <ele>1905.3179</ele>
        <time>2015-08-23T07:59:48Z</time>
      </trkpt>
      <trkpt lat="45.37219" lon="7.03812">
        <ele>1905.3179</ele>
        <time>2015-08-23T07:59:53Z</time>
      </trkpt>
      <trkpt lat="45.37218" lon="7.03812">
        <ele>1905.3179</ele>
        <time>2015-08-23T08:01:03Z</time>
      </trkpt>
      <trkpt lat="45.37217" lon="7.03807">
        <ele>1905.3179</ele>
        <time>2015-08-23T08:01:08Z</time>
      </trkpt>
      <trkpt lat="45.37217" lon="7.03794">
        <ele>1907.1191</ele>
        <time>2015-08-23T08:01:18Z</time>
      </trkpt>
      <trkpt lat="45.37215" lon="7.03788">
        <ele>1907.1191</ele>
        <time>2015-08-23T08:01:23Z</time>
      </trkpt>
      <trkpt lat="45.37211" lon="7.03771">
        <ele>1908.806</ele>
        <time>2015-08-23T08:01:38Z</time>
      </trkpt>
      <trkpt lat="45.3721" lon="7.03766">
        <ele>1908.806</ele>
        <time>2015-08-23T08:01:43Z</time>
      </trkpt>
      <trkpt lat="45.37207" lon="7.03755">
        <ele>1910.3558</ele>
        <time>2015-08-23T08:01:53Z</time>
      </trkpt>
      <trkpt lat="45.37206" lon="7.03748">
        <ele>1910.3558</ele>
        <time>2015-08-23T08:01:58Z</time>
      </trkpt>
      <trkpt lat="45.37203" lon="7.03737">
        <ele>1911.7766</ele>
        <time>2015-08-23T08:02:08Z</time>
      </trkpt>
      <trkpt lat="45.37201" lon="7.03732">
        <ele>1911.7766</ele>
        <time>2015-08-23T08:02:13Z</time>
      </trkpt>
      <trkpt lat="45.372" lon="7.03721">
        <ele>1913.2208</ele>
        <time>2015-08-23T08:02:23Z</time>
      </trkpt>
      <trkpt lat="45.37202" lon="7.03714">
        <ele>1913.2208</ele>
        <time>2015-08-23T08:02:28Z</time>
      </trkpt>
      <trkpt lat="45.37204" lon="7.03702">
        <ele>1914.6849</ele>
        <time>2015-08-23T08:02:38Z</time>
      </trkpt>
      <trkpt lat="45.37204" lon="7.03695">
        <ele>1914.6849</ele>
        <time>2015-08-23T08:02:43Z</time>
      </trkpt>
      <trkpt lat="45.37204" lon="7.03683">
        <ele>1916.1373</ele>
        <time>2015-08-23T08:02:53Z</time>
      </trkpt>
      <trkpt lat="45.37203" lon="7.03677">
        <ele>1916.1373</ele>
        <time>2015-08-23T08:02:58Z</time>
      </trkpt>
      <trkpt lat="45.37198" lon="7.03669">
        <ele>1917.4619</ele>
        <time>2015-08-23T08:03:08Z</time>
      </trkpt>
      <trkpt lat="45.37198" lon="7.03663">
        <ele>1917.4619</ele>
        <time>2015-08-23T08:03:13Z</time>
      </trkpt>
      <trkpt lat="45.37199" lon="7.03647">
        <ele>1918.6237</ele>
        <time>2015-08-23T08:03:23Z</time>
      </trkpt>
      <trkpt lat="45.37198" lon="7.03642">
        <ele>1918.6237</ele>
        <time>2015-08-23T08:03:28Z</time>
      </trkpt>
      <trkpt lat="45.37196" lon="7.03631">
        <ele>1919.7206</ele>
        <time>2015-08-23T08:03:38Z</time>
      </trkpt>
      <trkpt lat="45.37195" lon="7.03626">
        <ele>1919.7206</ele>
        <time>2015-08-23T08:03:43Z</time>
      </trkpt>
      <trkpt lat="45.37193" lon="7.03613">
        <ele>1920.8003</ele>
        <time>2015-08-23T08:03:53Z</time>
      </trkpt>
      <trkpt lat="45.37192" lon="7.03607">
        <ele>1920.8003</ele>
        <time>2015-08-23T08:03:58Z</time>
      </trkpt>
      <trkpt lat="45.37188" lon="7.0359">
        <ele>1921.9937</ele>
        <time>2015-08-23T08:04:13Z</time>
      </trkpt>
      <trkpt lat="45.37187" lon="7.03585">
        <ele>1921.9937</ele>
        <time>2015-08-23T08:04:18Z</time>
      </trkpt>
      <trkpt lat="45.37187" lon="7.03571">
        <ele>1923.133</ele>
        <time>2015-08-23T08:04:28Z</time>
      </trkpt>
      <trkpt lat="45.37186" lon="7.03562">
        <ele>1923.133</ele>
        <time>2015-08-23T08:04:33Z</time>
      </trkpt>
      <trkpt lat="45.37184" lon="7.03555">
        <ele>1924.2798</ele>
        <time>2015-08-23T08:04:43Z</time>
      </trkpt>
      <trkpt lat="45.37185" lon="7.03549">
        <ele>1924.2798</ele>
        <time>2015-08-23T08:04:48Z</time>
      </trkpt>
      <trkpt lat="45.37183" lon="7.0354">
        <ele>1925.404</ele>
        <time>2015-08-23T08:04:58Z</time>
      </trkpt>
      <trkpt lat="45.37183" lon="7.03533">
        <ele>1925.404</ele>
        <time>2015-08-23T08:05:03Z</time>
      </trkpt>
      <trkpt lat="45.37178" lon="7.0352">
        <ele>1926.4929</ele>
        <time>2015-08-23T08:05:13Z</time>
      </trkpt>
      <trkpt lat="45.37175" lon="7.03515">
        <ele>1926.4929</ele>
        <time>2015-08-23T08:05:18Z</time>
      </trkpt>
      <trkpt lat="45.37172" lon="7.03505">
        <ele>1927.6786</ele>
        <time>2015-08-23T08:05:28Z</time>
      </trkpt>
      <trkpt lat="45.3717" lon="7.03502">
        <ele>1927.6786</ele>
        <time>2015-08-23T08:05:33Z</time>
      </trkpt>
      <trkpt lat="45.37167" lon="7.03491">
        <ele>1928.8959</ele>
        <time>2015-08-23T08:05:43Z</time>
      </trkpt>
      <trkpt lat="45.37162" lon="7.03486">
        <ele>1928.8959</ele>
        <time>2015-08-23T08:05:48Z</time>
      </trkpt>
      <trkpt lat="45.37156" lon="7.03478">
        <ele>1930.0844</ele>
        <time>2015-08-23T08:05:58Z</time>
      </trkpt>
      <trkpt lat="45.37152" lon="7.03474">
        <ele>1930.0844</ele>
        <time>2015-08-23T08:06:03Z</time>
      </trkpt>
      <trkpt lat="45.3715" lon="7.03476">
        <ele>1930.0844</ele>
        <time>2015-08-23T08:06:13Z</time>
      </trkpt>
      <trkpt lat="45.37152" lon="7.03476">
        <ele>1930.0844</ele>
        <time>2015-08-23T08:06:18Z</time>
      </trkpt>
      <trkpt lat="45.3715" lon="7.03476">
        <ele>1931.5343</ele>
        <time>2015-08-23T08:06:28Z</time>
      </trkpt>
      <trkpt lat="45.37151" lon="7.03475">
        <ele>1931.5343</ele>
        <time>2015-08-23T08:06:33Z</time>
      </trkpt>
      <trkpt lat="45.37153" lon="7.03473">
        <ele>1931.5343</ele>
        <time>2015-08-23T08:06:43Z</time>
      </trkpt>
      <trkpt lat="45.37152" lon="7.03473">
        <ele>1931.5343</ele>
        <time>2015-08-23T08:06:48Z</time>
      </trkpt>
      <trkpt lat="45.37151" lon="7.03472">
        <ele>1931.5343</ele>
        <time>2015-08-23T08:06:58Z</time>
      </trkpt>
      <trkpt lat="45.3715" lon="7.03472">
        <ele>1931.5343</ele>
        <time>2015-08-23T08:07:03Z</time>
      </trkpt>
      <trkpt lat="45.37143" lon="7.0346">
        <ele>1933.2397</ele>
        <time>2015-08-23T08:07:18Z</time>
      </trkpt>
      <trkpt lat="45.37141" lon="7.03456">
        <ele>1933.2397</ele>
        <time>2015-08-23T08:07:23Z</time>
      </trkpt>
      <trkpt lat="45.37132" lon="7.03444">
        <ele>1934.8341</ele>
        <time>2015-08-23T08:07:33Z</time>
      </trkpt>
      <trkpt lat="45.37131" lon="7.0344">
        <ele>1934.8341</ele>
        <time>2015-08-23T08:07:38Z</time>
      </trkpt>
      <trkpt lat="45.37127" lon="7.03433">
        <ele>1936.2953</ele>
        <time>2015-08-23T08:07:48Z</time>
      </trkpt>
      <trkpt lat="45.37123" lon="7.03427">
        <ele>1936.2953</ele>
        <time>2015-08-23T08:07:53Z</time>
      </trkpt>
      <trkpt lat="45.37117" lon="7.03416">
        <ele>1937.661</ele>
        <time>2015-08-23T08:08:03Z</time>
      </trkpt>
      <trkpt lat="45.37116" lon="7.03412">
        <ele>1937.661</ele>
        <time>2015-08-23T08:08:08Z</time>
      </trkpt>
      <trkpt lat="45.3711" lon="7.03402">
        <ele>1938.9808</ele>
        <time>2015-08-23T08:08:18Z</time>
      </trkpt>
      <trkpt lat="45.37107" lon="7.03397">
        <ele>1938.9808</ele>
        <time>2015-08-23T08:08:23Z</time>
      </trkpt>
      <trkpt lat="45.37107" lon="7.03398">
        <ele>1938.9808</ele>
        <time>2015-08-23T08:08:33Z</time>
      </trkpt>
      <trkpt lat="45.37106" lon="7.034">
        <ele>1938.9808</ele>
        <time>2015-08-23T08:08:38Z</time>
      </trkpt>
      <trkpt lat="45.37106" lon="7.034">
        <ele>1938.9808</ele>
        <time>2015-08-23T08:08:48Z</time>
      </trkpt>
      <trkpt lat="45.37106" lon="7.03398">
        <ele>1938.9808</ele>
        <time>2015-08-23T08:08:53Z</time>
      </trkpt>
      <trkpt lat="45.37102" lon="7.03384">
        <ele>1940.3729</ele>
        <time>2015-08-23T08:09:03Z</time>
      </trkpt>
      <trkpt lat="45.37102" lon="7.03378">
        <ele>1940.3729</ele>
        <time>2015-08-23T08:09:08Z</time>
      </trkpt>
      <trkpt lat="45.37097" lon="7.03366">
        <ele>1941.615</ele>
        <time>2015-08-23T08:09:18Z</time>
      </trkpt>
      <trkpt lat="45.37095" lon="7.03361">
        <ele>1941.615</ele>
        <time>2015-08-23T08:09:23Z</time>
      </trkpt>
      <trkpt lat="45.37088" lon="7.03344">
        <ele>1942.6747</ele>
        <time>2015-08-23T08:09:38Z</time>
      </trkpt>
      <trkpt lat="45.37086" lon="7.03339">
        <ele>1942.6747</ele>
        <time>2015-08-23T08:09:43Z</time>
      </trkpt>
      <trkpt lat="45.37084" lon="7.03327">
        <ele>1943.6665</ele>
        <time>2015-08-23T08:09:53Z</time>
      </trkpt>
      <trkpt lat="45.37084" lon="7.03322">
        <ele>1943.6665</ele>
        <time>2015-08-23T08:09:58Z</time>
      </trkpt>
      <trkpt lat="45.3708" lon="7.03309">
        <ele>1944.697</ele>
        <time>2015-08-23T08:10:08Z</time>
      </trkpt>
      <trkpt lat="45.37077" lon="7.03303">
        <ele>1944.697</ele>
        <time>2015-08-23T08:10:13Z</time>
      </trkpt>
      <trkpt lat="45.3707" lon="7.03296">
        <ele>1945.6771</ele>
        <time>2015-08-23T08:10:23Z</time>
      </trkpt>
      <trkpt lat="45.37067" lon="7.03293">
        <ele>1945.6771</ele>
        <time>2015-08-23T08:10:28Z</time>
      </trkpt>
      <trkpt lat="45.37061" lon="7.03284">
        <ele>1946.7986</ele>
        <time>2015-08-23T08:10:38Z</time>
      </trkpt>
      <trkpt lat="45.37057" lon="7.03281">
        <ele>1946.7986</ele>
        <time>2015-08-23T08:10:43Z</time>
      </trkpt>
      <trkpt lat="45.37055" lon="7.0328">
        <ele>1946.7986</ele>
        <time>2015-08-23T08:10:53Z</time>
      </trkpt>
      <trkpt lat="45.37055" lon="7.03281">
        <ele>1946.7986</ele>
        <time>2015-08-23T08:10:58Z</time>
      </trkpt>
      <trkpt lat="45.37056" lon="7.03283">
        <ele>1947.7775</ele>
        <time>2015-08-23T08:11:08Z</time>
      </trkpt>
      <trkpt lat="45.37052" lon="7.03278">
        <ele>1947.7775</ele>
        <time>2015-08-23T08:11:53Z</time>
      </trkpt>
      <trkpt lat="45.37049" lon="7.03274">
        <ele>1948.812</ele>
        <time>2015-08-23T08:11:58Z</time>
      </trkpt>
      <trkpt lat="45.37037" lon="7.03262">
        <ele>1949.942</ele>
        <time>2015-08-23T08:12:13Z</time>
      </trkpt>
      <trkpt lat="45.37033" lon="7.03258">
        <ele>1949.942</ele>
        <time>2015-08-23T08:12:18Z</time>
      </trkpt>
      <trkpt lat="45.37025" lon="7.0325">
        <ele>1950.9443</ele>
        <time>2015-08-23T08:12:28Z</time>
      </trkpt>
      <trkpt lat="45.37021" lon="7.03245">
        <ele>1950.9443</ele>
        <time>2015-08-23T08:12:33Z</time>
      </trkpt>
      <trkpt lat="45.37013" lon="7.03237">
        <ele>1951.9155</ele>
        <time>2015-08-23T08:12:43Z</time>
      </trkpt>
      <trkpt lat="45.3701" lon="7.03234">
        <ele>1951.9155</ele>
        <time>2015-08-23T08:12:48Z</time>
      </trkpt>
      <trkpt lat="45.37003" lon="7.03224">
        <ele>1952.8441</ele>
        <time>2015-08-23T08:12:58Z</time>
      </trkpt>
      <trkpt lat="45.37" lon="7.03219">
        <ele>1952.8441</ele>
        <time>2015-08-23T08:13:03Z</time>
      </trkpt>
      <trkpt lat="45.36991" lon="7.03207">
        <ele>1953.4602</ele>
        <time>2015-08-23T08:13:13Z</time>
      </trkpt>
      <trkpt lat="45.36987" lon="7.03203">
        <ele>1953.4602</ele>
        <time>2015-08-23T08:13:18Z</time>
      </trkpt>
      <trkpt lat="45.36982" lon="7.03196">
        <ele>1954.0045</ele>
        <time>2015-08-23T08:13:28Z</time>
      </trkpt>
      <trkpt lat="45.36981" lon="7.03193">
        <ele>1954.0045</ele>
        <time>2015-08-23T08:13:33Z</time>
      </trkpt>
      <trkpt lat="45.36973" lon="7.03182">
        <ele>1954.4844</ele>
        <time>2015-08-23T08:13:43Z</time>
      </trkpt>
      <trkpt lat="45.36971" lon="7.03177">
        <ele>1954.4844</ele>
        <time>2015-08-23T08:13:48Z</time>
      </trkpt>
      <trkpt lat="45.36963" lon="7.03157">
        <ele>1954.373</ele>
        <time>2015-08-23T08:14:03Z</time>
      </trkpt>
      <trkpt lat="45.36962" lon="7.03151">
        <ele>1954.373</ele>
        <time>2015-08-23T08:14:08Z</time>
      </trkpt>
      <trkpt lat="45.36959" lon="7.03143">
        <ele>1954.2367</ele>
        <time>2015-08-23T08:14:18Z</time>
      </trkpt>
      <trkpt lat="45.3696" lon="7.03143">
        <ele>1954.2367</ele>
        <time>2015-08-23T08:14:23Z</time>
      </trkpt>
      <trkpt lat="45.36963" lon="7.03144">
        <ele>1954.2367</ele>
        <time>2015-08-23T08:14:33Z</time>
      </trkpt>
      <trkpt lat="45.36964" lon="7.03145">
        <ele>1954.2367</ele>
        <time>2015-08-23T08:14:38Z</time>
      </trkpt>
      <trkpt lat="45.36974" lon="7.03152">
        <ele>1954.859</ele>
        <time>2015-08-23T08:14:48Z</time>
      </trkpt>
      <trkpt lat="45.36977" lon="7.03155">
        <ele>1954.859</ele>
        <time>2015-08-23T08:14:53Z</time>
      </trkpt>
      <trkpt lat="45.36983" lon="7.0317">
        <ele>1955.9552</ele>
        <time>2015-08-23T08:15:03Z</time>
      </trkpt>
      <trkpt lat="45.36986" lon="7.03175">
        <ele>1955.9552</ele>
        <time>2015-08-23T08:15:08Z</time>
      </trkpt>
      <trkpt lat="45.36997" lon="7.03185">
        <ele>1957.5195</ele>
        <time>2015-08-23T08:15:23Z</time>
      </trkpt>
      <trkpt lat="45.37" lon="7.03189">
        <ele>1957.5195</ele>
        <time>2015-08-23T08:15:28Z</time>
      </trkpt>
      <trkpt lat="45.37007" lon="7.03196">
        <ele>1959.1707</ele>
        <time>2015-08-23T08:15:38Z</time>
      </trkpt>
      <trkpt lat="45.37006" lon="7.03198">
        <ele>1959.1707</ele>
        <time>2015-08-23T08:15:43Z</time>
      </trkpt>
      <trkpt lat="45.37005" lon="7.03201">
        <ele>1959.1707</ele>
        <time>2015-08-23T08:15:53Z</time>
      </trkpt>
      <trkpt lat="45.37007" lon="7.03204">
        <ele>1959.1707</ele>
        <time>2015-08-23T08:15:58Z</time>
      </trkpt>
      <trkpt lat="45.37013" lon="7.03211">
        <ele>1960.987</ele>
        <time>2015-08-23T08:16:08Z</time>
      </trkpt>
      <trkpt lat="45.37018" lon="7.03212">
        <ele>1960.987</ele>
        <time>2015-08-23T08:16:13Z</time>
      </trkpt>
      <trkpt lat="45.37026" lon="7.03216">
        <ele>1962.7675</ele>
        <time>2015-08-23T08:16:23Z</time>
      </trkpt>
      <trkpt lat="45.37029" lon="7.03218">
        <ele>1962.7675</ele>
        <time>2015-08-23T08:16:28Z</time>
      </trkpt>
      <trkpt lat="45.37039" lon="7.0322">
        <ele>1964.4263</ele>
        <time>2015-08-23T08:16:38Z</time>
      </trkpt>
      <trkpt lat="45.37044" lon="7.03222">
        <ele>1964.4263</ele>
        <time>2015-08-23T08:16:43Z</time>
      </trkpt>
      <trkpt lat="45.37052" lon="7.03223">
        <ele>1966.1005</ele>
        <time>2015-08-23T08:16:53Z</time>
      </trkpt>
      <trkpt lat="45.37057" lon="7.03223">
        <ele>1966.1005</ele>
        <time>2015-08-23T08:16:58Z</time>
      </trkpt>
      <trkpt lat="45.37068" lon="7.03225">
        <ele>1967.7876</ele>
        <time>2015-08-23T08:17:08Z</time>
      </trkpt>
      <trkpt lat="45.37071" lon="7.03226">
        <ele>1967.7876</ele>
        <time>2015-08-23T08:17:13Z</time>
      </trkpt>
      <trkpt lat="45.37081" lon="7.03232">
        <ele>1969.6149</ele>
        <time>2015-08-23T08:17:23Z</time>
      </trkpt>
      <trkpt lat="45.37085" lon="7.03233">
        <ele>1969.6149</ele>
        <time>2015-08-23T08:17:28Z</time>
      </trkpt>
      <trkpt lat="45.37095" lon="7.03239">
        <ele>1971.4978</ele>
        <time>2015-08-23T08:17:43Z</time>
      </trkpt>
      <trkpt lat="45.371" lon="7.03242">
        <ele>1971.4978</ele>
        <time>2015-08-23T08:17:48Z</time>
      </trkpt>
      <trkpt lat="45.37108" lon="7.03249">
        <ele>1973.3293</ele>
        <time>2015-08-23T08:17:58Z</time>
      </trkpt>
      <trkpt lat="45.37113" lon="7.03254">
        <ele>1973.3293</ele>
        <time>2015-08-23T08:18:03Z</time>
      </trkpt>
      <trkpt lat="45.37119" lon="7.03263">
        <ele>1975.2268</ele>
        <time>2015-08-23T08:18:13Z</time>
      </trkpt>
      <trkpt lat="45.37121" lon="7.03262">
        <ele>1975.2268</ele>
        <time>2015-08-23T08:18:18Z</time>
      </trkpt>
      <trkpt lat="45.37123" lon="7.0326">
        <ele>1975.2268</ele>
        <time>2015-08-23T08:18:28Z</time>
      </trkpt>
      <trkpt lat="45.37124" lon="7.03259">
        <ele>1975.2268</ele>
        <time>2015-08-23T08:18:33Z</time>
      </trkpt>
      <trkpt lat="45.37127" lon="7.03258">
        <ele>1975.2268</ele>
        <time>2015-08-23T08:18:43Z</time>
      </trkpt>
      <trkpt lat="45.37127" lon="7.03258">
        <ele>1977.1975</ele>
        <time>2015-08-23T08:18:48Z</time>
      </trkpt>
      <trkpt lat="45.37127" lon="7.03263">
        <ele>1977.1975</ele>
        <time>2015-08-23T08:18:58Z</time>
      </trkpt>
      <trkpt lat="45.37127" lon="7.03263">
        <ele>1977.1975</ele>
        <time>2015-08-23T08:19:03Z</time>
      </trkpt>
      <trkpt lat="45.37124" lon="7.03262">
        <ele>1977.1975</ele>
        <time>2015-08-23T08:19:13Z</time>
      </trkpt>
      <trkpt lat="45.37123" lon="7.03259">
        <ele>1977.1975</ele>
        <time>2015-08-23T08:19:18Z</time>
      </trkpt>
      <trkpt lat="45.37122" lon="7.03255">
        <ele>1978.9744</ele>
        <time>2015-08-23T08:19:28Z</time>
      </trkpt>
      <trkpt lat="45.37122" lon="7.03255">
        <ele>1978.9744</ele>
        <time>2015-08-23T08:19:33Z</time>
      </trkpt>
      <trkpt lat="45.37124" lon="7.03255">
        <ele>1978.9744</ele>
        <time>2015-08-23T08:19:43Z</time>
      </trkpt>
      <trkpt lat="45.37124" lon="7.03255">
        <ele>1978.9744</ele>
        <time>2015-08-23T08:19:48Z</time>
      </trkpt>
      <trkpt lat="45.37128" lon="7.03258">
        <ele>1978.9744</ele>
        <time>2015-08-23T08:20:03Z</time>
      </trkpt>
      <trkpt lat="45.37129" lon="7.03257">
        <ele>1978.9744</ele>
        <time>2015-08-23T08:20:08Z</time>
      </trkpt>
      <trkpt lat="45.3713" lon="7.03255">
        <ele>1980.5125</ele>
        <time>2015-08-23T08:20:18Z</time>
      </trkpt>
      <trkpt lat="45.3713" lon="7.03255">
        <ele>1980.5125</ele>
        <time>2015-08-23T08:20:23Z</time>
      </trkpt>
      <trkpt lat="45.37129" lon="7.03257">
        <ele>1980.5125</ele>
        <time>2015-08-23T08:20:33Z</time>
      </trkpt>
      <trkpt lat="45.37128" lon="7.03257">
        <ele>1980.5125</ele>
        <time>2015-08-23T08:20:38Z</time>
      </trkpt>
      <trkpt lat="45.37126" lon="7.03255">
        <ele>1980.5125</ele>
        <time>2015-08-23T08:20:48Z</time>
      </trkpt>
      <trkpt lat="45.37126" lon="7.03254">
        <ele>1980.5125</ele>
        <time>2015-08-23T08:20:53Z</time>
      </trkpt>
      <trkpt lat="45.37127" lon="7.03256">
        <ele>1980.5125</ele>
        <time>2015-08-23T08:21:03Z</time>
      </trkpt>
      <trkpt lat="45.37127" lon="7.03257">
        <ele>1981.8137</ele>
        <time>2015-08-23T08:21:08Z</time>
      </trkpt>
      <trkpt lat="45.37126" lon="7.03257">
        <ele>1981.8137</ele>
        <time>2015-08-23T08:21:18Z</time>
      </trkpt>
      <trkpt lat="45.37125" lon="7.03258">
        <ele>1981.8137</ele>
        <time>2015-08-23T08:21:23Z</time>
      </trkpt>
      <trkpt lat="45.37125" lon="7.03258">
        <ele>1981.8137</ele>
        <time>2015-08-23T08:21:33Z</time>
      </trkpt>
      <trkpt lat="45.37124" lon="7.03257">
        <ele>1981.8137</ele>
        <time>2015-08-23T08:21:38Z</time>
      </trkpt>
      <trkpt lat="45.37124" lon="7.03257">
        <ele>1981.8137</ele>
        <time>2015-08-23T08:21:48Z</time>
      </trkpt>
      <trkpt lat="45.37124" lon="7.03256">
        <ele>1981.8137</ele>
        <time>2015-08-23T08:21:53Z</time>
      </trkpt>
      <trkpt lat="45.37119" lon="7.03247">
        <ele>1982.9531</ele>
        <time>2015-08-23T08:22:08Z</time>
      </trkpt>
      <trkpt lat="45.37118" lon="7.03245">
        <ele>1982.9531</ele>
        <time>2015-08-23T08:22:13Z</time>
      </trkpt>
      <trkpt lat="45.37114" lon="7.03237">
        <ele>1982.9531</ele>
        <time>2015-08-23T08:22:23Z</time>
      </trkpt>
      <trkpt lat="45.37113" lon="7.03233">
        <ele>1983.7839</ele>
        <time>2015-08-23T08:22:28Z</time>
      </trkpt>
      <trkpt lat="45.3711" lon="7.03227">
        <ele>1983.7839</ele>
        <time>2015-08-23T08:22:38Z</time>
      </trkpt>
      <trkpt lat="45.37108" lon="7.03224">
        <ele>1983.7839</ele>
        <time>2015-08-23T08:22:43Z</time>
      </trkpt>
      <trkpt lat="45.37104" lon="7.03221">
        <ele>1984.1283</ele>
        <time>2015-08-23T08:22:53Z</time>
      </trkpt>
      <trkpt lat="45.37103" lon="7.0322">
        <ele>1984.1283</ele>
        <time>2015-08-23T08:22:58Z</time>
      </trkpt>
      <trkpt lat="45.37097" lon="7.03213">
        <ele>1984.2982</ele>
        <time>2015-08-23T08:23:08Z</time>
      </trkpt>
      <trkpt lat="45.37097" lon="7.03213">
        <ele>1984.2982</ele>
        <time>2015-08-23T08:23:13Z</time>
      </trkpt>
      <trkpt lat="45.37093" lon="7.03209">
        <ele>1984.2982</ele>
        <time>2015-08-23T08:23:23Z</time>
      </trkpt>
      <trkpt lat="45.37089" lon="7.03204">
        <ele>1984.5544</ele>
        <time>2015-08-23T08:23:28Z</time>
      </trkpt>
      <trkpt lat="45.37084" lon="7.032">
        <ele>1984.5544</ele>
        <time>2015-08-23T08:23:38Z</time>
      </trkpt>
      <trkpt lat="45.37081" lon="7.03198">
        <ele>1985.0952</ele>
        <time>2015-08-23T08:23:43Z</time>
      </trkpt>
      <trkpt lat="45.37076" lon="7.03194">
        <ele>1985.0952</ele>
        <time>2015-08-23T08:23:53Z</time>
      </trkpt>
      <trkpt lat="45.37073" lon="7.03191">
        <ele>1985.887</ele>
        <time>2015-08-23T08:23:58Z</time>
      </trkpt>
      <trkpt lat="45.37066" lon="7.03187">
        <ele>1985.887</ele>
        <time>2015-08-23T08:24:08Z</time>
      </trkpt>
      <trkpt lat="45.37062" lon="7.03184">
        <ele>1986.8551</ele>
        <time>2015-08-23T08:24:13Z</time>
      </trkpt>
      <trkpt lat="45.3705" lon="7.0318">
        <ele>1987.8285</ele>
        <time>2015-08-23T08:24:23Z</time>
      </trkpt>
      <trkpt lat="45.37047" lon="7.03176">
        <ele>1987.8285</ele>
        <time>2015-08-23T08:24:28Z</time>
      </trkpt>
      <trkpt lat="45.37041" lon="7.0317">
        <ele>1988.7645</ele>
        <time>2015-08-23T08:24:38Z</time>
      </trkpt>
      <trkpt lat="45.3704" lon="7.03167">
        <ele>1988.7645</ele>
        <time>2015-08-23T08:24:43Z</time>
      </trkpt>
      <trkpt lat="45.37037" lon="7.03157">
        <ele>1989.681</ele>
        <time>2015-08-23T08:24:58Z</time>
      </trkpt>
      <trkpt lat="45.37036" lon="7.03155">
        <ele>1989.681</ele>
        <time>2015-08-23T08:25:03Z</time>
      </trkpt>
      <trkpt lat="45.37032" lon="7.03143">
        <ele>1990.6667</ele>
        <time>2015-08-23T08:25:13Z</time>
      </trkpt>
      <trkpt lat="45.37028" lon="7.03135">
        <ele>1990.6667</ele>
        <time>2015-08-23T08:25:18Z</time>
      </trkpt>
      <trkpt lat="45.37025" lon="7.03125">
        <ele>1991.9188</ele>
        <time>2015-08-23T08:25:28Z</time>
      </trkpt>
      <trkpt lat="45.37025" lon="7.03125">
        <ele>1991.9188</ele>
        <time>2015-08-23T08:25:33Z</time>
      </trkpt>
      <trkpt lat="45.3702" lon="7.03117">
        <ele>1991.9188</ele>
        <time>2015-08-23T08:25:43Z</time>
      </trkpt>
      <trkpt lat="45.37019" lon="7.03115">
        <ele>1993.4753</ele>
        <time>2015-08-23T08:25:48Z</time>
      </trkpt>
      <trkpt lat="45.37015" lon="7.03106">
        <ele>1993.4753</ele>
        <time>2015-08-23T08:25:58Z</time>
      </trkpt>
      <trkpt lat="45.37013" lon="7.031">
        <ele>1995.1687</ele>
        <time>2015-08-23T08:26:03Z</time>
      </trkpt>
      <trkpt lat="45.37012" lon="7.03096">
        <ele>1995.1687</ele>
        <time>2015-08-23T08:26:13Z</time>
      </trkpt>
      <trkpt lat="45.37009" lon="7.03092">
        <ele>1995.1687</ele>
        <time>2015-08-23T08:26:18Z</time>
      </trkpt>
      <trkpt lat="45.37004" lon="7.03085">
        <ele>1996.8722</ele>
        <time>2015-08-23T08:26:28Z</time>
      </trkpt>
      <trkpt lat="45.37" lon="7.03082">
        <ele>1996.8722</ele>
        <time>2015-08-23T08:26:33Z</time>
      </trkpt>
      <trkpt lat="45.36997" lon="7.03079">
        <ele>1996.8722</ele>
        <time>2015-08-23T08:26:43Z</time>
      </trkpt>
      <trkpt lat="45.36993" lon="7.03075">
        <ele>1998.2953</ele>
        <time>2015-08-23T08:26:48Z</time>
      </trkpt>
      <trkpt lat="45.36983" lon="7.03061">
        <ele>1999.631</ele>
        <time>2015-08-23T08:27:03Z</time>
      </trkpt>
      <trkpt lat="45.3698" lon="7.03057">
        <ele>1999.631</ele>
        <time>2015-08-23T08:27:08Z</time>
      </trkpt>
      <trkpt lat="45.36976" lon="7.0305">
        <ele>2000.9285</ele>
        <time>2015-08-23T08:27:18Z</time>
      </trkpt>
      <trkpt lat="45.36973" lon="7.03044">
        <ele>2000.9285</ele>
        <time>2015-08-23T08:27:23Z</time>
      </trkpt>
      <trkpt lat="45.36969" lon="7.03031">
        <ele>2002.2334</ele>
        <time>2015-08-23T08:27:33Z</time>
      </trkpt>
      <trkpt lat="45.36967" lon="7.03026">
        <ele>2002.2334</ele>
        <time>2015-08-23T08:27:38Z</time>
      </trkpt>
      <trkpt lat="45.36964" lon="7.03012">
        <ele>2003.4153</ele>
        <time>2015-08-23T08:27:48Z</time>
      </trkpt>
      <trkpt lat="45.36964" lon="7.0301">
        <ele>2003.4153</ele>
        <time>2015-08-23T08:27:53Z</time>
      </trkpt>
      <trkpt lat="45.36962" lon="7.03005">
        <ele>2003.4153</ele>
        <time>2015-08-23T08:28:03Z</time>
      </trkpt>
      <trkpt lat="45.3696" lon="7.03004">
        <ele>2003.4153</ele>
        <time>2015-08-23T08:28:18Z</time>
      </trkpt>
      <trkpt lat="45.3696" lon="7.03004">
        <ele>2003.4153</ele>
        <time>2015-08-23T08:28:23Z</time>
      </trkpt>
      <trkpt lat="45.3696" lon="7.03005">
        <ele>2004.757</ele>
        <time>2015-08-23T08:28:33Z</time>
      </trkpt>
      <trkpt lat="45.36962" lon="7.03009">
        <ele>2004.757</ele>
        <time>2015-08-23T08:28:38Z</time>
      </trkpt>
      <trkpt lat="45.36962" lon="7.03009">
        <ele>2004.757</ele>
        <time>2015-08-23T08:28:48Z</time>
      </trkpt>
      <trkpt lat="45.36966" lon="7.03032">
        <ele>2006.203</ele>
        <time>2015-08-23T08:29:23Z</time>
      </trkpt>
      <trkpt lat="45.36967" lon="7.03039">
        <ele>2006.203</ele>
        <time>2015-08-23T08:29:28Z</time>
      </trkpt>
      <trkpt lat="45.36972" lon="7.03052">
        <ele>2007.572</ele>
        <time>2015-08-23T08:29:38Z</time>
      </trkpt>
      <trkpt lat="45.36974" lon="7.03057">
        <ele>2007.572</ele>
        <time>2015-08-23T08:29:43Z</time>
      </trkpt>
      <trkpt lat="45.36982" lon="7.0307">
        <ele>2008.826</ele>
        <time>2015-08-23T08:29:53Z</time>
      </trkpt>
      <trkpt lat="45.36984" lon="7.03074">
        <ele>2008.826</ele>
        <time>2015-08-23T08:29:58Z</time>
      </trkpt>
      <trkpt lat="45.3699" lon="7.0308">
        <ele>2010.0021</ele>
        <time>2015-08-23T08:30:08Z</time>
      </trkpt>
      <trkpt lat="45.3699" lon="7.0308">
        <ele>2010.0021</ele>
        <time>2015-08-23T08:30:13Z</time>
      </trkpt>
      <trkpt lat="45.36989" lon="7.0308">
        <ele>2010.0021</ele>
        <time>2015-08-23T08:30:28Z</time>
      </trkpt>
      <trkpt lat="45.36989" lon="7.0308">
        <ele>2010.0021</ele>
        <time>2015-08-23T08:30:43Z</time>
      </trkpt>
      <trkpt lat="45.36995" lon="7.03086">
        <ele>2010.0021</ele>
        <time>2015-08-23T08:30:58Z</time>
      </trkpt>
      <trkpt lat="45.36999" lon="7.03089">
        <ele>2010.8035</ele>
        <time>2015-08-23T08:31:03Z</time>
      </trkpt>
      <trkpt lat="45.37002" lon="7.03093">
        <ele>2010.8035</ele>
        <time>2015-08-23T08:31:13Z</time>
      </trkpt>
      <trkpt lat="45.37005" lon="7.03094">
        <ele>2010.8035</ele>
        <time>2015-08-23T08:31:18Z</time>
      </trkpt>
      <trkpt lat="45.3701" lon="7.03098">
        <ele>2011.5901</ele>
        <time>2015-08-23T08:31:28Z</time>
      </trkpt>
      <trkpt lat="45.37013" lon="7.03101">
        <ele>2011.5901</ele>
        <time>2015-08-23T08:31:33Z</time>
      </trkpt>
      <trkpt lat="45.37021" lon="7.03111">
        <ele>2012.2921</ele>
        <time>2015-08-23T08:31:43Z</time>
      </trkpt>
      <trkpt lat="45.37022" lon="7.03113">
        <ele>2012.2921</ele>
        <time>2015-08-23T08:31:48Z</time>
      </trkpt>
      <trkpt lat="45.37024" lon="7.03117">
        <ele>2012.2921</ele>
        <time>2015-08-23T08:31:58Z</time>
      </trkpt>
      <trkpt lat="45.37027" lon="7.0312">
        <ele>2012.2921</ele>
        <time>2015-08-23T08:32:03Z</time>
      </trkpt>
      <trkpt lat="45.3703" lon="7.03131">
        <ele>2012.903</ele>
        <time>2015-08-23T08:32:18Z</time>
      </trkpt>
      <trkpt lat="45.37034" lon="7.03137">
        <ele>2012.903</ele>
        <time>2015-08-23T08:32:23Z</time>
      </trkpt>
      <trkpt lat="45.37041" lon="7.03144">
        <ele>2013.4308</ele>
        <time>2015-08-23T08:32:33Z</time>
      </trkpt>
      <trkpt lat="45.37044" lon="7.03144">
        <ele>2013.4308</ele>
        <time>2015-08-23T08:32:38Z</time>
      </trkpt>
      <trkpt lat="45.37051" lon="7.0315">
        <ele>2013.9989</ele>
        <time>2015-08-23T08:32:48Z</time>
      </trkpt>
      <trkpt lat="45.37052" lon="7.03152">
        <ele>2013.9989</ele>
        <time>2015-08-23T08:32:53Z</time>
      </trkpt>
      <trkpt lat="45.37058" lon="7.03155">
        <ele>2013.9989</ele>
        <time>2015-08-23T08:33:03Z</time>
      </trkpt>
      <trkpt lat="45.37061" lon="7.03157">
        <ele>2014.5627</ele>
        <time>2015-08-23T08:33:08Z</time>
      </trkpt>
      <trkpt lat="45.37066" lon="7.03157">
        <ele>2014.5627</ele>
        <time>2015-08-23T08:33:18Z</time>
      </trkpt>
      <trkpt lat="45.37069" lon="7.03157">
        <ele>2014.5627</ele>
        <time>2015-08-23T08:33:23Z</time>
      </trkpt>
      <trkpt lat="45.37074" lon="7.03157">
        <ele>2014.6345</ele>
        <time>2015-08-23T08:33:33Z</time>
      </trkpt>
      <trkpt lat="45.37078" lon="7.0316">
        <ele>2014.6345</ele>
        <time>2015-08-23T08:33:38Z</time>
      </trkpt>
      <trkpt lat="45.37088" lon="7.03165">
        <ele>2014.729</ele>
        <time>2015-08-23T08:33:48Z</time>
      </trkpt>
      <trkpt lat="45.37092" lon="7.03168">
        <ele>2014.729</ele>
        <time>2015-08-23T08:33:53Z</time>
      </trkpt>
      <trkpt lat="45.37097" lon="7.03172">
        <ele>2014.905</ele>
        <time>2015-08-23T08:34:03Z</time>
      </trkpt>
      <trkpt lat="45.37103" lon="7.03176">
        <ele>2014.905</ele>
        <time>2015-08-23T08:34:08Z</time>
      </trkpt>
      <trkpt lat="45.37107" lon="7.03178">
        <ele>2015.1019</ele>
        <time>2015-08-23T08:34:18Z</time>
      </trkpt>
      <trkpt lat="45.37107" lon="7.03178">
        <ele>2015.1019</ele>
        <time>2015-08-23T08:34:23Z</time>
      </trkpt>
      <trkpt lat="45.37107" lon="7.03179">
        <ele>2015.1019</ele>
        <time>2015-08-23T08:34:33Z</time>
      </trkpt>
      <trkpt lat="45.37106" lon="7.03179">
        <ele>2015.1019</ele>
        <time>2015-08-23T08:34:38Z</time>
      </trkpt>
      <trkpt lat="45.37108" lon="7.0318">
        <ele>2015.1019</ele>
        <time>2015-08-23T08:34:48Z</time>
      </trkpt>
      <trkpt lat="45.37107" lon="7.03181">
        <ele>2015.1019</ele>
        <time>2015-08-23T08:34:53Z</time>
      </trkpt>
      <trkpt lat="45.3711" lon="7.03186">
        <ele>2015.1909</ele>
        <time>2015-08-23T08:35:03Z</time>
      </trkpt>
      <trkpt lat="45.37114" lon="7.03188">
        <ele>2015.1909</ele>
        <time>2015-08-23T08:35:08Z</time>
      </trkpt>
      <trkpt lat="45.37116" lon="7.03181">
        <ele>2014.981</ele>
        <time>2015-08-23T08:35:23Z</time>
      </trkpt>
      <trkpt lat="45.37117" lon="7.03182">
        <ele>2014.981</ele>
        <time>2015-08-23T08:35:28Z</time>
      </trkpt>
      <trkpt lat="45.37119" lon="7.03185">
        <ele>2014.981</ele>
        <time>2015-08-23T08:35:38Z</time>
      </trkpt>
      <trkpt lat="45.37121" lon="7.03181">
        <ele>2014.981</ele>
        <time>2015-08-23T08:35:43Z</time>
      </trkpt>
      <trkpt lat="45.37119" lon="7.03182">
        <ele>2014.981</ele>
        <time>2015-08-23T08:35:53Z</time>
      </trkpt>
      <trkpt lat="45.37119" lon="7.03179">
        <ele>2014.6709</ele>
        <time>2015-08-23T08:35:58Z</time>
      </trkpt>
      <trkpt lat="45.37117" lon="7.03174">
        <ele>2014.6709</ele>
        <time>2015-08-23T08:36:08Z</time>
      </trkpt>
      <trkpt lat="45.37117" lon="7.03172">
        <ele>2014.6709</ele>
        <time>2015-08-23T08:36:13Z</time>
      </trkpt>
      <trkpt lat="45.37114" lon="7.03168">
        <ele>2014.6709</ele>
        <time>2015-08-23T08:36:23Z</time>
      </trkpt>
      <trkpt lat="45.37113" lon="7.03163">
        <ele>2014.2285</ele>
        <time>2015-08-23T08:36:28Z</time>
      </trkpt>
      <trkpt lat="45.3711" lon="7.03156">
        <ele>2014.2285</ele>
        <time>2015-08-23T08:36:38Z</time>
      </trkpt>
      <trkpt lat="45.37108" lon="7.03155">
        <ele>2014.2285</ele>
        <time>2015-08-23T08:36:43Z</time>
      </trkpt>
      <trkpt lat="45.37109" lon="7.03154">
        <ele>2014.2285</ele>
        <time>2015-08-23T08:36:53Z</time>
      </trkpt>
      <trkpt lat="45.37109" lon="7.03151">
        <ele>2013.7686</ele>
        <time>2015-08-23T08:36:58Z</time>
      </trkpt>
      <trkpt lat="45.37108" lon="7.03148">
        <ele>2013.7686</ele>
        <time>2015-08-23T08:37:08Z</time>
      </trkpt>
      <trkpt lat="45.37107" lon="7.03146">
        <ele>2013.7686</ele>
        <time>2015-08-23T08:37:13Z</time>
      </trkpt>
      <trkpt lat="45.37103" lon="7.03142">
        <ele>2013.7146</ele>
        <time>2015-08-23T08:37:28Z</time>
      </trkpt>
      <trkpt lat="45.37102" lon="7.0314">
        <ele>2013.7146</ele>
        <time>2015-08-23T08:37:33Z</time>
      </trkpt>
      <trkpt lat="45.371" lon="7.03138">
        <ele>2013.7146</ele>
        <time>2015-08-23T08:37:43Z</time>
      </trkpt>
      <trkpt lat="45.37098" lon="7.03135">
        <ele>2013.7146</ele>
        <time>2015-08-23T08:37:48Z</time>
      </trkpt>
      <trkpt lat="45.37095" lon="7.03131">
        <ele>2014.155</ele>
        <time>2015-08-23T08:37:58Z</time>
      </trkpt>
      <trkpt lat="45.37094" lon="7.0313">
        <ele>2014.155</ele>
        <time>2015-08-23T08:38:03Z</time>
      </trkpt>
      <trkpt lat="45.37093" lon="7.03126">
        <ele>2014.155</ele>
        <time>2015-08-23T08:38:13Z</time>
      </trkpt>
      <trkpt lat="45.37092" lon="7.03125">
        <ele>2014.155</ele>
        <time>2015-08-23T08:38:18Z</time>
      </trkpt>
      <trkpt lat="45.37089" lon="7.0312">
        <ele>2014.9828</ele>
        <time>2015-08-23T08:38:28Z</time>
      </trkpt>
      <trkpt lat="45.37089" lon="7.03118">
        <ele>2014.9828</ele>
        <time>2015-08-23T08:38:33Z</time>
      </trkpt>
      <trkpt lat="45.37088" lon="7.03116">
        <ele>2014.9828</ele>
        <time>2015-08-23T08:38:43Z</time>
      </trkpt>
      <trkpt lat="45.37086" lon="7.03114">
        <ele>2014.9828</ele>
        <time>2015-08-23T08:38:48Z</time>
      </trkpt>
      <trkpt lat="45.37086" lon="7.03111">
        <ele>2014.9828</ele>
        <time>2015-08-23T08:38:58Z</time>
      </trkpt>
      <trkpt lat="45.37085" lon="7.03111">
        <ele>2014.9828</ele>
        <time>2015-08-23T08:39:03Z</time>
      </trkpt>
      <trkpt lat="45.37083" lon="7.03109">
        <ele>2016.4148</ele>
        <time>2015-08-23T08:39:13Z</time>
      </trkpt>
      <trkpt lat="45.37082" lon="7.03107">
        <ele>2016.4148</ele>
        <time>2015-08-23T08:39:18Z</time>
      </trkpt>
      <trkpt lat="45.3708" lon="7.03102">
        <ele>2016.4148</ele>
        <time>2015-08-23T08:39:28Z</time>
      </trkpt>
      <trkpt lat="45.37077" lon="7.03099">
        <ele>2017.9586</ele>
        <time>2015-08-23T08:39:33Z</time>
      </trkpt>
      <trkpt lat="45.37073" lon="7.03096">
        <ele>2017.9586</ele>
        <time>2015-08-23T08:39:43Z</time>
      </trkpt>
      <trkpt lat="45.37072" lon="7.03093">
        <ele>2017.9586</ele>
        <time>2015-08-23T08:39:48Z</time>
      </trkpt>
      <trkpt lat="45.37072" lon="7.03092">
        <ele>2017.9586</ele>
        <time>2015-08-23T08:40:03Z</time>
      </trkpt>
      <trkpt lat="45.37072" lon="7.03092">
        <ele>2017.9586</ele>
        <time>2015-08-23T08:40:08Z</time>
      </trkpt>
      <trkpt lat="45.37073" lon="7.03092">
        <ele>2020.1804</ele>
        <time>2015-08-23T08:40:18Z</time>
      </trkpt>
      <trkpt lat="45.37072" lon="7.03092">
        <ele>2020.1804</ele>
        <time>2015-08-23T08:40:23Z</time>
      </trkpt>
      <trkpt lat="45.37072" lon="7.03092">
        <ele>2020.1804</ele>
        <time>2015-08-23T08:40:33Z</time>
      </trkpt>
      <trkpt lat="45.37072" lon="7.03092">
        <ele>2020.1804</ele>
        <time>2015-08-23T08:40:38Z</time>
      </trkpt>
      <trkpt lat="45.37072" lon="7.03089">
        <ele>2020.1804</ele>
        <time>2015-08-23T08:40:48Z</time>
      </trkpt>
      <trkpt lat="45.37072" lon="7.03089">
        <ele>2020.1804</ele>
        <time>2015-08-23T08:40:53Z</time>
      </trkpt>
      <trkpt lat="45.37074" lon="7.03083">
        <ele>2020.1804</ele>
        <time>2015-08-23T08:41:03Z</time>
      </trkpt>
      <trkpt lat="45.37074" lon="7.0308">
        <ele>2022.6233</ele>
        <time>2015-08-23T08:41:08Z</time>
      </trkpt>
      <trkpt lat="45.37075" lon="7.03077">
        <ele>2022.6233</ele>
        <time>2015-08-23T08:41:18Z</time>
      </trkpt>
      <trkpt lat="45.37075" lon="7.03073">
        <ele>2022.6233</ele>
        <time>2015-08-23T08:41:23Z</time>
      </trkpt>
      <trkpt lat="45.37072" lon="7.03065">
        <ele>2025.2665</ele>
        <time>2015-08-23T08:41:33Z</time>
      </trkpt>
      <trkpt lat="45.37071" lon="7.03063">
        <ele>2025.2665</ele>
        <time>2015-08-23T08:41:38Z</time>
      </trkpt>
      <trkpt lat="45.37071" lon="7.03058">
        <ele>2025.2665</ele>
        <time>2015-08-23T08:41:48Z</time>
      </trkpt>
      <trkpt lat="45.37071" lon="7.03056">
        <ele>2025.2665</ele>
        <time>2015-08-23T08:41:53Z</time>
      </trkpt>
      <trkpt lat="45.37071" lon="7.03055">
        <ele>2025.2665</ele>
        <time>2015-08-23T08:42:03Z</time>
      </trkpt>
      <trkpt lat="45.37071" lon="7.0305">
        <ele>2028.5658</ele>
        <time>2015-08-23T08:42:23Z</time>
      </trkpt>
      <trkpt lat="45.37071" lon="7.03048">
        <ele>2028.5658</ele>
        <time>2015-08-23T08:42:28Z</time>
      </trkpt>
      <trkpt lat="45.37071" lon="7.03048">
        <ele>2028.5658</ele>
        <time>2015-08-23T08:42:38Z</time>
      </trkpt>
      <trkpt lat="45.3707" lon="7.03033">
        <ele>2032.1636</ele>
        <time>2015-08-23T08:43:08Z</time>
      </trkpt>
      <trkpt lat="45.3707" lon="7.03031">
        <ele>2032.1636</ele>
        <time>2015-08-23T08:43:13Z</time>
      </trkpt>
      <trkpt lat="45.3707" lon="7.03031">
        <ele>2032.1636</ele>
        <time>2015-08-23T08:43:23Z</time>
      </trkpt>
      <trkpt lat="45.37069" lon="7.03028">
        <ele>2032.1636</ele>
        <time>2015-08-23T08:43:28Z</time>
      </trkpt>
      <trkpt lat="45.37067" lon="7.0302">
        <ele>2036.1454</ele>
        <time>2015-08-23T08:43:38Z</time>
      </trkpt>
      <trkpt lat="45.37065" lon="7.03017">
        <ele>2036.1454</ele>
        <time>2015-08-23T08:43:43Z</time>
      </trkpt>
      <trkpt lat="45.37065" lon="7.03017">
        <ele>2036.1454</ele>
        <time>2015-08-23T08:43:53Z</time>
      </trkpt>
      <trkpt lat="45.37066" lon="7.03012">
        <ele>2036.1454</ele>
        <time>2015-08-23T08:44:08Z</time>
      </trkpt>
      <trkpt lat="45.37065" lon="7.0301">
        <ele>2036.1454</ele>
        <time>2015-08-23T08:44:13Z</time>
      </trkpt>
      <trkpt lat="45.37066" lon="7.02998">
        <ele>2040.3591</ele>
        <time>2015-08-23T08:44:23Z</time>
      </trkpt>
      <trkpt lat="45.37066" lon="7.02997">
        <ele>2040.3591</ele>
        <time>2015-08-23T08:44:28Z</time>
      </trkpt>
      <trkpt lat="45.37065" lon="7.02994">
        <ele>2040.3591</ele>
        <time>2015-08-23T08:44:43Z</time>
      </trkpt>
      <trkpt lat="45.37065" lon="7.02994">
        <ele>2040.3591</ele>
        <time>2015-08-23T08:44:48Z</time>
      </trkpt>
      <trkpt lat="45.37064" lon="7.02989">
        <ele>2040.3591</ele>
        <time>2015-08-23T08:44:58Z</time>
      </trkpt>
      <trkpt lat="45.37063" lon="7.02987">
        <ele>2040.3591</ele>
        <time>2015-08-23T08:45:03Z</time>
      </trkpt>
      <trkpt lat="45.37063" lon="7.02987">
        <ele>2040.3591</ele>
        <time>2015-08-23T08:45:13Z</time>
      </trkpt>
      <trkpt lat="45.37062" lon="7.02985">
        <ele>2045.1388</ele>
        <time>2015-08-23T08:45:33Z</time>
      </trkpt>
      <trkpt lat="45.37061" lon="7.02983">
        <ele>2045.1388</ele>
        <time>2015-08-23T08:45:43Z</time>
      </trkpt>
      <trkpt lat="45.37061" lon="7.0298">
        <ele>2045.1388</ele>
        <time>2015-08-23T08:45:48Z</time>
      </trkpt>
      <trkpt lat="45.3706" lon="7.02969">
        <ele>2049.8408</ele>
        <time>2015-08-23T08:45:58Z</time>
      </trkpt>
      <trkpt lat="45.37059" lon="7.02967">
        <ele>2049.8408</ele>
        <time>2015-08-23T08:46:03Z</time>
      </trkpt>
      <trkpt lat="45.37059" lon="7.02967">
        <ele>2049.8408</ele>
        <time>2015-08-23T08:46:13Z</time>
      </trkpt>
      <trkpt lat="45.37059" lon="7.02966">
        <ele>2049.8408</ele>
        <time>2015-08-23T08:46:18Z</time>
      </trkpt>
      <trkpt lat="45.37058" lon="7.02961">
        <ele>2049.8408</ele>
        <time>2015-08-23T08:46:28Z</time>
      </trkpt>
      <trkpt lat="45.37059" lon="7.0296">
        <ele>2049.8408</ele>
        <time>2015-08-23T08:46:33Z</time>
      </trkpt>
      <trkpt lat="45.37059" lon="7.0296">
        <ele>2049.8408</ele>
        <time>2015-08-23T08:46:48Z</time>
      </trkpt>
      <trkpt lat="45.37059" lon="7.02958">
        <ele>2049.8408</ele>
        <time>2015-08-23T08:46:53Z</time>
      </trkpt>
      <trkpt lat="45.37059" lon="7.02958">
        <ele>2049.8408</ele>
        <time>2015-08-23T08:47:03Z</time>
      </trkpt>
      <trkpt lat="45.37059" lon="7.02952">
        <ele>2055.7866</ele>
        <time>2015-08-23T08:47:18Z</time>
      </trkpt>
      <trkpt lat="45.37059" lon="7.0295">
        <ele>2055.7866</ele>
        <time>2015-08-23T08:47:23Z</time>
      </trkpt>
      <trkpt lat="45.37058" lon="7.02944">
        <ele>2055.7866</ele>
        <time>2015-08-23T08:47:33Z</time>
      </trkpt>
      <trkpt lat="45.37058" lon="7.02944">
        <ele>2055.7866</ele>
        <time>2015-08-23T08:47:38Z</time>
      </trkpt>
      <trkpt lat="45.37058" lon="7.02936">
        <ele>2062.1501</ele>
        <time>2015-08-23T08:48:03Z</time>
      </trkpt>
      <trkpt lat="45.37057" lon="7.0293">
        <ele>2062.1501</ele>
        <time>2015-08-23T08:48:08Z</time>
      </trkpt>
      <trkpt lat="45.37056" lon="7.02929">
        <ele>2062.1501</ele>
        <time>2015-08-23T08:48:18Z</time>
      </trkpt>
      <trkpt lat="45.37056" lon="7.02929">
        <ele>2062.1501</ele>
        <time>2015-08-23T08:48:23Z</time>
      </trkpt>
      <trkpt lat="45.37055" lon="7.02928">
        <ele>2062.1501</ele>
        <time>2015-08-23T08:48:38Z</time>
      </trkpt>
      <trkpt lat="45.37052" lon="7.02915">
        <ele>2068.756</ele>
        <time>2015-08-23T08:48:48Z</time>
      </trkpt>
      <trkpt lat="45.37051" lon="7.02914">
        <ele>2068.756</ele>
        <time>2015-08-23T08:48:53Z</time>
      </trkpt>
      <trkpt lat="45.37051" lon="7.02914">
        <ele>2068.756</ele>
        <time>2015-08-23T08:49:03Z</time>
      </trkpt>
      <trkpt lat="45.3705" lon="7.02913">
        <ele>2068.756</ele>
        <time>2015-08-23T08:49:08Z</time>
      </trkpt>
      <trkpt lat="45.3705" lon="7.02909">
        <ele>2068.756</ele>
        <time>2015-08-23T08:49:18Z</time>
      </trkpt>
      <trkpt lat="45.3705" lon="7.02909">
        <ele>2068.756</ele>
        <time>2015-08-23T08:49:23Z</time>
      </trkpt>
      <trkpt lat="45.37051" lon="7.02907">
        <ele>2068.756</ele>
        <time>2015-08-23T08:49:58Z</time>
      </trkpt>
      <trkpt lat="45.37051" lon="7.02907">
        <ele>2068.756</ele>
        <time>2015-08-23T08:50:08Z</time>
      </trkpt>
      <trkpt lat="45.37051" lon="7.02907">
        <ele>2068.756</ele>
        <time>2015-08-23T08:50:13Z</time>
      </trkpt>
      <trkpt lat="45.37053" lon="7.02907">
        <ele>2075.6006</ele>
        <time>2015-08-23T08:50:23Z</time>
      </trkpt>
      <trkpt lat="45.37056" lon="7.02909">
        <ele>2075.6006</ele>
        <time>2015-08-23T08:50:38Z</time>
      </trkpt>
      <trkpt lat="45.3706" lon="7.02912">
        <ele>2075.6006</ele>
        <time>2015-08-23T08:50:43Z</time>
      </trkpt>
      <trkpt lat="45.37066" lon="7.02914">
        <ele>2082.4338</ele>
        <time>2015-08-23T08:50:53Z</time>
      </trkpt>
      <trkpt lat="45.37068" lon="7.02915">
        <ele>2082.4338</ele>
        <time>2015-08-23T08:50:58Z</time>
      </trkpt>
      <trkpt lat="45.37072" lon="7.02916">
        <ele>2082.4338</ele>
        <time>2015-08-23T08:51:08Z</time>
      </trkpt>
      <trkpt lat="45.37074" lon="7.02916">
        <ele>2082.4338</ele>
        <time>2015-08-23T08:51:13Z</time>
      </trkpt>
      <trkpt lat="45.37077" lon="7.02918">
        <ele>2089.068</ele>
        <time>2015-08-23T08:51:23Z</time>
      </trkpt>
      <trkpt lat="45.3708" lon="7.02917">
        <ele>2089.068</ele>
        <time>2015-08-23T08:51:28Z</time>
      </trkpt>
      <trkpt lat="45.37078" lon="7.02912">
        <ele>2089.068</ele>
        <time>2015-08-23T08:51:43Z</time>
      </trkpt>
      <trkpt lat="45.37078" lon="7.02911">
        <ele>2089.068</ele>
        <time>2015-08-23T08:51:48Z</time>
      </trkpt>
      <trkpt lat="45.37073" lon="7.02905">
        <ele>2095.7632</ele>
        <time>2015-08-23T08:51:58Z</time>
      </trkpt>
      <trkpt lat="45.37072" lon="7.02902">
        <ele>2095.7632</ele>
        <time>2015-08-23T08:52:03Z</time>
      </trkpt>
      <trkpt lat="45.37069" lon="7.02895">
        <ele>2095.7632</ele>
        <time>2015-08-23T08:52:13Z</time>
      </trkpt>
      <trkpt lat="45.37069" lon="7.02892">
        <ele>2102.1396</ele>
        <time>2015-08-23T08:52:18Z</time>
      </trkpt>
      <trkpt lat="45.37069" lon="7.0289">
        <ele>2102.1396</ele>
        <time>2015-08-23T08:52:28Z</time>
      </trkpt>
      <trkpt lat="45.37069" lon="7.02888">
        <ele>2102.1396</ele>
        <time>2015-08-23T08:52:33Z</time>
      </trkpt>
      <trkpt lat="45.37069" lon="7.02885">
        <ele>2102.1396</ele>
        <time>2015-08-23T08:52:43Z</time>
      </trkpt>
      <trkpt lat="45.37069" lon="7.02885">
        <ele>2102.1396</ele>
        <time>2015-08-23T08:52:48Z</time>
      </trkpt>
      <trkpt lat="45.3707" lon="7.02882">
        <ele>2102.1396</ele>
        <time>2015-08-23T08:53:13Z</time>
      </trkpt>
      <trkpt lat="45.3707" lon="7.0287">
        <ele>2108.438</ele>
        <time>2015-08-23T08:53:28Z</time>
      </trkpt>
      <trkpt lat="45.3707" lon="7.02869">
        <ele>2108.438</ele>
        <time>2015-08-23T08:53:43Z</time>
      </trkpt>
      <trkpt lat="45.3707" lon="7.02864">
        <ele>2108.438</ele>
        <time>2015-08-23T08:53:48Z</time>
      </trkpt>
      <trkpt lat="45.3707" lon="7.02861">
        <ele>2108.438</ele>
        <time>2015-08-23T08:53:58Z</time>
      </trkpt>
      <trkpt lat="45.3707" lon="7.02861">
        <ele>2108.438</ele>
        <time>2015-08-23T08:54:03Z</time>
      </trkpt>
      <trkpt lat="45.37069" lon="7.02858">
        <ele>2108.438</ele>
        <time>2015-08-23T08:54:18Z</time>
      </trkpt>
      <trkpt lat="45.37069" lon="7.02855">
        <ele>2114.8965</ele>
        <time>2015-08-23T08:54:23Z</time>
      </trkpt>
      <trkpt lat="45.37069" lon="7.02855">
        <ele>2114.8965</ele>
        <time>2015-08-23T08:54:33Z</time>
      </trkpt>
      <trkpt lat="45.3707" lon="7.02852">
        <ele>2114.8965</ele>
        <time>2015-08-23T08:55:18Z</time>
      </trkpt>
      <trkpt lat="45.3707" lon="7.0284">
        <ele>2122.067</ele>
        <time>2015-08-23T08:55:58Z</time>
      </trkpt>
      <trkpt lat="45.37071" lon="7.02818">
        <ele>2128.7441</ele>
        <time>2015-08-23T08:56:08Z</time>
      </trkpt>
      <trkpt lat="45.37072" lon="7.02812">
        <ele>2128.7441</ele>
        <time>2015-08-23T08:56:13Z</time>
      </trkpt>
      <trkpt lat="45.37073" lon="7.02808">
        <ele>2128.7441</ele>
        <time>2015-08-23T08:56:23Z</time>
      </trkpt>
      <trkpt lat="45.37074" lon="7.028">
        <ele>2135.2542</ele>
        <time>2015-08-23T08:56:38Z</time>
      </trkpt>
      <trkpt lat="45.37074" lon="7.028">
        <ele>2135.2542</ele>
        <time>2015-08-23T08:56:43Z</time>
      </trkpt>
      <trkpt lat="45.37074" lon="7.02797">
        <ele>2135.2542</ele>
        <time>2015-08-23T08:56:53Z</time>
      </trkpt>
      <trkpt lat="45.37074" lon="7.02793">
        <ele>2135.2542</ele>
        <time>2015-08-23T08:56:58Z</time>
      </trkpt>
      <trkpt lat="45.37074" lon="7.02783">
        <ele>2141.468</ele>
        <time>2015-08-23T08:57:08Z</time>
      </trkpt>
      <trkpt lat="45.37075" lon="7.02777">
        <ele>2141.468</ele>
        <time>2015-08-23T08:57:13Z</time>
      </trkpt>
      <trkpt lat="45.37076" lon="7.02766">
        <ele>2147.1084</ele>
        <time>2015-08-23T08:57:23Z</time>
      </trkpt>
      <trkpt lat="45.37076" lon="7.02766">
        <ele>2147.1084</ele>
        <time>2015-08-23T08:57:28Z</time>
      </trkpt>
      <trkpt lat="45.3708" lon="7.02756">
        <ele>2147.1084</ele>
        <time>2015-08-23T08:57:58Z</time>
      </trkpt>
      <trkpt lat="45.3708" lon="7.02752">
        <ele>2152.2954</ele>
        <time>2015-08-23T08:58:03Z</time>
      </trkpt>
      <trkpt lat="45.3708" lon="7.02752">
        <ele>2152.2954</ele>
        <time>2015-08-23T08:58:13Z</time>
      </trkpt>
      <trkpt lat="45.3708" lon="7.02745">
        <ele>2152.2954</ele>
        <time>2015-08-23T08:58:33Z</time>
      </trkpt>
      <trkpt lat="45.3708" lon="7.02745">
        <ele>2152.2954</ele>
        <time>2015-08-23T08:58:43Z</time>
      </trkpt>
      <trkpt lat="45.37081" lon="7.02739">
        <ele>2157.3003</ele>
        <time>2015-08-23T08:58:58Z</time>
      </trkpt>
      <trkpt lat="45.37085" lon="7.02722">
        <ele>2161.6697</ele>
        <time>2015-08-23T08:59:03Z</time>
      </trkpt>
      <trkpt lat="45.37086" lon="7.02716">
        <ele>2161.6697</ele>
        <time>2015-08-23T08:59:18Z</time>
      </trkpt>
      <trkpt lat="45.37085" lon="7.02709">
        <ele>2165.9358</ele>
        <time>2015-08-23T08:59:23Z</time>
      </trkpt>
      <trkpt lat="45.37087" lon="7.027">
        <ele>2165.9358</ele>
        <time>2015-08-23T08:59:33Z</time>
      </trkpt>
      <trkpt lat="45.37084" lon="7.02695">
        <ele>2169.6853</ele>
        <time>2015-08-23T08:59:38Z</time>
      </trkpt>
      <trkpt lat="45.3708" lon="7.02685">
        <ele>2169.6853</ele>
        <time>2015-08-23T08:59:48Z</time>
      </trkpt>
      <trkpt lat="45.3708" lon="7.02683">
        <ele>2173.2144</ele>
        <time>2015-08-23T08:59:53Z</time>
      </trkpt>
      <trkpt lat="45.3708" lon="7.0268">
        <ele>2173.2144</ele>
        <time>2015-08-23T09:00:03Z</time>
      </trkpt>
      <trkpt lat="45.37081" lon="7.02678">
        <ele>2173.2144</ele>
        <time>2015-08-23T09:00:08Z</time>
      </trkpt>
      <trkpt lat="45.37081" lon="7.02671">
        <ele>2176.6968</ele>
        <time>2015-08-23T09:00:18Z</time>
      </trkpt>
      <trkpt lat="45.37082" lon="7.02666">
        <ele>2176.6968</ele>
        <time>2015-08-23T09:00:23Z</time>
      </trkpt>
      <trkpt lat="45.37082" lon="7.02661">
        <ele>2176.6968</ele>
        <time>2015-08-23T09:00:33Z</time>
      </trkpt>
      <trkpt lat="45.37082" lon="7.02658">
        <ele>2176.6968</ele>
        <time>2015-08-23T09:00:38Z</time>
      </trkpt>
      <trkpt lat="45.37082" lon="7.02649">
        <ele>2180.021</ele>
        <time>2015-08-23T09:00:53Z</time>
      </trkpt>
      <trkpt lat="45.37082" lon="7.02648">
        <ele>2180.021</ele>
        <time>2015-08-23T09:00:58Z</time>
      </trkpt>
      <trkpt lat="45.37081" lon="7.02644">
        <ele>2180.021</ele>
        <time>2015-08-23T09:01:08Z</time>
      </trkpt>
      <trkpt lat="45.37083" lon="7.02642">
        <ele>2180.021</ele>
        <time>2015-08-23T09:01:13Z</time>
      </trkpt>
      <trkpt lat="45.37083" lon="7.02639">
        <ele>2180.021</ele>
        <time>2015-08-23T09:01:23Z</time>
      </trkpt>
      <trkpt lat="45.37083" lon="7.02636">
        <ele>2183.487</ele>
        <time>2015-08-23T09:01:28Z</time>
      </trkpt>
      <trkpt lat="45.37082" lon="7.02634">
        <ele>2183.487</ele>
        <time>2015-08-23T09:01:38Z</time>
      </trkpt>
      <trkpt lat="45.37082" lon="7.02633">
        <ele>2183.487</ele>
        <time>2015-08-23T09:01:53Z</time>
      </trkpt>
      <trkpt lat="45.3708" lon="7.02633">
        <ele>2183.487</ele>
        <time>2015-08-23T09:01:58Z</time>
      </trkpt>
      <trkpt lat="45.3708" lon="7.02633">
        <ele>2183.487</ele>
        <time>2015-08-23T09:02:08Z</time>
      </trkpt>
      <trkpt lat="45.37079" lon="7.02629">
        <ele>2183.487</ele>
        <time>2015-08-23T09:02:23Z</time>
      </trkpt>
      <trkpt lat="45.37077" lon="7.02626">
        <ele>2187.0422</ele>
        <time>2015-08-23T09:02:28Z</time>
      </trkpt>
      <trkpt lat="45.37077" lon="7.02626">
        <ele>2187.0422</ele>
        <time>2015-08-23T09:02:38Z</time>
      </trkpt>
      <trkpt lat="45.37081" lon="7.02628">
        <ele>2187.0422</ele>
        <time>2015-08-23T09:03:13Z</time>
      </trkpt>
      <trkpt lat="45.37083" lon="7.02627">
        <ele>2187.0422</ele>
        <time>2015-08-23T09:03:18Z</time>
      </trkpt>
      <trkpt lat="45.37082" lon="7.02627">
        <ele>2187.0422</ele>
        <time>2015-08-23T09:03:28Z</time>
      </trkpt>
      <trkpt lat="45.37081" lon="7.02626">
        <ele>2187.0422</ele>
        <time>2015-08-23T09:04:28Z</time>
      </trkpt>
      <trkpt lat="45.3708" lon="7.02628">
        <ele>2187.0422</ele>
        <time>2015-08-23T09:04:33Z</time>
      </trkpt>
      <trkpt lat="45.37079" lon="7.02628">
        <ele>2190.781</ele>
        <time>2015-08-23T09:04:43Z</time>
      </trkpt>
      <trkpt lat="45.37079" lon="7.02628">
        <ele>2190.781</ele>
        <time>2015-08-23T09:06:33Z</time>
      </trkpt>
      <trkpt lat="45.37078" lon="7.02628">
        <ele>2190.781</ele>
        <time>2015-08-23T09:07:03Z</time>
      </trkpt>
      <trkpt lat="45.37078" lon="7.02627">
        <ele>2190.781</ele>
        <time>2015-08-23T09:07:08Z</time>
      </trkpt>
      <trkpt lat="45.37075" lon="7.02621">
        <ele>2190.781</ele>
        <time>2015-08-23T09:07:18Z</time>
      </trkpt>
      <trkpt lat="45.37076" lon="7.0262">
        <ele>2190.781</ele>
        <time>2015-08-23T09:07:23Z</time>
      </trkpt>
      <trkpt lat="45.37074" lon="7.02618">
        <ele>2194.5896</ele>
        <time>2015-08-23T09:07:33Z</time>
      </trkpt>
      <trkpt lat="45.37072" lon="7.02619">
        <ele>2194.5896</ele>
        <time>2015-08-23T09:07:38Z</time>
      </trkpt>
      <trkpt lat="45.37066" lon="7.02624">
        <ele>2194.5896</ele>
        <time>2015-08-23T09:07:53Z</time>
      </trkpt>
      <trkpt lat="45.37063" lon="7.02625">
        <ele>2198.2898</ele>
        <time>2015-08-23T09:08:13Z</time>
      </trkpt>
      <trkpt lat="45.37056" lon="7.02628">
        <ele>2198.2898</ele>
        <time>2015-08-23T09:08:23Z</time>
      </trkpt>
      <trkpt lat="45.3705" lon="7.02632">
        <ele>2201.5442</ele>
        <time>2015-08-23T09:08:28Z</time>
      </trkpt>
      <trkpt lat="45.37043" lon="7.02634">
        <ele>2201.5442</ele>
        <time>2015-08-23T09:08:38Z</time>
      </trkpt>
      <trkpt lat="45.37043" lon="7.02634">
        <ele>2201.5442</ele>
        <time>2015-08-23T09:08:43Z</time>
      </trkpt>
      <trkpt lat="45.37042" lon="7.02635">
        <ele>2201.5442</ele>
        <time>2015-08-23T09:08:53Z</time>
      </trkpt>
      <trkpt lat="45.37037" lon="7.02639">
        <ele>2204.6042</ele>
        <time>2015-08-23T09:08:58Z</time>
      </trkpt>
      <trkpt lat="45.37037" lon="7.02643">
        <ele>2204.6042</ele>
        <time>2015-08-23T09:09:08Z</time>
      </trkpt>
      <trkpt lat="45.37037" lon="7.02646">
        <ele>2204.6042</ele>
        <time>2015-08-23T09:09:13Z</time>
      </trkpt>
      <trkpt lat="45.37033" lon="7.02651">
        <ele>2207.5588</ele>
        <time>2015-08-23T09:09:23Z</time>
      </trkpt>
      <trkpt lat="45.37031" lon="7.02653">
        <ele>2207.5588</ele>
        <time>2015-08-23T09:09:28Z</time>
      </trkpt>
      <trkpt lat="45.37029" lon="7.02645">
        <ele>2207.5588</ele>
        <time>2015-08-23T09:09:38Z</time>
      </trkpt>
      <trkpt lat="45.37029" lon="7.02641">
        <ele>2210.0872</ele>
        <time>2015-08-23T09:09:43Z</time>
      </trkpt>
      <trkpt lat="45.3703" lon="7.02638">
        <ele>2210.0872</ele>
        <time>2015-08-23T09:09:53Z</time>
      </trkpt>
      <trkpt lat="45.37029" lon="7.02635">
        <ele>2210.0872</ele>
        <time>2015-08-23T09:09:58Z</time>
      </trkpt>
      <trkpt lat="45.37025" lon="7.02633">
        <ele>2210.0872</ele>
        <time>2015-08-23T09:10:13Z</time>
      </trkpt>
      <trkpt lat="45.37025" lon="7.02632">
        <ele>2212.3264</ele>
        <time>2015-08-23T09:10:18Z</time>
      </trkpt>
      <trkpt lat="45.37025" lon="7.02631">
        <ele>2212.3264</ele>
        <time>2015-08-23T09:10:28Z</time>
      </trkpt>
      <trkpt lat="45.37022" lon="7.02636">
        <ele>2212.3264</ele>
        <time>2015-08-23T09:10:43Z</time>
      </trkpt>
      <trkpt lat="45.37021" lon="7.02639">
        <ele>2212.3264</ele>
        <time>2015-08-23T09:10:48Z</time>
      </trkpt>
      <trkpt lat="45.37017" lon="7.02641">
        <ele>2215.1387</ele>
        <time>2015-08-23T09:10:58Z</time>
      </trkpt>
      <trkpt lat="45.37017" lon="7.0264">
        <ele>2215.1387</ele>
        <time>2015-08-23T09:11:03Z</time>
      </trkpt>
      <trkpt lat="45.37019" lon="7.02635">
        <ele>2215.1387</ele>
        <time>2015-08-23T09:11:13Z</time>
      </trkpt>
      <trkpt lat="45.37019" lon="7.02635">
        <ele>2215.1387</ele>
        <time>2015-08-23T09:11:18Z</time>
      </trkpt>
      <trkpt lat="45.3702" lon="7.02628">
        <ele>2217.794</ele>
        <time>2015-08-23T09:11:28Z</time>
      </trkpt>
      <trkpt lat="45.37019" lon="7.02622">
        <ele>2217.794</ele>
        <time>2015-08-23T09:11:33Z</time>
      </trkpt>
      <trkpt lat="45.37016" lon="7.02613">
        <ele>2219.9912</ele>
        <time>2015-08-23T09:11:43Z</time>
      </trkpt>
      <trkpt lat="45.37015" lon="7.02608">
        <ele>2219.9912</ele>
        <time>2015-08-23T09:11:48Z</time>
      </trkpt>
      <trkpt lat="45.37014" lon="7.02605">
        <ele>2219.9912</ele>
        <time>2015-08-23T09:11:58Z</time>
      </trkpt>
      <trkpt lat="45.37012" lon="7.02601">
        <ele>2221.7986</ele>
        <time>2015-08-23T09:12:03Z</time>
      </trkpt>
      <trkpt lat="45.37011" lon="7.02597">
        <ele>2221.7986</ele>
        <time>2015-08-23T09:12:18Z</time>
      </trkpt>
      <trkpt lat="45.37011" lon="7.02597">
        <ele>2221.7986</ele>
        <time>2015-08-23T09:12:23Z</time>
      </trkpt>
      <trkpt lat="45.37008" lon="7.0259">
        <ele>2221.7986</ele>
        <time>2015-08-23T09:12:33Z</time>
      </trkpt>
      <trkpt lat="45.37008" lon="7.0259">
        <ele>2221.7986</ele>
        <time>2015-08-23T09:12:38Z</time>
      </trkpt>
      <trkpt lat="45.37008" lon="7.02589">
        <ele>2223.5684</ele>
        <time>2015-08-23T09:12:48Z</time>
      </trkpt>
      <trkpt lat="45.37008" lon="7.02586">
        <ele>2223.5684</ele>
        <time>2015-08-23T09:12:53Z</time>
      </trkpt>
      <trkpt lat="45.37008" lon="7.02585">
        <ele>2223.5684</ele>
        <time>2015-08-23T09:13:03Z</time>
      </trkpt>
      <trkpt lat="45.37007" lon="7.02583">
        <ele>2223.5684</ele>
        <time>2015-08-23T09:13:18Z</time>
      </trkpt>
      <trkpt lat="45.37007" lon="7.0258">
        <ele>2223.5684</ele>
        <time>2015-08-23T09:13:23Z</time>
      </trkpt>
      <trkpt lat="45.37007" lon="7.02578">
        <ele>2223.5684</ele>
        <time>2015-08-23T09:13:33Z</time>
      </trkpt>
      <trkpt lat="45.37007" lon="7.02575">
        <ele>2225.656</ele>
        <time>2015-08-23T09:13:38Z</time>
      </trkpt>
      <trkpt lat="45.37005" lon="7.0257">
        <ele>2225.656</ele>
        <time>2015-08-23T09:13:48Z</time>
      </trkpt>
      <trkpt lat="45.37004" lon="7.0257">
        <ele>2225.656</ele>
        <time>2015-08-23T09:14:08Z</time>
      </trkpt>
      <trkpt lat="45.37003" lon="7.0257">
        <ele>2225.656</ele>
        <time>2015-08-23T09:14:18Z</time>
      </trkpt>
      <trkpt lat="45.37002" lon="7.02571">
        <ele>2225.656</ele>
        <time>2015-08-23T09:14:23Z</time>
      </trkpt>
      <trkpt lat="45.37001" lon="7.02571">
        <ele>2225.656</ele>
        <time>2015-08-23T09:14:33Z</time>
      </trkpt>
      <trkpt lat="45.36999" lon="7.02571">
        <ele>2228.4045</ele>
        <time>2015-08-23T09:14:38Z</time>
      </trkpt>
      <trkpt lat="45.36992" lon="7.02571">
        <ele>2228.4045</ele>
        <time>2015-08-23T09:14:48Z</time>
      </trkpt>
      <trkpt lat="45.3699" lon="7.02573">
        <ele>2231.1206</ele>
        <time>2015-08-23T09:14:53Z</time>
      </trkpt>
      <trkpt lat="45.3699" lon="7.02573">
        <ele>2231.1206</ele>
        <time>2015-08-23T09:15:08Z</time>
      </trkpt>
      <trkpt lat="45.36989" lon="7.02573">
        <ele>2231.1206</ele>
        <time>2015-08-23T09:15:13Z</time>
      </trkpt>
      <trkpt lat="45.36983" lon="7.02575">
        <ele>2231.1206</ele>
        <time>2015-08-23T09:15:23Z</time>
      </trkpt>
      <trkpt lat="45.36978" lon="7.02577">
        <ele>2234.1855</ele>
        <time>2015-08-23T09:15:28Z</time>
      </trkpt>
      <trkpt lat="45.36975" lon="7.02575">
        <ele>2234.1855</ele>
        <time>2015-08-23T09:15:38Z</time>
      </trkpt>
      <trkpt lat="45.36974" lon="7.02573">
        <ele>2234.1855</ele>
        <time>2015-08-23T09:15:43Z</time>
      </trkpt>
      <trkpt lat="45.3697" lon="7.02573">
        <ele>2234.1855</ele>
        <time>2015-08-23T09:15:53Z</time>
      </trkpt>
      <trkpt lat="45.36969" lon="7.02573">
        <ele>2237.5767</ele>
        <time>2015-08-23T09:15:58Z</time>
      </trkpt>
      <trkpt lat="45.36963" lon="7.02574">
        <ele>2237.5767</ele>
        <time>2015-08-23T09:16:08Z</time>
      </trkpt>
      <trkpt lat="45.3696" lon="7.02574">
        <ele>2240.9695</ele>
        <time>2015-08-23T09:16:13Z</time>
      </trkpt>
      <trkpt lat="45.36957" lon="7.02573">
        <ele>2240.9695</ele>
        <time>2015-08-23T09:16:23Z</time>
      </trkpt>
      <trkpt lat="45.36956" lon="7.02574">
        <ele>2240.9695</ele>
        <time>2015-08-23T09:16:28Z</time>
      </trkpt>
      <trkpt lat="45.36953" lon="7.02572">
        <ele>2240.9695</ele>
        <time>2015-08-23T09:16:38Z</time>
      </trkpt>
      <trkpt lat="45.36952" lon="7.02573">
        <ele>2244.6685</ele>
        <time>2015-08-23T09:16:43Z</time>
      </trkpt>
      <trkpt lat="45.36946" lon="7.02572">
        <ele>2244.6685</ele>
        <time>2015-08-23T09:16:58Z</time>
      </trkpt>
      <trkpt lat="45.36944" lon="7.0257">
        <ele>2244.6685</ele>
        <time>2015-08-23T09:17:03Z</time>
      </trkpt>
      <trkpt lat="45.36941" lon="7.02569">
        <ele>2248.0322</ele>
        <time>2015-08-23T09:17:13Z</time>
      </trkpt>
      <trkpt lat="45.3694" lon="7.02569">
        <ele>2248.0322</ele>
        <time>2015-08-23T09:17:18Z</time>
      </trkpt>
      <trkpt lat="45.36937" lon="7.02568">
        <ele>2248.0322</ele>
        <time>2015-08-23T09:17:28Z</time>
      </trkpt>
      <trkpt lat="45.36936" lon="7.02566">
        <ele>2248.0322</ele>
        <time>2015-08-23T09:17:33Z</time>
      </trkpt>
      <trkpt lat="45.36933" lon="7.02563">
        <ele>2251.174</ele>
        <time>2015-08-23T09:17:43Z</time>
      </trkpt>
      <trkpt lat="45.36933" lon="7.02562">
        <ele>2251.174</ele>
        <time>2015-08-23T09:17:48Z</time>
      </trkpt>
      <trkpt lat="45.36931" lon="7.02554">
        <ele>2251.174</ele>
        <time>2015-08-23T09:17:58Z</time>
      </trkpt>
      <trkpt lat="45.36931" lon="7.02553">
        <ele>2251.174</ele>
        <time>2015-08-23T09:18:03Z</time>
      </trkpt>
      <trkpt lat="45.36934" lon="7.02552">
        <ele>2254.1992</ele>
        <time>2015-08-23T09:18:13Z</time>
      </trkpt>
      <trkpt lat="45.36936" lon="7.02549">
        <ele>2254.1992</ele>
        <time>2015-08-23T09:18:18Z</time>
      </trkpt>
      <trkpt lat="45.3694" lon="7.02544">
        <ele>2254.1992</ele>
        <time>2015-08-23T09:18:33Z</time>
      </trkpt>
      <trkpt lat="45.36944" lon="7.02541">
        <ele>2256.715</ele>
        <time>2015-08-23T09:18:38Z</time>
      </trkpt>
      <trkpt lat="45.36948" lon="7.02535">
        <ele>2256.715</ele>
        <time>2015-08-23T09:18:48Z</time>
      </trkpt>
      <trkpt lat="45.36948" lon="7.02535">
        <ele>2256.715</ele>
        <time>2015-08-23T09:18:53Z</time>
      </trkpt>
      <trkpt lat="45.36947" lon="7.02535">
        <ele>2256.715</ele>
        <time>2015-08-23T09:19:18Z</time>
      </trkpt>
      <trkpt lat="45.36947" lon="7.02535">
        <ele>2256.715</ele>
        <time>2015-08-23T09:19:23Z</time>
      </trkpt>
      <trkpt lat="45.36941" lon="7.02533">
        <ele>2259.1958</ele>
        <time>2015-08-23T09:19:33Z</time>
      </trkpt>
      <trkpt lat="45.3694" lon="7.02532">
        <ele>2259.1958</ele>
        <time>2015-08-23T09:19:38Z</time>
      </trkpt>
      <trkpt lat="45.36937" lon="7.02529">
        <ele>2259.1958</ele>
        <time>2015-08-23T09:19:48Z</time>
      </trkpt>
      <trkpt lat="45.36937" lon="7.02528">
        <ele>2259.1958</ele>
        <time>2015-08-23T09:19:53Z</time>
      </trkpt>
      <trkpt lat="45.36938" lon="7.02525">
        <ele>2259.1958</ele>
        <time>2015-08-23T09:20:03Z</time>
      </trkpt>
      <trkpt lat="45.3694" lon="7.02518">
        <ele>2261.994</ele>
        <time>2015-08-23T09:20:08Z</time>
      </trkpt>
      <trkpt lat="45.36943" lon="7.02513">
        <ele>2261.994</ele>
        <time>2015-08-23T09:20:18Z</time>
      </trkpt>
      <trkpt lat="45.36945" lon="7.0251">
        <ele>2261.994</ele>
        <time>2015-08-23T09:20:23Z</time>
      </trkpt>
      <trkpt lat="45.36945" lon="7.02505">
        <ele>2264.4548</ele>
        <time>2015-08-23T09:20:33Z</time>
      </trkpt>
      <trkpt lat="45.36945" lon="7.02505">
        <ele>2264.4548</ele>
        <time>2015-08-23T09:20:38Z</time>
      </trkpt>
      <trkpt lat="45.36943" lon="7.02505">
        <ele>2264.4548</ele>
        <time>2015-08-23T09:20:48Z</time>
      </trkpt>
      <trkpt lat="45.36943" lon="7.02505">
        <ele>2264.4548</ele>
        <time>2015-08-23T09:20:53Z</time>
      </trkpt>
      <trkpt lat="45.36937" lon="7.02505">
        <ele>2264.4548</ele>
        <time>2015-08-23T09:21:03Z</time>
      </trkpt>
      <trkpt lat="45.36934" lon="7.02502">
        <ele>2267.2705</ele>
        <time>2015-08-23T09:21:08Z</time>
      </trkpt>
      <trkpt lat="45.3693" lon="7.02502">
        <ele>2267.2705</ele>
        <time>2015-08-23T09:21:18Z</time>
      </trkpt>
      <trkpt lat="45.36929" lon="7.02504">
        <ele>2267.2705</ele>
        <time>2015-08-23T09:21:23Z</time>
      </trkpt>
      <trkpt lat="45.36925" lon="7.02504">
        <ele>2270.3313</ele>
        <time>2015-08-23T09:21:38Z</time>
      </trkpt>
      <trkpt lat="45.36924" lon="7.02504">
        <ele>2270.3313</ele>
        <time>2015-08-23T09:21:43Z</time>
      </trkpt>
      <trkpt lat="45.36923" lon="7.02503">
        <ele>2270.3313</ele>
        <time>2015-08-23T09:21:53Z</time>
      </trkpt>
      <trkpt lat="45.36923" lon="7.02503">
        <ele>2270.3313</ele>
        <time>2015-08-23T09:21:58Z</time>
      </trkpt>
      <trkpt lat="45.36917" lon="7.02503">
        <ele>2270.3313</ele>
        <time>2015-08-23T09:22:08Z</time>
      </trkpt>
      <trkpt lat="45.36915" lon="7.02505">
        <ele>2273.6208</ele>
        <time>2015-08-23T09:22:13Z</time>
      </trkpt>
      <trkpt lat="45.36914" lon="7.02505">
        <ele>2273.6208</ele>
        <time>2015-08-23T09:22:23Z</time>
      </trkpt>
      <trkpt lat="45.36914" lon="7.02503">
        <ele>2273.6208</ele>
        <time>2015-08-23T09:22:28Z</time>
      </trkpt>
      <trkpt lat="45.36912" lon="7.02498">
        <ele>2273.6208</ele>
        <time>2015-08-23T09:22:38Z</time>
      </trkpt>
      <trkpt lat="45.3691" lon="7.02498">
        <ele>2273.6208</ele>
        <time>2015-08-23T09:22:43Z</time>
      </trkpt>
      <trkpt lat="45.36909" lon="7.02499">
        <ele>2277.1099</ele>
        <time>2015-08-23T09:22:53Z</time>
      </trkpt>
      <trkpt lat="45.36909" lon="7.025">
        <ele>2277.1099</ele>
        <time>2015-08-23T09:22:58Z</time>
      </trkpt>
      <trkpt lat="45.3691" lon="7.02501">
        <ele>2277.1099</ele>
        <time>2015-08-23T09:23:08Z</time>
      </trkpt>
      <trkpt lat="45.3691" lon="7.02502">
        <ele>2277.1099</ele>
        <time>2015-08-23T09:23:13Z</time>
      </trkpt>
      <trkpt lat="45.36908" lon="7.025">
        <ele>2277.1099</ele>
        <time>2015-08-23T09:23:23Z</time>
      </trkpt>
      <trkpt lat="45.36906" lon="7.02502">
        <ele>2277.1099</ele>
        <time>2015-08-23T09:23:28Z</time>
      </trkpt>
      <trkpt lat="45.36903" lon="7.02502">
        <ele>2280.6545</ele>
        <time>2015-08-23T09:23:38Z</time>
      </trkpt>
      <trkpt lat="45.36904" lon="7.025">
        <ele>2280.6545</ele>
        <time>2015-08-23T09:23:43Z</time>
      </trkpt>
      <trkpt lat="45.36903" lon="7.02501">
        <ele>2280.6545</ele>
        <time>2015-08-23T09:23:53Z</time>
      </trkpt>
      <trkpt lat="45.36901" lon="7.02501">
        <ele>2280.6545</ele>
        <time>2015-08-23T09:23:58Z</time>
      </trkpt>
      <trkpt lat="45.36898" lon="7.02504">
        <ele>2280.6545</ele>
        <time>2015-08-23T09:24:08Z</time>
      </trkpt>
      <trkpt lat="45.36898" lon="7.02502">
        <ele>2284.2222</ele>
        <time>2015-08-23T09:24:13Z</time>
      </trkpt>
      <trkpt lat="45.36899" lon="7.02498">
        <ele>2284.2222</ele>
        <time>2015-08-23T09:24:23Z</time>
      </trkpt>
      <trkpt lat="45.36899" lon="7.02495">
        <ele>2284.2222</ele>
        <time>2015-08-23T09:24:28Z</time>
      </trkpt>
      <trkpt lat="45.36896" lon="7.02493">
        <ele>2284.2222</ele>
        <time>2015-08-23T09:24:43Z</time>
      </trkpt>
      <trkpt lat="45.36894" lon="7.02492">
        <ele>2287.8694</ele>
        <time>2015-08-23T09:24:48Z</time>
      </trkpt>
      <trkpt lat="45.36891" lon="7.02496">
        <ele>2287.8694</ele>
        <time>2015-08-23T09:24:58Z</time>
      </trkpt>
      <trkpt lat="45.3689" lon="7.02497">
        <ele>2287.8694</ele>
        <time>2015-08-23T09:25:03Z</time>
      </trkpt>
      <trkpt lat="45.36885" lon="7.02497">
        <ele>2291.5469</ele>
        <time>2015-08-23T09:25:13Z</time>
      </trkpt>
      <trkpt lat="45.36883" lon="7.02497">
        <ele>2291.5469</ele>
        <time>2015-08-23T09:25:18Z</time>
      </trkpt>
      <trkpt lat="45.36885" lon="7.02493">
        <ele>2291.5469</ele>
        <time>2015-08-23T09:25:28Z</time>
      </trkpt>
      <trkpt lat="45.36885" lon="7.02489">
        <ele>2291.5469</ele>
        <time>2015-08-23T09:25:33Z</time>
      </trkpt>
      <trkpt lat="45.36886" lon="7.02488">
        <ele>2295.065</ele>
        <time>2015-08-23T09:25:43Z</time>
      </trkpt>
      <trkpt lat="45.36886" lon="7.02487">
        <ele>2295.065</ele>
        <time>2015-08-23T09:25:48Z</time>
      </trkpt>
      <trkpt lat="45.36886" lon="7.02484">
        <ele>2295.065</ele>
        <time>2015-08-23T09:25:58Z</time>
      </trkpt>
      <trkpt lat="45.36886" lon="7.02483">
        <ele>2295.065</ele>
        <time>2015-08-23T09:26:03Z</time>
      </trkpt>
      <trkpt lat="45.36889" lon="7.02479">
        <ele>2295.065</ele>
        <time>2015-08-23T09:26:13Z</time>
      </trkpt>
      <trkpt lat="45.36891" lon="7.02478">
        <ele>2298.205</ele>
        <time>2015-08-23T09:26:18Z</time>
      </trkpt>
      <trkpt lat="45.36893" lon="7.02474">
        <ele>2298.205</ele>
        <time>2015-08-23T09:26:28Z</time>
      </trkpt>
      <trkpt lat="45.36894" lon="7.02471">
        <ele>2298.205</ele>
        <time>2015-08-23T09:26:33Z</time>
      </trkpt>
      <trkpt lat="45.36895" lon="7.02467">
        <ele>2301.1118</ele>
        <time>2015-08-23T09:26:43Z</time>
      </trkpt>
      <trkpt lat="45.36895" lon="7.02467">
        <ele>2301.1118</ele>
        <time>2015-08-23T09:26:48Z</time>
      </trkpt>
      <trkpt lat="45.36897" lon="7.02464">
        <ele>2301.1118</ele>
        <time>2015-08-23T09:26:58Z</time>
      </trkpt>
      <trkpt lat="45.36896" lon="7.02463">
        <ele>2301.1118</ele>
        <time>2015-08-23T09:27:03Z</time>
      </trkpt>
      <trkpt lat="45.36897" lon="7.02462">
        <ele>2301.1118</ele>
        <time>2015-08-23T09:27:13Z</time>
      </trkpt>
      <trkpt lat="45.36898" lon="7.02461">
        <ele>2301.1118</ele>
        <time>2015-08-23T09:27:18Z</time>
      </trkpt>
      <trkpt lat="45.36901" lon="7.02463">
        <ele>2304.755</ele>
        <time>2015-08-23T09:27:28Z</time>
      </trkpt>
      <trkpt lat="45.36904" lon="7.02458">
        <ele>2304.755</ele>
        <time>2015-08-23T09:27:33Z</time>
      </trkpt>
      <trkpt lat="45.36904" lon="7.02454">
        <ele>2304.755</ele>
        <time>2015-08-23T09:27:43Z</time>
      </trkpt>
      <trkpt lat="45.36903" lon="7.02454">
        <ele>2304.755</ele>
        <time>2015-08-23T09:27:48Z</time>
      </trkpt>
      <trkpt lat="45.36896" lon="7.02453">
        <ele>2308.5178</ele>
        <time>2015-08-23T09:28:03Z</time>
      </trkpt>
      <trkpt lat="45.36895" lon="7.02452">
        <ele>2308.5178</ele>
        <time>2015-08-23T09:28:08Z</time>
      </trkpt>
      <trkpt lat="45.36891" lon="7.02452">
        <ele>2308.5178</ele>
        <time>2015-08-23T09:28:18Z</time>
      </trkpt>
      <trkpt lat="45.36889" lon="7.02453">
        <ele>2308.5178</ele>
        <time>2015-08-23T09:28:23Z</time>
      </trkpt>
      <trkpt lat="45.36885" lon="7.02452">
        <ele>2312.5645</ele>
        <time>2015-08-23T09:28:33Z</time>
      </trkpt>
      <trkpt lat="45.36883" lon="7.02453">
        <ele>2312.5645</ele>
        <time>2015-08-23T09:28:38Z</time>
      </trkpt>
      <trkpt lat="45.36881" lon="7.02451">
        <ele>2312.5645</ele>
        <time>2015-08-23T09:28:48Z</time>
      </trkpt>
      <trkpt lat="45.3688" lon="7.02452">
        <ele>2312.5645</ele>
        <time>2015-08-23T09:28:53Z</time>
      </trkpt>
      <trkpt lat="45.36879" lon="7.02453">
        <ele>2312.5645</ele>
        <time>2015-08-23T09:29:03Z</time>
      </trkpt>
      <trkpt lat="45.36878" lon="7.02453">
        <ele>2312.5645</ele>
        <time>2015-08-23T09:29:08Z</time>
      </trkpt>
      <trkpt lat="45.36877" lon="7.02451">
        <ele>2312.5645</ele>
        <time>2015-08-23T09:29:18Z</time>
      </trkpt>
      <trkpt lat="45.36877" lon="7.02451">
        <ele>2316.8867</ele>
        <time>2015-08-23T09:29:23Z</time>
      </trkpt>
      <trkpt lat="45.36875" lon="7.02451">
        <ele>2316.8867</ele>
        <time>2015-08-23T09:29:33Z</time>
      </trkpt>
      <trkpt lat="45.36873" lon="7.02449">
        <ele>2316.8867</ele>
        <time>2015-08-23T09:29:38Z</time>
      </trkpt>
      <trkpt lat="45.36873" lon="7.02445">
        <ele>2316.8867</ele>
        <time>2015-08-23T09:29:48Z</time>
      </trkpt>
      <trkpt lat="45.36874" lon="7.02445">
        <ele>2316.8867</ele>
        <time>2015-08-23T09:29:53Z</time>
      </trkpt>
      <trkpt lat="45.36876" lon="7.02439">
        <ele>2321.361</ele>
        <time>2015-08-23T09:30:08Z</time>
      </trkpt>
      <trkpt lat="45.36877" lon="7.02439">
        <ele>2321.361</ele>
        <time>2015-08-23T09:30:13Z</time>
      </trkpt>
      <trkpt lat="45.36877" lon="7.02437">
        <ele>2321.361</ele>
        <time>2015-08-23T09:30:23Z</time>
      </trkpt>
      <trkpt lat="45.36877" lon="7.02434">
        <ele>2321.361</ele>
        <time>2015-08-23T09:30:28Z</time>
      </trkpt>
      <trkpt lat="45.36882" lon="7.02429">
        <ele>2325.6277</ele>
        <time>2015-08-23T09:30:38Z</time>
      </trkpt>
      <trkpt lat="45.36883" lon="7.02427">
        <ele>2325.6277</ele>
        <time>2015-08-23T09:30:43Z</time>
      </trkpt>
      <trkpt lat="45.36884" lon="7.02421">
        <ele>2325.6277</ele>
        <time>2015-08-23T09:30:53Z</time>
      </trkpt>
      <trkpt lat="45.36885" lon="7.0242">
        <ele>2325.6277</ele>
        <time>2015-08-23T09:30:58Z</time>
      </trkpt>
      <trkpt lat="45.36887" lon="7.02418">
        <ele>2329.671</ele>
        <time>2015-08-23T09:31:08Z</time>
      </trkpt>
      <trkpt lat="45.36889" lon="7.02417">
        <ele>2329.671</ele>
        <time>2015-08-23T09:31:13Z</time>
      </trkpt>
      <trkpt lat="45.36892" lon="7.02414">
        <ele>2329.671</ele>
        <time>2015-08-23T09:31:23Z</time>
      </trkpt>
      <trkpt lat="45.36893" lon="7.02413">
        <ele>2329.671</ele>
        <time>2015-08-23T09:31:28Z</time>
      </trkpt>
      <trkpt lat="45.36893" lon="7.02414">
        <ele>2329.671</ele>
        <time>2015-08-23T09:31:38Z</time>
      </trkpt>
      <trkpt lat="45.36894" lon="7.02412">
        <ele>2329.671</ele>
        <time>2015-08-23T09:31:43Z</time>
      </trkpt>
      <trkpt lat="45.36894" lon="7.02413">
        <ele>2333.7646</ele>
        <time>2015-08-23T09:31:48Z</time>
      </trkpt>
      <trkpt lat="45.36894" lon="7.02413">
        <ele>2333.7646</ele>
        <time>2015-08-23T09:31:53Z</time>
      </trkpt>
      <trkpt lat="45.36894" lon="7.02411">
        <ele>2333.7646</ele>
        <time>2015-08-23T09:31:58Z</time>
      </trkpt>
      <trkpt lat="45.36895" lon="7.02412">
        <ele>2333.7646</ele>
        <time>2015-08-23T09:32:03Z</time>
      </trkpt>
      <trkpt lat="45.36894" lon="7.02415">
        <ele>2333.7646</ele>
        <time>2015-08-23T09:32:08Z</time>
      </trkpt>
      <trkpt lat="45.36895" lon="7.02415">
        <ele>2333.7646</ele>
        <time>2015-08-23T09:32:13Z</time>
      </trkpt>
      <trkpt lat="45.36895" lon="7.02406">
        <ele>2337.3994</ele>
        <time>2015-08-23T09:32:28Z</time>
      </trkpt>
      <trkpt lat="45.36897" lon="7.02405">
        <ele>2337.3994</ele>
        <time>2015-08-23T09:32:33Z</time>
      </trkpt>
      <trkpt lat="45.36901" lon="7.02403">
        <ele>2337.3994</ele>
        <time>2015-08-23T09:32:43Z</time>
      </trkpt>
      <trkpt lat="45.36903" lon="7.02401">
        <ele>2340.7812</ele>
        <time>2015-08-23T09:32:48Z</time>
      </trkpt>
      <trkpt lat="45.36906" lon="7.02395">
        <ele>2340.7812</ele>
        <time>2015-08-23T09:32:58Z</time>
      </trkpt>
      <trkpt lat="45.36906" lon="7.02393">
        <ele>2340.7812</ele>
        <time>2015-08-23T09:33:03Z</time>
      </trkpt>
      <trkpt lat="45.36908" lon="7.0239">
        <ele>2344.145</ele>
        <time>2015-08-23T09:33:13Z</time>
      </trkpt>
      <trkpt lat="45.3691" lon="7.02387">
        <ele>2344.145</ele>
        <time>2015-08-23T09:33:18Z</time>
      </trkpt>
      <trkpt lat="45.36914" lon="7.02384">
        <ele>2344.145</ele>
        <time>2015-08-23T09:33:28Z</time>
      </trkpt>
      <trkpt lat="45.36917" lon="7.02382">
        <ele>2347.3628</ele>
        <time>2015-08-23T09:33:33Z</time>
      </trkpt>
      <trkpt lat="45.36923" lon="7.02375">
        <ele>2347.3628</ele>
        <time>2015-08-23T09:33:43Z</time>
      </trkpt>
      <trkpt lat="45.36923" lon="7.02372">
        <ele>2350.273</ele>
        <time>2015-08-23T09:33:48Z</time>
      </trkpt>
      <trkpt lat="45.36923" lon="7.02367">
        <ele>2350.273</ele>
        <time>2015-08-23T09:34:03Z</time>
      </trkpt>
      <trkpt lat="45.36924" lon="7.02363">
        <ele>2350.273</ele>
        <time>2015-08-23T09:34:08Z</time>
      </trkpt>
      <trkpt lat="45.36923" lon="7.0236">
        <ele>2353.159</ele>
        <time>2015-08-23T09:34:18Z</time>
      </trkpt>
      <trkpt lat="45.3692" lon="7.02361">
        <ele>2353.159</ele>
        <time>2015-08-23T09:34:23Z</time>
      </trkpt>
      <trkpt lat="45.36916" lon="7.02366">
        <ele>2353.159</ele>
        <time>2015-08-23T09:34:33Z</time>
      </trkpt>
      <trkpt lat="45.36914" lon="7.02365">
        <ele>2355.9524</ele>
        <time>2015-08-23T09:34:38Z</time>
      </trkpt>
      <trkpt lat="45.36914" lon="7.02362">
        <ele>2355.9524</ele>
        <time>2015-08-23T09:34:48Z</time>
      </trkpt>
      <trkpt lat="45.36916" lon="7.02359">
        <ele>2355.9524</ele>
        <time>2015-08-23T09:34:53Z</time>
      </trkpt>
      <trkpt lat="45.36919" lon="7.0235">
        <ele>2358.806</ele>
        <time>2015-08-23T09:35:03Z</time>
      </trkpt>
      <trkpt lat="45.3692" lon="7.02348">
        <ele>2358.806</ele>
        <time>2015-08-23T09:35:08Z</time>
      </trkpt>
      <trkpt lat="45.36923" lon="7.02346">
        <ele>2358.806</ele>
        <time>2015-08-23T09:35:18Z</time>
      </trkpt>
      <trkpt lat="45.36926" lon="7.02348">
        <ele>2358.806</ele>
        <time>2015-08-23T09:35:23Z</time>
      </trkpt>
      <trkpt lat="45.36929" lon="7.02347">
        <ele>2361.76</ele>
        <time>2015-08-23T09:35:33Z</time>
      </trkpt>
      <trkpt lat="45.36929" lon="7.02342">
        <ele>2361.76</ele>
        <time>2015-08-23T09:35:38Z</time>
      </trkpt>
      <trkpt lat="45.36927" lon="7.02339">
        <ele>2361.76</ele>
        <time>2015-08-23T09:35:53Z</time>
      </trkpt>
      <trkpt lat="45.36925" lon="7.02337">
        <ele>2361.76</ele>
        <time>2015-08-23T09:35:58Z</time>
      </trkpt>
      <trkpt lat="45.36925" lon="7.02333">
        <ele>2364.362</ele>
        <time>2015-08-23T09:36:08Z</time>
      </trkpt>
      <trkpt lat="45.36926" lon="7.02331">
        <ele>2364.362</ele>
        <time>2015-08-23T09:36:13Z</time>
      </trkpt>
      <trkpt lat="45.36923" lon="7.02326">
        <ele>2364.362</ele>
        <time>2015-08-23T09:36:23Z</time>
      </trkpt>
      <trkpt lat="45.36923" lon="7.02324">
        <ele>2364.362</ele>
        <time>2015-08-23T09:36:28Z</time>
      </trkpt>
      <trkpt lat="45.36919" lon="7.02324">
        <ele>2366.813</ele>
        <time>2015-08-23T09:36:38Z</time>
      </trkpt>
      <trkpt lat="45.36917" lon="7.02324">
        <ele>2366.813</ele>
        <time>2015-08-23T09:36:43Z</time>
      </trkpt>
      <trkpt lat="45.36914" lon="7.0232">
        <ele>2366.813</ele>
        <time>2015-08-23T09:36:53Z</time>
      </trkpt>
      <trkpt lat="45.36915" lon="7.02319">
        <ele>2366.813</ele>
        <time>2015-08-23T09:36:58Z</time>
      </trkpt>
      <trkpt lat="45.36914" lon="7.02318">
        <ele>2369.386</ele>
        <time>2015-08-23T09:37:13Z</time>
      </trkpt>
      <trkpt lat="45.36914" lon="7.02315">
        <ele>2369.386</ele>
        <time>2015-08-23T09:37:18Z</time>
      </trkpt>
      <trkpt lat="45.36911" lon="7.02313">
        <ele>2369.386</ele>
        <time>2015-08-23T09:37:28Z</time>
      </trkpt>
      <trkpt lat="45.36911" lon="7.02312">
        <ele>2369.386</ele>
        <time>2015-08-23T09:37:33Z</time>
      </trkpt>
      <trkpt lat="45.36915" lon="7.02311">
        <ele>2372.0603</ele>
        <time>2015-08-23T09:37:43Z</time>
      </trkpt>
      <trkpt lat="45.36916" lon="7.02312">
        <ele>2372.0603</ele>
        <time>2015-08-23T09:37:48Z</time>
      </trkpt>
      <trkpt lat="45.36917" lon="7.02311">
        <ele>2372.0603</ele>
        <time>2015-08-23T09:37:58Z</time>
      </trkpt>
      <trkpt lat="45.36916" lon="7.02311">
        <ele>2372.0603</ele>
        <time>2015-08-23T09:38:03Z</time>
      </trkpt>
      <trkpt lat="45.36914" lon="7.02313">
        <ele>2372.0603</ele>
        <time>2015-08-23T09:38:13Z</time>
      </trkpt>
      <trkpt lat="45.36913" lon="7.02314">
        <ele>2372.0603</ele>
        <time>2015-08-23T09:38:18Z</time>
      </trkpt>
      <trkpt lat="45.36915" lon="7.02312">
        <ele>2374.989</ele>
        <time>2015-08-23T09:38:28Z</time>
      </trkpt>
      <trkpt lat="45.36915" lon="7.02308">
        <ele>2374.989</ele>
        <time>2015-08-23T09:38:33Z</time>
      </trkpt>
      <trkpt lat="45.36919" lon="7.023">
        <ele>2377.477</ele>
        <time>2015-08-23T09:38:43Z</time>
      </trkpt>
      <trkpt lat="45.36921" lon="7.02297">
        <ele>2377.477</ele>
        <time>2015-08-23T09:38:48Z</time>
      </trkpt>
      <trkpt lat="45.36924" lon="7.02295">
        <ele>2377.477</ele>
        <time>2015-08-23T09:39:03Z</time>
      </trkpt>
      <trkpt lat="45.36925" lon="7.02298">
        <ele>2377.477</ele>
        <time>2015-08-23T09:39:08Z</time>
      </trkpt>
      <trkpt lat="45.36929" lon="7.02298">
        <ele>2380.2083</ele>
        <time>2015-08-23T09:39:18Z</time>
      </trkpt>
      <trkpt lat="45.36931" lon="7.02296">
        <ele>2380.2083</ele>
        <time>2015-08-23T09:39:23Z</time>
      </trkpt>
      <trkpt lat="45.36931" lon="7.02293">
        <ele>2380.2083</ele>
        <time>2015-08-23T09:39:33Z</time>
      </trkpt>
      <trkpt lat="45.36932" lon="7.0229">
        <ele>2380.2083</ele>
        <time>2015-08-23T09:39:38Z</time>
      </trkpt>
      <trkpt lat="45.36936" lon="7.02286">
        <ele>2382.9211</ele>
        <time>2015-08-23T09:39:48Z</time>
      </trkpt>
      <trkpt lat="45.36935" lon="7.02286">
        <ele>2382.9211</ele>
        <time>2015-08-23T09:39:53Z</time>
      </trkpt>
      <trkpt lat="45.36938" lon="7.02287">
        <ele>2382.9211</ele>
        <time>2015-08-23T09:40:03Z</time>
      </trkpt>
      <trkpt lat="45.36939" lon="7.02286">
        <ele>2382.9211</ele>
        <time>2015-08-23T09:40:08Z</time>
      </trkpt>
      <trkpt lat="45.36942" lon="7.02284">
        <ele>2382.9211</ele>
        <time>2015-08-23T09:40:18Z</time>
      </trkpt>
      <trkpt lat="45.36943" lon="7.02282">
        <ele>2385.0857</ele>
        <time>2015-08-23T09:40:23Z</time>
      </trkpt>
      <trkpt lat="45.36943" lon="7.0228">
        <ele>2385.0857</ele>
        <time>2015-08-23T09:40:33Z</time>
      </trkpt>
      <trkpt lat="45.36944" lon="7.02275">
        <ele>2385.0857</ele>
        <time>2015-08-23T09:40:38Z</time>
      </trkpt>
      <trkpt lat="45.36945" lon="7.02272">
        <ele>2385.0857</ele>
        <time>2015-08-23T09:40:53Z</time>
      </trkpt>
      <trkpt lat="45.36945" lon="7.02267">
        <ele>2387.0913</ele>
        <time>2015-08-23T09:40:58Z</time>
      </trkpt>
      <trkpt lat="45.36947" lon="7.02258">
        <ele>2387.0913</ele>
        <time>2015-08-23T09:41:08Z</time>
      </trkpt>
      <trkpt lat="45.36948" lon="7.02257">
        <ele>2387.0913</ele>
        <time>2015-08-23T09:41:13Z</time>
      </trkpt>
      <trkpt lat="45.36951" lon="7.02253">
        <ele>2389.0977</ele>
        <time>2015-08-23T09:41:23Z</time>
      </trkpt>
      <trkpt lat="45.36952" lon="7.0225">
        <ele>2389.0977</ele>
        <time>2015-08-23T09:41:28Z</time>
      </trkpt>
      <trkpt lat="45.36954" lon="7.02245">
        <ele>2389.0977</ele>
        <time>2015-08-23T09:41:38Z</time>
      </trkpt>
      <trkpt lat="45.36955" lon="7.02243">
        <ele>2389.0977</ele>
        <time>2015-08-23T09:41:43Z</time>
      </trkpt>
      <trkpt lat="45.36952" lon="7.02246">
        <ele>2391.3384</ele>
        <time>2015-08-23T09:41:53Z</time>
      </trkpt>
      <trkpt lat="45.36952" lon="7.02247">
        <ele>2391.3384</ele>
        <time>2015-08-23T09:41:58Z</time>
      </trkpt>
      <trkpt lat="45.36955" lon="7.02247">
        <ele>2391.3384</ele>
        <time>2015-08-23T09:42:08Z</time>
      </trkpt>
      <trkpt lat="45.36956" lon="7.02248">
        <ele>2391.3384</ele>
        <time>2015-08-23T09:42:13Z</time>
      </trkpt>
      <trkpt lat="45.36956" lon="7.02239">
        <ele>2393.929</ele>
        <time>2015-08-23T09:42:23Z</time>
      </trkpt>
      <trkpt lat="45.36957" lon="7.02235">
        <ele>2393.929</ele>
        <time>2015-08-23T09:42:28Z</time>
      </trkpt>
      <trkpt lat="45.36961" lon="7.0223">
        <ele>2393.929</ele>
        <time>2015-08-23T09:42:38Z</time>
      </trkpt>
      <trkpt lat="45.36963" lon="7.0223">
        <ele>2396.3125</ele>
        <time>2015-08-23T09:42:43Z</time>
      </trkpt>
      <trkpt lat="45.36964" lon="7.02225">
        <ele>2396.3125</ele>
        <time>2015-08-23T09:42:53Z</time>
      </trkpt>
      <trkpt lat="45.36962" lon="7.02223">
        <ele>2396.3125</ele>
        <time>2015-08-23T09:42:58Z</time>
      </trkpt>
      <trkpt lat="45.36965" lon="7.02221">
        <ele>2396.3125</ele>
        <time>2015-08-23T09:43:13Z</time>
      </trkpt>
      <trkpt lat="45.36966" lon="7.02221">
        <ele>2398.8088</ele>
        <time>2015-08-23T09:43:18Z</time>
      </trkpt>
      <trkpt lat="45.3697" lon="7.0222">
        <ele>2398.8088</ele>
        <time>2015-08-23T09:43:28Z</time>
      </trkpt>
      <trkpt lat="45.3697" lon="7.02216">
        <ele>2398.8088</ele>
        <time>2015-08-23T09:43:33Z</time>
      </trkpt>
      <trkpt lat="45.36972" lon="7.02215">
        <ele>2398.8088</ele>
        <time>2015-08-23T09:43:43Z</time>
      </trkpt>
      <trkpt lat="45.36972" lon="7.02214">
        <ele>2401.1956</ele>
        <time>2015-08-23T09:43:48Z</time>
      </trkpt>
      <trkpt lat="45.36973" lon="7.02209">
        <ele>2401.1956</ele>
        <time>2015-08-23T09:43:58Z</time>
      </trkpt>
      <trkpt lat="45.36974" lon="7.02206">
        <ele>2401.1956</ele>
        <time>2015-08-23T09:44:03Z</time>
      </trkpt>
      <trkpt lat="45.36974" lon="7.02201">
        <ele>2403.8145</ele>
        <time>2015-08-23T09:44:13Z</time>
      </trkpt>
      <trkpt lat="45.36974" lon="7.022">
        <ele>2403.8145</ele>
        <time>2015-08-23T09:44:18Z</time>
      </trkpt>
      <trkpt lat="45.36974" lon="7.022">
        <ele>2403.8145</ele>
        <time>2015-08-23T09:44:28Z</time>
      </trkpt>
      <trkpt lat="45.36975" lon="7.02203">
        <ele>2403.8145</ele>
        <time>2015-08-23T09:44:33Z</time>
      </trkpt>
      <trkpt lat="45.36976" lon="7.02204">
        <ele>2403.8145</ele>
        <time>2015-08-23T09:44:43Z</time>
      </trkpt>
      <trkpt lat="45.36976" lon="7.02203">
        <ele>2403.8145</ele>
        <time>2015-08-23T09:44:48Z</time>
      </trkpt>
      <trkpt lat="45.36978" lon="7.02198">
        <ele>2406.0876</ele>
        <time>2015-08-23T09:45:03Z</time>
      </trkpt>
      <trkpt lat="45.36979" lon="7.02195">
        <ele>2406.0876</ele>
        <time>2015-08-23T09:45:08Z</time>
      </trkpt>
      <trkpt lat="45.36979" lon="7.02194">
        <ele>2406.0876</ele>
        <time>2015-08-23T09:45:18Z</time>
      </trkpt>
      <trkpt lat="45.3698" lon="7.02193">
        <ele>2406.0876</ele>
        <time>2015-08-23T09:45:23Z</time>
      </trkpt>
      <trkpt lat="45.36984" lon="7.0219">
        <ele>2406.0876</ele>
        <time>2015-08-23T09:45:33Z</time>
      </trkpt>
      <trkpt lat="45.36986" lon="7.02189">
        <ele>2408.6191</ele>
        <time>2015-08-23T09:45:38Z</time>
      </trkpt>
      <trkpt lat="45.36988" lon="7.0219">
        <ele>2408.6191</ele>
        <time>2015-08-23T09:45:48Z</time>
      </trkpt>
      <trkpt lat="45.36986" lon="7.0219">
        <ele>2408.6191</ele>
        <time>2015-08-23T09:45:53Z</time>
      </trkpt>
      <trkpt lat="45.36985" lon="7.02186">
        <ele>2408.6191</ele>
        <time>2015-08-23T09:46:03Z</time>
      </trkpt>
      <trkpt lat="45.36985" lon="7.02186">
        <ele>2408.6191</ele>
        <time>2015-08-23T09:46:08Z</time>
      </trkpt>
      <trkpt lat="45.36987" lon="7.02186">
        <ele>2408.6191</ele>
        <time>2015-08-23T09:46:18Z</time>
      </trkpt>
      <trkpt lat="45.36989" lon="7.02187">
        <ele>2411.4927</ele>
        <time>2015-08-23T09:46:23Z</time>
      </trkpt>
      <trkpt lat="45.36991" lon="7.02187">
        <ele>2411.4927</ele>
        <time>2015-08-23T09:46:33Z</time>
      </trkpt>
      <trkpt lat="45.36992" lon="7.02187">
        <ele>2411.4927</ele>
        <time>2015-08-23T09:46:38Z</time>
      </trkpt>
      <trkpt lat="45.36996" lon="7.02184">
        <ele>2411.4927</ele>
        <time>2015-08-23T09:46:48Z</time>
      </trkpt>
      <trkpt lat="45.36998" lon="7.02182">
        <ele>2413.963</ele>
        <time>2015-08-23T09:46:53Z</time>
      </trkpt>
      <trkpt lat="45.37003" lon="7.02181">
        <ele>2413.963</ele>
        <time>2015-08-23T09:47:03Z</time>
      </trkpt>
      <trkpt lat="45.37007" lon="7.0218">
        <ele>2413.963</ele>
        <time>2015-08-23T09:47:08Z</time>
      </trkpt>
      <trkpt lat="45.37017" lon="7.02175">
        <ele>2416.1904</ele>
        <time>2015-08-23T09:47:23Z</time>
      </trkpt>
      <trkpt lat="45.37019" lon="7.0217">
        <ele>2416.1904</ele>
        <time>2015-08-23T09:47:28Z</time>
      </trkpt>
      <trkpt lat="45.37025" lon="7.02159">
        <ele>2417.7922</ele>
        <time>2015-08-23T09:47:38Z</time>
      </trkpt>
      <trkpt lat="45.37025" lon="7.02159">
        <ele>2417.7922</ele>
        <time>2015-08-23T09:47:43Z</time>
      </trkpt>
      <trkpt lat="45.37028" lon="7.02152">
        <ele>2417.7922</ele>
        <time>2015-08-23T09:47:53Z</time>
      </trkpt>
      <trkpt lat="45.37029" lon="7.02148">
        <ele>2419.3079</ele>
        <time>2015-08-23T09:47:58Z</time>
      </trkpt>
      <trkpt lat="45.37027" lon="7.02147">
        <ele>2419.3079</ele>
        <time>2015-08-23T09:48:08Z</time>
      </trkpt>
      <trkpt lat="45.37027" lon="7.02147">
        <ele>2419.3079</ele>
        <time>2015-08-23T09:48:13Z</time>
      </trkpt>
      <trkpt lat="45.37027" lon="7.02147">
        <ele>2419.3079</ele>
        <time>2015-08-23T09:48:28Z</time>
      </trkpt>
      <trkpt lat="45.37026" lon="7.02147">
        <ele>2419.3079</ele>
        <time>2015-08-23T09:48:43Z</time>
      </trkpt>
      <trkpt lat="45.37026" lon="7.02147">
        <ele>2419.3079</ele>
        <time>2015-08-23T09:48:53Z</time>
      </trkpt>
      <trkpt lat="45.37026" lon="7.02147">
        <ele>2419.3079</ele>
        <time>2015-08-23T09:48:58Z</time>
      </trkpt>
      <trkpt lat="45.37026" lon="7.02147">
        <ele>2419.3079</ele>
        <time>2015-08-23T09:49:33Z</time>
      </trkpt>
      <trkpt lat="45.37025" lon="7.02148">
        <ele>2419.3079</ele>
        <time>2015-08-23T09:54:43Z</time>
      </trkpt>
      <trkpt lat="45.37021" lon="7.0215">
        <ele>2419.3079</ele>
        <time>2015-08-23T09:54:53Z</time>
      </trkpt>
      <trkpt lat="45.37017" lon="7.02152">
        <ele>2421.7563</ele>
        <time>2015-08-23T09:54:58Z</time>
      </trkpt>
      <trkpt lat="45.37011" lon="7.0215">
        <ele>2421.7563</ele>
        <time>2015-08-23T09:55:08Z</time>
      </trkpt>
      <trkpt lat="45.37008" lon="7.0215">
        <ele>2423.7446</ele>
        <time>2015-08-23T09:55:13Z</time>
      </trkpt>
      <trkpt lat="45.36995" lon="7.02148">
        <ele>2425.5542</ele>
        <time>2015-08-23T09:55:28Z</time>
      </trkpt>
      <trkpt lat="45.3699" lon="7.0215">
        <ele>2425.5542</ele>
        <time>2015-08-23T09:55:33Z</time>
      </trkpt>
      <trkpt lat="45.36984" lon="7.02151">
        <ele>2427.4893</ele>
        <time>2015-08-23T09:55:43Z</time>
      </trkpt>
      <trkpt lat="45.3698" lon="7.02153">
        <ele>2427.4893</ele>
        <time>2015-08-23T09:55:48Z</time>
      </trkpt>
      <trkpt lat="45.36976" lon="7.02153">
        <ele>2427.4893</ele>
        <time>2015-08-23T09:55:58Z</time>
      </trkpt>
      <trkpt lat="45.36975" lon="7.02154">
        <ele>2429.3845</ele>
        <time>2015-08-23T09:56:03Z</time>
      </trkpt>
      <trkpt lat="45.36968" lon="7.02152">
        <ele>2429.3845</ele>
        <time>2015-08-23T09:56:13Z</time>
      </trkpt>
      <trkpt lat="45.36966" lon="7.02152">
        <ele>2429.3845</ele>
        <time>2015-08-23T09:56:18Z</time>
      </trkpt>
      <trkpt lat="45.36958" lon="7.02145">
        <ele>2431.1587</ele>
        <time>2015-08-23T09:56:28Z</time>
      </trkpt>
      <trkpt lat="45.36956" lon="7.02143">
        <ele>2431.1587</ele>
        <time>2015-08-23T09:56:33Z</time>
      </trkpt>
      <trkpt lat="45.3695" lon="7.02142">
        <ele>2431.1587</ele>
        <time>2015-08-23T09:56:43Z</time>
      </trkpt>
      <trkpt lat="45.36947" lon="7.02139">
        <ele>2432.9248</ele>
        <time>2015-08-23T09:56:48Z</time>
      </trkpt>
      <trkpt lat="45.36939" lon="7.02133">
        <ele>2432.9248</ele>
        <time>2015-08-23T09:57:03Z</time>
      </trkpt>
      <trkpt lat="45.36936" lon="7.02134">
        <ele>2434.7725</ele>
        <time>2015-08-23T09:57:08Z</time>
      </trkpt>
      <trkpt lat="45.36931" lon="7.02133">
        <ele>2434.7725</ele>
        <time>2015-08-23T09:57:18Z</time>
      </trkpt>
      <trkpt lat="45.36928" lon="7.02131">
        <ele>2434.7725</ele>
        <time>2015-08-23T09:57:23Z</time>
      </trkpt>
      <trkpt lat="45.36925" lon="7.02129">
        <ele>2436.5684</ele>
        <time>2015-08-23T09:57:33Z</time>
      </trkpt>
      <trkpt lat="45.36924" lon="7.02128">
        <ele>2436.5684</ele>
        <time>2015-08-23T09:57:38Z</time>
      </trkpt>
      <trkpt lat="45.36921" lon="7.02129">
        <ele>2436.5684</ele>
        <time>2015-08-23T09:57:48Z</time>
      </trkpt>
      <trkpt lat="45.36917" lon="7.02129">
        <ele>2436.5684</ele>
        <time>2015-08-23T09:57:53Z</time>
      </trkpt>
      <trkpt lat="45.36913" lon="7.02129">
        <ele>2438.1455</ele>
        <time>2015-08-23T09:58:03Z</time>
      </trkpt>
      <trkpt lat="45.36909" lon="7.02128">
        <ele>2438.1455</ele>
        <time>2015-08-23T09:58:08Z</time>
      </trkpt>
      <trkpt lat="45.36903" lon="7.02125">
        <ele>2439.7542</ele>
        <time>2015-08-23T09:58:18Z</time>
      </trkpt>
      <trkpt lat="45.36901" lon="7.02124">
        <ele>2439.7542</ele>
        <time>2015-08-23T09:58:23Z</time>
      </trkpt>
      <trkpt lat="45.36892" lon="7.02123">
        <ele>2441.394</ele>
        <time>2015-08-23T09:58:33Z</time>
      </trkpt>
      <trkpt lat="45.36889" lon="7.02124">
        <ele>2441.394</ele>
        <time>2015-08-23T09:58:38Z</time>
      </trkpt>
      <trkpt lat="45.3688" lon="7.02126">
        <ele>2443.2966</ele>
        <time>2015-08-23T09:58:53Z</time>
      </trkpt>
      <trkpt lat="45.36878" lon="7.02124">
        <ele>2443.2966</ele>
        <time>2015-08-23T09:58:58Z</time>
      </trkpt>
      <trkpt lat="45.36878" lon="7.02125">
        <ele>2443.2966</ele>
        <time>2015-08-23T09:59:08Z</time>
      </trkpt>
      <trkpt lat="45.36877" lon="7.02125">
        <ele>2443.2966</ele>
        <time>2015-08-23T09:59:13Z</time>
      </trkpt>
      <trkpt lat="45.36874" lon="7.02127">
        <ele>2443.2966</ele>
        <time>2015-08-23T09:59:23Z</time>
      </trkpt>
      <trkpt lat="45.36873" lon="7.02129">
        <ele>2443.2966</ele>
        <time>2015-08-23T09:59:28Z</time>
      </trkpt>
      <trkpt lat="45.36869" lon="7.02134">
        <ele>2445.3865</ele>
        <time>2015-08-23T09:59:38Z</time>
      </trkpt>
      <trkpt lat="45.36867" lon="7.02137">
        <ele>2445.3865</ele>
        <time>2015-08-23T09:59:43Z</time>
      </trkpt>
      <trkpt lat="45.36863" lon="7.0214">
        <ele>2445.3865</ele>
        <time>2015-08-23T09:59:53Z</time>
      </trkpt>
      <trkpt lat="45.36862" lon="7.02142">
        <ele>2445.3865</ele>
        <time>2015-08-23T09:59:58Z</time>
      </trkpt>
      <trkpt lat="45.36863" lon="7.02148">
        <ele>2447.68</ele>
        <time>2015-08-23T10:00:08Z</time>
      </trkpt>
      <trkpt lat="45.36861" lon="7.02149">
        <ele>2447.68</ele>
        <time>2015-08-23T10:00:13Z</time>
      </trkpt>
      <trkpt lat="45.36855" lon="7.02153">
        <ele>2447.68</ele>
        <time>2015-08-23T10:00:23Z</time>
      </trkpt>
      <trkpt lat="45.36853" lon="7.02155">
        <ele>2449.8167</ele>
        <time>2015-08-23T10:00:28Z</time>
      </trkpt>
      <trkpt lat="45.36846" lon="7.02155">
        <ele>2449.8167</ele>
        <time>2015-08-23T10:00:38Z</time>
      </trkpt>
      <trkpt lat="45.36843" lon="7.02157">
        <ele>2451.6213</ele>
        <time>2015-08-23T10:00:43Z</time>
      </trkpt>
      <trkpt lat="45.36837" lon="7.02161">
        <ele>2451.6213</ele>
        <time>2015-08-23T10:00:53Z</time>
      </trkpt>
      <trkpt lat="45.36834" lon="7.02162">
        <ele>2453.3657</ele>
        <time>2015-08-23T10:00:58Z</time>
      </trkpt>
      <trkpt lat="45.36829" lon="7.02161">
        <ele>2453.3657</ele>
        <time>2015-08-23T10:01:08Z</time>
      </trkpt>
      <trkpt lat="45.3683" lon="7.02159">
        <ele>2453.3657</ele>
        <time>2015-08-23T10:01:13Z</time>
      </trkpt>
      <trkpt lat="45.36829" lon="7.02158">
        <ele>2453.3657</ele>
        <time>2015-08-23T10:01:28Z</time>
      </trkpt>
      <trkpt lat="45.36825" lon="7.02154">
        <ele>2455.1707</ele>
        <time>2015-08-23T10:01:33Z</time>
      </trkpt>
      <trkpt lat="45.36819" lon="7.02148">
        <ele>2455.1707</ele>
        <time>2015-08-23T10:01:43Z</time>
      </trkpt>
      <trkpt lat="45.36817" lon="7.02146">
        <ele>2456.76</ele>
        <time>2015-08-23T10:01:48Z</time>
      </trkpt>
      <trkpt lat="45.36815" lon="7.02143">
        <ele>2456.76</ele>
        <time>2015-08-23T10:01:58Z</time>
      </trkpt>
      <trkpt lat="45.36816" lon="7.02143">
        <ele>2456.76</ele>
        <time>2015-08-23T10:02:03Z</time>
      </trkpt>
      <trkpt lat="45.36815" lon="7.02139">
        <ele>2456.76</ele>
        <time>2015-08-23T10:02:13Z</time>
      </trkpt>
      <trkpt lat="45.36814" lon="7.02135">
        <ele>2456.76</ele>
        <time>2015-08-23T10:02:18Z</time>
      </trkpt>
      <trkpt lat="45.3681" lon="7.0213">
        <ele>2458.2231</ele>
        <time>2015-08-23T10:02:28Z</time>
      </trkpt>
      <trkpt lat="45.36808" lon="7.02129">
        <ele>2458.2231</ele>
        <time>2015-08-23T10:02:33Z</time>
      </trkpt>
      <trkpt lat="45.36804" lon="7.02127">
        <ele>2458.2231</ele>
        <time>2015-08-23T10:02:43Z</time>
      </trkpt>
      <trkpt lat="45.36802" lon="7.02125">
        <ele>2458.2231</ele>
        <time>2015-08-23T10:02:48Z</time>
      </trkpt>
      <trkpt lat="45.36793" lon="7.02126">
        <ele>2459.8027</ele>
        <time>2015-08-23T10:02:58Z</time>
      </trkpt>
      <trkpt lat="45.36789" lon="7.02128">
        <ele>2459.8027</ele>
        <time>2015-08-23T10:03:03Z</time>
      </trkpt>
      <trkpt lat="45.36784" lon="7.02129">
        <ele>2461.4775</ele>
        <time>2015-08-23T10:03:13Z</time>
      </trkpt>
      <trkpt lat="45.36781" lon="7.02129">
        <ele>2461.4775</ele>
        <time>2015-08-23T10:03:18Z</time>
      </trkpt>
      <trkpt lat="45.36774" lon="7.02129">
        <ele>2463.0693</ele>
        <time>2015-08-23T10:03:28Z</time>
      </trkpt>
      <trkpt lat="45.3677" lon="7.02127">
        <ele>2463.0693</ele>
        <time>2015-08-23T10:03:33Z</time>
      </trkpt>
      <trkpt lat="45.36764" lon="7.02126">
        <ele>2464.3987</ele>
        <time>2015-08-23T10:03:43Z</time>
      </trkpt>
      <trkpt lat="45.36763" lon="7.02126">
        <ele>2464.3987</ele>
        <time>2015-08-23T10:03:48Z</time>
      </trkpt>
      <trkpt lat="45.36754" lon="7.02122">
        <ele>2465.66</ele>
        <time>2015-08-23T10:04:03Z</time>
      </trkpt>
      <trkpt lat="45.36752" lon="7.02122">
        <ele>2465.66</ele>
        <time>2015-08-23T10:04:08Z</time>
      </trkpt>
      <trkpt lat="45.36748" lon="7.02114">
        <ele>2466.904</ele>
        <time>2015-08-23T10:04:18Z</time>
      </trkpt>
      <trkpt lat="45.36746" lon="7.02113">
        <ele>2466.904</ele>
        <time>2015-08-23T10:04:23Z</time>
      </trkpt>
      <trkpt lat="45.3674" lon="7.02113">
        <ele>2466.904</ele>
        <time>2015-08-23T10:04:33Z</time>
      </trkpt>
      <trkpt lat="45.36739" lon="7.02111">
        <ele>2468.1057</ele>
        <time>2015-08-23T10:04:38Z</time>
      </trkpt>
      <trkpt lat="45.36736" lon="7.02106">
        <ele>2468.1057</ele>
        <time>2015-08-23T10:04:48Z</time>
      </trkpt>
      <trkpt lat="45.36733" lon="7.02104">
        <ele>2468.1057</ele>
        <time>2015-08-23T10:04:53Z</time>
      </trkpt>
      <trkpt lat="45.36728" lon="7.02102">
        <ele>2469.127</ele>
        <time>2015-08-23T10:05:03Z</time>
      </trkpt>
      <trkpt lat="45.36725" lon="7.021">
        <ele>2469.127</ele>
        <time>2015-08-23T10:05:08Z</time>
      </trkpt>
      <trkpt lat="45.3672" lon="7.02098">
        <ele>2469.127</ele>
        <time>2015-08-23T10:05:18Z</time>
      </trkpt>
      <trkpt lat="45.36719" lon="7.02096">
        <ele>2470.1133</ele>
        <time>2015-08-23T10:05:23Z</time>
      </trkpt>
      <trkpt lat="45.36713" lon="7.02092">
        <ele>2470.1133</ele>
        <time>2015-08-23T10:05:33Z</time>
      </trkpt>
      <trkpt lat="45.3671" lon="7.0209">
        <ele>2471.056</ele>
        <time>2015-08-23T10:05:38Z</time>
      </trkpt>
      <trkpt lat="45.36703" lon="7.02088">
        <ele>2471.056</ele>
        <time>2015-08-23T10:05:48Z</time>
      </trkpt>
      <trkpt lat="45.367" lon="7.02087">
        <ele>2471.9753</ele>
        <time>2015-08-23T10:05:53Z</time>
      </trkpt>
      <trkpt lat="45.36693" lon="7.02087">
        <ele>2471.9753</ele>
        <time>2015-08-23T10:06:03Z</time>
      </trkpt>
      <trkpt lat="45.3669" lon="7.02088">
        <ele>2472.963</ele>
        <time>2015-08-23T10:06:08Z</time>
      </trkpt>
      <trkpt lat="45.36685" lon="7.02089">
        <ele>2472.963</ele>
        <time>2015-08-23T10:06:18Z</time>
      </trkpt>
      <trkpt lat="45.36682" lon="7.02091">
        <ele>2472.963</ele>
        <time>2015-08-23T10:06:23Z</time>
      </trkpt>
      <trkpt lat="45.36675" lon="7.02094">
        <ele>2474.4773</ele>
        <time>2015-08-23T10:06:38Z</time>
      </trkpt>
      <trkpt lat="45.36673" lon="7.02093">
        <ele>2474.4773</ele>
        <time>2015-08-23T10:06:43Z</time>
      </trkpt>
      <trkpt lat="45.36668" lon="7.02088">
        <ele>2474.4773</ele>
        <time>2015-08-23T10:06:53Z</time>
      </trkpt>
      <trkpt lat="45.36665" lon="7.02088">
        <ele>2475.7893</ele>
        <time>2015-08-23T10:06:58Z</time>
      </trkpt>
      <trkpt lat="45.36661" lon="7.02089">
        <ele>2475.7893</ele>
        <time>2015-08-23T10:07:08Z</time>
      </trkpt>
      <trkpt lat="45.36659" lon="7.02087">
        <ele>2475.7893</ele>
        <time>2015-08-23T10:07:13Z</time>
      </trkpt>
      <trkpt lat="45.36652" lon="7.02085">
        <ele>2476.9155</ele>
        <time>2015-08-23T10:07:23Z</time>
      </trkpt>
      <trkpt lat="45.3665" lon="7.02086">
        <ele>2476.9155</ele>
        <time>2015-08-23T10:07:28Z</time>
      </trkpt>
      <trkpt lat="45.36646" lon="7.02081">
        <ele>2476.9155</ele>
        <time>2015-08-23T10:07:38Z</time>
      </trkpt>
      <trkpt lat="45.36641" lon="7.02082">
        <ele>2478.0874</ele>
        <time>2015-08-23T10:07:43Z</time>
      </trkpt>
      <trkpt lat="45.36634" lon="7.02077">
        <ele>2478.0874</ele>
        <time>2015-08-23T10:07:53Z</time>
      </trkpt>
      <trkpt lat="45.36631" lon="7.02075">
        <ele>2479.0588</ele>
        <time>2015-08-23T10:07:58Z</time>
      </trkpt>
      <trkpt lat="45.36624" lon="7.02068">
        <ele>2479.0588</ele>
        <time>2015-08-23T10:08:13Z</time>
      </trkpt>
      <trkpt lat="45.36622" lon="7.02067">
        <ele>2480.0193</ele>
        <time>2015-08-23T10:08:18Z</time>
      </trkpt>
      <trkpt lat="45.36616" lon="7.02064">
        <ele>2480.0193</ele>
        <time>2015-08-23T10:08:28Z</time>
      </trkpt>
      <trkpt lat="45.36613" lon="7.02063">
        <ele>2481.0012</ele>
        <time>2015-08-23T10:08:33Z</time>
      </trkpt>
      <trkpt lat="45.36612" lon="7.02063">
        <ele>2481.0012</ele>
        <time>2015-08-23T10:08:43Z</time>
      </trkpt>
      <trkpt lat="45.36613" lon="7.02065">
        <ele>2481.0012</ele>
        <time>2015-08-23T10:08:48Z</time>
      </trkpt>
      <trkpt lat="45.36615" lon="7.02063">
        <ele>2481.0012</ele>
        <time>2015-08-23T10:08:58Z</time>
      </trkpt>
      <trkpt lat="45.36616" lon="7.0206">
        <ele>2481.0012</ele>
        <time>2015-08-23T10:09:03Z</time>
      </trkpt>
      <trkpt lat="45.36613" lon="7.0206">
        <ele>2482.1199</ele>
        <time>2015-08-23T10:09:13Z</time>
      </trkpt>
      <trkpt lat="45.36611" lon="7.02061">
        <ele>2482.1199</ele>
        <time>2015-08-23T10:09:18Z</time>
      </trkpt>
      <trkpt lat="45.3661" lon="7.02063">
        <ele>2482.1199</ele>
        <time>2015-08-23T10:09:28Z</time>
      </trkpt>
      <trkpt lat="45.36611" lon="7.02062">
        <ele>2482.1199</ele>
        <time>2015-08-23T10:09:33Z</time>
      </trkpt>
      <trkpt lat="45.36611" lon="7.02061">
        <ele>2482.1199</ele>
        <time>2015-08-23T10:09:43Z</time>
      </trkpt>
      <trkpt lat="45.36612" lon="7.02062">
        <ele>2482.1199</ele>
        <time>2015-08-23T10:09:48Z</time>
      </trkpt>
      <trkpt lat="45.36614" lon="7.02066">
        <ele>2483.3528</ele>
        <time>2015-08-23T10:10:03Z</time>
      </trkpt>
      <trkpt lat="45.36613" lon="7.02065">
        <ele>2483.3528</ele>
        <time>2015-08-23T10:10:08Z</time>
      </trkpt>
      <trkpt lat="45.36615" lon="7.02057">
        <ele>2483.3528</ele>
        <time>2015-08-23T10:10:18Z</time>
      </trkpt>
      <trkpt lat="45.36615" lon="7.02059">
        <ele>2483.3528</ele>
        <time>2015-08-23T10:10:23Z</time>
      </trkpt>
      <trkpt lat="45.36609" lon="7.02063">
        <ele>2484.765</ele>
        <time>2015-08-23T10:10:33Z</time>
      </trkpt>
      <trkpt lat="45.36606" lon="7.02063">
        <ele>2484.765</ele>
        <time>2015-08-23T10:10:38Z</time>
      </trkpt>
      <trkpt lat="45.366" lon="7.02063">
        <ele>2485.8677</ele>
        <time>2015-08-23T10:10:48Z</time>
      </trkpt>
      <trkpt lat="45.36601" lon="7.02065">
        <ele>2485.8677</ele>
        <time>2015-08-23T10:10:53Z</time>
      </trkpt>
      <trkpt lat="45.36597" lon="7.02062">
        <ele>2485.8677</ele>
        <time>2015-08-23T10:11:03Z</time>
      </trkpt>
      <trkpt lat="45.36595" lon="7.02063">
        <ele>2485.8677</ele>
        <time>2015-08-23T10:11:08Z</time>
      </trkpt>
      <trkpt lat="45.36591" lon="7.02061">
        <ele>2486.8875</ele>
        <time>2015-08-23T10:11:18Z</time>
      </trkpt>
      <trkpt lat="45.36587" lon="7.02057">
        <ele>2486.8875</ele>
        <time>2015-08-23T10:11:23Z</time>
      </trkpt>
      <trkpt lat="45.36582" lon="7.0205">
        <ele>2487.8604</ele>
        <time>2015-08-23T10:11:33Z</time>
      </trkpt>
      <trkpt lat="45.36581" lon="7.02044">
        <ele>2487.8604</ele>
        <time>2015-08-23T10:11:38Z</time>
      </trkpt>
      <trkpt lat="45.36579" lon="7.02036">
        <ele>2488.7197</ele>
        <time>2015-08-23T10:11:48Z</time>
      </trkpt>
      <trkpt lat="45.36576" lon="7.02035">
        <ele>2488.7197</ele>
        <time>2015-08-23T10:11:53Z</time>
      </trkpt>
      <trkpt lat="45.36566" lon="7.02032">
        <ele>2489.3892</ele>
        <time>2015-08-23T10:12:03Z</time>
      </trkpt>
      <trkpt lat="45.36559" lon="7.02034">
        <ele>2489.3892</ele>
        <time>2015-08-23T10:12:08Z</time>
      </trkpt>
      <trkpt lat="45.36551" lon="7.02035">
        <ele>2490.0435</ele>
        <time>2015-08-23T10:12:18Z</time>
      </trkpt>
      <trkpt lat="45.36548" lon="7.02039">
        <ele>2490.0435</ele>
        <time>2015-08-23T10:12:23Z</time>
      </trkpt>
      <trkpt lat="45.3654" lon="7.0204">
        <ele>2490.5708</ele>
        <time>2015-08-23T10:12:38Z</time>
      </trkpt>
      <trkpt lat="45.36536" lon="7.02037">
        <ele>2490.5708</ele>
        <time>2015-08-23T10:12:43Z</time>
      </trkpt>
      <trkpt lat="45.36528" lon="7.02034">
        <ele>2491.0261</ele>
        <time>2015-08-23T10:12:53Z</time>
      </trkpt>
      <trkpt lat="45.36525" lon="7.0203">
        <ele>2491.0261</ele>
        <time>2015-08-23T10:12:58Z</time>
      </trkpt>
      <trkpt lat="45.36518" lon="7.02026">
        <ele>2491.3313</ele>
        <time>2015-08-23T10:13:08Z</time>
      </trkpt>
      <trkpt lat="45.36513" lon="7.02024">
        <ele>2491.3313</ele>
        <time>2015-08-23T10:13:13Z</time>
      </trkpt>
      <trkpt lat="45.36504" lon="7.02023">
        <ele>2491.5867</ele>
        <time>2015-08-23T10:13:23Z</time>
      </trkpt>
      <trkpt lat="45.36502" lon="7.02023">
        <ele>2491.5867</ele>
        <time>2015-08-23T10:13:28Z</time>
      </trkpt>
      <trkpt lat="45.36494" lon="7.02018">
        <ele>2491.799</ele>
        <time>2015-08-23T10:13:38Z</time>
      </trkpt>
      <trkpt lat="45.3649" lon="7.02018">
        <ele>2491.799</ele>
        <time>2015-08-23T10:13:43Z</time>
      </trkpt>
      <trkpt lat="45.36481" lon="7.02014">
        <ele>2491.8738</ele>
        <time>2015-08-23T10:13:53Z</time>
      </trkpt>
      <trkpt lat="45.3648" lon="7.02013">
        <ele>2491.8738</ele>
        <time>2015-08-23T10:13:58Z</time>
      </trkpt>
      <trkpt lat="45.36472" lon="7.0201">
        <ele>2491.7378</ele>
        <time>2015-08-23T10:14:08Z</time>
      </trkpt>
      <trkpt lat="45.3647" lon="7.02005">
        <ele>2491.7378</ele>
        <time>2015-08-23T10:14:13Z</time>
      </trkpt>
      <trkpt lat="45.36464" lon="7.01999">
        <ele>2491.4397</ele>
        <time>2015-08-23T10:14:23Z</time>
      </trkpt>
      <trkpt lat="45.36459" lon="7.01998">
        <ele>2491.4397</ele>
        <time>2015-08-23T10:14:28Z</time>
      </trkpt>
      <trkpt lat="45.36445" lon="7.02005">
        <ele>2491.0818</ele>
        <time>2015-08-23T10:14:43Z</time>
      </trkpt>
      <trkpt lat="45.36441" lon="7.02006">
        <ele>2491.0818</ele>
        <time>2015-08-23T10:14:48Z</time>
      </trkpt>
      <trkpt lat="45.36436" lon="7.02002">
        <ele>2490.5146</ele>
        <time>2015-08-23T10:14:58Z</time>
      </trkpt>
      <trkpt lat="45.36431" lon="7.01999">
        <ele>2490.5146</ele>
        <time>2015-08-23T10:15:03Z</time>
      </trkpt>
      <trkpt lat="45.36425" lon="7.01995">
        <ele>2489.5708</ele>
        <time>2015-08-23T10:15:13Z</time>
      </trkpt>
      <trkpt lat="45.36421" lon="7.01992">
        <ele>2489.5708</ele>
        <time>2015-08-23T10:15:18Z</time>
      </trkpt>
      <trkpt lat="45.36414" lon="7.01991">
        <ele>2488.3413</ele>
        <time>2015-08-23T10:15:28Z</time>
      </trkpt>
      <trkpt lat="45.36412" lon="7.01988">
        <ele>2488.3413</ele>
        <time>2015-08-23T10:15:33Z</time>
      </trkpt>
      <trkpt lat="45.36401" lon="7.01983">
        <ele>2487.1133</ele>
        <time>2015-08-23T10:15:43Z</time>
      </trkpt>
      <trkpt lat="45.36396" lon="7.01983">
        <ele>2487.1133</ele>
        <time>2015-08-23T10:15:48Z</time>
      </trkpt>
      <trkpt lat="45.36389" lon="7.01981">
        <ele>2485.9214</ele>
        <time>2015-08-23T10:15:58Z</time>
      </trkpt>
      <trkpt lat="45.36391" lon="7.01977">
        <ele>2485.9214</ele>
        <time>2015-08-23T10:16:03Z</time>
      </trkpt>
      <trkpt lat="45.36389" lon="7.0198">
        <ele>2485.9214</ele>
        <time>2015-08-23T10:16:18Z</time>
      </trkpt>
      <trkpt lat="45.36388" lon="7.01981">
        <ele>2485.9214</ele>
        <time>2015-08-23T10:16:23Z</time>
      </trkpt>
      <trkpt lat="45.36384" lon="7.01978">
        <ele>2484.726</ele>
        <time>2015-08-23T10:16:33Z</time>
      </trkpt>
      <trkpt lat="45.36381" lon="7.01976">
        <ele>2484.726</ele>
        <time>2015-08-23T10:16:38Z</time>
      </trkpt>
      <trkpt lat="45.3638" lon="7.01977">
        <ele>2484.726</ele>
        <time>2015-08-23T10:16:48Z</time>
      </trkpt>
      <trkpt lat="45.36377" lon="7.01976">
        <ele>2484.726</ele>
        <time>2015-08-23T10:16:53Z</time>
      </trkpt>
      <trkpt lat="45.36371" lon="7.0197">
        <ele>2483.5046</ele>
        <time>2015-08-23T10:17:03Z</time>
      </trkpt>
      <trkpt lat="45.36368" lon="7.01968">
        <ele>2483.5046</ele>
        <time>2015-08-23T10:17:08Z</time>
      </trkpt>
      <trkpt lat="45.3636" lon="7.01961">
        <ele>2482.1638</ele>
        <time>2015-08-23T10:17:18Z</time>
      </trkpt>
      <trkpt lat="45.36358" lon="7.01958">
        <ele>2482.1638</ele>
        <time>2015-08-23T10:17:23Z</time>
      </trkpt>
      <trkpt lat="45.36351" lon="7.01953">
        <ele>2480.7617</ele>
        <time>2015-08-23T10:17:33Z</time>
      </trkpt>
      <trkpt lat="45.36348" lon="7.0195">
        <ele>2480.7617</ele>
        <time>2015-08-23T10:17:38Z</time>
      </trkpt>
      <trkpt lat="45.36342" lon="7.01944">
        <ele>2479.3665</ele>
        <time>2015-08-23T10:17:48Z</time>
      </trkpt>
      <trkpt lat="45.36338" lon="7.0194">
        <ele>2479.3665</ele>
        <time>2015-08-23T10:17:53Z</time>
      </trkpt>
      <trkpt lat="45.36329" lon="7.01933">
        <ele>2477.8682</ele>
        <time>2015-08-23T10:18:03Z</time>
      </trkpt>
      <trkpt lat="45.36328" lon="7.0193">
        <ele>2477.8682</ele>
        <time>2015-08-23T10:18:08Z</time>
      </trkpt>
      <trkpt lat="45.36318" lon="7.01921">
        <ele>2476.2227</ele>
        <time>2015-08-23T10:18:18Z</time>
      </trkpt>
      <trkpt lat="45.36315" lon="7.01918">
        <ele>2476.2227</ele>
        <time>2015-08-23T10:18:23Z</time>
      </trkpt>
      <trkpt lat="45.3631" lon="7.01911">
        <ele>2474.5908</ele>
        <time>2015-08-23T10:18:33Z</time>
      </trkpt>
      <trkpt lat="45.36306" lon="7.01907">
        <ele>2474.5908</ele>
        <time>2015-08-23T10:18:38Z</time>
      </trkpt>
      <trkpt lat="45.36299" lon="7.01903">
        <ele>2473.0066</ele>
        <time>2015-08-23T10:18:48Z</time>
      </trkpt>
      <trkpt lat="45.36294" lon="7.01898">
        <ele>2473.0066</ele>
        <time>2015-08-23T10:18:53Z</time>
      </trkpt>
      <trkpt lat="45.36284" lon="7.01894">
        <ele>2471.501</ele>
        <time>2015-08-23T10:19:08Z</time>
      </trkpt>
      <trkpt lat="45.3628" lon="7.01893">
        <ele>2471.501</ele>
        <time>2015-08-23T10:19:13Z</time>
      </trkpt>
      <trkpt lat="45.36271" lon="7.01892">
        <ele>2469.9724</ele>
        <time>2015-08-23T10:19:23Z</time>
      </trkpt>
      <trkpt lat="45.36268" lon="7.01891">
        <ele>2469.9724</ele>
        <time>2015-08-23T10:19:28Z</time>
      </trkpt>
      <trkpt lat="45.36266" lon="7.01891">
        <ele>2469.9724</ele>
        <time>2015-08-23T10:19:38Z</time>
      </trkpt>
      <trkpt lat="45.36266" lon="7.01891">
        <ele>2469.9724</ele>
        <time>2015-08-23T10:19:43Z</time>
      </trkpt>
      <trkpt lat="45.36267" lon="7.01891">
        <ele>2469.9724</ele>
        <time>2015-08-23T10:19:53Z</time>
      </trkpt>
      <trkpt lat="45.36267" lon="7.01891">
        <ele>2469.9724</ele>
        <time>2015-08-23T10:19:58Z</time>
      </trkpt>
      <trkpt lat="45.36269" lon="7.01891">
        <ele>2469.9724</ele>
        <time>2015-08-23T10:20:08Z</time>
      </trkpt>
      <trkpt lat="45.36268" lon="7.01891">
        <ele>2469.9724</ele>
        <time>2015-08-23T10:20:13Z</time>
      </trkpt>
      <trkpt lat="45.36268" lon="7.01891">
        <ele>2469.9724</ele>
        <time>2015-08-23T10:20:23Z</time>
      </trkpt>
      <trkpt lat="45.36265" lon="7.01889">
        <ele>2468.5574</ele>
        <time>2015-08-23T10:20:28Z</time>
      </trkpt>
      <trkpt lat="45.36257" lon="7.01887">
        <ele>2468.5574</ele>
        <time>2015-08-23T10:20:38Z</time>
      </trkpt>
      <trkpt lat="45.36253" lon="7.01885">
        <ele>2467.2087</ele>
        <time>2015-08-23T10:20:43Z</time>
      </trkpt>
      <trkpt lat="45.36243" lon="7.01885">
        <ele>2465.998</ele>
        <time>2015-08-23T10:20:58Z</time>
      </trkpt>
      <trkpt lat="45.36238" lon="7.01883">
        <ele>2465.998</ele>
        <time>2015-08-23T10:21:03Z</time>
      </trkpt>
      <trkpt lat="45.36236" lon="7.01883">
        <ele>2465.998</ele>
        <time>2015-08-23T10:21:13Z</time>
      </trkpt>
      <trkpt lat="45.36232" lon="7.0188">
        <ele>2464.9329</ele>
        <time>2015-08-23T10:21:18Z</time>
      </trkpt>
      <trkpt lat="45.36224" lon="7.01874">
        <ele>2464.9329</ele>
        <time>2015-08-23T10:21:28Z</time>
      </trkpt>
      <trkpt lat="45.36221" lon="7.01871">
        <ele>2464.0637</ele>
        <time>2015-08-23T10:21:33Z</time>
      </trkpt>
      <trkpt lat="45.36213" lon="7.01869">
        <ele>2464.0637</ele>
        <time>2015-08-23T10:21:43Z</time>
      </trkpt>
      <trkpt lat="45.3621" lon="7.01867">
        <ele>2463.2915</ele>
        <time>2015-08-23T10:21:48Z</time>
      </trkpt>
      <trkpt lat="45.36206" lon="7.01857">
        <ele>2463.2915</ele>
        <time>2015-08-23T10:21:58Z</time>
      </trkpt>
      <trkpt lat="45.36203" lon="7.01854">
        <ele>2462.4382</ele>
        <time>2015-08-23T10:22:03Z</time>
      </trkpt>
      <trkpt lat="45.36195" lon="7.01848">
        <ele>2462.4382</ele>
        <time>2015-08-23T10:22:13Z</time>
      </trkpt>
      <trkpt lat="45.36191" lon="7.01846">
        <ele>2461.699</ele>
        <time>2015-08-23T10:22:18Z</time>
      </trkpt>
      <trkpt lat="45.36182" lon="7.01837">
        <ele>2461.1675</ele>
        <time>2015-08-23T10:22:28Z</time>
      </trkpt>
      <trkpt lat="45.36179" lon="7.01834">
        <ele>2461.1675</ele>
        <time>2015-08-23T10:22:33Z</time>
      </trkpt>
      <trkpt lat="45.36171" lon="7.01828">
        <ele>2460.6855</ele>
        <time>2015-08-23T10:22:48Z</time>
      </trkpt>
      <trkpt lat="45.36167" lon="7.01826">
        <ele>2460.6855</ele>
        <time>2015-08-23T10:22:53Z</time>
      </trkpt>
      <trkpt lat="45.36161" lon="7.01817">
        <ele>2460.1199</ele>
        <time>2015-08-23T10:23:03Z</time>
      </trkpt>
      <trkpt lat="45.36157" lon="7.01814">
        <ele>2460.1199</ele>
        <time>2015-08-23T10:23:08Z</time>
      </trkpt>
      <trkpt lat="45.36154" lon="7.01805">
        <ele>2459.5493</ele>
        <time>2015-08-23T10:23:18Z</time>
      </trkpt>
      <trkpt lat="45.36151" lon="7.01801">
        <ele>2459.5493</ele>
        <time>2015-08-23T10:23:23Z</time>
      </trkpt>
      <trkpt lat="45.36141" lon="7.01791">
        <ele>2458.9744</ele>
        <time>2015-08-23T10:23:33Z</time>
      </trkpt>
      <trkpt lat="45.36139" lon="7.01787">
        <ele>2458.9744</ele>
        <time>2015-08-23T10:23:38Z</time>
      </trkpt>
      <trkpt lat="45.3613" lon="7.0178">
        <ele>2458.4392</ele>
        <time>2015-08-23T10:23:48Z</time>
      </trkpt>
      <trkpt lat="45.36125" lon="7.01777">
        <ele>2458.4392</ele>
        <time>2015-08-23T10:23:53Z</time>
      </trkpt>
      <trkpt lat="45.36119" lon="7.01774">
        <ele>2457.8252</ele>
        <time>2015-08-23T10:24:03Z</time>
      </trkpt>
      <trkpt lat="45.36114" lon="7.01771">
        <ele>2457.8252</ele>
        <time>2015-08-23T10:24:08Z</time>
      </trkpt>
      <trkpt lat="45.36106" lon="7.01767">
        <ele>2457.2686</ele>
        <time>2015-08-23T10:24:18Z</time>
      </trkpt>
      <trkpt lat="45.36102" lon="7.01765">
        <ele>2457.2686</ele>
        <time>2015-08-23T10:24:23Z</time>
      </trkpt>
      <trkpt lat="45.36094" lon="7.01761">
        <ele>2456.779</ele>
        <time>2015-08-23T10:24:33Z</time>
      </trkpt>
      <trkpt lat="45.36089" lon="7.01759">
        <ele>2456.779</ele>
        <time>2015-08-23T10:24:38Z</time>
      </trkpt>
      <trkpt lat="45.3608" lon="7.01755">
        <ele>2456.3948</ele>
        <time>2015-08-23T10:24:48Z</time>
      </trkpt>
      <trkpt lat="45.36076" lon="7.01754">
        <ele>2456.3948</ele>
        <time>2015-08-23T10:24:53Z</time>
      </trkpt>
      <trkpt lat="45.36068" lon="7.01751">
        <ele>2456.1362</ele>
        <time>2015-08-23T10:25:03Z</time>
      </trkpt>
      <trkpt lat="45.36064" lon="7.01749">
        <ele>2456.1362</ele>
        <time>2015-08-23T10:25:08Z</time>
      </trkpt>
      <trkpt lat="45.36054" lon="7.0174">
        <ele>2456.0215</ele>
        <time>2015-08-23T10:25:23Z</time>
      </trkpt>
      <trkpt lat="45.3605" lon="7.01737">
        <ele>2456.0215</ele>
        <time>2015-08-23T10:25:28Z</time>
      </trkpt>
      <trkpt lat="45.36044" lon="7.01729">
        <ele>2455.808</ele>
        <time>2015-08-23T10:25:38Z</time>
      </trkpt>
      <trkpt lat="45.3604" lon="7.01726">
        <ele>2455.808</ele>
        <time>2015-08-23T10:25:43Z</time>
      </trkpt>
      <trkpt lat="45.36033" lon="7.01716">
        <ele>2455.5881</ele>
        <time>2015-08-23T10:25:53Z</time>
      </trkpt>
      <trkpt lat="45.36028" lon="7.01714">
        <ele>2455.5881</ele>
        <time>2015-08-23T10:25:58Z</time>
      </trkpt>
      <trkpt lat="45.36019" lon="7.01705">
        <ele>2455.289</ele>
        <time>2015-08-23T10:26:08Z</time>
      </trkpt>
      <trkpt lat="45.36017" lon="7.01703">
        <ele>2455.289</ele>
        <time>2015-08-23T10:26:13Z</time>
      </trkpt>
      <trkpt lat="45.3601" lon="7.01694">
        <ele>2455.0159</ele>
        <time>2015-08-23T10:26:23Z</time>
      </trkpt>
      <trkpt lat="45.36007" lon="7.01691">
        <ele>2455.0159</ele>
        <time>2015-08-23T10:26:28Z</time>
      </trkpt>
      <trkpt lat="45.36001" lon="7.01685">
        <ele>2454.6936</ele>
        <time>2015-08-23T10:26:38Z</time>
      </trkpt>
      <trkpt lat="45.35993" lon="7.01684">
        <ele>2454.6936</ele>
        <time>2015-08-23T10:26:43Z</time>
      </trkpt>
      <trkpt lat="45.35984" lon="7.01677">
        <ele>2454.382</ele>
        <time>2015-08-23T10:26:53Z</time>
      </trkpt>
      <trkpt lat="45.3598" lon="7.01676">
        <ele>2454.382</ele>
        <time>2015-08-23T10:26:58Z</time>
      </trkpt>
      <trkpt lat="45.35973" lon="7.01669">
        <ele>2454.0073</ele>
        <time>2015-08-23T10:27:08Z</time>
      </trkpt>
      <trkpt lat="45.35969" lon="7.01668">
        <ele>2454.0073</ele>
        <time>2015-08-23T10:27:13Z</time>
      </trkpt>
      <trkpt lat="45.35954" lon="7.01662">
        <ele>2453.616</ele>
        <time>2015-08-23T10:27:28Z</time>
      </trkpt>
      <trkpt lat="45.35949" lon="7.0166">
        <ele>2453.616</ele>
        <time>2015-08-23T10:27:33Z</time>
      </trkpt>
      <trkpt lat="45.35941" lon="7.01653">
        <ele>2453.1794</ele>
        <time>2015-08-23T10:27:43Z</time>
      </trkpt>
      <trkpt lat="45.35937" lon="7.01652">
        <ele>2453.1794</ele>
        <time>2015-08-23T10:27:48Z</time>
      </trkpt>
      <trkpt lat="45.35928" lon="7.01646">
        <ele>2452.758</ele>
        <time>2015-08-23T10:27:58Z</time>
      </trkpt>
      <trkpt lat="45.35925" lon="7.01643">
        <ele>2452.758</ele>
        <time>2015-08-23T10:28:03Z</time>
      </trkpt>
      <trkpt lat="45.35912" lon="7.01638">
        <ele>2452.407</ele>
        <time>2015-08-23T10:28:13Z</time>
      </trkpt>
      <trkpt lat="45.3591" lon="7.01636">
        <ele>2452.407</ele>
        <time>2015-08-23T10:28:18Z</time>
      </trkpt>
      <trkpt lat="45.35904" lon="7.0163">
        <ele>2452.0046</ele>
        <time>2015-08-23T10:28:28Z</time>
      </trkpt>
      <trkpt lat="45.35905" lon="7.0163">
        <ele>2452.0046</ele>
        <time>2015-08-23T10:28:33Z</time>
      </trkpt>
      <trkpt lat="45.35903" lon="7.01631">
        <ele>2452.0046</ele>
        <time>2015-08-23T10:28:43Z</time>
      </trkpt>
      <trkpt lat="45.35904" lon="7.01628">
        <ele>2452.0046</ele>
        <time>2015-08-23T10:28:48Z</time>
      </trkpt>
      <trkpt lat="45.359" lon="7.01621">
        <ele>2451.6692</ele>
        <time>2015-08-23T10:28:58Z</time>
      </trkpt>
      <trkpt lat="45.35898" lon="7.01616">
        <ele>2451.6692</ele>
        <time>2015-08-23T10:29:03Z</time>
      </trkpt>
      <trkpt lat="45.3589" lon="7.01611">
        <ele>2451.3655</ele>
        <time>2015-08-23T10:29:13Z</time>
      </trkpt>
      <trkpt lat="45.35891" lon="7.01615">
        <ele>2451.3655</ele>
        <time>2015-08-23T10:29:18Z</time>
      </trkpt>
      <trkpt lat="45.3589" lon="7.01627">
        <ele>2451.148</ele>
        <time>2015-08-23T10:29:28Z</time>
      </trkpt>
      <trkpt lat="45.35888" lon="7.01633">
        <ele>2451.148</ele>
        <time>2015-08-23T10:29:33Z</time>
      </trkpt>
      <trkpt lat="45.35883" lon="7.0164">
        <ele>2450.9363</ele>
        <time>2015-08-23T10:29:43Z</time>
      </trkpt>
      <trkpt lat="45.3588" lon="7.0164">
        <ele>2450.9363</ele>
        <time>2015-08-23T10:29:48Z</time>
      </trkpt>
      <trkpt lat="45.35872" lon="7.01638">
        <ele>2450.6423</ele>
        <time>2015-08-23T10:30:03Z</time>
      </trkpt>
      <trkpt lat="45.35868" lon="7.01638">
        <ele>2450.6423</ele>
        <time>2015-08-23T10:30:08Z</time>
      </trkpt>
      <trkpt lat="45.35865" lon="7.01638">
        <ele>2450.6423</ele>
        <time>2015-08-23T10:30:18Z</time>
      </trkpt>
      <trkpt lat="45.35865" lon="7.01638">
        <ele>2450.6423</ele>
        <time>2015-08-23T10:30:23Z</time>
      </trkpt>
      <trkpt lat="45.35866" lon="7.01636">
        <ele>2450.6423</ele>
        <time>2015-08-23T10:30:33Z</time>
      </trkpt>
      <trkpt lat="45.35865" lon="7.01636">
        <ele>2450.6423</ele>
        <time>2015-08-23T10:30:38Z</time>
      </trkpt>
      <trkpt lat="45.35865" lon="7.01635">
        <ele>2449.968</ele>
        <time>2015-08-23T10:30:48Z</time>
      </trkpt>
      <trkpt lat="45.35865" lon="7.01636">
        <ele>2449.968</ele>
        <time>2015-08-23T10:30:53Z</time>
      </trkpt>
      <trkpt lat="45.35864" lon="7.0164">
        <ele>2449.968</ele>
        <time>2015-08-23T10:31:03Z</time>
      </trkpt>
      <trkpt lat="45.3586" lon="7.01637">
        <ele>2449.968</ele>
        <time>2015-08-23T10:31:08Z</time>
      </trkpt>
      <trkpt lat="45.35851" lon="7.01631">
        <ele>2448.8838</ele>
        <time>2015-08-23T10:31:18Z</time>
      </trkpt>
      <trkpt lat="45.35847" lon="7.01627">
        <ele>2448.8838</ele>
        <time>2015-08-23T10:31:23Z</time>
      </trkpt>
      <trkpt lat="45.35834" lon="7.01617">
        <ele>2447.6077</ele>
        <time>2015-08-23T10:31:38Z</time>
      </trkpt>
      <trkpt lat="45.3583" lon="7.01615">
        <ele>2447.6077</ele>
        <time>2015-08-23T10:31:43Z</time>
      </trkpt>
      <trkpt lat="45.35821" lon="7.01605">
        <ele>2446.271</ele>
        <time>2015-08-23T10:31:53Z</time>
      </trkpt>
      <trkpt lat="45.35818" lon="7.01601">
        <ele>2446.271</ele>
        <time>2015-08-23T10:31:58Z</time>
      </trkpt>
      <trkpt lat="45.3581" lon="7.01593">
        <ele>2444.7644</ele>
        <time>2015-08-23T10:32:08Z</time>
      </trkpt>
      <trkpt lat="45.35805" lon="7.01589">
        <ele>2444.7644</ele>
        <time>2015-08-23T10:32:13Z</time>
      </trkpt>
      <trkpt lat="45.35796" lon="7.01581">
        <ele>2443.247</ele>
        <time>2015-08-23T10:32:23Z</time>
      </trkpt>
      <trkpt lat="45.35792" lon="7.01578">
        <ele>2443.247</ele>
        <time>2015-08-23T10:32:28Z</time>
      </trkpt>
      <trkpt lat="45.35786" lon="7.01571">
        <ele>2441.7502</ele>
        <time>2015-08-23T10:32:38Z</time>
      </trkpt>
      <trkpt lat="45.35779" lon="7.01567">
        <ele>2441.7502</ele>
        <time>2015-08-23T10:32:43Z</time>
      </trkpt>
      <trkpt lat="45.35776" lon="7.01563">
        <ele>2440.3328</ele>
        <time>2015-08-23T10:32:53Z</time>
      </trkpt>
      <trkpt lat="45.35777" lon="7.01561">
        <ele>2440.3328</ele>
        <time>2015-08-23T10:32:58Z</time>
      </trkpt>
      <trkpt lat="45.3577" lon="7.01554">
        <ele>2438.9617</ele>
        <time>2015-08-23T10:33:08Z</time>
      </trkpt>
      <trkpt lat="45.35765" lon="7.0155">
        <ele>2438.9617</ele>
        <time>2015-08-23T10:33:13Z</time>
      </trkpt>
      <trkpt lat="45.35759" lon="7.01542">
        <ele>2437.7073</ele>
        <time>2015-08-23T10:33:23Z</time>
      </trkpt>
      <trkpt lat="45.35755" lon="7.01538">
        <ele>2437.7073</ele>
        <time>2015-08-23T10:33:28Z</time>
      </trkpt>
      <trkpt lat="45.35746" lon="7.0153">
        <ele>2436.5918</ele>
        <time>2015-08-23T10:33:38Z</time>
      </trkpt>
      <trkpt lat="45.35742" lon="7.01526">
        <ele>2436.5918</ele>
        <time>2015-08-23T10:33:43Z</time>
      </trkpt>
      <trkpt lat="45.35735" lon="7.01518">
        <ele>2435.5479</ele>
        <time>2015-08-23T10:33:53Z</time>
      </trkpt>
      <trkpt lat="45.3573" lon="7.01515">
        <ele>2435.5479</ele>
        <time>2015-08-23T10:33:58Z</time>
      </trkpt>
      <trkpt lat="45.35727" lon="7.01498">
        <ele>2434.499</ele>
        <time>2015-08-23T10:34:13Z</time>
      </trkpt>
      <trkpt lat="45.35725" lon="7.01491">
        <ele>2434.499</ele>
        <time>2015-08-23T10:34:18Z</time>
      </trkpt>
      <trkpt lat="45.35723" lon="7.01479">
        <ele>2433.4756</ele>
        <time>2015-08-23T10:34:28Z</time>
      </trkpt>
      <trkpt lat="45.35722" lon="7.01474">
        <ele>2433.4756</ele>
        <time>2015-08-23T10:34:33Z</time>
      </trkpt>
      <trkpt lat="45.35719" lon="7.01464">
        <ele>2432.5337</ele>
        <time>2015-08-23T10:34:43Z</time>
      </trkpt>
      <trkpt lat="45.35717" lon="7.01459">
        <ele>2432.5337</ele>
        <time>2015-08-23T10:34:48Z</time>
      </trkpt>
      <trkpt lat="45.35714" lon="7.01447">
        <ele>2431.6968</ele>
        <time>2015-08-23T10:34:58Z</time>
      </trkpt>
      <trkpt lat="45.35714" lon="7.01448">
        <ele>2431.6968</ele>
        <time>2015-08-23T10:35:03Z</time>
      </trkpt>
      <trkpt lat="45.35714" lon="7.01448">
        <ele>2431.6968</ele>
        <time>2015-08-23T10:35:13Z</time>
      </trkpt>
      <trkpt lat="45.35714" lon="7.01449">
        <ele>2431.6968</ele>
        <time>2015-08-23T10:35:18Z</time>
      </trkpt>
      <trkpt lat="45.35714" lon="7.0145">
        <ele>2431.6968</ele>
        <time>2015-08-23T10:35:28Z</time>
      </trkpt>
      <trkpt lat="45.35714" lon="7.01452">
        <ele>2431.6968</ele>
        <time>2015-08-23T10:35:33Z</time>
      </trkpt>
      <trkpt lat="45.35715" lon="7.01451">
        <ele>2431.6968</ele>
        <time>2015-08-23T10:35:43Z</time>
      </trkpt>
      <trkpt lat="45.35715" lon="7.01455">
        <ele>2431.6968</ele>
        <time>2015-08-23T10:35:48Z</time>
      </trkpt>
      <trkpt lat="45.35708" lon="7.01468">
        <ele>2431.2456</ele>
        <time>2015-08-23T10:36:03Z</time>
      </trkpt>
      <trkpt lat="45.35705" lon="7.0147">
        <ele>2431.2456</ele>
        <time>2015-08-23T10:36:08Z</time>
      </trkpt>
      <trkpt lat="45.35706" lon="7.01483">
        <ele>2430.718</ele>
        <time>2015-08-23T10:36:18Z</time>
      </trkpt>
      <trkpt lat="45.35706" lon="7.0149">
        <ele>2430.718</ele>
        <time>2015-08-23T10:36:23Z</time>
      </trkpt>
      <trkpt lat="45.35707" lon="7.01502">
        <ele>2430.177</ele>
        <time>2015-08-23T10:36:33Z</time>
      </trkpt>
      <trkpt lat="45.35706" lon="7.01501">
        <ele>2430.177</ele>
        <time>2015-08-23T10:36:38Z</time>
      </trkpt>
      <trkpt lat="45.35704" lon="7.015">
        <ele>2430.177</ele>
        <time>2015-08-23T10:36:48Z</time>
      </trkpt>
      <trkpt lat="45.35705" lon="7.01501">
        <ele>2430.177</ele>
        <time>2015-08-23T10:36:53Z</time>
      </trkpt>
      <trkpt lat="45.35706" lon="7.01501">
        <ele>2430.177</ele>
        <time>2015-08-23T10:37:03Z</time>
      </trkpt>
      <trkpt lat="45.35706" lon="7.01502">
        <ele>2430.177</ele>
        <time>2015-08-23T10:37:08Z</time>
      </trkpt>
      <trkpt lat="45.35705" lon="7.01502">
        <ele>2430.177</ele>
        <time>2015-08-23T10:37:18Z</time>
      </trkpt>
      <trkpt lat="45.35704" lon="7.01501">
        <ele>2430.177</ele>
        <time>2015-08-23T10:37:23Z</time>
      </trkpt>
      <trkpt lat="45.35706" lon="7.01498">
        <ele>2429.4927</ele>
        <time>2015-08-23T10:37:33Z</time>
      </trkpt>
      <trkpt lat="45.35706" lon="7.01498">
        <ele>2429.4927</ele>
        <time>2015-08-23T10:37:38Z</time>
      </trkpt>
      <trkpt lat="45.35705" lon="7.01501">
        <ele>2429.4927</ele>
        <time>2015-08-23T10:37:53Z</time>
      </trkpt>
      <trkpt lat="45.35706" lon="7.01502">
        <ele>2429.4927</ele>
        <time>2015-08-23T10:37:58Z</time>
      </trkpt>
      <trkpt lat="45.35709" lon="7.01507">
        <ele>2429.4927</ele>
        <time>2015-08-23T10:38:08Z</time>
      </trkpt>
      <trkpt lat="45.35711" lon="7.01513">
        <ele>2428.7764</ele>
        <time>2015-08-23T10:38:13Z</time>
      </trkpt>
      <trkpt lat="45.35712" lon="7.01523">
        <ele>2428.7764</ele>
        <time>2015-08-23T10:38:23Z</time>
      </trkpt>
      <trkpt lat="45.35714" lon="7.01528">
        <ele>2428.145</ele>
        <time>2015-08-23T10:38:28Z</time>
      </trkpt>
      <trkpt lat="45.35723" lon="7.01536">
        <ele>2427.6355</ele>
        <time>2015-08-23T10:38:38Z</time>
      </trkpt>
      <trkpt lat="45.35725" lon="7.01539">
        <ele>2427.6355</ele>
        <time>2015-08-23T10:38:43Z</time>
      </trkpt>
      <trkpt lat="45.3573" lon="7.01541">
        <ele>2427.6355</ele>
        <time>2015-08-23T10:38:53Z</time>
      </trkpt>
      <trkpt lat="45.3573" lon="7.01541">
        <ele>2427.6355</ele>
        <time>2015-08-23T10:38:58Z</time>
      </trkpt>
      <trkpt lat="45.35734" lon="7.01544">
        <ele>2427.108</ele>
        <time>2015-08-23T10:39:08Z</time>
      </trkpt>
      <trkpt lat="45.35737" lon="7.01545">
        <ele>2427.108</ele>
        <time>2015-08-23T10:39:13Z</time>
      </trkpt>
      <trkpt lat="45.35744" lon="7.01551">
        <ele>2426.6494</ele>
        <time>2015-08-23T10:39:23Z</time>
      </trkpt>
      <trkpt lat="45.35747" lon="7.01556">
        <ele>2426.6494</ele>
        <time>2015-08-23T10:39:28Z</time>
      </trkpt>
      <trkpt lat="45.3575" lon="7.01555">
        <ele>2426.6494</ele>
        <time>2015-08-23T10:39:38Z</time>
      </trkpt>
      <trkpt lat="45.35749" lon="7.01554">
        <ele>2426.6494</ele>
        <time>2015-08-23T10:39:43Z</time>
      </trkpt>
      <trkpt lat="45.35752" lon="7.01552">
        <ele>2426.4988</ele>
        <time>2015-08-23T10:39:58Z</time>
      </trkpt>
      <trkpt lat="45.35756" lon="7.01554">
        <ele>2426.4988</ele>
        <time>2015-08-23T10:40:03Z</time>
      </trkpt>
      <trkpt lat="45.35756" lon="7.01554">
        <ele>2426.4988</ele>
        <time>2015-08-23T10:40:13Z</time>
      </trkpt>
      <trkpt lat="45.35756" lon="7.01554">
        <ele>2426.4988</ele>
        <time>2015-08-23T10:40:18Z</time>
      </trkpt>
      <trkpt lat="45.35758" lon="7.01557">
        <ele>2426.4988</ele>
        <time>2015-08-23T10:40:28Z</time>
      </trkpt>
      <trkpt lat="45.3576" lon="7.01558">
        <ele>2426.7036</ele>
        <time>2015-08-23T10:40:33Z</time>
      </trkpt>
      <trkpt lat="45.3576" lon="7.01556">
        <ele>2426.7036</ele>
        <time>2015-08-23T10:40:43Z</time>
      </trkpt>
      <trkpt lat="45.3576" lon="7.01556">
        <ele>2426.7036</ele>
        <time>2015-08-23T10:40:48Z</time>
      </trkpt>
      <trkpt lat="45.35756" lon="7.01553">
        <ele>2426.7036</ele>
        <time>2015-08-23T10:40:58Z</time>
      </trkpt>
      <trkpt lat="45.35753" lon="7.01552">
        <ele>2427.033</ele>
        <time>2015-08-23T10:41:03Z</time>
      </trkpt>
      <trkpt lat="45.35753" lon="7.01552">
        <ele>2427.033</ele>
        <time>2015-08-23T10:41:13Z</time>
      </trkpt>
      <trkpt lat="45.35752" lon="7.01553">
        <ele>2427.033</ele>
        <time>2015-08-23T10:41:18Z</time>
      </trkpt>
      <trkpt lat="45.35751" lon="7.01554">
        <ele>2427.033</ele>
        <time>2015-08-23T10:41:28Z</time>
      </trkpt>
      <trkpt lat="45.35751" lon="7.01555">
        <ele>2427.033</ele>
        <time>2015-08-23T10:41:33Z</time>
      </trkpt>
      <trkpt lat="45.35751" lon="7.01554">
        <ele>2427.033</ele>
        <time>2015-08-23T10:41:43Z</time>
      </trkpt>
      <trkpt lat="45.35751" lon="7.01555">
        <ele>2427.033</ele>
        <time>2015-08-23T10:41:48Z</time>
      </trkpt>
      <trkpt lat="45.35749" lon="7.01553">
        <ele>2427.033</ele>
        <time>2015-08-23T10:41:58Z</time>
      </trkpt>
      <trkpt lat="45.3575" lon="7.01552">
        <ele>2427.033</ele>
        <time>2015-08-23T10:42:03Z</time>
      </trkpt>
      <trkpt lat="45.35747" lon="7.01552">
        <ele>2427.345</ele>
        <time>2015-08-23T10:42:13Z</time>
      </trkpt>
      <trkpt lat="45.35744" lon="7.01556">
        <ele>2427.345</ele>
        <time>2015-08-23T10:42:18Z</time>
      </trkpt>
      <trkpt lat="45.35739" lon="7.01567">
        <ele>2427.6519</ele>
        <time>2015-08-23T10:42:33Z</time>
      </trkpt>
      <trkpt lat="45.35739" lon="7.01566">
        <ele>2427.6519</ele>
        <time>2015-08-23T10:42:38Z</time>
      </trkpt>
      <trkpt lat="45.3574" lon="7.01566">
        <ele>2427.6519</ele>
        <time>2015-08-23T10:42:48Z</time>
      </trkpt>
      <trkpt lat="45.35739" lon="7.01567">
        <ele>2427.6519</ele>
        <time>2015-08-23T10:42:53Z</time>
      </trkpt>
      <trkpt lat="45.35738" lon="7.01566">
        <ele>2427.6519</ele>
        <time>2015-08-23T10:43:03Z</time>
      </trkpt>
      <trkpt lat="45.35738" lon="7.01566">
        <ele>2427.6519</ele>
        <time>2015-08-23T10:43:08Z</time>
      </trkpt>
      <trkpt lat="45.35737" lon="7.01566">
        <ele>2427.6519</ele>
        <time>2015-08-23T10:43:13Z</time>
      </trkpt>
      <trkpt lat="45.35737" lon="7.01565">
        <ele>2427.6519</ele>
        <time>2015-08-23T10:43:18Z</time>
      </trkpt>
      <trkpt lat="45.35739" lon="7.01565">
        <ele>2427.6519</ele>
        <time>2015-08-23T10:43:23Z</time>
      </trkpt>
      <trkpt lat="45.35741" lon="7.01565">
        <ele>2427.6519</ele>
        <time>2015-08-23T10:43:28Z</time>
      </trkpt>
      <trkpt lat="45.35741" lon="7.01564">
        <ele>2427.6487</ele>
        <time>2015-08-23T10:43:33Z</time>
      </trkpt>
      <trkpt lat="45.3574" lon="7.01563">
        <ele>2427.6487</ele>
        <time>2015-08-23T10:43:38Z</time>
      </trkpt>
      <trkpt lat="45.3574" lon="7.01564">
        <ele>2427.6487</ele>
        <time>2015-08-23T10:43:43Z</time>
      </trkpt>
      <trkpt lat="45.3574" lon="7.01565">
        <ele>2427.6487</ele>
        <time>2015-08-23T10:43:48Z</time>
      </trkpt>
      <trkpt lat="45.3574" lon="7.01567">
        <ele>2427.6487</ele>
        <time>2015-08-23T10:43:53Z</time>
      </trkpt>
      <trkpt lat="45.3574" lon="7.01567">
        <ele>2427.6487</ele>
        <time>2015-08-23T10:43:58Z</time>
      </trkpt>
      <trkpt lat="45.35739" lon="7.01567">
        <ele>2427.6487</ele>
        <time>2015-08-23T10:44:03Z</time>
      </trkpt>
      <trkpt lat="45.35739" lon="7.01567">
        <ele>2427.6487</ele>
        <time>2015-08-23T10:44:08Z</time>
      </trkpt>
      <trkpt lat="45.35738" lon="7.01567">
        <ele>2427.6487</ele>
        <time>2015-08-23T10:44:13Z</time>
      </trkpt>
      <trkpt lat="45.35737" lon="7.01567">
        <ele>2427.6487</ele>
        <time>2015-08-23T10:44:18Z</time>
      </trkpt>
      <trkpt lat="45.35738" lon="7.01567">
        <ele>2427.6487</ele>
        <time>2015-08-23T10:44:23Z</time>
      </trkpt>
      <trkpt lat="45.35739" lon="7.01567">
        <ele>2427.7878</ele>
        <time>2015-08-23T10:44:33Z</time>
      </trkpt>
      <trkpt lat="45.3574" lon="7.01568">
        <ele>2427.7878</ele>
        <time>2015-08-23T10:44:38Z</time>
      </trkpt>
      <trkpt lat="45.35739" lon="7.01566">
        <ele>2427.7878</ele>
        <time>2015-08-23T10:44:48Z</time>
      </trkpt>
      <trkpt lat="45.3574" lon="7.01565">
        <ele>2427.9</ele>
        <time>2015-08-23T10:46:39Z</time>
      </trkpt>
      <trkpt lat="45.35736" lon="7.01566">
        <ele>2427.9</ele>
        <time>2015-08-23T10:46:54Z</time>
      </trkpt>
      <trkpt lat="45.35737" lon="7.01567">
        <ele>2427.9</ele>
        <time>2015-08-23T10:47:09Z</time>
      </trkpt>
      <trkpt lat="45.35736" lon="7.01566">
        <ele>2433.1313</ele>
        <time>2015-08-23T10:47:14Z</time>
      </trkpt>
      <trkpt lat="45.35736" lon="7.01566">
        <ele>2433.1313</ele>
        <time>2015-08-23T10:47:19Z</time>
      </trkpt>
      <trkpt lat="45.35736" lon="7.01566">
        <ele>2433.1313</ele>
        <time>2015-08-23T10:47:29Z</time>
      </trkpt>
      <trkpt lat="45.35737" lon="7.01566">
        <ele>2433.1313</ele>
        <time>2015-08-23T10:47:34Z</time>
      </trkpt>
      <trkpt lat="45.35732" lon="7.01567">
        <ele>2433.1313</ele>
        <time>2015-08-23T10:47:44Z</time>
      </trkpt>
      <trkpt lat="45.3573" lon="7.01568">
        <ele>2444.4539</ele>
        <time>2015-08-23T10:47:49Z</time>
      </trkpt>
      <trkpt lat="45.35727" lon="7.01567">
        <ele>2444.4539</ele>
        <time>2015-08-23T10:47:59Z</time>
      </trkpt>
      <trkpt lat="45.35723" lon="7.01565">
        <ele>2444.4539</ele>
        <time>2015-08-23T10:48:04Z</time>
      </trkpt>
      <trkpt lat="45.35721" lon="7.01567">
        <ele>2456.0698</ele>
        <time>2015-08-23T10:48:09Z</time>
      </trkpt>
      <trkpt lat="45.3572" lon="7.01567">
        <ele>2456.0698</ele>
        <time>2015-08-23T10:48:14Z</time>
      </trkpt>
      <trkpt lat="45.3572" lon="7.01568">
        <ele>2456.0698</ele>
        <time>2015-08-23T10:48:19Z</time>
      </trkpt>
      <trkpt lat="45.35721" lon="7.01567">
        <ele>2456.0698</ele>
        <time>2015-08-23T10:48:24Z</time>
      </trkpt>
      <trkpt lat="45.3572" lon="7.01566">
        <ele>2456.0698</ele>
        <time>2015-08-23T10:48:29Z</time>
      </trkpt>
      <trkpt lat="45.35719" lon="7.01566">
        <ele>2456.0698</ele>
        <time>2015-08-23T10:48:34Z</time>
      </trkpt>
      <trkpt lat="45.3572" lon="7.01566">
        <ele>2456.0698</ele>
        <time>2015-08-23T10:48:39Z</time>
      </trkpt>
      <trkpt lat="45.35719" lon="7.01565">
        <ele>2456.0698</ele>
        <time>2015-08-23T10:48:44Z</time>
      </trkpt>
      <trkpt lat="45.35719" lon="7.01565">
        <ele>2456.0698</ele>
        <time>2015-08-23T10:48:49Z</time>
      </trkpt>
      <trkpt lat="45.35721" lon="7.01565">
        <ele>2456.0698</ele>
        <time>2015-08-23T10:48:54Z</time>
      </trkpt>
      <trkpt lat="45.35721" lon="7.01565">
        <ele>2456.0698</ele>
        <time>2015-08-23T10:48:59Z</time>
      </trkpt>
      <trkpt lat="45.3572" lon="7.01566">
        <ele>2456.0698</ele>
        <time>2015-08-23T10:49:09Z</time>
      </trkpt>
      <trkpt lat="45.3572" lon="7.01566">
        <ele>2466.8772</ele>
        <time>2015-08-23T10:49:14Z</time>
      </trkpt>
      <trkpt lat="45.35719" lon="7.01567">
        <ele>2466.8772</ele>
        <time>2015-08-23T10:49:19Z</time>
      </trkpt>
      <trkpt lat="45.35719" lon="7.01566">
        <ele>2466.8772</ele>
        <time>2015-08-23T10:49:24Z</time>
      </trkpt>
      <trkpt lat="45.3572" lon="7.01565">
        <ele>2466.8772</ele>
        <time>2015-08-23T10:49:29Z</time>
      </trkpt>
      <trkpt lat="45.35719" lon="7.01566">
        <ele>2466.8772</ele>
        <time>2015-08-23T10:49:34Z</time>
      </trkpt>
      <trkpt lat="45.35719" lon="7.01566">
        <ele>2466.8772</ele>
        <time>2015-08-23T10:49:39Z</time>
      </trkpt>
      <trkpt lat="45.35719" lon="7.01567">
        <ele>2466.8772</ele>
        <time>2015-08-23T10:49:44Z</time>
      </trkpt>
      <trkpt lat="45.35719" lon="7.01566">
        <ele>2466.8772</ele>
        <time>2015-08-23T10:49:49Z</time>
      </trkpt>
      <trkpt lat="45.3572" lon="7.01565">
        <ele>2466.8772</ele>
        <time>2015-08-23T10:49:54Z</time>
      </trkpt>
      <trkpt lat="45.3572" lon="7.01565">
        <ele>2466.8772</ele>
        <time>2015-08-23T10:49:59Z</time>
      </trkpt>
      <trkpt lat="45.35718" lon="7.01564">
        <ele>2466.8772</ele>
        <time>2015-08-23T10:50:04Z</time>
      </trkpt>
      <trkpt lat="45.35715" lon="7.01565">
        <ele>2477.3582</ele>
        <time>2015-08-23T10:50:09Z</time>
      </trkpt>
      <trkpt lat="45.35712" lon="7.01565">
        <ele>2477.3582</ele>
        <time>2015-08-23T10:50:14Z</time>
      </trkpt>
      <trkpt lat="45.3571" lon="7.01564">
        <ele>2477.3582</ele>
        <time>2015-08-23T10:50:19Z</time>
      </trkpt>
      <trkpt lat="45.35707" lon="7.01562">
        <ele>2477.3582</ele>
        <time>2015-08-23T10:50:24Z</time>
      </trkpt>
      <trkpt lat="45.35705" lon="7.0156">
        <ele>2486.894</ele>
        <time>2015-08-23T10:50:29Z</time>
      </trkpt>
      <trkpt lat="45.35702" lon="7.01558">
        <ele>2486.894</ele>
        <time>2015-08-23T10:50:34Z</time>
      </trkpt>
      <trkpt lat="45.35698" lon="7.01553">
        <ele>2486.894</ele>
        <time>2015-08-23T10:50:39Z</time>
      </trkpt>
      <trkpt lat="45.35695" lon="7.01549">
        <ele>2495.064</ele>
        <time>2015-08-23T10:50:44Z</time>
      </trkpt>
      <trkpt lat="45.35693" lon="7.01547">
        <ele>2495.064</ele>
        <time>2015-08-23T10:50:49Z</time>
      </trkpt>
      <trkpt lat="45.3569" lon="7.01544">
        <ele>2495.064</ele>
        <time>2015-08-23T10:50:54Z</time>
      </trkpt>
      <trkpt lat="45.35688" lon="7.01542">
        <ele>2495.064</ele>
        <time>2015-08-23T10:50:59Z</time>
      </trkpt>
      <trkpt lat="45.35685" lon="7.01539">
        <ele>2501.3613</ele>
        <time>2015-08-23T10:51:04Z</time>
      </trkpt>
      <trkpt lat="45.35681" lon="7.01536">
        <ele>2501.3613</ele>
        <time>2015-08-23T10:51:09Z</time>
      </trkpt>
      <trkpt lat="45.35679" lon="7.01535">
        <ele>2501.3613</ele>
        <time>2015-08-23T10:51:14Z</time>
      </trkpt>
      <trkpt lat="45.35675" lon="7.01533">
        <ele>2505.7014</ele>
        <time>2015-08-23T10:51:19Z</time>
      </trkpt>
      <trkpt lat="45.35672" lon="7.01531">
        <ele>2505.7014</ele>
        <time>2015-08-23T10:51:24Z</time>
      </trkpt>
      <trkpt lat="45.35671" lon="7.01527">
        <ele>2505.7014</ele>
        <time>2015-08-23T10:51:29Z</time>
      </trkpt>
      <trkpt lat="45.35669" lon="7.01525">
        <ele>2505.7014</ele>
        <time>2015-08-23T10:51:34Z</time>
      </trkpt>
      <trkpt lat="45.35667" lon="7.01523">
        <ele>2507.9382</ele>
        <time>2015-08-23T10:51:39Z</time>
      </trkpt>
      <trkpt lat="45.35666" lon="7.01519">
        <ele>2507.9382</ele>
        <time>2015-08-23T10:51:44Z</time>
      </trkpt>
      <trkpt lat="45.35665" lon="7.01515">
        <ele>2507.9382</ele>
        <time>2015-08-23T10:51:49Z</time>
      </trkpt>
      <trkpt lat="45.35662" lon="7.01513">
        <ele>2508.2568</ele>
        <time>2015-08-23T10:51:54Z</time>
      </trkpt>
      <trkpt lat="45.35659" lon="7.01512">
        <ele>2508.2568</ele>
        <time>2015-08-23T10:51:59Z</time>
      </trkpt>
      <trkpt lat="45.35656" lon="7.01513">
        <ele>2508.2568</ele>
        <time>2015-08-23T10:52:04Z</time>
      </trkpt>
      <trkpt lat="45.35654" lon="7.01517">
        <ele>2506.8286</ele>
        <time>2015-08-23T10:52:09Z</time>
      </trkpt>
      <trkpt lat="45.35651" lon="7.01517">
        <ele>2506.8286</ele>
        <time>2015-08-23T10:52:14Z</time>
      </trkpt>
      <trkpt lat="45.3565" lon="7.01511">
        <ele>2506.8286</ele>
        <time>2015-08-23T10:52:19Z</time>
      </trkpt>
      <trkpt lat="45.35648" lon="7.01507">
        <ele>2503.929</ele>
        <time>2015-08-23T10:52:24Z</time>
      </trkpt>
      <trkpt lat="45.35646" lon="7.01504">
        <ele>2503.929</ele>
        <time>2015-08-23T10:52:29Z</time>
      </trkpt>
      <trkpt lat="45.35645" lon="7.015">
        <ele>2503.929</ele>
        <time>2015-08-23T10:52:34Z</time>
      </trkpt>
      <trkpt lat="45.35643" lon="7.01495">
        <ele>2499.793</ele>
        <time>2015-08-23T10:52:39Z</time>
      </trkpt>
      <trkpt lat="45.35641" lon="7.0149">
        <ele>2499.793</ele>
        <time>2015-08-23T10:52:44Z</time>
      </trkpt>
      <trkpt lat="45.3564" lon="7.01486">
        <ele>2499.793</ele>
        <time>2015-08-23T10:52:49Z</time>
      </trkpt>
      <trkpt lat="45.35641" lon="7.01482">
        <ele>2494.6035</ele>
        <time>2015-08-23T10:52:54Z</time>
      </trkpt>
      <trkpt lat="45.35641" lon="7.01479">
        <ele>2494.6035</ele>
        <time>2015-08-23T10:52:59Z</time>
      </trkpt>
      <trkpt lat="45.3564" lon="7.01476">
        <ele>2494.6035</ele>
        <time>2015-08-23T10:53:04Z</time>
      </trkpt>
      <trkpt lat="45.35638" lon="7.01471">
        <ele>2494.6035</ele>
        <time>2015-08-23T10:53:09Z</time>
      </trkpt>
      <trkpt lat="45.35637" lon="7.01469">
        <ele>2488.3926</ele>
        <time>2015-08-23T10:53:14Z</time>
      </trkpt>
      <trkpt lat="45.35636" lon="7.01468">
        <ele>2488.3926</ele>
        <time>2015-08-23T10:53:19Z</time>
      </trkpt>
      <trkpt lat="45.35635" lon="7.01466">
        <ele>2488.3926</ele>
        <time>2015-08-23T10:53:24Z</time>
      </trkpt>
      <trkpt lat="45.35634" lon="7.01465">
        <ele>2488.3926</ele>
        <time>2015-08-23T10:53:29Z</time>
      </trkpt>
      <trkpt lat="45.35634" lon="7.01465">
        <ele>2488.3926</ele>
        <time>2015-08-23T10:53:34Z</time>
      </trkpt>
      <trkpt lat="45.35631" lon="7.01464">
        <ele>2488.3926</ele>
        <time>2015-08-23T10:53:39Z</time>
      </trkpt>
      <trkpt lat="45.35629" lon="7.01463">
        <ele>2481.1628</ele>
        <time>2015-08-23T10:53:44Z</time>
      </trkpt>
      <trkpt lat="45.35627" lon="7.01469">
        <ele>2481.1628</ele>
        <time>2015-08-23T10:53:49Z</time>
      </trkpt>
      <trkpt lat="45.35624" lon="7.01475">
        <ele>2474.016</ele>
        <time>2015-08-23T10:53:54Z</time>
      </trkpt>
      <trkpt lat="45.35621" lon="7.01481">
        <ele>2474.016</ele>
        <time>2015-08-23T10:53:59Z</time>
      </trkpt>
      <trkpt lat="45.3562" lon="7.01485">
        <ele>2474.016</ele>
        <time>2015-08-23T10:54:04Z</time>
      </trkpt>
      <trkpt lat="45.35618" lon="7.0149">
        <ele>2466.9082</ele>
        <time>2015-08-23T10:54:09Z</time>
      </trkpt>
      <trkpt lat="45.35616" lon="7.01489">
        <ele>2466.9082</ele>
        <time>2015-08-23T10:54:14Z</time>
      </trkpt>
      <trkpt lat="45.35614" lon="7.01485">
        <ele>2466.9082</ele>
        <time>2015-08-23T10:54:19Z</time>
      </trkpt>
      <trkpt lat="45.35611" lon="7.01483">
        <ele>2466.9082</ele>
        <time>2015-08-23T10:54:24Z</time>
      </trkpt>
      <trkpt lat="45.35609" lon="7.01481">
        <ele>2459.6816</ele>
        <time>2015-08-23T10:54:29Z</time>
      </trkpt>
      <trkpt lat="45.35607" lon="7.01478">
        <ele>2459.6816</ele>
        <time>2015-08-23T10:54:34Z</time>
      </trkpt>
      <trkpt lat="45.35604" lon="7.01475">
        <ele>2459.6816</ele>
        <time>2015-08-23T10:54:39Z</time>
      </trkpt>
      <trkpt lat="45.35599" lon="7.01476">
        <ele>2452.382</ele>
        <time>2015-08-23T10:54:44Z</time>
      </trkpt>
      <trkpt lat="45.35595" lon="7.01475">
        <ele>2452.382</ele>
        <time>2015-08-23T10:54:49Z</time>
      </trkpt>
      <trkpt lat="45.35594" lon="7.01469">
        <ele>2452.382</ele>
        <time>2015-08-23T10:54:54Z</time>
      </trkpt>
      <trkpt lat="45.35592" lon="7.0146">
        <ele>2445.246</ele>
        <time>2015-08-23T10:54:59Z</time>
      </trkpt>
      <trkpt lat="45.35593" lon="7.01455">
        <ele>2445.246</ele>
        <time>2015-08-23T10:55:04Z</time>
      </trkpt>
      <trkpt lat="45.35594" lon="7.0145">
        <ele>2445.246</ele>
        <time>2015-08-23T10:55:09Z</time>
      </trkpt>
      <trkpt lat="45.35595" lon="7.01447">
        <ele>2437.9116</ele>
        <time>2015-08-23T10:55:14Z</time>
      </trkpt>
      <trkpt lat="45.35593" lon="7.01441">
        <ele>2437.9116</ele>
        <time>2015-08-23T10:55:19Z</time>
      </trkpt>
      <trkpt lat="45.35592" lon="7.01436">
        <ele>2437.9116</ele>
        <time>2015-08-23T10:55:24Z</time>
      </trkpt>
      <trkpt lat="45.35591" lon="7.01432">
        <ele>2430.5696</ele>
        <time>2015-08-23T10:55:29Z</time>
      </trkpt>
      <trkpt lat="45.35589" lon="7.01429">
        <ele>2430.5696</ele>
        <time>2015-08-23T10:55:34Z</time>
      </trkpt>
      <trkpt lat="45.35588" lon="7.01426">
        <ele>2430.5696</ele>
        <time>2015-08-23T10:55:39Z</time>
      </trkpt>
      <trkpt lat="45.35586" lon="7.01421">
        <ele>2423.2476</ele>
        <time>2015-08-23T10:55:44Z</time>
      </trkpt>
      <trkpt lat="45.35583" lon="7.01418">
        <ele>2423.2476</ele>
        <time>2015-08-23T10:55:49Z</time>
      </trkpt>
      <trkpt lat="45.35582" lon="7.01415">
        <ele>2423.2476</ele>
        <time>2015-08-23T10:55:54Z</time>
      </trkpt>
      <trkpt lat="45.35581" lon="7.01413">
        <ele>2423.2476</ele>
        <time>2015-08-23T10:55:59Z</time>
      </trkpt>
      <trkpt lat="45.35579" lon="7.01409">
        <ele>2416.0645</ele>
        <time>2015-08-23T10:56:04Z</time>
      </trkpt>
      <trkpt lat="45.35577" lon="7.01407">
        <ele>2416.0645</ele>
        <time>2015-08-23T10:56:09Z</time>
      </trkpt>
      <trkpt lat="45.35576" lon="7.01407">
        <ele>2416.0645</ele>
        <time>2015-08-23T10:56:14Z</time>
      </trkpt>
      <trkpt lat="45.35575" lon="7.01405">
        <ele>2416.0645</ele>
        <time>2015-08-23T10:56:19Z</time>
      </trkpt>
      <trkpt lat="45.35573" lon="7.01401">
        <ele>2409.0503</ele>
        <time>2015-08-23T10:56:24Z</time>
      </trkpt>
      <trkpt lat="45.3557" lon="7.01396">
        <ele>2409.0503</ele>
        <time>2015-08-23T10:56:29Z</time>
      </trkpt>
      <trkpt lat="45.35568" lon="7.01393">
        <ele>2409.0503</ele>
        <time>2015-08-23T10:56:34Z</time>
      </trkpt>
      <trkpt lat="45.35567" lon="7.0139">
        <ele>2402.3567</ele>
        <time>2015-08-23T10:56:39Z</time>
      </trkpt>
      <trkpt lat="45.35565" lon="7.01387">
        <ele>2402.3567</ele>
        <time>2015-08-23T10:56:44Z</time>
      </trkpt>
      <trkpt lat="45.35562" lon="7.01384">
        <ele>2402.3567</ele>
        <time>2015-08-23T10:56:49Z</time>
      </trkpt>
      <trkpt lat="45.35558" lon="7.01381">
        <ele>2395.9512</ele>
        <time>2015-08-23T10:56:54Z</time>
      </trkpt>
      <trkpt lat="45.35553" lon="7.01379">
        <ele>2395.9512</ele>
        <time>2015-08-23T10:56:59Z</time>
      </trkpt>
      <trkpt lat="45.3555" lon="7.01381">
        <ele>2395.9512</ele>
        <time>2015-08-23T10:57:04Z</time>
      </trkpt>
      <trkpt lat="45.35549" lon="7.01386">
        <ele>2389.6663</ele>
        <time>2015-08-23T10:57:09Z</time>
      </trkpt>
      <trkpt lat="45.35551" lon="7.01388">
        <ele>2389.6663</ele>
        <time>2015-08-23T10:57:14Z</time>
      </trkpt>
      <trkpt lat="45.35551" lon="7.01391">
        <ele>2389.6663</ele>
        <time>2015-08-23T10:57:19Z</time>
      </trkpt>
      <trkpt lat="45.35549" lon="7.01394">
        <ele>2389.6663</ele>
        <time>2015-08-23T10:57:24Z</time>
      </trkpt>
      <trkpt lat="45.35547" lon="7.01399">
        <ele>2383.2957</ele>
        <time>2015-08-23T10:57:29Z</time>
      </trkpt>
      <trkpt lat="45.35544" lon="7.014">
        <ele>2383.2957</ele>
        <time>2015-08-23T10:57:34Z</time>
      </trkpt>
      <trkpt lat="45.35541" lon="7.01401">
        <ele>2383.2957</ele>
        <time>2015-08-23T10:57:39Z</time>
      </trkpt>
      <trkpt lat="45.35539" lon="7.01403">
        <ele>2377.1926</ele>
        <time>2015-08-23T10:57:44Z</time>
      </trkpt>
      <trkpt lat="45.35536" lon="7.01408">
        <ele>2377.1926</ele>
        <time>2015-08-23T10:57:49Z</time>
      </trkpt>
      <trkpt lat="45.35532" lon="7.01411">
        <ele>2377.1926</ele>
        <time>2015-08-23T10:57:54Z</time>
      </trkpt>
      <trkpt lat="45.35528" lon="7.01416">
        <ele>2371.2844</ele>
        <time>2015-08-23T10:57:59Z</time>
      </trkpt>
      <trkpt lat="45.35525" lon="7.01422">
        <ele>2371.2844</ele>
        <time>2015-08-23T10:58:04Z</time>
      </trkpt>
      <trkpt lat="45.35524" lon="7.01426">
        <ele>2371.2844</ele>
        <time>2015-08-23T10:58:09Z</time>
      </trkpt>
      <trkpt lat="45.35522" lon="7.01432">
        <ele>2365.4646</ele>
        <time>2015-08-23T10:58:14Z</time>
      </trkpt>
      <trkpt lat="45.35519" lon="7.01437">
        <ele>2365.4646</ele>
        <time>2015-08-23T10:58:19Z</time>
      </trkpt>
      <trkpt lat="45.35518" lon="7.0144">
        <ele>2365.4646</ele>
        <time>2015-08-23T10:58:24Z</time>
      </trkpt>
      <trkpt lat="45.35516" lon="7.01446">
        <ele>2359.6511</ele>
        <time>2015-08-23T10:58:29Z</time>
      </trkpt>
      <trkpt lat="45.35515" lon="7.0145">
        <ele>2359.6511</ele>
        <time>2015-08-23T10:58:34Z</time>
      </trkpt>
      <trkpt lat="45.35513" lon="7.01456">
        <ele>2359.6511</ele>
        <time>2015-08-23T10:58:39Z</time>
      </trkpt>
      <trkpt lat="45.35512" lon="7.01462">
        <ele>2353.7969</ele>
        <time>2015-08-23T10:58:44Z</time>
      </trkpt>
      <trkpt lat="45.35508" lon="7.01468">
        <ele>2353.7969</ele>
        <time>2015-08-23T10:58:49Z</time>
      </trkpt>
      <trkpt lat="45.35506" lon="7.01473">
        <ele>2348.142</ele>
        <time>2015-08-23T10:58:54Z</time>
      </trkpt>
      <trkpt lat="45.35504" lon="7.01477">
        <ele>2348.142</ele>
        <time>2015-08-23T10:58:59Z</time>
      </trkpt>
      <trkpt lat="45.35503" lon="7.01482">
        <ele>2348.142</ele>
        <time>2015-08-23T10:59:04Z</time>
      </trkpt>
      <trkpt lat="45.35501" lon="7.01488">
        <ele>2342.589</ele>
        <time>2015-08-23T10:59:09Z</time>
      </trkpt>
      <trkpt lat="45.35498" lon="7.01494">
        <ele>2342.589</ele>
        <time>2015-08-23T10:59:14Z</time>
      </trkpt>
      <trkpt lat="45.35496" lon="7.01499">
        <ele>2342.589</ele>
        <time>2015-08-23T10:59:19Z</time>
      </trkpt>
      <trkpt lat="45.35495" lon="7.01502">
        <ele>2337.076</ele>
        <time>2015-08-23T10:59:24Z</time>
      </trkpt>
      <trkpt lat="45.35492" lon="7.01506">
        <ele>2337.076</ele>
        <time>2015-08-23T10:59:29Z</time>
      </trkpt>
      <trkpt lat="45.3549" lon="7.01511">
        <ele>2337.076</ele>
        <time>2015-08-23T10:59:34Z</time>
      </trkpt>
      <trkpt lat="45.35488" lon="7.01518">
        <ele>2331.5867</ele>
        <time>2015-08-23T10:59:39Z</time>
      </trkpt>
      <trkpt lat="45.35487" lon="7.01524">
        <ele>2331.5867</ele>
        <time>2015-08-23T10:59:44Z</time>
      </trkpt>
      <trkpt lat="45.35485" lon="7.01531">
        <ele>2326.4114</ele>
        <time>2015-08-23T10:59:49Z</time>
      </trkpt>
      <trkpt lat="45.35484" lon="7.0154">
        <ele>2326.4114</ele>
        <time>2015-08-23T10:59:54Z</time>
      </trkpt>
      <trkpt lat="45.35483" lon="7.01545">
        <ele>2321.5615</ele>
        <time>2015-08-23T10:59:59Z</time>
      </trkpt>
      <trkpt lat="45.35484" lon="7.01549">
        <ele>2321.5615</ele>
        <time>2015-08-23T11:00:04Z</time>
      </trkpt>
      <trkpt lat="45.35487" lon="7.01555">
        <ele>2321.5615</ele>
        <time>2015-08-23T11:00:09Z</time>
      </trkpt>
      <trkpt lat="45.35488" lon="7.01562">
        <ele>2316.8997</ele>
        <time>2015-08-23T11:00:14Z</time>
      </trkpt>
      <trkpt lat="45.35484" lon="7.01562">
        <ele>2316.8997</ele>
        <time>2015-08-23T11:00:19Z</time>
      </trkpt>
      <trkpt lat="45.3548" lon="7.0156">
        <ele>2316.8997</ele>
        <time>2015-08-23T11:00:24Z</time>
      </trkpt>
      <trkpt lat="45.35478" lon="7.01558">
        <ele>2312.3528</ele>
        <time>2015-08-23T11:00:29Z</time>
      </trkpt>
      <trkpt lat="45.35474" lon="7.0155">
        <ele>2312.3528</ele>
        <time>2015-08-23T11:00:34Z</time>
      </trkpt>
      <trkpt lat="45.3547" lon="7.01546">
        <ele>2308.0583</ele>
        <time>2015-08-23T11:00:39Z</time>
      </trkpt>
      <trkpt lat="45.35467" lon="7.01539">
        <ele>2308.0583</ele>
        <time>2015-08-23T11:00:44Z</time>
      </trkpt>
      <trkpt lat="45.35465" lon="7.0153">
        <ele>2303.9497</ele>
        <time>2015-08-23T11:00:49Z</time>
      </trkpt>
      <trkpt lat="45.35461" lon="7.01524">
        <ele>2303.9497</ele>
        <time>2015-08-23T11:00:54Z</time>
      </trkpt>
      <trkpt lat="45.35459" lon="7.01518">
        <ele>2300.0073</ele>
        <time>2015-08-23T11:00:59Z</time>
      </trkpt>
      <trkpt lat="45.35456" lon="7.01512">
        <ele>2300.0073</ele>
        <time>2015-08-23T11:01:04Z</time>
      </trkpt>
      <trkpt lat="45.35455" lon="7.01505">
        <ele>2296.211</ele>
        <time>2015-08-23T11:01:09Z</time>
      </trkpt>
      <trkpt lat="45.35453" lon="7.01498">
        <ele>2296.211</ele>
        <time>2015-08-23T11:01:14Z</time>
      </trkpt>
      <trkpt lat="45.3545" lon="7.01492">
        <ele>2292.6152</ele>
        <time>2015-08-23T11:01:19Z</time>
      </trkpt>
      <trkpt lat="45.35449" lon="7.01487">
        <ele>2292.6152</ele>
        <time>2015-08-23T11:01:24Z</time>
      </trkpt>
      <trkpt lat="45.3545" lon="7.01476">
        <ele>2289.33</ele>
        <time>2015-08-23T11:01:29Z</time>
      </trkpt>
      <trkpt lat="45.3545" lon="7.01471">
        <ele>2289.33</ele>
        <time>2015-08-23T11:01:34Z</time>
      </trkpt>
      <trkpt lat="45.35451" lon="7.01463">
        <ele>2286.455</ele>
        <time>2015-08-23T11:01:39Z</time>
      </trkpt>
      <trkpt lat="45.35452" lon="7.01455">
        <ele>2286.455</ele>
        <time>2015-08-23T11:01:44Z</time>
      </trkpt>
      <trkpt lat="45.35453" lon="7.01449">
        <ele>2283.9292</ele>
        <time>2015-08-23T11:01:49Z</time>
      </trkpt>
      <trkpt lat="45.35452" lon="7.01443">
        <ele>2283.9292</ele>
        <time>2015-08-23T11:01:54Z</time>
      </trkpt>
      <trkpt lat="45.35451" lon="7.01435">
        <ele>2281.7239</ele>
        <time>2015-08-23T11:01:59Z</time>
      </trkpt>
      <trkpt lat="45.3545" lon="7.0143">
        <ele>2281.7239</ele>
        <time>2015-08-23T11:02:04Z</time>
      </trkpt>
      <trkpt lat="45.35448" lon="7.01422">
        <ele>2279.6602</ele>
        <time>2015-08-23T11:02:09Z</time>
      </trkpt>
      <trkpt lat="45.35447" lon="7.01415">
        <ele>2279.6602</ele>
        <time>2015-08-23T11:02:14Z</time>
      </trkpt>
      <trkpt lat="45.35443" lon="7.01412">
        <ele>2277.6936</ele>
        <time>2015-08-23T11:02:19Z</time>
      </trkpt>
      <trkpt lat="45.35439" lon="7.01407">
        <ele>2277.6936</ele>
        <time>2015-08-23T11:02:24Z</time>
      </trkpt>
      <trkpt lat="45.35439" lon="7.01395">
        <ele>2275.6921</ele>
        <time>2015-08-23T11:02:29Z</time>
      </trkpt>
      <trkpt lat="45.35438" lon="7.01388">
        <ele>2275.6921</ele>
        <time>2015-08-23T11:02:34Z</time>
      </trkpt>
      <trkpt lat="45.35438" lon="7.01381">
        <ele>2273.8958</ele>
        <time>2015-08-23T11:02:39Z</time>
      </trkpt>
      <trkpt lat="45.35436" lon="7.01375">
        <ele>2273.8958</ele>
        <time>2015-08-23T11:02:44Z</time>
      </trkpt>
      <trkpt lat="45.35435" lon="7.01368">
        <ele>2272.1938</ele>
        <time>2015-08-23T11:02:49Z</time>
      </trkpt>
      <trkpt lat="45.35434" lon="7.01362">
        <ele>2272.1938</ele>
        <time>2015-08-23T11:02:54Z</time>
      </trkpt>
      <trkpt lat="45.35433" lon="7.01355">
        <ele>2270.7095</ele>
        <time>2015-08-23T11:02:59Z</time>
      </trkpt>
      <trkpt lat="45.35434" lon="7.01348">
        <ele>2270.7095</ele>
        <time>2015-08-23T11:03:04Z</time>
      </trkpt>
      <trkpt lat="45.35435" lon="7.0134">
        <ele>2269.4204</ele>
        <time>2015-08-23T11:03:09Z</time>
      </trkpt>
      <trkpt lat="45.35437" lon="7.01332">
        <ele>2269.4204</ele>
        <time>2015-08-23T11:03:14Z</time>
      </trkpt>
      <trkpt lat="45.35436" lon="7.01323">
        <ele>2268.1567</ele>
        <time>2015-08-23T11:03:19Z</time>
      </trkpt>
      <trkpt lat="45.35435" lon="7.01315">
        <ele>2268.1567</ele>
        <time>2015-08-23T11:03:24Z</time>
      </trkpt>
      <trkpt lat="45.35436" lon="7.01305">
        <ele>2266.986</ele>
        <time>2015-08-23T11:03:29Z</time>
      </trkpt>
      <trkpt lat="45.35436" lon="7.01299">
        <ele>2266.986</ele>
        <time>2015-08-23T11:03:34Z</time>
      </trkpt>
      <trkpt lat="45.35436" lon="7.0129">
        <ele>2266.0886</ele>
        <time>2015-08-23T11:03:39Z</time>
      </trkpt>
      <trkpt lat="45.35435" lon="7.01287">
        <ele>2266.0886</ele>
        <time>2015-08-23T11:03:44Z</time>
      </trkpt>
      <trkpt lat="45.35432" lon="7.0128">
        <ele>2266.0886</ele>
        <time>2015-08-23T11:03:49Z</time>
      </trkpt>
      <trkpt lat="45.3543" lon="7.01274">
        <ele>2265.111</ele>
        <time>2015-08-23T11:03:54Z</time>
      </trkpt>
      <trkpt lat="45.35428" lon="7.01266">
        <ele>2265.111</ele>
        <time>2015-08-23T11:03:59Z</time>
      </trkpt>
      <trkpt lat="45.35424" lon="7.01259">
        <ele>2264.1587</ele>
        <time>2015-08-23T11:04:04Z</time>
      </trkpt>
      <trkpt lat="45.3542" lon="7.01252">
        <ele>2264.1587</ele>
        <time>2015-08-23T11:04:09Z</time>
      </trkpt>
      <trkpt lat="45.35416" lon="7.01247">
        <ele>2263.1797</ele>
        <time>2015-08-23T11:04:14Z</time>
      </trkpt>
      <trkpt lat="45.35413" lon="7.01243">
        <ele>2263.1797</ele>
        <time>2015-08-23T11:04:19Z</time>
      </trkpt>
      <trkpt lat="45.35409" lon="7.01238">
        <ele>2262.1423</ele>
        <time>2015-08-23T11:04:24Z</time>
      </trkpt>
      <trkpt lat="45.35403" lon="7.01229">
        <ele>2262.1423</ele>
        <time>2015-08-23T11:04:29Z</time>
      </trkpt>
      <trkpt lat="45.35397" lon="7.01225">
        <ele>2261.076</ele>
        <time>2015-08-23T11:04:34Z</time>
      </trkpt>
      <trkpt lat="45.35393" lon="7.0122">
        <ele>2261.076</ele>
        <time>2015-08-23T11:04:39Z</time>
      </trkpt>
      <trkpt lat="45.35389" lon="7.01215">
        <ele>2259.9343</ele>
        <time>2015-08-23T11:04:44Z</time>
      </trkpt>
      <trkpt lat="45.35386" lon="7.01209">
        <ele>2259.9343</ele>
        <time>2015-08-23T11:04:49Z</time>
      </trkpt>
      <trkpt lat="45.35383" lon="7.01203">
        <ele>2258.7046</ele>
        <time>2015-08-23T11:04:54Z</time>
      </trkpt>
      <trkpt lat="45.35382" lon="7.01198">
        <ele>2258.7046</ele>
        <time>2015-08-23T11:04:59Z</time>
      </trkpt>
      <trkpt lat="45.35381" lon="7.0119">
        <ele>2257.2734</ele>
        <time>2015-08-23T11:05:04Z</time>
      </trkpt>
      <trkpt lat="45.35378" lon="7.01182">
        <ele>2257.2734</ele>
        <time>2015-08-23T11:05:09Z</time>
      </trkpt>
      <trkpt lat="45.35376" lon="7.01177">
        <ele>2255.58</ele>
        <time>2015-08-23T11:05:14Z</time>
      </trkpt>
      <trkpt lat="45.35375" lon="7.01172">
        <ele>2255.58</ele>
        <time>2015-08-23T11:05:19Z</time>
      </trkpt>
      <trkpt lat="45.35373" lon="7.01167">
        <ele>2255.58</ele>
        <time>2015-08-23T11:05:24Z</time>
      </trkpt>
      <trkpt lat="45.35371" lon="7.01157">
        <ele>2253.6426</ele>
        <time>2015-08-23T11:05:29Z</time>
      </trkpt>
      <trkpt lat="45.3537" lon="7.01151">
        <ele>2253.6426</ele>
        <time>2015-08-23T11:05:34Z</time>
      </trkpt>
      <trkpt lat="45.35369" lon="7.01147">
        <ele>2253.6426</ele>
        <time>2015-08-23T11:05:39Z</time>
      </trkpt>
      <trkpt lat="45.35369" lon="7.01142">
        <ele>2251.7092</ele>
        <time>2015-08-23T11:05:44Z</time>
      </trkpt>
      <trkpt lat="45.35367" lon="7.01138">
        <ele>2251.7092</ele>
        <time>2015-08-23T11:05:49Z</time>
      </trkpt>
      <trkpt lat="45.35362" lon="7.01141">
        <ele>2249.8652</ele>
        <time>2015-08-23T11:05:54Z</time>
      </trkpt>
      <trkpt lat="45.3536" lon="7.01137">
        <ele>2249.8652</ele>
        <time>2015-08-23T11:05:59Z</time>
      </trkpt>
      <trkpt lat="45.3536" lon="7.01131">
        <ele>2249.8652</ele>
        <time>2015-08-23T11:06:04Z</time>
      </trkpt>
      <trkpt lat="45.35359" lon="7.01125">
        <ele>2248.1301</ele>
        <time>2015-08-23T11:06:09Z</time>
      </trkpt>
      <trkpt lat="45.35358" lon="7.01115">
        <ele>2248.1301</ele>
        <time>2015-08-23T11:06:14Z</time>
      </trkpt>
      <trkpt lat="45.35356" lon="7.0111">
        <ele>2246.421</ele>
        <time>2015-08-23T11:06:19Z</time>
      </trkpt>
      <trkpt lat="45.35356" lon="7.0111">
        <ele>2246.421</ele>
        <time>2015-08-23T11:06:24Z</time>
      </trkpt>
      <trkpt lat="45.35356" lon="7.0111">
        <ele>2246.421</ele>
        <time>2015-08-23T11:06:34Z</time>
      </trkpt>
      <trkpt lat="45.35356" lon="7.0111">
        <ele>2246.421</ele>
        <time>2015-08-23T11:06:39Z</time>
      </trkpt>
      <trkpt lat="45.35355" lon="7.01111">
        <ele>2246.421</ele>
        <time>2015-08-23T11:07:29Z</time>
      </trkpt>
      <trkpt lat="45.35349" lon="7.01119">
        <ele>2245.2537</ele>
        <time>2015-08-23T11:07:34Z</time>
      </trkpt>
      <trkpt lat="45.35344" lon="7.01126">
        <ele>2245.2537</ele>
        <time>2015-08-23T11:07:39Z</time>
      </trkpt>
      <trkpt lat="45.3534" lon="7.01128">
        <ele>2244.208</ele>
        <time>2015-08-23T11:07:44Z</time>
      </trkpt>
      <trkpt lat="45.3534" lon="7.01126">
        <ele>2244.208</ele>
        <time>2015-08-23T11:07:49Z</time>
      </trkpt>
      <trkpt lat="45.3534" lon="7.01126">
        <ele>2244.208</ele>
        <time>2015-08-23T11:07:54Z</time>
      </trkpt>
      <trkpt lat="45.35337" lon="7.01122">
        <ele>2244.208</ele>
        <time>2015-08-23T11:08:04Z</time>
      </trkpt>
      <trkpt lat="45.35333" lon="7.01119">
        <ele>2242.9534</ele>
        <time>2015-08-23T11:08:09Z</time>
      </trkpt>
      <trkpt lat="45.35329" lon="7.01113">
        <ele>2242.9534</ele>
        <time>2015-08-23T11:08:14Z</time>
      </trkpt>
      <trkpt lat="45.35326" lon="7.01105">
        <ele>2241.7473</ele>
        <time>2015-08-23T11:08:19Z</time>
      </trkpt>
      <trkpt lat="45.35323" lon="7.01099">
        <ele>2241.7473</ele>
        <time>2015-08-23T11:08:24Z</time>
      </trkpt>
      <trkpt lat="45.35322" lon="7.01094">
        <ele>2241.7473</ele>
        <time>2015-08-23T11:08:29Z</time>
      </trkpt>
      <trkpt lat="45.35322" lon="7.01094">
        <ele>2241.7473</ele>
        <time>2015-08-23T11:08:34Z</time>
      </trkpt>
      <trkpt lat="45.35319" lon="7.01094">
        <ele>2240.3809</ele>
        <time>2015-08-23T11:08:54Z</time>
      </trkpt>
      <trkpt lat="45.35315" lon="7.01092">
        <ele>2240.3809</ele>
        <time>2015-08-23T11:08:59Z</time>
      </trkpt>
      <trkpt lat="45.35309" lon="7.01091">
        <ele>2239.1082</ele>
        <time>2015-08-23T11:09:04Z</time>
      </trkpt>
      <trkpt lat="45.35303" lon="7.01096">
        <ele>2239.1082</ele>
        <time>2015-08-23T11:09:09Z</time>
      </trkpt>
      <trkpt lat="45.35299" lon="7.01102">
        <ele>2238.193</ele>
        <time>2015-08-23T11:09:14Z</time>
      </trkpt>
      <trkpt lat="45.35297" lon="7.01107">
        <ele>2238.193</ele>
        <time>2015-08-23T11:09:19Z</time>
      </trkpt>
      <trkpt lat="45.35295" lon="7.01112">
        <ele>2238.193</ele>
        <time>2015-08-23T11:09:24Z</time>
      </trkpt>
      <trkpt lat="45.35292" lon="7.01116">
        <ele>2237.6917</ele>
        <time>2015-08-23T11:09:29Z</time>
      </trkpt>
      <trkpt lat="45.3529" lon="7.0112">
        <ele>2237.6917</ele>
        <time>2015-08-23T11:09:34Z</time>
      </trkpt>
      <trkpt lat="45.35287" lon="7.01124">
        <ele>2237.6917</ele>
        <time>2015-08-23T11:09:39Z</time>
      </trkpt>
      <trkpt lat="45.35281" lon="7.01127">
        <ele>2237.6262</ele>
        <time>2015-08-23T11:09:44Z</time>
      </trkpt>
      <trkpt lat="45.35277" lon="7.01127">
        <ele>2237.6262</ele>
        <time>2015-08-23T11:09:49Z</time>
      </trkpt>
      <trkpt lat="45.35273" lon="7.01128">
        <ele>2237.6262</ele>
        <time>2015-08-23T11:09:54Z</time>
      </trkpt>
      <trkpt lat="45.3527" lon="7.0113">
        <ele>2237.944</ele>
        <time>2015-08-23T11:09:59Z</time>
      </trkpt>
      <trkpt lat="45.35265" lon="7.01132">
        <ele>2237.944</ele>
        <time>2015-08-23T11:10:04Z</time>
      </trkpt>
      <trkpt lat="45.35263" lon="7.01133">
        <ele>2237.944</ele>
        <time>2015-08-23T11:10:09Z</time>
      </trkpt>
      <trkpt lat="45.35261" lon="7.01135">
        <ele>2238.6243</ele>
        <time>2015-08-23T11:10:14Z</time>
      </trkpt>
      <trkpt lat="45.35257" lon="7.0114">
        <ele>2238.6243</ele>
        <time>2015-08-23T11:10:19Z</time>
      </trkpt>
      <trkpt lat="45.35255" lon="7.01143">
        <ele>2238.6243</ele>
        <time>2015-08-23T11:10:24Z</time>
      </trkpt>
      <trkpt lat="45.35253" lon="7.01146">
        <ele>2239.7043</ele>
        <time>2015-08-23T11:10:29Z</time>
      </trkpt>
      <trkpt lat="45.35251" lon="7.01146">
        <ele>2239.7043</ele>
        <time>2015-08-23T11:10:34Z</time>
      </trkpt>
      <trkpt lat="45.3525" lon="7.01148">
        <ele>2239.7043</ele>
        <time>2015-08-23T11:10:39Z</time>
      </trkpt>
      <trkpt lat="45.35247" lon="7.01151">
        <ele>2239.7043</ele>
        <time>2015-08-23T11:10:44Z</time>
      </trkpt>
      <trkpt lat="45.35246" lon="7.01153">
        <ele>2241.0596</ele>
        <time>2015-08-23T11:10:49Z</time>
      </trkpt>
      <trkpt lat="45.35243" lon="7.01155">
        <ele>2241.0596</ele>
        <time>2015-08-23T11:10:54Z</time>
      </trkpt>
      <trkpt lat="45.35241" lon="7.01157">
        <ele>2241.0596</ele>
        <time>2015-08-23T11:10:59Z</time>
      </trkpt>
      <trkpt lat="45.35239" lon="7.0116">
        <ele>2241.0596</ele>
        <time>2015-08-23T11:11:04Z</time>
      </trkpt>
      <trkpt lat="45.35237" lon="7.01163">
        <ele>2242.6025</ele>
        <time>2015-08-23T11:11:09Z</time>
      </trkpt>
      <trkpt lat="45.35234" lon="7.01165">
        <ele>2242.6025</ele>
        <time>2015-08-23T11:11:14Z</time>
      </trkpt>
      <trkpt lat="45.35232" lon="7.01166">
        <ele>2242.6025</ele>
        <time>2015-08-23T11:11:19Z</time>
      </trkpt>
      <trkpt lat="45.35229" lon="7.0117">
        <ele>2242.6025</ele>
        <time>2015-08-23T11:11:24Z</time>
      </trkpt>
      <trkpt lat="45.35226" lon="7.01174">
        <ele>2244.439</ele>
        <time>2015-08-23T11:11:29Z</time>
      </trkpt>
      <trkpt lat="45.35221" lon="7.01178">
        <ele>2244.439</ele>
        <time>2015-08-23T11:11:34Z</time>
      </trkpt>
      <trkpt lat="45.35219" lon="7.01183">
        <ele>2246.3787</ele>
        <time>2015-08-23T11:11:39Z</time>
      </trkpt>
      <trkpt lat="45.35217" lon="7.01188">
        <ele>2246.3787</ele>
        <time>2015-08-23T11:11:44Z</time>
      </trkpt>
      <trkpt lat="45.35214" lon="7.01191">
        <ele>2246.3787</ele>
        <time>2015-08-23T11:11:49Z</time>
      </trkpt>
      <trkpt lat="45.35211" lon="7.01198">
        <ele>2248.446</ele>
        <time>2015-08-23T11:11:54Z</time>
      </trkpt>
      <trkpt lat="45.35209" lon="7.01203">
        <ele>2248.446</ele>
        <time>2015-08-23T11:11:59Z</time>
      </trkpt>
      <trkpt lat="45.35207" lon="7.01207">
        <ele>2248.446</ele>
        <time>2015-08-23T11:12:04Z</time>
      </trkpt>
      <trkpt lat="45.35204" lon="7.01215">
        <ele>2250.535</ele>
        <time>2015-08-23T11:12:09Z</time>
      </trkpt>
      <trkpt lat="45.35202" lon="7.01221">
        <ele>2250.535</ele>
        <time>2015-08-23T11:12:14Z</time>
      </trkpt>
      <trkpt lat="45.35201" lon="7.01225">
        <ele>2250.535</ele>
        <time>2015-08-23T11:12:19Z</time>
      </trkpt>
      <trkpt lat="45.35198" lon="7.0123">
        <ele>2252.6184</ele>
        <time>2015-08-23T11:12:24Z</time>
      </trkpt>
      <trkpt lat="45.35195" lon="7.01234">
        <ele>2252.6184</ele>
        <time>2015-08-23T11:12:29Z</time>
      </trkpt>
      <trkpt lat="45.35192" lon="7.01238">
        <ele>2252.6184</ele>
        <time>2015-08-23T11:12:34Z</time>
      </trkpt>
      <trkpt lat="45.3519" lon="7.01241">
        <ele>2254.7156</ele>
        <time>2015-08-23T11:12:39Z</time>
      </trkpt>
      <trkpt lat="45.35186" lon="7.01245">
        <ele>2254.7156</ele>
        <time>2015-08-23T11:12:44Z</time>
      </trkpt>
      <trkpt lat="45.35184" lon="7.01248">
        <ele>2254.7156</ele>
        <time>2015-08-23T11:12:49Z</time>
      </trkpt>
      <trkpt lat="45.35181" lon="7.01252">
        <ele>2256.8584</ele>
        <time>2015-08-23T11:12:54Z</time>
      </trkpt>
      <trkpt lat="45.35179" lon="7.01255">
        <ele>2256.8584</ele>
        <time>2015-08-23T11:12:59Z</time>
      </trkpt>
      <trkpt lat="45.35177" lon="7.01258">
        <ele>2256.8584</ele>
        <time>2015-08-23T11:13:04Z</time>
      </trkpt>
      <trkpt lat="45.35175" lon="7.01262">
        <ele>2258.9614</ele>
        <time>2015-08-23T11:13:09Z</time>
      </trkpt>
      <trkpt lat="45.35173" lon="7.01266">
        <ele>2258.9614</ele>
        <time>2015-08-23T11:13:14Z</time>
      </trkpt>
      <trkpt lat="45.35171" lon="7.01269">
        <ele>2258.9614</ele>
        <time>2015-08-23T11:13:19Z</time>
      </trkpt>
      <trkpt lat="45.35169" lon="7.01272">
        <ele>2261.047</ele>
        <time>2015-08-23T11:13:24Z</time>
      </trkpt>
      <trkpt lat="45.35167" lon="7.01275">
        <ele>2261.047</ele>
        <time>2015-08-23T11:13:29Z</time>
      </trkpt>
      <trkpt lat="45.35163" lon="7.01279">
        <ele>2261.047</ele>
        <time>2015-08-23T11:13:34Z</time>
      </trkpt>
      <trkpt lat="45.3516" lon="7.01285">
        <ele>2263.151</ele>
        <time>2015-08-23T11:13:39Z</time>
      </trkpt>
      <trkpt lat="45.35157" lon="7.01286">
        <ele>2263.151</ele>
        <time>2015-08-23T11:13:44Z</time>
      </trkpt>
      <trkpt lat="45.35154" lon="7.01289">
        <ele>2263.151</ele>
        <time>2015-08-23T11:13:49Z</time>
      </trkpt>
      <trkpt lat="45.3515" lon="7.01293">
        <ele>2265.3342</ele>
        <time>2015-08-23T11:13:54Z</time>
      </trkpt>
      <trkpt lat="45.35146" lon="7.01297">
        <ele>2265.3342</ele>
        <time>2015-08-23T11:13:59Z</time>
      </trkpt>
      <trkpt lat="45.35141" lon="7.01301">
        <ele>2267.4387</ele>
        <time>2015-08-23T11:14:04Z</time>
      </trkpt>
      <trkpt lat="45.35137" lon="7.01305">
        <ele>2267.4387</ele>
        <time>2015-08-23T11:14:09Z</time>
      </trkpt>
      <trkpt lat="45.35135" lon="7.01308">
        <ele>2267.4387</ele>
        <time>2015-08-23T11:14:14Z</time>
      </trkpt>
      <trkpt lat="45.35132" lon="7.01314">
        <ele>2269.4905</ele>
        <time>2015-08-23T11:14:19Z</time>
      </trkpt>
      <trkpt lat="45.35131" lon="7.01317">
        <ele>2269.4905</ele>
        <time>2015-08-23T11:14:24Z</time>
      </trkpt>
      <trkpt lat="45.35128" lon="7.01324">
        <ele>2269.4905</ele>
        <time>2015-08-23T11:14:29Z</time>
      </trkpt>
      <trkpt lat="45.35125" lon="7.01326">
        <ele>2271.4854</ele>
        <time>2015-08-23T11:14:34Z</time>
      </trkpt>
      <trkpt lat="45.35121" lon="7.0133">
        <ele>2271.4854</ele>
        <time>2015-08-23T11:14:39Z</time>
      </trkpt>
      <trkpt lat="45.35118" lon="7.01338">
        <ele>2273.3481</ele>
        <time>2015-08-23T11:14:44Z</time>
      </trkpt>
      <trkpt lat="45.35116" lon="7.01345">
        <ele>2273.3481</ele>
        <time>2015-08-23T11:14:49Z</time>
      </trkpt>
      <trkpt lat="45.35114" lon="7.01351">
        <ele>2275.1255</ele>
        <time>2015-08-23T11:14:54Z</time>
      </trkpt>
      <trkpt lat="45.35112" lon="7.01357">
        <ele>2275.1255</ele>
        <time>2015-08-23T11:14:59Z</time>
      </trkpt>
      <trkpt lat="45.3511" lon="7.01363">
        <ele>2276.846</ele>
        <time>2015-08-23T11:15:04Z</time>
      </trkpt>
      <trkpt lat="45.35105" lon="7.01367">
        <ele>2276.846</ele>
        <time>2015-08-23T11:15:09Z</time>
      </trkpt>
      <trkpt lat="45.35104" lon="7.01371">
        <ele>2276.846</ele>
        <time>2015-08-23T11:15:14Z</time>
      </trkpt>
      <trkpt lat="45.35103" lon="7.01377">
        <ele>2278.5083</ele>
        <time>2015-08-23T11:15:19Z</time>
      </trkpt>
      <trkpt lat="45.35101" lon="7.01383">
        <ele>2278.5083</ele>
        <time>2015-08-23T11:15:24Z</time>
      </trkpt>
      <trkpt lat="45.35097" lon="7.01389">
        <ele>2280.0107</ele>
        <time>2015-08-23T11:15:29Z</time>
      </trkpt>
      <trkpt lat="45.35095" lon="7.01393">
        <ele>2280.0107</ele>
        <time>2015-08-23T11:15:34Z</time>
      </trkpt>
      <trkpt lat="45.35093" lon="7.01397">
        <ele>2280.0107</ele>
        <time>2015-08-23T11:15:39Z</time>
      </trkpt>
      <trkpt lat="45.35091" lon="7.01402">
        <ele>2281.4756</ele>
        <time>2015-08-23T11:15:44Z</time>
      </trkpt>
      <trkpt lat="45.35089" lon="7.01409">
        <ele>2281.4756</ele>
        <time>2015-08-23T11:15:49Z</time>
      </trkpt>
      <trkpt lat="45.35087" lon="7.01415">
        <ele>2282.8152</ele>
        <time>2015-08-23T11:15:54Z</time>
      </trkpt>
      <trkpt lat="45.35085" lon="7.01421">
        <ele>2282.8152</ele>
        <time>2015-08-23T11:15:59Z</time>
      </trkpt>
      <trkpt lat="45.35082" lon="7.01424">
        <ele>2282.8152</ele>
        <time>2015-08-23T11:16:04Z</time>
      </trkpt>
      <trkpt lat="45.35078" lon="7.01426">
        <ele>2284.093</ele>
        <time>2015-08-23T11:16:09Z</time>
      </trkpt>
      <trkpt lat="45.35074" lon="7.01428">
        <ele>2284.093</ele>
        <time>2015-08-23T11:16:14Z</time>
      </trkpt>
      <trkpt lat="45.3507" lon="7.01427">
        <ele>2284.093</ele>
        <time>2015-08-23T11:16:19Z</time>
      </trkpt>
      <trkpt lat="45.35066" lon="7.01427">
        <ele>2285.1665</ele>
        <time>2015-08-23T11:16:24Z</time>
      </trkpt>
      <trkpt lat="45.35061" lon="7.01429">
        <ele>2285.1665</ele>
        <time>2015-08-23T11:16:29Z</time>
      </trkpt>
      <trkpt lat="45.3506" lon="7.01429">
        <ele>2285.1665</ele>
        <time>2015-08-23T11:16:34Z</time>
      </trkpt>
      <trkpt lat="45.35059" lon="7.01429">
        <ele>2285.1665</ele>
        <time>2015-08-23T11:16:39Z</time>
      </trkpt>
      <trkpt lat="45.35058" lon="7.01429">
        <ele>2285.1665</ele>
        <time>2015-08-23T11:16:44Z</time>
      </trkpt>
      <trkpt lat="45.35058" lon="7.01429">
        <ele>2285.1665</ele>
        <time>2015-08-23T11:16:49Z</time>
      </trkpt>
      <trkpt lat="45.35057" lon="7.01429">
        <ele>2286.0337</ele>
        <time>2015-08-23T11:16:54Z</time>
      </trkpt>
      <trkpt lat="45.35057" lon="7.01428">
        <ele>2286.0337</ele>
        <time>2015-08-23T11:16:59Z</time>
      </trkpt>
      <trkpt lat="45.35056" lon="7.01431">
        <ele>2286.0337</ele>
        <time>2015-08-23T11:17:04Z</time>
      </trkpt>
      <trkpt lat="45.35054" lon="7.01436">
        <ele>2286.0337</ele>
        <time>2015-08-23T11:17:09Z</time>
      </trkpt>
      <trkpt lat="45.35051" lon="7.01439">
        <ele>2286.6797</ele>
        <time>2015-08-23T11:17:14Z</time>
      </trkpt>
      <trkpt lat="45.35047" lon="7.01442">
        <ele>2286.6797</ele>
        <time>2015-08-23T11:17:19Z</time>
      </trkpt>
      <trkpt lat="45.35043" lon="7.01446">
        <ele>2286.6797</ele>
        <time>2015-08-23T11:17:24Z</time>
      </trkpt>
      <trkpt lat="45.3504" lon="7.01447">
        <ele>2287.3076</ele>
        <time>2015-08-23T11:17:29Z</time>
      </trkpt>
      <trkpt lat="45.35037" lon="7.01445">
        <ele>2287.3076</ele>
        <time>2015-08-23T11:17:34Z</time>
      </trkpt>
      <trkpt lat="45.35034" lon="7.01444">
        <ele>2287.3076</ele>
        <time>2015-08-23T11:17:39Z</time>
      </trkpt>
      <trkpt lat="45.35032" lon="7.01444">
        <ele>2287.3076</ele>
        <time>2015-08-23T11:17:44Z</time>
      </trkpt>
      <trkpt lat="45.35029" lon="7.01445">
        <ele>2287.89</ele>
        <time>2015-08-23T11:17:49Z</time>
      </trkpt>
      <trkpt lat="45.35025" lon="7.01447">
        <ele>2287.89</ele>
        <time>2015-08-23T11:17:54Z</time>
      </trkpt>
      <trkpt lat="45.3502" lon="7.01447">
        <ele>2288.4004</ele>
        <time>2015-08-23T11:17:59Z</time>
      </trkpt>
      <trkpt lat="45.35015" lon="7.01447">
        <ele>2288.4004</ele>
        <time>2015-08-23T11:18:04Z</time>
      </trkpt>
      <trkpt lat="45.35011" lon="7.01445">
        <ele>2288.7734</ele>
        <time>2015-08-23T11:18:09Z</time>
      </trkpt>
      <trkpt lat="45.35006" lon="7.01442">
        <ele>2288.7734</ele>
        <time>2015-08-23T11:18:14Z</time>
      </trkpt>
      <trkpt lat="45.35001" lon="7.0144">
        <ele>2288.9475</ele>
        <time>2015-08-23T11:18:19Z</time>
      </trkpt>
      <trkpt lat="45.34997" lon="7.01436">
        <ele>2288.9475</ele>
        <time>2015-08-23T11:18:24Z</time>
      </trkpt>
      <trkpt lat="45.34992" lon="7.01432">
        <ele>2288.968</ele>
        <time>2015-08-23T11:18:29Z</time>
      </trkpt>
      <trkpt lat="45.34987" lon="7.01428">
        <ele>2288.968</ele>
        <time>2015-08-23T11:18:34Z</time>
      </trkpt>
      <trkpt lat="45.34981" lon="7.01426">
        <ele>2288.8628</ele>
        <time>2015-08-23T11:18:39Z</time>
      </trkpt>
      <trkpt lat="45.34976" lon="7.01425">
        <ele>2288.8628</ele>
        <time>2015-08-23T11:18:44Z</time>
      </trkpt>
      <trkpt lat="45.34971" lon="7.01425">
        <ele>2288.5571</ele>
        <time>2015-08-23T11:18:49Z</time>
      </trkpt>
      <trkpt lat="45.34966" lon="7.01425">
        <ele>2288.5571</ele>
        <time>2015-08-23T11:18:54Z</time>
      </trkpt>
      <trkpt lat="45.34962" lon="7.01426">
        <ele>2288.0115</ele>
        <time>2015-08-23T11:18:59Z</time>
      </trkpt>
      <trkpt lat="45.34958" lon="7.01427">
        <ele>2288.0115</ele>
        <time>2015-08-23T11:19:04Z</time>
      </trkpt>
      <trkpt lat="45.34954" lon="7.01425">
        <ele>2288.0115</ele>
        <time>2015-08-23T11:19:09Z</time>
      </trkpt>
      <trkpt lat="45.34948" lon="7.01422">
        <ele>2287.0747</ele>
        <time>2015-08-23T11:19:14Z</time>
      </trkpt>
      <trkpt lat="45.34943" lon="7.01417">
        <ele>2287.0747</ele>
        <time>2015-08-23T11:19:19Z</time>
      </trkpt>
      <trkpt lat="45.34938" lon="7.01414">
        <ele>2286.0112</ele>
        <time>2015-08-23T11:19:24Z</time>
      </trkpt>
      <trkpt lat="45.34933" lon="7.01416">
        <ele>2286.0112</ele>
        <time>2015-08-23T11:19:29Z</time>
      </trkpt>
      <trkpt lat="45.34928" lon="7.01421">
        <ele>2284.8362</ele>
        <time>2015-08-23T11:19:34Z</time>
      </trkpt>
      <trkpt lat="45.34924" lon="7.01425">
        <ele>2284.8362</ele>
        <time>2015-08-23T11:19:39Z</time>
      </trkpt>
      <trkpt lat="45.34919" lon="7.01427">
        <ele>2283.5203</ele>
        <time>2015-08-23T11:19:44Z</time>
      </trkpt>
      <trkpt lat="45.34916" lon="7.0143">
        <ele>2283.5203</ele>
        <time>2015-08-23T11:19:49Z</time>
      </trkpt>
      <trkpt lat="45.3491" lon="7.01435">
        <ele>2282.1382</ele>
        <time>2015-08-23T11:19:54Z</time>
      </trkpt>
      <trkpt lat="45.34906" lon="7.01439">
        <ele>2282.1382</ele>
        <time>2015-08-23T11:19:59Z</time>
      </trkpt>
      <trkpt lat="45.34903" lon="7.01445">
        <ele>2280.6865</ele>
        <time>2015-08-23T11:20:04Z</time>
      </trkpt>
      <trkpt lat="45.34897" lon="7.0145">
        <ele>2280.6865</ele>
        <time>2015-08-23T11:20:09Z</time>
      </trkpt>
      <trkpt lat="45.34892" lon="7.01453">
        <ele>2279.163</ele>
        <time>2015-08-23T11:20:14Z</time>
      </trkpt>
      <trkpt lat="45.34887" lon="7.01456">
        <ele>2279.163</ele>
        <time>2015-08-23T11:20:19Z</time>
      </trkpt>
      <trkpt lat="45.34884" lon="7.01462">
        <ele>2277.594</ele>
        <time>2015-08-23T11:20:24Z</time>
      </trkpt>
      <trkpt lat="45.3488" lon="7.01468">
        <ele>2277.594</ele>
        <time>2015-08-23T11:20:29Z</time>
      </trkpt>
      <trkpt lat="45.34876" lon="7.01473">
        <ele>2276.1052</ele>
        <time>2015-08-23T11:20:34Z</time>
      </trkpt>
      <trkpt lat="45.34871" lon="7.01478">
        <ele>2276.1052</ele>
        <time>2015-08-23T11:20:39Z</time>
      </trkpt>
      <trkpt lat="45.34868" lon="7.01482">
        <ele>2274.654</ele>
        <time>2015-08-23T11:20:44Z</time>
      </trkpt>
      <trkpt lat="45.34865" lon="7.01486">
        <ele>2274.654</ele>
        <time>2015-08-23T11:20:49Z</time>
      </trkpt>
      <trkpt lat="45.34862" lon="7.01492">
        <ele>2273.215</ele>
        <time>2015-08-23T11:20:54Z</time>
      </trkpt>
      <trkpt lat="45.34857" lon="7.01497">
        <ele>2273.215</ele>
        <time>2015-08-23T11:20:59Z</time>
      </trkpt>
      <trkpt lat="45.34853" lon="7.01501">
        <ele>2271.8372</ele>
        <time>2015-08-23T11:21:04Z</time>
      </trkpt>
      <trkpt lat="45.34849" lon="7.01505">
        <ele>2271.8372</ele>
        <time>2015-08-23T11:21:09Z</time>
      </trkpt>
      <trkpt lat="45.34846" lon="7.0151">
        <ele>2270.5505</ele>
        <time>2015-08-23T11:21:14Z</time>
      </trkpt>
      <trkpt lat="45.34842" lon="7.01514">
        <ele>2270.5505</ele>
        <time>2015-08-23T11:21:19Z</time>
      </trkpt>
      <trkpt lat="45.34837" lon="7.0152">
        <ele>2269.3684</ele>
        <time>2015-08-23T11:21:24Z</time>
      </trkpt>
      <trkpt lat="45.34833" lon="7.01524">
        <ele>2269.3684</ele>
        <time>2015-08-23T11:21:29Z</time>
      </trkpt>
      <trkpt lat="45.34829" lon="7.01528">
        <ele>2268.274</ele>
        <time>2015-08-23T11:21:34Z</time>
      </trkpt>
      <trkpt lat="45.34827" lon="7.01533">
        <ele>2268.274</ele>
        <time>2015-08-23T11:21:39Z</time>
      </trkpt>
      <trkpt lat="45.34824" lon="7.01536">
        <ele>2268.274</ele>
        <time>2015-08-23T11:21:44Z</time>
      </trkpt>
      <trkpt lat="45.34818" lon="7.01537">
        <ele>2267.3518</ele>
        <time>2015-08-23T11:21:49Z</time>
      </trkpt>
      <trkpt lat="45.34814" lon="7.01538">
        <ele>2267.3518</ele>
        <time>2015-08-23T11:21:54Z</time>
      </trkpt>
      <trkpt lat="45.34808" lon="7.0154">
        <ele>2266.5938</ele>
        <time>2015-08-23T11:21:59Z</time>
      </trkpt>
      <trkpt lat="45.34803" lon="7.01546">
        <ele>2266.5938</ele>
        <time>2015-08-23T11:22:04Z</time>
      </trkpt>
      <trkpt lat="45.34799" lon="7.01548">
        <ele>2265.9763</ele>
        <time>2015-08-23T11:22:09Z</time>
      </trkpt>
      <trkpt lat="45.34794" lon="7.01549">
        <ele>2265.9763</ele>
        <time>2015-08-23T11:22:14Z</time>
      </trkpt>
      <trkpt lat="45.34789" lon="7.01547">
        <ele>2265.536</ele>
        <time>2015-08-23T11:22:19Z</time>
      </trkpt>
      <trkpt lat="45.34786" lon="7.01547">
        <ele>2265.536</ele>
        <time>2015-08-23T11:22:24Z</time>
      </trkpt>
      <trkpt lat="45.34779" lon="7.01546">
        <ele>2265.2473</ele>
        <time>2015-08-23T11:22:29Z</time>
      </trkpt>
      <trkpt lat="45.34772" lon="7.01543">
        <ele>2265.2473</ele>
        <time>2015-08-23T11:22:34Z</time>
      </trkpt>
      <trkpt lat="45.34767" lon="7.01541">
        <ele>2265.1008</ele>
        <time>2015-08-23T11:22:39Z</time>
      </trkpt>
      <trkpt lat="45.34763" lon="7.01539">
        <ele>2265.1008</ele>
        <time>2015-08-23T11:22:44Z</time>
      </trkpt>
      <trkpt lat="45.34758" lon="7.01536">
        <ele>2264.958</ele>
        <time>2015-08-23T11:22:49Z</time>
      </trkpt>
      <trkpt lat="45.34752" lon="7.01533">
        <ele>2264.958</ele>
        <time>2015-08-23T11:22:54Z</time>
      </trkpt>
      <trkpt lat="45.34748" lon="7.01531">
        <ele>2264.8484</ele>
        <time>2015-08-23T11:22:59Z</time>
      </trkpt>
      <trkpt lat="45.34744" lon="7.01526">
        <ele>2264.8484</ele>
        <time>2015-08-23T11:23:04Z</time>
      </trkpt>
      <trkpt lat="45.3474" lon="7.0152">
        <ele>2264.7415</ele>
        <time>2015-08-23T11:23:09Z</time>
      </trkpt>
      <trkpt lat="45.34735" lon="7.01516">
        <ele>2264.7415</ele>
        <time>2015-08-23T11:23:14Z</time>
      </trkpt>
      <trkpt lat="45.34732" lon="7.01512">
        <ele>2264.638</ele>
        <time>2015-08-23T11:23:19Z</time>
      </trkpt>
      <trkpt lat="45.34726" lon="7.01504">
        <ele>2264.638</ele>
        <time>2015-08-23T11:23:24Z</time>
      </trkpt>
      <trkpt lat="45.34723" lon="7.01496">
        <ele>2264.5957</ele>
        <time>2015-08-23T11:23:29Z</time>
      </trkpt>
      <trkpt lat="45.3472" lon="7.01492">
        <ele>2264.5957</ele>
        <time>2015-08-23T11:23:34Z</time>
      </trkpt>
      <trkpt lat="45.34717" lon="7.0149">
        <ele>2264.5957</ele>
        <time>2015-08-23T11:23:39Z</time>
      </trkpt>
      <trkpt lat="45.34712" lon="7.01488">
        <ele>2264.5244</ele>
        <time>2015-08-23T11:23:44Z</time>
      </trkpt>
      <trkpt lat="45.34708" lon="7.01485">
        <ele>2264.5244</ele>
        <time>2015-08-23T11:23:49Z</time>
      </trkpt>
      <trkpt lat="45.34702" lon="7.0148">
        <ele>2264.455</ele>
        <time>2015-08-23T11:23:54Z</time>
      </trkpt>
      <trkpt lat="45.34699" lon="7.01477">
        <ele>2264.455</ele>
        <time>2015-08-23T11:23:59Z</time>
      </trkpt>
      <trkpt lat="45.34694" lon="7.01476">
        <ele>2264.455</ele>
        <time>2015-08-23T11:24:04Z</time>
      </trkpt>
      <trkpt lat="45.34689" lon="7.01476">
        <ele>2264.3738</ele>
        <time>2015-08-23T11:24:09Z</time>
      </trkpt>
      <trkpt lat="45.34685" lon="7.01476">
        <ele>2264.3738</ele>
        <time>2015-08-23T11:24:14Z</time>
      </trkpt>
      <trkpt lat="45.3468" lon="7.01478">
        <ele>2264.2092</ele>
        <time>2015-08-23T11:24:19Z</time>
      </trkpt>
      <trkpt lat="45.34675" lon="7.01479">
        <ele>2264.2092</ele>
        <time>2015-08-23T11:24:24Z</time>
      </trkpt>
      <trkpt lat="45.34669" lon="7.0148">
        <ele>2263.9534</ele>
        <time>2015-08-23T11:24:29Z</time>
      </trkpt>
      <trkpt lat="45.34665" lon="7.01481">
        <ele>2263.9534</ele>
        <time>2015-08-23T11:24:34Z</time>
      </trkpt>
      <trkpt lat="45.34658" lon="7.01482">
        <ele>2263.6284</ele>
        <time>2015-08-23T11:24:39Z</time>
      </trkpt>
      <trkpt lat="45.34653" lon="7.01481">
        <ele>2263.6284</ele>
        <time>2015-08-23T11:24:44Z</time>
      </trkpt>
      <trkpt lat="45.34648" lon="7.01482">
        <ele>2263.3118</ele>
        <time>2015-08-23T11:24:49Z</time>
      </trkpt>
      <trkpt lat="45.34643" lon="7.01482">
        <ele>2263.3118</ele>
        <time>2015-08-23T11:24:54Z</time>
      </trkpt>
      <trkpt lat="45.34636" lon="7.01482">
        <ele>2262.9746</ele>
        <time>2015-08-23T11:24:59Z</time>
      </trkpt>
      <trkpt lat="45.3463" lon="7.01482">
        <ele>2262.9746</ele>
        <time>2015-08-23T11:25:04Z</time>
      </trkpt>
      <trkpt lat="45.34625" lon="7.01482">
        <ele>2262.6626</ele>
        <time>2015-08-23T11:25:09Z</time>
      </trkpt>
      <trkpt lat="45.34619" lon="7.01481">
        <ele>2262.6626</ele>
        <time>2015-08-23T11:25:14Z</time>
      </trkpt>
      <trkpt lat="45.34614" lon="7.01479">
        <ele>2262.3594</ele>
        <time>2015-08-23T11:25:19Z</time>
      </trkpt>
      <trkpt lat="45.34609" lon="7.01477">
        <ele>2262.3594</ele>
        <time>2015-08-23T11:25:24Z</time>
      </trkpt>
      <trkpt lat="45.34605" lon="7.01475">
        <ele>2262.0364</ele>
        <time>2015-08-23T11:25:29Z</time>
      </trkpt>
      <trkpt lat="45.346" lon="7.01476">
        <ele>2262.0364</ele>
        <time>2015-08-23T11:25:34Z</time>
      </trkpt>
      <trkpt lat="45.34594" lon="7.01475">
        <ele>2261.7383</ele>
        <time>2015-08-23T11:25:39Z</time>
      </trkpt>
      <trkpt lat="45.3459" lon="7.01472">
        <ele>2261.7383</ele>
        <time>2015-08-23T11:25:44Z</time>
      </trkpt>
      <trkpt lat="45.34586" lon="7.01469">
        <ele>2261.5212</ele>
        <time>2015-08-23T11:25:49Z</time>
      </trkpt>
      <trkpt lat="45.34583" lon="7.01466">
        <ele>2261.5212</ele>
        <time>2015-08-23T11:25:54Z</time>
      </trkpt>
      <trkpt lat="45.34579" lon="7.01462">
        <ele>2261.5212</ele>
        <time>2015-08-23T11:25:59Z</time>
      </trkpt>
      <trkpt lat="45.34573" lon="7.01458">
        <ele>2261.509</ele>
        <time>2015-08-23T11:26:04Z</time>
      </trkpt>
      <trkpt lat="45.34568" lon="7.01459">
        <ele>2261.509</ele>
        <time>2015-08-23T11:26:09Z</time>
      </trkpt>
      <trkpt lat="45.34563" lon="7.01458">
        <ele>2261.614</ele>
        <time>2015-08-23T11:26:14Z</time>
      </trkpt>
      <trkpt lat="45.34558" lon="7.01454">
        <ele>2261.614</ele>
        <time>2015-08-23T11:26:19Z</time>
      </trkpt>
      <trkpt lat="45.34554" lon="7.01452">
        <ele>2261.812</ele>
        <time>2015-08-23T11:26:24Z</time>
      </trkpt>
      <trkpt lat="45.34548" lon="7.01449">
        <ele>2261.812</ele>
        <time>2015-08-23T11:26:29Z</time>
      </trkpt>
      <trkpt lat="45.34543" lon="7.01448">
        <ele>2262.0947</ele>
        <time>2015-08-23T11:26:34Z</time>
      </trkpt>
      <trkpt lat="45.34538" lon="7.01448">
        <ele>2262.0947</ele>
        <time>2015-08-23T11:26:39Z</time>
      </trkpt>
      <trkpt lat="45.34533" lon="7.01449">
        <ele>2262.426</ele>
        <time>2015-08-23T11:26:44Z</time>
      </trkpt>
      <trkpt lat="45.34529" lon="7.01449">
        <ele>2262.426</ele>
        <time>2015-08-23T11:26:49Z</time>
      </trkpt>
      <trkpt lat="45.34523" lon="7.01449">
        <ele>2262.7139</ele>
        <time>2015-08-23T11:26:54Z</time>
      </trkpt>
      <trkpt lat="45.34517" lon="7.01447">
        <ele>2262.7139</ele>
        <time>2015-08-23T11:26:59Z</time>
      </trkpt>
      <trkpt lat="45.34513" lon="7.01445">
        <ele>2263.0173</ele>
        <time>2015-08-23T11:27:04Z</time>
      </trkpt>
      <trkpt lat="45.3451" lon="7.01444">
        <ele>2263.0173</ele>
        <time>2015-08-23T11:27:09Z</time>
      </trkpt>
      <trkpt lat="45.34505" lon="7.01442">
        <ele>2263.0173</ele>
        <time>2015-08-23T11:27:14Z</time>
      </trkpt>
      <trkpt lat="45.34501" lon="7.01436">
        <ele>2263.1465</ele>
        <time>2015-08-23T11:27:19Z</time>
      </trkpt>
      <trkpt lat="45.34496" lon="7.01431">
        <ele>2263.1465</ele>
        <time>2015-08-23T11:27:24Z</time>
      </trkpt>
      <trkpt lat="45.34492" lon="7.01427">
        <ele>2263.2427</ele>
        <time>2015-08-23T11:27:29Z</time>
      </trkpt>
      <trkpt lat="45.34487" lon="7.01424">
        <ele>2263.2427</ele>
        <time>2015-08-23T11:27:34Z</time>
      </trkpt>
      <trkpt lat="45.34482" lon="7.0142">
        <ele>2263.336</ele>
        <time>2015-08-23T11:27:39Z</time>
      </trkpt>
      <trkpt lat="45.34478" lon="7.01417">
        <ele>2263.336</ele>
        <time>2015-08-23T11:27:44Z</time>
      </trkpt>
      <trkpt lat="45.34476" lon="7.01413">
        <ele>2263.336</ele>
        <time>2015-08-23T11:27:49Z</time>
      </trkpt>
      <trkpt lat="45.34471" lon="7.0141">
        <ele>2263.5122</ele>
        <time>2015-08-23T11:27:54Z</time>
      </trkpt>
      <trkpt lat="45.34468" lon="7.01405">
        <ele>2263.5122</ele>
        <time>2015-08-23T11:27:59Z</time>
      </trkpt>
      <trkpt lat="45.34463" lon="7.01402">
        <ele>2263.6914</ele>
        <time>2015-08-23T11:28:04Z</time>
      </trkpt>
      <trkpt lat="45.34458" lon="7.01399">
        <ele>2263.6914</ele>
        <time>2015-08-23T11:28:09Z</time>
      </trkpt>
      <trkpt lat="45.34455" lon="7.01395">
        <ele>2263.9592</ele>
        <time>2015-08-23T11:28:14Z</time>
      </trkpt>
      <trkpt lat="45.3445" lon="7.0139">
        <ele>2263.9592</ele>
        <time>2015-08-23T11:28:19Z</time>
      </trkpt>
      <trkpt lat="45.34447" lon="7.01386">
        <ele>2264.2207</ele>
        <time>2015-08-23T11:28:24Z</time>
      </trkpt>
      <trkpt lat="45.34442" lon="7.01381">
        <ele>2264.2207</ele>
        <time>2015-08-23T11:28:29Z</time>
      </trkpt>
      <trkpt lat="45.34439" lon="7.01374">
        <ele>2264.446</ele>
        <time>2015-08-23T11:28:34Z</time>
      </trkpt>
      <trkpt lat="45.34434" lon="7.0137">
        <ele>2264.446</ele>
        <time>2015-08-23T11:28:39Z</time>
      </trkpt>
      <trkpt lat="45.3443" lon="7.01366">
        <ele>2264.5789</ele>
        <time>2015-08-23T11:28:44Z</time>
      </trkpt>
      <trkpt lat="45.34425" lon="7.01362">
        <ele>2264.5789</ele>
        <time>2015-08-23T11:28:49Z</time>
      </trkpt>
      <trkpt lat="45.3442" lon="7.01358">
        <ele>2264.6685</ele>
        <time>2015-08-23T11:28:54Z</time>
      </trkpt>
      <trkpt lat="45.34416" lon="7.01353">
        <ele>2264.6685</ele>
        <time>2015-08-23T11:28:59Z</time>
      </trkpt>
      <trkpt lat="45.34412" lon="7.01349">
        <ele>2264.6157</ele>
        <time>2015-08-23T11:29:04Z</time>
      </trkpt>
      <trkpt lat="45.34407" lon="7.01345">
        <ele>2264.6157</ele>
        <time>2015-08-23T11:29:09Z</time>
      </trkpt>
      <trkpt lat="45.34404" lon="7.0134">
        <ele>2264.532</ele>
        <time>2015-08-23T11:29:14Z</time>
      </trkpt>
      <trkpt lat="45.344" lon="7.01333">
        <ele>2264.532</ele>
        <time>2015-08-23T11:29:19Z</time>
      </trkpt>
      <trkpt lat="45.34394" lon="7.0133">
        <ele>2264.4187</ele>
        <time>2015-08-23T11:29:24Z</time>
      </trkpt>
      <trkpt lat="45.34389" lon="7.01326">
        <ele>2264.4187</ele>
        <time>2015-08-23T11:29:29Z</time>
      </trkpt>
      <trkpt lat="45.34385" lon="7.01323">
        <ele>2264.2058</ele>
        <time>2015-08-23T11:29:34Z</time>
      </trkpt>
      <trkpt lat="45.34381" lon="7.0132">
        <ele>2264.2058</ele>
        <time>2015-08-23T11:29:39Z</time>
      </trkpt>
      <trkpt lat="45.34377" lon="7.01316">
        <ele>2263.9153</ele>
        <time>2015-08-23T11:29:44Z</time>
      </trkpt>
      <trkpt lat="45.34376" lon="7.01315">
        <ele>2263.9153</ele>
        <time>2015-08-23T11:29:49Z</time>
      </trkpt>
      <trkpt lat="45.34375" lon="7.01314">
        <ele>2263.9153</ele>
        <time>2015-08-23T11:29:54Z</time>
      </trkpt>
      <trkpt lat="45.34372" lon="7.01314">
        <ele>2263.9153</ele>
        <time>2015-08-23T11:29:59Z</time>
      </trkpt>
      <trkpt lat="45.3437" lon="7.01312">
        <ele>2263.9153</ele>
        <time>2015-08-23T11:30:04Z</time>
      </trkpt>
      <trkpt lat="45.3437" lon="7.01313">
        <ele>2263.9153</ele>
        <time>2015-08-23T11:30:09Z</time>
      </trkpt>
      <trkpt lat="45.34371" lon="7.01309">
        <ele>2263.4229</ele>
        <time>2015-08-23T11:30:14Z</time>
      </trkpt>
      <trkpt lat="45.34372" lon="7.0131">
        <ele>2263.4229</ele>
        <time>2015-08-23T11:30:19Z</time>
      </trkpt>
      <trkpt lat="45.34371" lon="7.01314">
        <ele>2263.4229</ele>
        <time>2015-08-23T11:30:24Z</time>
      </trkpt>
      <trkpt lat="45.34372" lon="7.01313">
        <ele>2263.4229</ele>
        <time>2015-08-23T11:30:29Z</time>
      </trkpt>
      <trkpt lat="45.34372" lon="7.01313">
        <ele>2263.4229</ele>
        <time>2015-08-23T11:30:34Z</time>
      </trkpt>
      <trkpt lat="45.34371" lon="7.01315">
        <ele>2263.4229</ele>
        <time>2015-08-23T11:30:39Z</time>
      </trkpt>
      <trkpt lat="45.3437" lon="7.01315">
        <ele>2263.4229</ele>
        <time>2015-08-23T11:30:44Z</time>
      </trkpt>
      <trkpt lat="45.34369" lon="7.01314">
        <ele>2262.9321</ele>
        <time>2015-08-23T11:30:49Z</time>
      </trkpt>
      <trkpt lat="45.34369" lon="7.01316">
        <ele>2262.9321</ele>
        <time>2015-08-23T11:30:54Z</time>
      </trkpt>
      <trkpt lat="45.34369" lon="7.01316">
        <ele>2262.9321</ele>
        <time>2015-08-23T11:30:59Z</time>
      </trkpt>
      <trkpt lat="45.34368" lon="7.01316">
        <ele>2262.9321</ele>
        <time>2015-08-23T11:31:04Z</time>
      </trkpt>
      <trkpt lat="45.34371" lon="7.01313">
        <ele>2262.9321</ele>
        <time>2015-08-23T11:31:09Z</time>
      </trkpt>
      <trkpt lat="45.34372" lon="7.01312">
        <ele>2262.9321</ele>
        <time>2015-08-23T11:31:14Z</time>
      </trkpt>
      <trkpt lat="45.34372" lon="7.01312">
        <ele>2262.9321</ele>
        <time>2015-08-23T11:31:19Z</time>
      </trkpt>
      <trkpt lat="45.34372" lon="7.01313">
        <ele>2262.9321</ele>
        <time>2015-08-23T11:31:24Z</time>
      </trkpt>
      <trkpt lat="45.34372" lon="7.01311">
        <ele>2262.9321</ele>
        <time>2015-08-23T11:31:29Z</time>
      </trkpt>
      <trkpt lat="45.34372" lon="7.01313">
        <ele>2262.2417</ele>
        <time>2015-08-23T11:31:34Z</time>
      </trkpt>
      <trkpt lat="45.34371" lon="7.01316">
        <ele>2262.2417</ele>
        <time>2015-08-23T11:31:39Z</time>
      </trkpt>
      <trkpt lat="45.3437" lon="7.01317">
        <ele>2262.2417</ele>
        <time>2015-08-23T11:31:44Z</time>
      </trkpt>
      <trkpt lat="45.34371" lon="7.01316">
        <ele>2262.2417</ele>
        <time>2015-08-23T11:31:49Z</time>
      </trkpt>
      <trkpt lat="45.3437" lon="7.01318">
        <ele>2262.2417</ele>
        <time>2015-08-23T11:31:54Z</time>
      </trkpt>
      <trkpt lat="45.34369" lon="7.01318">
        <ele>2262.2417</ele>
        <time>2015-08-23T11:31:59Z</time>
      </trkpt>
      <trkpt lat="45.34369" lon="7.01315">
        <ele>2262.2417</ele>
        <time>2015-08-23T11:32:09Z</time>
      </trkpt>
      <trkpt lat="45.34369" lon="7.01314">
        <ele>2262.2417</ele>
        <time>2015-08-23T11:32:14Z</time>
      </trkpt>
      <trkpt lat="45.3437" lon="7.01315">
        <ele>2261.512</ele>
        <time>2015-08-23T11:32:24Z</time>
      </trkpt>
      <trkpt lat="45.3437" lon="7.01317">
        <ele>2261.512</ele>
        <time>2015-08-23T11:32:29Z</time>
      </trkpt>
      <trkpt lat="45.34371" lon="7.01314">
        <ele>2261.512</ele>
        <time>2015-08-23T11:32:39Z</time>
      </trkpt>
      <trkpt lat="45.34372" lon="7.01312">
        <ele>2261.512</ele>
        <time>2015-08-23T11:32:44Z</time>
      </trkpt>
      <trkpt lat="45.34373" lon="7.01312">
        <ele>2261.512</ele>
        <time>2015-08-23T11:32:54Z</time>
      </trkpt>
      <trkpt lat="45.34372" lon="7.01313">
        <ele>2261.512</ele>
        <time>2015-08-23T11:32:59Z</time>
      </trkpt>
      <trkpt lat="45.34372" lon="7.01316">
        <ele>2261.512</ele>
        <time>2015-08-23T11:33:09Z</time>
      </trkpt>
      <trkpt lat="45.34373" lon="7.01315">
        <ele>2260.9202</ele>
        <time>2015-08-23T11:33:14Z</time>
      </trkpt>
      <trkpt lat="45.3437" lon="7.01311">
        <ele>2260.9202</ele>
        <time>2015-08-23T11:33:29Z</time>
      </trkpt>
      <trkpt lat="45.3437" lon="7.01313">
        <ele>2260.9202</ele>
        <time>2015-08-23T11:33:34Z</time>
      </trkpt>
      <trkpt lat="45.34372" lon="7.01314">
        <ele>2260.9202</ele>
        <time>2015-08-23T11:33:44Z</time>
      </trkpt>
      <trkpt lat="45.34372" lon="7.01313">
        <ele>2260.9202</ele>
        <time>2015-08-23T11:33:49Z</time>
      </trkpt>
      <trkpt lat="45.3437" lon="7.01315">
        <ele>2260.342</ele>
        <time>2015-08-23T11:33:59Z</time>
      </trkpt>
      <trkpt lat="45.34369" lon="7.01316">
        <ele>2260.342</ele>
        <time>2015-08-23T11:34:04Z</time>
      </trkpt>
      <trkpt lat="45.34368" lon="7.01316">
        <ele>2260.342</ele>
        <time>2015-08-23T11:34:14Z</time>
      </trkpt>
      <trkpt lat="45.34368" lon="7.01316">
        <ele>2260.342</ele>
        <time>2015-08-23T11:34:19Z</time>
      </trkpt>
      <trkpt lat="45.34367" lon="7.01315">
        <ele>2260.342</ele>
        <time>2015-08-23T11:34:29Z</time>
      </trkpt>
      <trkpt lat="45.34368" lon="7.01314">
        <ele>2260.342</ele>
        <time>2015-08-23T11:34:34Z</time>
      </trkpt>
      <trkpt lat="45.34368" lon="7.01314">
        <ele>2260.342</ele>
        <time>2015-08-23T11:34:44Z</time>
      </trkpt>
      <trkpt lat="45.34368" lon="7.01314">
        <ele>2260.342</ele>
        <time>2015-08-23T11:34:49Z</time>
      </trkpt>
      <trkpt lat="45.34365" lon="7.01313">
        <ele>2260.342</ele>
        <time>2015-08-23T11:34:59Z</time>
      </trkpt>
      <trkpt lat="45.34362" lon="7.0131">
        <ele>2259.8787</ele>
        <time>2015-08-23T11:35:04Z</time>
      </trkpt>
      <trkpt lat="45.34355" lon="7.01298">
        <ele>2259.479</ele>
        <time>2015-08-23T11:35:19Z</time>
      </trkpt>
      <trkpt lat="45.34352" lon="7.01296">
        <ele>2259.479</ele>
        <time>2015-08-23T11:35:24Z</time>
      </trkpt>
      <trkpt lat="45.34346" lon="7.01298">
        <ele>2258.822</ele>
        <time>2015-08-23T11:35:34Z</time>
      </trkpt>
      <trkpt lat="45.34341" lon="7.01297">
        <ele>2258.822</ele>
        <time>2015-08-23T11:35:39Z</time>
      </trkpt>
      <trkpt lat="45.34331" lon="7.01297">
        <ele>2257.87</ele>
        <time>2015-08-23T11:35:49Z</time>
      </trkpt>
      <trkpt lat="45.34326" lon="7.01295">
        <ele>2257.87</ele>
        <time>2015-08-23T11:35:54Z</time>
      </trkpt>
      <trkpt lat="45.34316" lon="7.01292">
        <ele>2256.5898</ele>
        <time>2015-08-23T11:36:04Z</time>
      </trkpt>
      <trkpt lat="45.3431" lon="7.01291">
        <ele>2256.5898</ele>
        <time>2015-08-23T11:36:09Z</time>
      </trkpt>
      <trkpt lat="45.34299" lon="7.01283">
        <ele>2255.0513</ele>
        <time>2015-08-23T11:36:19Z</time>
      </trkpt>
      <trkpt lat="45.34295" lon="7.01281">
        <ele>2255.0513</ele>
        <time>2015-08-23T11:36:24Z</time>
      </trkpt>
      <trkpt lat="45.34287" lon="7.01278">
        <ele>2253.306</ele>
        <time>2015-08-23T11:36:34Z</time>
      </trkpt>
      <trkpt lat="45.34283" lon="7.01276">
        <ele>2253.306</ele>
        <time>2015-08-23T11:36:39Z</time>
      </trkpt>
      <trkpt lat="45.34275" lon="7.01272">
        <ele>2251.287</ele>
        <time>2015-08-23T11:36:49Z</time>
      </trkpt>
      <trkpt lat="45.34271" lon="7.01268">
        <ele>2251.287</ele>
        <time>2015-08-23T11:36:54Z</time>
      </trkpt>
      <trkpt lat="45.34263" lon="7.01268">
        <ele>2249.1057</ele>
        <time>2015-08-23T11:37:04Z</time>
      </trkpt>
      <trkpt lat="45.3426" lon="7.01266">
        <ele>2249.1057</ele>
        <time>2015-08-23T11:37:09Z</time>
      </trkpt>
      <trkpt lat="45.34258" lon="7.01265">
        <ele>2249.1057</ele>
        <time>2015-08-23T11:37:19Z</time>
      </trkpt>
      <trkpt lat="45.34258" lon="7.01264">
        <ele>2249.1057</ele>
        <time>2015-08-23T11:37:24Z</time>
      </trkpt>
      <trkpt lat="45.34259" lon="7.01261">
        <ele>2249.1057</ele>
        <time>2015-08-23T11:37:34Z</time>
      </trkpt>
      <trkpt lat="45.3426" lon="7.01259">
        <ele>2246.5635</ele>
        <time>2015-08-23T11:37:39Z</time>
      </trkpt>
      <trkpt lat="45.3426" lon="7.01256">
        <ele>2246.5635</ele>
        <time>2015-08-23T11:37:49Z</time>
      </trkpt>
      <trkpt lat="45.34262" lon="7.01258">
        <ele>2246.5635</ele>
        <time>2015-08-23T11:37:54Z</time>
      </trkpt>
      <trkpt lat="45.34259" lon="7.01262">
        <ele>2246.5635</ele>
        <time>2015-08-23T11:38:09Z</time>
      </trkpt>
      <trkpt lat="45.34258" lon="7.01262">
        <ele>2244.0535</ele>
        <time>2015-08-23T11:38:14Z</time>
      </trkpt>
      <trkpt lat="45.34253" lon="7.01265">
        <ele>2244.0535</ele>
        <time>2015-08-23T11:38:24Z</time>
      </trkpt>
      <trkpt lat="45.3425" lon="7.01272">
        <ele>2241.4927</ele>
        <time>2015-08-23T11:38:29Z</time>
      </trkpt>
      <trkpt lat="45.34241" lon="7.01273">
        <ele>2239.122</ele>
        <time>2015-08-23T11:38:39Z</time>
      </trkpt>
      <trkpt lat="45.34238" lon="7.01272">
        <ele>2239.122</ele>
        <time>2015-08-23T11:38:44Z</time>
      </trkpt>
      <trkpt lat="45.34235" lon="7.01268">
        <ele>2239.122</ele>
        <time>2015-08-23T11:38:54Z</time>
      </trkpt>
      <trkpt lat="45.34234" lon="7.01262">
        <ele>2236.6445</ele>
        <time>2015-08-23T11:38:59Z</time>
      </trkpt>
      <trkpt lat="45.34233" lon="7.01249">
        <ele>2234.1895</ele>
        <time>2015-08-23T11:39:09Z</time>
      </trkpt>
      <trkpt lat="45.34233" lon="7.01245">
        <ele>2234.1895</ele>
        <time>2015-08-23T11:39:14Z</time>
      </trkpt>
      <trkpt lat="45.34229" lon="7.01238">
        <ele>2234.1895</ele>
        <time>2015-08-23T11:39:24Z</time>
      </trkpt>
      <trkpt lat="45.34226" lon="7.01232">
        <ele>2231.4863</ele>
        <time>2015-08-23T11:39:29Z</time>
      </trkpt>
      <trkpt lat="45.34222" lon="7.01225">
        <ele>2231.4863</ele>
        <time>2015-08-23T11:39:39Z</time>
      </trkpt>
      <trkpt lat="45.34219" lon="7.0122">
        <ele>2228.5024</ele>
        <time>2015-08-23T11:39:44Z</time>
      </trkpt>
      <trkpt lat="45.34209" lon="7.01222">
        <ele>2225.438</ele>
        <time>2015-08-23T11:39:54Z</time>
      </trkpt>
      <trkpt lat="45.34206" lon="7.01224">
        <ele>2225.438</ele>
        <time>2015-08-23T11:39:59Z</time>
      </trkpt>
      <trkpt lat="45.34195" lon="7.01226">
        <ele>2222.219</ele>
        <time>2015-08-23T11:40:09Z</time>
      </trkpt>
      <trkpt lat="45.34192" lon="7.01226">
        <ele>2222.219</ele>
        <time>2015-08-23T11:40:14Z</time>
      </trkpt>
      <trkpt lat="45.34185" lon="7.01225">
        <ele>2218.7778</ele>
        <time>2015-08-23T11:40:24Z</time>
      </trkpt>
      <trkpt lat="45.3418" lon="7.0122">
        <ele>2218.7778</ele>
        <time>2015-08-23T11:40:29Z</time>
      </trkpt>
      <trkpt lat="45.34167" lon="7.01206">
        <ele>2215.0085</ele>
        <time>2015-08-23T11:40:44Z</time>
      </trkpt>
      <trkpt lat="45.34165" lon="7.012">
        <ele>2215.0085</ele>
        <time>2015-08-23T11:40:49Z</time>
      </trkpt>
      <trkpt lat="45.34159" lon="7.01186">
        <ele>2211.2173</ele>
        <time>2015-08-23T11:40:59Z</time>
      </trkpt>
      <trkpt lat="45.34157" lon="7.01183">
        <ele>2211.2173</ele>
        <time>2015-08-23T11:41:04Z</time>
      </trkpt>
      <trkpt lat="45.34154" lon="7.01173">
        <ele>2207.4858</ele>
        <time>2015-08-23T11:41:14Z</time>
      </trkpt>
      <trkpt lat="45.34154" lon="7.01168">
        <ele>2207.4858</ele>
        <time>2015-08-23T11:41:19Z</time>
      </trkpt>
      <trkpt lat="45.34153" lon="7.01162">
        <ele>2207.4858</ele>
        <time>2015-08-23T11:41:29Z</time>
      </trkpt>
      <trkpt lat="45.34152" lon="7.01156">
        <ele>2203.501</ele>
        <time>2015-08-23T11:41:34Z</time>
      </trkpt>
      <trkpt lat="45.34149" lon="7.01143">
        <ele>2199.5056</ele>
        <time>2015-08-23T11:41:44Z</time>
      </trkpt>
      <trkpt lat="45.34148" lon="7.01134">
        <ele>2199.5056</ele>
        <time>2015-08-23T11:41:49Z</time>
      </trkpt>
      <trkpt lat="45.34147" lon="7.0112">
        <ele>2195.4075</ele>
        <time>2015-08-23T11:41:59Z</time>
      </trkpt>
      <trkpt lat="45.34147" lon="7.01114">
        <ele>2195.4075</ele>
        <time>2015-08-23T11:42:04Z</time>
      </trkpt>
      <trkpt lat="45.34142" lon="7.01103">
        <ele>2191.4678</ele>
        <time>2015-08-23T11:42:14Z</time>
      </trkpt>
      <trkpt lat="45.34137" lon="7.01098">
        <ele>2191.4678</ele>
        <time>2015-08-23T11:42:19Z</time>
      </trkpt>
      <trkpt lat="45.3413" lon="7.0109">
        <ele>2187.7253</ele>
        <time>2015-08-23T11:42:29Z</time>
      </trkpt>
      <trkpt lat="45.34126" lon="7.01087">
        <ele>2187.7253</ele>
        <time>2015-08-23T11:42:34Z</time>
      </trkpt>
      <trkpt lat="45.3412" lon="7.01077">
        <ele>2184.0574</ele>
        <time>2015-08-23T11:42:44Z</time>
      </trkpt>
      <trkpt lat="45.34116" lon="7.01072">
        <ele>2184.0574</ele>
        <time>2015-08-23T11:42:49Z</time>
      </trkpt>
      <trkpt lat="45.3411" lon="7.01068">
        <ele>2180.3923</ele>
        <time>2015-08-23T11:42:59Z</time>
      </trkpt>
      <trkpt lat="45.34105" lon="7.01069">
        <ele>2180.3923</ele>
        <time>2015-08-23T11:43:04Z</time>
      </trkpt>
      <trkpt lat="45.34095" lon="7.01072">
        <ele>2176.693</ele>
        <time>2015-08-23T11:43:14Z</time>
      </trkpt>
      <trkpt lat="45.3409" lon="7.0107">
        <ele>2176.693</ele>
        <time>2015-08-23T11:43:19Z</time>
      </trkpt>
      <trkpt lat="45.34081" lon="7.01068">
        <ele>2173.0398</ele>
        <time>2015-08-23T11:43:29Z</time>
      </trkpt>
      <trkpt lat="45.34078" lon="7.01066">
        <ele>2173.0398</ele>
        <time>2015-08-23T11:43:34Z</time>
      </trkpt>
      <trkpt lat="45.34066" lon="7.01059">
        <ele>2169.1611</ele>
        <time>2015-08-23T11:43:49Z</time>
      </trkpt>
      <trkpt lat="45.34061" lon="7.01055">
        <ele>2169.1611</ele>
        <time>2015-08-23T11:43:54Z</time>
      </trkpt>
      <trkpt lat="45.34054" lon="7.01052">
        <ele>2165.3098</ele>
        <time>2015-08-23T11:44:04Z</time>
      </trkpt>
      <trkpt lat="45.34049" lon="7.0105">
        <ele>2165.3098</ele>
        <time>2015-08-23T11:44:09Z</time>
      </trkpt>
      <trkpt lat="45.34041" lon="7.01048">
        <ele>2161.4321</ele>
        <time>2015-08-23T11:44:19Z</time>
      </trkpt>
      <trkpt lat="45.34035" lon="7.01046">
        <ele>2161.4321</ele>
        <time>2015-08-23T11:44:24Z</time>
      </trkpt>
      <trkpt lat="45.34027" lon="7.01041">
        <ele>2157.6216</ele>
        <time>2015-08-23T11:44:34Z</time>
      </trkpt>
      <trkpt lat="45.34023" lon="7.01039">
        <ele>2157.6216</ele>
        <time>2015-08-23T11:44:39Z</time>
      </trkpt>
      <trkpt lat="45.34015" lon="7.01037">
        <ele>2153.7488</ele>
        <time>2015-08-23T11:44:49Z</time>
      </trkpt>
      <trkpt lat="45.3401" lon="7.01034">
        <ele>2153.7488</ele>
        <time>2015-08-23T11:44:54Z</time>
      </trkpt>
      <trkpt lat="45.33999" lon="7.01029">
        <ele>2150.0107</ele>
        <time>2015-08-23T11:45:04Z</time>
      </trkpt>
      <trkpt lat="45.33995" lon="7.01029">
        <ele>2150.0107</ele>
        <time>2015-08-23T11:45:09Z</time>
      </trkpt>
      <trkpt lat="45.33992" lon="7.01032">
        <ele>2150.0107</ele>
        <time>2015-08-23T11:45:19Z</time>
      </trkpt>
      <trkpt lat="45.33993" lon="7.0103">
        <ele>2150.0107</ele>
        <time>2015-08-23T11:45:24Z</time>
      </trkpt>
      <trkpt lat="45.33992" lon="7.01035">
        <ele>2146.07</ele>
        <time>2015-08-23T11:45:34Z</time>
      </trkpt>
      <trkpt lat="45.33991" lon="7.01035">
        <ele>2146.07</ele>
        <time>2015-08-23T11:45:39Z</time>
      </trkpt>
      <trkpt lat="45.33989" lon="7.01031">
        <ele>2146.07</ele>
        <time>2015-08-23T11:45:49Z</time>
      </trkpt>
      <trkpt lat="45.33989" lon="7.01033">
        <ele>2146.07</ele>
        <time>2015-08-23T11:45:54Z</time>
      </trkpt>
      <trkpt lat="45.33989" lon="7.0103">
        <ele>2146.07</ele>
        <time>2015-08-23T11:46:04Z</time>
      </trkpt>
      <trkpt lat="45.33989" lon="7.01028">
        <ele>2142.5662</ele>
        <time>2015-08-23T11:46:09Z</time>
      </trkpt>
      <trkpt lat="45.33989" lon="7.01026">
        <ele>2142.5662</ele>
        <time>2015-08-23T11:46:19Z</time>
      </trkpt>
      <trkpt lat="45.33989" lon="7.01026">
        <ele>2142.5662</ele>
        <time>2015-08-23T11:46:24Z</time>
      </trkpt>
      <trkpt lat="45.3399" lon="7.01031">
        <ele>2142.5662</ele>
        <time>2015-08-23T11:46:59Z</time>
      </trkpt>
      <trkpt lat="45.33985" lon="7.01026">
        <ele>2139.3118</ele>
        <time>2015-08-23T11:47:09Z</time>
      </trkpt>
      <trkpt lat="45.33982" lon="7.0102">
        <ele>2139.3118</ele>
        <time>2015-08-23T11:47:14Z</time>
      </trkpt>
      <trkpt lat="45.33977" lon="7.01013">
        <ele>2136.2908</ele>
        <time>2015-08-23T11:47:24Z</time>
      </trkpt>
      <trkpt lat="45.33975" lon="7.01011">
        <ele>2136.2908</ele>
        <time>2015-08-23T11:47:29Z</time>
      </trkpt>
      <trkpt lat="45.3397" lon="7.01005">
        <ele>2136.2908</ele>
        <time>2015-08-23T11:47:39Z</time>
      </trkpt>
      <trkpt lat="45.33965" lon="7.01001">
        <ele>2133.2424</ele>
        <time>2015-08-23T11:47:44Z</time>
      </trkpt>
      <trkpt lat="45.33958" lon="7.0099">
        <ele>2130.4443</ele>
        <time>2015-08-23T11:47:54Z</time>
      </trkpt>
      <trkpt lat="45.33956" lon="7.00986">
        <ele>2130.4443</ele>
        <time>2015-08-23T11:47:59Z</time>
      </trkpt>
      <trkpt lat="45.33949" lon="7.00977">
        <ele>2127.7915</ele>
        <time>2015-08-23T11:48:09Z</time>
      </trkpt>
      <trkpt lat="45.33948" lon="7.00971">
        <ele>2127.7915</ele>
        <time>2015-08-23T11:48:14Z</time>
      </trkpt>
      <trkpt lat="45.33942" lon="7.00964">
        <ele>2125.2305</ele>
        <time>2015-08-23T11:48:24Z</time>
      </trkpt>
      <trkpt lat="45.33939" lon="7.00963">
        <ele>2125.2305</ele>
        <time>2015-08-23T11:48:29Z</time>
      </trkpt>
      <trkpt lat="45.33935" lon="7.00957">
        <ele>2125.2305</ele>
        <time>2015-08-23T11:48:39Z</time>
      </trkpt>
      <trkpt lat="45.33933" lon="7.00952">
        <ele>2122.5374</ele>
        <time>2015-08-23T11:48:44Z</time>
      </trkpt>
      <trkpt lat="45.33923" lon="7.0094">
        <ele>2120.0103</ele>
        <time>2015-08-23T11:48:59Z</time>
      </trkpt>
      <trkpt lat="45.3392" lon="7.00933">
        <ele>2120.0103</ele>
        <time>2015-08-23T11:49:04Z</time>
      </trkpt>
      <trkpt lat="45.33917" lon="7.00921">
        <ele>2117.6067</ele>
        <time>2015-08-23T11:49:14Z</time>
      </trkpt>
      <trkpt lat="45.33916" lon="7.00916">
        <ele>2117.6067</ele>
        <time>2015-08-23T11:49:19Z</time>
      </trkpt>
      <trkpt lat="45.33914" lon="7.00905">
        <ele>2115.115</ele>
        <time>2015-08-23T11:49:29Z</time>
      </trkpt>
      <trkpt lat="45.33912" lon="7.00901">
        <ele>2115.115</ele>
        <time>2015-08-23T11:49:34Z</time>
      </trkpt>
      <trkpt lat="45.33907" lon="7.00893">
        <ele>2112.5977</ele>
        <time>2015-08-23T11:49:44Z</time>
      </trkpt>
      <trkpt lat="45.33904" lon="7.00889">
        <ele>2112.5977</ele>
        <time>2015-08-23T11:49:49Z</time>
      </trkpt>
      <trkpt lat="45.33898" lon="7.0088">
        <ele>2110.1277</ele>
        <time>2015-08-23T11:49:59Z</time>
      </trkpt>
      <trkpt lat="45.33898" lon="7.00875">
        <ele>2110.1277</ele>
        <time>2015-08-23T11:50:04Z</time>
      </trkpt>
      <trkpt lat="45.33895" lon="7.00866">
        <ele>2107.4983</ele>
        <time>2015-08-23T11:50:14Z</time>
      </trkpt>
      <trkpt lat="45.33893" lon="7.00862">
        <ele>2107.4983</ele>
        <time>2015-08-23T11:50:19Z</time>
      </trkpt>
      <trkpt lat="45.33881" lon="7.0085">
        <ele>2104.5469</ele>
        <time>2015-08-23T11:50:34Z</time>
      </trkpt>
      <trkpt lat="45.33877" lon="7.00849">
        <ele>2104.5469</ele>
        <time>2015-08-23T11:50:39Z</time>
      </trkpt>
      <trkpt lat="45.33869" lon="7.00845">
        <ele>2101.571</ele>
        <time>2015-08-23T11:50:49Z</time>
      </trkpt>
      <trkpt lat="45.33866" lon="7.00843">
        <ele>2101.571</ele>
        <time>2015-08-23T11:50:54Z</time>
      </trkpt>
      <trkpt lat="45.3386" lon="7.0084">
        <ele>2098.4714</ele>
        <time>2015-08-23T11:51:04Z</time>
      </trkpt>
      <trkpt lat="45.33856" lon="7.00838">
        <ele>2098.4714</ele>
        <time>2015-08-23T11:51:09Z</time>
      </trkpt>
      <trkpt lat="45.33848" lon="7.00835">
        <ele>2095.502</ele>
        <time>2015-08-23T11:51:19Z</time>
      </trkpt>
      <trkpt lat="45.33845" lon="7.00833">
        <ele>2095.502</ele>
        <time>2015-08-23T11:51:24Z</time>
      </trkpt>
      <trkpt lat="45.33839" lon="7.00826">
        <ele>2092.624</ele>
        <time>2015-08-23T11:51:34Z</time>
      </trkpt>
      <trkpt lat="45.33836" lon="7.00823">
        <ele>2092.624</ele>
        <time>2015-08-23T11:51:39Z</time>
      </trkpt>
      <trkpt lat="45.3383" lon="7.00819">
        <ele>2089.7725</ele>
        <time>2015-08-23T11:51:49Z</time>
      </trkpt>
      <trkpt lat="45.33828" lon="7.00815">
        <ele>2089.7725</ele>
        <time>2015-08-23T11:51:54Z</time>
      </trkpt>
      <trkpt lat="45.33821" lon="7.00804">
        <ele>2086.9158</ele>
        <time>2015-08-23T11:52:04Z</time>
      </trkpt>
      <trkpt lat="45.33818" lon="7.00799">
        <ele>2086.9158</ele>
        <time>2015-08-23T11:52:09Z</time>
      </trkpt>
      <trkpt lat="45.33814" lon="7.00786">
        <ele>2084.2268</ele>
        <time>2015-08-23T11:52:19Z</time>
      </trkpt>
      <trkpt lat="45.33814" lon="7.00784">
        <ele>2084.2268</ele>
        <time>2015-08-23T11:52:24Z</time>
      </trkpt>
      <trkpt lat="45.33813" lon="7.00775">
        <ele>2084.2268</ele>
        <time>2015-08-23T11:52:34Z</time>
      </trkpt>
      <trkpt lat="45.33812" lon="7.00771">
        <ele>2081.2878</ele>
        <time>2015-08-23T11:52:39Z</time>
      </trkpt>
      <trkpt lat="45.33803" lon="7.00762">
        <ele>2078.362</ele>
        <time>2015-08-23T11:52:54Z</time>
      </trkpt>
      <trkpt lat="45.33802" lon="7.00759">
        <ele>2078.362</ele>
        <time>2015-08-23T11:52:59Z</time>
      </trkpt>
      <trkpt lat="45.33797" lon="7.00747">
        <ele>2075.635</ele>
        <time>2015-08-23T11:53:09Z</time>
      </trkpt>
      <trkpt lat="45.33796" lon="7.00745">
        <ele>2075.635</ele>
        <time>2015-08-23T11:53:14Z</time>
      </trkpt>
      <trkpt lat="45.3379" lon="7.00738">
        <ele>2072.9756</ele>
        <time>2015-08-23T11:53:24Z</time>
      </trkpt>
      <trkpt lat="45.33789" lon="7.00735">
        <ele>2072.9756</ele>
        <time>2015-08-23T11:53:29Z</time>
      </trkpt>
      <trkpt lat="45.33782" lon="7.00725">
        <ele>2070.2476</ele>
        <time>2015-08-23T11:53:39Z</time>
      </trkpt>
      <trkpt lat="45.33779" lon="7.0072">
        <ele>2070.2476</ele>
        <time>2015-08-23T11:53:44Z</time>
      </trkpt>
      <trkpt lat="45.33773" lon="7.00714">
        <ele>2067.3542</ele>
        <time>2015-08-23T11:53:54Z</time>
      </trkpt>
      <trkpt lat="45.33771" lon="7.0071">
        <ele>2067.3542</ele>
        <time>2015-08-23T11:53:59Z</time>
      </trkpt>
      <trkpt lat="45.33768" lon="7.00699">
        <ele>2064.2344</ele>
        <time>2015-08-23T11:54:09Z</time>
      </trkpt>
      <trkpt lat="45.33767" lon="7.00694">
        <ele>2064.2344</ele>
        <time>2015-08-23T11:54:14Z</time>
      </trkpt>
      <trkpt lat="45.33766" lon="7.00683">
        <ele>2061.1064</ele>
        <time>2015-08-23T11:54:24Z</time>
      </trkpt>
      <trkpt lat="45.33765" lon="7.0068">
        <ele>2061.1064</ele>
        <time>2015-08-23T11:54:29Z</time>
      </trkpt>
      <trkpt lat="45.33764" lon="7.00668">
        <ele>2057.971</ele>
        <time>2015-08-23T11:54:39Z</time>
      </trkpt>
      <trkpt lat="45.33762" lon="7.00664">
        <ele>2057.971</ele>
        <time>2015-08-23T11:54:44Z</time>
      </trkpt>
      <trkpt lat="45.3376" lon="7.00656">
        <ele>2054.713</ele>
        <time>2015-08-23T11:54:54Z</time>
      </trkpt>
      <trkpt lat="45.33758" lon="7.00652">
        <ele>2054.713</ele>
        <time>2015-08-23T11:54:59Z</time>
      </trkpt>
      <trkpt lat="45.33748" lon="7.00648">
        <ele>2051.2554</ele>
        <time>2015-08-23T11:55:09Z</time>
      </trkpt>
      <trkpt lat="45.33746" lon="7.00645">
        <ele>2051.2554</ele>
        <time>2015-08-23T11:55:14Z</time>
      </trkpt>
      <trkpt lat="45.33734" lon="7.0064">
        <ele>2047.6567</ele>
        <time>2015-08-23T11:55:29Z</time>
      </trkpt>
      <trkpt lat="45.33731" lon="7.0064">
        <ele>2047.6567</ele>
        <time>2015-08-23T11:55:34Z</time>
      </trkpt>
      <trkpt lat="45.33725" lon="7.00637">
        <ele>2044.1014</ele>
        <time>2015-08-23T11:55:44Z</time>
      </trkpt>
      <trkpt lat="45.33721" lon="7.00636">
        <ele>2044.1014</ele>
        <time>2015-08-23T11:55:49Z</time>
      </trkpt>
      <trkpt lat="45.33714" lon="7.00636">
        <ele>2040.53</ele>
        <time>2015-08-23T11:55:59Z</time>
      </trkpt>
      <trkpt lat="45.33711" lon="7.00634">
        <ele>2040.53</ele>
        <time>2015-08-23T11:56:04Z</time>
      </trkpt>
      <trkpt lat="45.33702" lon="7.00631">
        <ele>2037.0165</ele>
        <time>2015-08-23T11:56:14Z</time>
      </trkpt>
      <trkpt lat="45.337" lon="7.00629">
        <ele>2037.0165</ele>
        <time>2015-08-23T11:56:19Z</time>
      </trkpt>
      <trkpt lat="45.33695" lon="7.00624">
        <ele>2033.6443</ele>
        <time>2015-08-23T11:56:29Z</time>
      </trkpt>
      <trkpt lat="45.33692" lon="7.00623">
        <ele>2033.6443</ele>
        <time>2015-08-23T11:56:34Z</time>
      </trkpt>
      <trkpt lat="45.3369" lon="7.00622">
        <ele>2033.6443</ele>
        <time>2015-08-23T11:56:44Z</time>
      </trkpt>
      <trkpt lat="45.3369" lon="7.00624">
        <ele>2033.6443</ele>
        <time>2015-08-23T11:56:49Z</time>
      </trkpt>
      <trkpt lat="45.3369" lon="7.00617">
        <ele>2030.3888</ele>
        <time>2015-08-23T11:57:04Z</time>
      </trkpt>
      <trkpt lat="45.33689" lon="7.00614">
        <ele>2030.3888</ele>
        <time>2015-08-23T11:57:09Z</time>
      </trkpt>
      <trkpt lat="45.33686" lon="7.00616">
        <ele>2030.3888</ele>
        <time>2015-08-23T11:57:19Z</time>
      </trkpt>
      <trkpt lat="45.33684" lon="7.00619">
        <ele>2030.3888</ele>
        <time>2015-08-23T11:57:24Z</time>
      </trkpt>
      <trkpt lat="45.33679" lon="7.00618">
        <ele>2026.8096</ele>
        <time>2015-08-23T11:57:34Z</time>
      </trkpt>
      <trkpt lat="45.33677" lon="7.00614">
        <ele>2026.8096</ele>
        <time>2015-08-23T11:57:39Z</time>
      </trkpt>
      <trkpt lat="45.33675" lon="7.00607">
        <ele>2026.8096</ele>
        <time>2015-08-23T11:57:49Z</time>
      </trkpt>
      <trkpt lat="45.33673" lon="7.00606">
        <ele>2022.989</ele>
        <time>2015-08-23T11:57:54Z</time>
      </trkpt>
      <trkpt lat="45.3367" lon="7.00609">
        <ele>2022.989</ele>
        <time>2015-08-23T11:58:04Z</time>
      </trkpt>
      <trkpt lat="45.33667" lon="7.00608">
        <ele>2022.989</ele>
        <time>2015-08-23T11:58:09Z</time>
      </trkpt>
      <trkpt lat="45.3366" lon="7.0061">
        <ele>2018.8169</ele>
        <time>2015-08-23T11:58:19Z</time>
      </trkpt>
      <trkpt lat="45.33658" lon="7.0061">
        <ele>2018.8169</ele>
        <time>2015-08-23T11:58:24Z</time>
      </trkpt>
      <trkpt lat="45.33656" lon="7.00611">
        <ele>2018.8169</ele>
        <time>2015-08-23T11:58:34Z</time>
      </trkpt>
      <trkpt lat="45.33655" lon="7.00614">
        <ele>2018.8169</ele>
        <time>2015-08-23T11:58:39Z</time>
      </trkpt>
      <trkpt lat="45.33655" lon="7.00623">
        <ele>2014.5667</ele>
        <time>2015-08-23T11:58:54Z</time>
      </trkpt>
      <trkpt lat="45.33655" lon="7.00619">
        <ele>2014.5667</ele>
        <time>2015-08-23T11:58:59Z</time>
      </trkpt>
      <trkpt lat="45.3365" lon="7.00612">
        <ele>2010.7803</ele>
        <time>2015-08-23T11:59:09Z</time>
      </trkpt>
      <trkpt lat="45.33647" lon="7.00609">
        <ele>2010.7803</ele>
        <time>2015-08-23T11:59:14Z</time>
      </trkpt>
      <trkpt lat="45.33642" lon="7.00601">
        <ele>2007.3242</ele>
        <time>2015-08-23T11:59:24Z</time>
      </trkpt>
      <trkpt lat="45.33638" lon="7.00599">
        <ele>2007.3242</ele>
        <time>2015-08-23T11:59:29Z</time>
      </trkpt>
      <trkpt lat="45.33629" lon="7.00591">
        <ele>2004.074</ele>
        <time>2015-08-23T11:59:39Z</time>
      </trkpt>
      <trkpt lat="45.33628" lon="7.00591">
        <ele>2004.074</ele>
        <time>2015-08-23T11:59:44Z</time>
      </trkpt>
      <trkpt lat="45.3362" lon="7.00582">
        <ele>2000.8992</ele>
        <time>2015-08-23T11:59:54Z</time>
      </trkpt>
      <trkpt lat="45.33618" lon="7.0058">
        <ele>2000.8992</ele>
        <time>2015-08-23T11:59:59Z</time>
      </trkpt>
      <trkpt lat="45.33614" lon="7.00583">
        <ele>2000.8992</ele>
        <time>2015-08-23T12:00:09Z</time>
      </trkpt>
      <trkpt lat="45.33613" lon="7.00582">
        <ele>2000.8992</ele>
        <time>2015-08-23T12:00:14Z</time>
      </trkpt>
      <trkpt lat="45.33611" lon="7.00583">
        <ele>1997.6787</ele>
        <time>2015-08-23T12:00:24Z</time>
      </trkpt>
      <trkpt lat="45.33615" lon="7.00581">
        <ele>1997.6787</ele>
        <time>2015-08-23T12:00:29Z</time>
      </trkpt>
      <trkpt lat="45.33618" lon="7.00573">
        <ele>1994.6464</ele>
        <time>2015-08-23T12:00:39Z</time>
      </trkpt>
      <trkpt lat="45.33618" lon="7.00572">
        <ele>1994.6464</ele>
        <time>2015-08-23T12:00:44Z</time>
      </trkpt>
      <trkpt lat="45.33615" lon="7.00585">
        <ele>1991.8452</ele>
        <time>2015-08-23T12:00:54Z</time>
      </trkpt>
      <trkpt lat="45.33612" lon="7.00583">
        <ele>1991.8452</ele>
        <time>2015-08-23T12:00:59Z</time>
      </trkpt>
      <trkpt lat="45.33609" lon="7.00586">
        <ele>1991.8452</ele>
        <time>2015-08-23T12:01:14Z</time>
      </trkpt>
      <trkpt lat="45.3361" lon="7.00586">
        <ele>1991.8452</ele>
        <time>2015-08-23T12:01:19Z</time>
      </trkpt>
      <trkpt lat="45.33611" lon="7.00594">
        <ele>1989.7759</ele>
        <time>2015-08-23T12:01:29Z</time>
      </trkpt>
      <trkpt lat="45.33614" lon="7.00602">
        <ele>1989.7759</ele>
        <time>2015-08-23T12:01:34Z</time>
      </trkpt>
      <trkpt lat="45.33616" lon="7.00615">
        <ele>1987.9198</ele>
        <time>2015-08-23T12:01:44Z</time>
      </trkpt>
      <trkpt lat="45.33616" lon="7.00622">
        <ele>1987.9198</ele>
        <time>2015-08-23T12:01:49Z</time>
      </trkpt>
      <trkpt lat="45.33615" lon="7.0063">
        <ele>1986.2142</ele>
        <time>2015-08-23T12:01:59Z</time>
      </trkpt>
      <trkpt lat="45.33612" lon="7.0063">
        <ele>1986.2142</ele>
        <time>2015-08-23T12:02:04Z</time>
      </trkpt>
      <trkpt lat="45.33606" lon="7.00621">
        <ele>1984.4706</ele>
        <time>2015-08-23T12:02:14Z</time>
      </trkpt>
      <trkpt lat="45.33602" lon="7.00619">
        <ele>1984.4706</ele>
        <time>2015-08-23T12:02:19Z</time>
      </trkpt>
      <trkpt lat="45.33598" lon="7.00621">
        <ele>1984.4706</ele>
        <time>2015-08-23T12:02:29Z</time>
      </trkpt>
      <trkpt lat="45.33597" lon="7.00624">
        <ele>1982.9034</ele>
        <time>2015-08-23T12:02:34Z</time>
      </trkpt>
      <trkpt lat="45.33601" lon="7.00624">
        <ele>1982.9034</ele>
        <time>2015-08-23T12:02:44Z</time>
      </trkpt>
      <trkpt lat="45.33602" lon="7.0062">
        <ele>1982.9034</ele>
        <time>2015-08-23T12:02:49Z</time>
      </trkpt>
      <trkpt lat="45.33598" lon="7.00617">
        <ele>1981.5098</ele>
        <time>2015-08-23T12:02:59Z</time>
      </trkpt>
      <trkpt lat="45.33594" lon="7.00614">
        <ele>1981.5098</ele>
        <time>2015-08-23T12:03:04Z</time>
      </trkpt>
      <trkpt lat="45.33584" lon="7.00602">
        <ele>1980.2568</ele>
        <time>2015-08-23T12:03:19Z</time>
      </trkpt>
      <trkpt lat="45.33581" lon="7.00597">
        <ele>1980.2568</ele>
        <time>2015-08-23T12:03:24Z</time>
      </trkpt>
      <trkpt lat="45.33577" lon="7.00588">
        <ele>1979.1866</ele>
        <time>2015-08-23T12:03:34Z</time>
      </trkpt>
      <trkpt lat="45.33577" lon="7.00582">
        <ele>1979.1866</ele>
        <time>2015-08-23T12:03:39Z</time>
      </trkpt>
      <trkpt lat="45.33573" lon="7.00576">
        <ele>1978.1211</ele>
        <time>2015-08-23T12:03:49Z</time>
      </trkpt>
      <trkpt lat="45.33571" lon="7.00582">
        <ele>1978.1211</ele>
        <time>2015-08-23T12:03:54Z</time>
      </trkpt>
      <trkpt lat="45.33571" lon="7.00598">
        <ele>1976.9675</ele>
        <time>2015-08-23T12:04:04Z</time>
      </trkpt>
      <trkpt lat="45.3357" lon="7.00603">
        <ele>1976.9675</ele>
        <time>2015-08-23T12:04:09Z</time>
      </trkpt>
      <trkpt lat="45.33569" lon="7.00614">
        <ele>1975.597</ele>
        <time>2015-08-23T12:04:19Z</time>
      </trkpt>
      <trkpt lat="45.33569" lon="7.00621">
        <ele>1975.597</ele>
        <time>2015-08-23T12:04:24Z</time>
      </trkpt>
      <trkpt lat="45.33565" lon="7.00636">
        <ele>1974.0063</ele>
        <time>2015-08-23T12:04:34Z</time>
      </trkpt>
      <trkpt lat="45.33558" lon="7.00634">
        <ele>1974.0063</ele>
        <time>2015-08-23T12:04:39Z</time>
      </trkpt>
      <trkpt lat="45.33552" lon="7.0062">
        <ele>1972.4092</ele>
        <time>2015-08-23T12:04:49Z</time>
      </trkpt>
      <trkpt lat="45.3355" lon="7.00615">
        <ele>1972.4092</ele>
        <time>2015-08-23T12:04:54Z</time>
      </trkpt>
      <trkpt lat="45.33542" lon="7.00602">
        <ele>1970.701</ele>
        <time>2015-08-23T12:05:09Z</time>
      </trkpt>
      <trkpt lat="45.33538" lon="7.00601">
        <ele>1970.701</ele>
        <time>2015-08-23T12:05:14Z</time>
      </trkpt>
      <trkpt lat="45.33531" lon="7.00603">
        <ele>1969.1461</ele>
        <time>2015-08-23T12:05:24Z</time>
      </trkpt>
      <trkpt lat="45.33528" lon="7.006">
        <ele>1969.1461</ele>
        <time>2015-08-23T12:05:29Z</time>
      </trkpt>
      <trkpt lat="45.33524" lon="7.00588">
        <ele>1967.5848</ele>
        <time>2015-08-23T12:05:39Z</time>
      </trkpt>
      <trkpt lat="45.33524" lon="7.00586">
        <ele>1967.5848</ele>
        <time>2015-08-23T12:05:44Z</time>
      </trkpt>
      <trkpt lat="45.33517" lon="7.00575">
        <ele>1965.9133</ele>
        <time>2015-08-23T12:05:54Z</time>
      </trkpt>
      <trkpt lat="45.33516" lon="7.00572">
        <ele>1965.9133</ele>
        <time>2015-08-23T12:05:59Z</time>
      </trkpt>
      <trkpt lat="45.33513" lon="7.00566">
        <ele>1965.9133</ele>
        <time>2015-08-23T12:06:09Z</time>
      </trkpt>
      <trkpt lat="45.33509" lon="7.00563">
        <ele>1963.9775</ele>
        <time>2015-08-23T12:06:14Z</time>
      </trkpt>
      <trkpt lat="45.33504" lon="7.00567">
        <ele>1963.9775</ele>
        <time>2015-08-23T12:06:24Z</time>
      </trkpt>
      <trkpt lat="45.33501" lon="7.00566">
        <ele>1961.8522</ele>
        <time>2015-08-23T12:06:29Z</time>
      </trkpt>
      <trkpt lat="45.33497" lon="7.00573">
        <ele>1961.8522</ele>
        <time>2015-08-23T12:06:39Z</time>
      </trkpt>
      <trkpt lat="45.33493" lon="7.00573">
        <ele>1959.4918</ele>
        <time>2015-08-23T12:06:44Z</time>
      </trkpt>
      <trkpt lat="45.33485" lon="7.00572">
        <ele>1959.4918</ele>
        <time>2015-08-23T12:06:54Z</time>
      </trkpt>
      <trkpt lat="45.33482" lon="7.00576">
        <ele>1956.8981</ele>
        <time>2015-08-23T12:06:59Z</time>
      </trkpt>
      <trkpt lat="45.33479" lon="7.00588">
        <ele>1954.2322</ele>
        <time>2015-08-23T12:07:09Z</time>
      </trkpt>
      <trkpt lat="45.33477" lon="7.00589">
        <ele>1954.2322</ele>
        <time>2015-08-23T12:07:14Z</time>
      </trkpt>
      <trkpt lat="45.33476" lon="7.00585">
        <ele>1954.2322</ele>
        <time>2015-08-23T12:07:29Z</time>
      </trkpt>
      <trkpt lat="45.33474" lon="7.00584">
        <ele>1954.2322</ele>
        <time>2015-08-23T12:07:34Z</time>
      </trkpt>
      <trkpt lat="45.33475" lon="7.00585">
        <ele>1954.2322</ele>
        <time>2015-08-23T12:07:44Z</time>
      </trkpt>
      <trkpt lat="45.33475" lon="7.00585">
        <ele>1954.2322</ele>
        <time>2015-08-23T12:07:49Z</time>
      </trkpt>
      <trkpt lat="45.33472" lon="7.00587">
        <ele>1950.9227</ele>
        <time>2015-08-23T12:07:59Z</time>
      </trkpt>
      <trkpt lat="45.33472" lon="7.00587">
        <ele>1950.9227</ele>
        <time>2015-08-23T12:08:04Z</time>
      </trkpt>
      <trkpt lat="45.33474" lon="7.00587">
        <ele>1950.9227</ele>
        <time>2015-08-23T12:08:14Z</time>
      </trkpt>
      <trkpt lat="45.33475" lon="7.00586">
        <ele>1950.9227</ele>
        <time>2015-08-23T12:08:19Z</time>
      </trkpt>
      <trkpt lat="45.33473" lon="7.00587">
        <ele>1950.9227</ele>
        <time>2015-08-23T12:08:29Z</time>
      </trkpt>
      <trkpt lat="45.33475" lon="7.00589">
        <ele>1950.9227</ele>
        <time>2015-08-23T12:08:34Z</time>
      </trkpt>
      <trkpt lat="45.33475" lon="7.00591">
        <ele>1947.0192</ele>
        <time>2015-08-23T12:08:44Z</time>
      </trkpt>
      <trkpt lat="45.33473" lon="7.00589">
        <ele>1947.0192</ele>
        <time>2015-08-23T12:08:49Z</time>
      </trkpt>
      <trkpt lat="45.33472" lon="7.00586">
        <ele>1947.0192</ele>
        <time>2015-08-23T12:08:59Z</time>
      </trkpt>
      <trkpt lat="45.33472" lon="7.00587">
        <ele>1947.0192</ele>
        <time>2015-08-23T12:09:04Z</time>
      </trkpt>
      <trkpt lat="45.33472" lon="7.00587">
        <ele>1947.0192</ele>
        <time>2015-08-23T12:09:14Z</time>
      </trkpt>
      <trkpt lat="45.33472" lon="7.00586">
        <ele>1947.0192</ele>
        <time>2015-08-23T12:10:24Z</time>
      </trkpt>
      <trkpt lat="45.33472" lon="7.00586">
        <ele>1947.0192</ele>
        <time>2015-08-23T12:10:34Z</time>
      </trkpt>
      <trkpt lat="45.33471" lon="7.00584">
        <ele>1947.0192</ele>
        <time>2015-08-23T12:11:19Z</time>
      </trkpt>
      <trkpt lat="45.3347" lon="7.00579">
        <ele>1943.5919</ele>
        <time>2015-08-23T12:11:24Z</time>
      </trkpt>
      <trkpt lat="45.33469" lon="7.00563">
        <ele>1940.5652</ele>
        <time>2015-08-23T12:11:34Z</time>
      </trkpt>
      <trkpt lat="45.33468" lon="7.00558">
        <ele>1940.5652</ele>
        <time>2015-08-23T12:11:39Z</time>
      </trkpt>
      <trkpt lat="45.33465" lon="7.00542">
        <ele>1937.9541</ele>
        <time>2015-08-23T12:11:49Z</time>
      </trkpt>
      <trkpt lat="45.33464" lon="7.00534">
        <ele>1937.9541</ele>
        <time>2015-08-23T12:11:54Z</time>
      </trkpt>
      <trkpt lat="45.33458" lon="7.00522">
        <ele>1935.7573</ele>
        <time>2015-08-23T12:12:04Z</time>
      </trkpt>
      <trkpt lat="45.33456" lon="7.00518">
        <ele>1935.7573</ele>
        <time>2015-08-23T12:12:09Z</time>
      </trkpt>
      <trkpt lat="45.33447" lon="7.00513">
        <ele>1933.8136</ele>
        <time>2015-08-23T12:12:19Z</time>
      </trkpt>
      <trkpt lat="45.33443" lon="7.00511">
        <ele>1933.8136</ele>
        <time>2015-08-23T12:12:24Z</time>
      </trkpt>
      <trkpt lat="45.33429" lon="7.00496">
        <ele>1931.9012</ele>
        <time>2015-08-23T12:12:39Z</time>
      </trkpt>
      <trkpt lat="45.33426" lon="7.00493">
        <ele>1931.9012</ele>
        <time>2015-08-23T12:12:44Z</time>
      </trkpt>
      <trkpt lat="45.3342" lon="7.00484">
        <ele>1930.2612</ele>
        <time>2015-08-23T12:12:54Z</time>
      </trkpt>
      <trkpt lat="45.33417" lon="7.00481">
        <ele>1930.2612</ele>
        <time>2015-08-23T12:12:59Z</time>
      </trkpt>
      <trkpt lat="45.33413" lon="7.00471">
        <ele>1928.6694</ele>
        <time>2015-08-23T12:13:09Z</time>
      </trkpt>
      <trkpt lat="45.33408" lon="7.00468">
        <ele>1928.6694</ele>
        <time>2015-08-23T12:13:14Z</time>
      </trkpt>
      <trkpt lat="45.334" lon="7.00464">
        <ele>1926.9905</ele>
        <time>2015-08-23T12:13:24Z</time>
      </trkpt>
      <trkpt lat="45.33395" lon="7.00459">
        <ele>1926.9905</ele>
        <time>2015-08-23T12:13:29Z</time>
      </trkpt>
      <trkpt lat="45.3339" lon="7.00464">
        <ele>1925.2284</ele>
        <time>2015-08-23T12:13:39Z</time>
      </trkpt>
      <trkpt lat="45.33387" lon="7.00464">
        <ele>1925.2284</ele>
        <time>2015-08-23T12:13:44Z</time>
      </trkpt>
      <trkpt lat="45.33378" lon="7.00463">
        <ele>1923.3298</ele>
        <time>2015-08-23T12:13:54Z</time>
      </trkpt>
      <trkpt lat="45.33374" lon="7.0046">
        <ele>1923.3298</ele>
        <time>2015-08-23T12:13:59Z</time>
      </trkpt>
      <trkpt lat="45.33366" lon="7.00453">
        <ele>1921.2748</ele>
        <time>2015-08-23T12:14:09Z</time>
      </trkpt>
      <trkpt lat="45.33362" lon="7.00451">
        <ele>1921.2748</ele>
        <time>2015-08-23T12:14:14Z</time>
      </trkpt>
      <trkpt lat="45.33356" lon="7.00445">
        <ele>1919.0305</ele>
        <time>2015-08-23T12:14:24Z</time>
      </trkpt>
      <trkpt lat="45.33353" lon="7.00442">
        <ele>1919.0305</ele>
        <time>2015-08-23T12:14:29Z</time>
      </trkpt>
      <trkpt lat="45.33348" lon="7.00432">
        <ele>1916.6538</ele>
        <time>2015-08-23T12:14:39Z</time>
      </trkpt>
      <trkpt lat="45.33346" lon="7.00429">
        <ele>1916.6538</ele>
        <time>2015-08-23T12:14:44Z</time>
      </trkpt>
      <trkpt lat="45.33337" lon="7.00422">
        <ele>1913.9961</ele>
        <time>2015-08-23T12:14:59Z</time>
      </trkpt>
      <trkpt lat="45.33336" lon="7.00421">
        <ele>1913.9961</ele>
        <time>2015-08-23T12:15:04Z</time>
      </trkpt>
      <trkpt lat="45.33333" lon="7.00415">
        <ele>1913.9961</ele>
        <time>2015-08-23T12:15:14Z</time>
      </trkpt>
      <trkpt lat="45.33332" lon="7.00409">
        <ele>1911.151</ele>
        <time>2015-08-23T12:15:19Z</time>
      </trkpt>
      <trkpt lat="45.3333" lon="7.00413">
        <ele>1911.151</ele>
        <time>2015-08-23T12:15:29Z</time>
      </trkpt>
      <trkpt lat="45.33327" lon="7.00409">
        <ele>1911.151</ele>
        <time>2015-08-23T12:15:34Z</time>
      </trkpt>
      <trkpt lat="45.3332" lon="7.00408">
        <ele>1907.7736</ele>
        <time>2015-08-23T12:15:44Z</time>
      </trkpt>
      <trkpt lat="45.33317" lon="7.00413">
        <ele>1907.7736</ele>
        <time>2015-08-23T12:15:49Z</time>
      </trkpt>
      <trkpt lat="45.33312" lon="7.00399">
        <ele>1904.3092</ele>
        <time>2015-08-23T12:15:59Z</time>
      </trkpt>
      <trkpt lat="45.3331" lon="7.00392">
        <ele>1904.3092</ele>
        <time>2015-08-23T12:16:04Z</time>
      </trkpt>
      <trkpt lat="45.33309" lon="7.00379">
        <ele>1901.0562</ele>
        <time>2015-08-23T12:16:14Z</time>
      </trkpt>
      <trkpt lat="45.33305" lon="7.00382">
        <ele>1901.0562</ele>
        <time>2015-08-23T12:16:19Z</time>
      </trkpt>
      <trkpt lat="45.333" lon="7.00391">
        <ele>1897.6267</ele>
        <time>2015-08-23T12:16:29Z</time>
      </trkpt>
      <trkpt lat="45.33299" lon="7.00389">
        <ele>1897.6267</ele>
        <time>2015-08-23T12:16:34Z</time>
      </trkpt>
      <trkpt lat="45.33296" lon="7.00381">
        <ele>1897.6267</ele>
        <time>2015-08-23T12:16:44Z</time>
      </trkpt>
      <trkpt lat="45.33295" lon="7.00375">
        <ele>1894.2676</ele>
        <time>2015-08-23T12:16:49Z</time>
      </trkpt>
      <trkpt lat="45.3329" lon="7.00367">
        <ele>1894.2676</ele>
        <time>2015-08-23T12:16:59Z</time>
      </trkpt>
      <trkpt lat="45.33288" lon="7.00362">
        <ele>1891.0776</ele>
        <time>2015-08-23T12:17:04Z</time>
      </trkpt>
      <trkpt lat="45.33287" lon="7.00353">
        <ele>1891.0776</ele>
        <time>2015-08-23T12:17:14Z</time>
      </trkpt>
      <trkpt lat="45.33284" lon="7.00349">
        <ele>1888.1334</ele>
        <time>2015-08-23T12:17:19Z</time>
      </trkpt>
      <trkpt lat="45.3328" lon="7.00339">
        <ele>1888.1334</ele>
        <time>2015-08-23T12:17:29Z</time>
      </trkpt>
      <trkpt lat="45.33278" lon="7.00335">
        <ele>1885.3754</ele>
        <time>2015-08-23T12:17:34Z</time>
      </trkpt>
      <trkpt lat="45.33274" lon="7.0032">
        <ele>1882.6758</ele>
        <time>2015-08-23T12:17:49Z</time>
      </trkpt>
      <trkpt lat="45.33272" lon="7.00318">
        <ele>1882.6758</ele>
        <time>2015-08-23T12:17:54Z</time>
      </trkpt>
      <trkpt lat="45.33271" lon="7.00309">
        <ele>1882.6758</ele>
        <time>2015-08-23T12:18:04Z</time>
      </trkpt>
      <trkpt lat="45.33271" lon="7.00303">
        <ele>1879.8873</ele>
        <time>2015-08-23T12:18:09Z</time>
      </trkpt>
      <trkpt lat="45.3327" lon="7.00301">
        <ele>1879.8873</ele>
        <time>2015-08-23T12:18:19Z</time>
      </trkpt>
      <trkpt lat="45.33272" lon="7.00296">
        <ele>1879.8873</ele>
        <time>2015-08-23T12:18:24Z</time>
      </trkpt>
      <trkpt lat="45.33267" lon="7.00281">
        <ele>1876.6288</ele>
        <time>2015-08-23T12:18:34Z</time>
      </trkpt>
      <trkpt lat="45.33265" lon="7.00273">
        <ele>1876.6288</ele>
        <time>2015-08-23T12:18:39Z</time>
      </trkpt>
      <trkpt lat="45.33259" lon="7.00265">
        <ele>1873.528</ele>
        <time>2015-08-23T12:18:49Z</time>
      </trkpt>
      <trkpt lat="45.33257" lon="7.00262">
        <ele>1873.528</ele>
        <time>2015-08-23T12:18:54Z</time>
      </trkpt>
      <trkpt lat="45.33251" lon="7.00269">
        <ele>1870.172</ele>
        <time>2015-08-23T12:19:04Z</time>
      </trkpt>
      <trkpt lat="45.33251" lon="7.00265">
        <ele>1870.172</ele>
        <time>2015-08-23T12:19:09Z</time>
      </trkpt>
      <trkpt lat="45.33249" lon="7.00259">
        <ele>1870.172</ele>
        <time>2015-08-23T12:19:19Z</time>
      </trkpt>
      <trkpt lat="45.33247" lon="7.00256">
        <ele>1866.3373</ele>
        <time>2015-08-23T12:19:24Z</time>
      </trkpt>
      <trkpt lat="45.33238" lon="7.0025">
        <ele>1862.4667</ele>
        <time>2015-08-23T12:19:39Z</time>
      </trkpt>
      <trkpt lat="45.33234" lon="7.00246">
        <ele>1862.4667</ele>
        <time>2015-08-23T12:19:44Z</time>
      </trkpt>
      <trkpt lat="45.33228" lon="7.00239">
        <ele>1858.5236</ele>
        <time>2015-08-23T12:19:54Z</time>
      </trkpt>
      <trkpt lat="45.33224" lon="7.00235">
        <ele>1858.5236</ele>
        <time>2015-08-23T12:19:59Z</time>
      </trkpt>
      <trkpt lat="45.33216" lon="7.00237">
        <ele>1854.7194</ele>
        <time>2015-08-23T12:20:09Z</time>
      </trkpt>
      <trkpt lat="45.33213" lon="7.00239">
        <ele>1854.7194</ele>
        <time>2015-08-23T12:20:14Z</time>
      </trkpt>
      <trkpt lat="45.3321" lon="7.00233">
        <ele>1854.7194</ele>
        <time>2015-08-23T12:20:24Z</time>
      </trkpt>
      <trkpt lat="45.33209" lon="7.0023">
        <ele>1851.0043</ele>
        <time>2015-08-23T12:20:29Z</time>
      </trkpt>
      <trkpt lat="45.33205" lon="7.00226">
        <ele>1851.0043</ele>
        <time>2015-08-23T12:20:39Z</time>
      </trkpt>
      <trkpt lat="45.33201" lon="7.00221">
        <ele>1847.0583</ele>
        <time>2015-08-23T12:20:44Z</time>
      </trkpt>
      <trkpt lat="45.33193" lon="7.00214">
        <ele>1843.1907</ele>
        <time>2015-08-23T12:20:54Z</time>
      </trkpt>
      <trkpt lat="45.3319" lon="7.00211">
        <ele>1843.1907</ele>
        <time>2015-08-23T12:20:59Z</time>
      </trkpt>
      <trkpt lat="45.33184" lon="7.00205">
        <ele>1839.2551</ele>
        <time>2015-08-23T12:21:09Z</time>
      </trkpt>
      <trkpt lat="45.33181" lon="7.00204">
        <ele>1839.2551</ele>
        <time>2015-08-23T12:21:14Z</time>
      </trkpt>
      <trkpt lat="45.33176" lon="7.002">
        <ele>1839.2551</ele>
        <time>2015-08-23T12:21:24Z</time>
      </trkpt>
      <trkpt lat="45.33174" lon="7.00197">
        <ele>1835.4045</ele>
        <time>2015-08-23T12:21:29Z</time>
      </trkpt>
      <trkpt lat="45.3317" lon="7.0019">
        <ele>1835.4045</ele>
        <time>2015-08-23T12:21:39Z</time>
      </trkpt>
      <trkpt lat="45.33167" lon="7.00189">
        <ele>1831.7948</ele>
        <time>2015-08-23T12:21:44Z</time>
      </trkpt>
      <trkpt lat="45.33161" lon="7.00183">
        <ele>1831.7948</ele>
        <time>2015-08-23T12:21:54Z</time>
      </trkpt>
      <trkpt lat="45.33159" lon="7.00181">
        <ele>1828.1515</ele>
        <time>2015-08-23T12:21:59Z</time>
      </trkpt>
      <trkpt lat="45.33157" lon="7.00177">
        <ele>1828.1515</ele>
        <time>2015-08-23T12:22:09Z</time>
      </trkpt>
      <trkpt lat="45.33152" lon="7.00173">
        <ele>1824.6382</ele>
        <time>2015-08-23T12:22:14Z</time>
      </trkpt>
      <trkpt lat="45.33144" lon="7.00165">
        <ele>1821.0171</ele>
        <time>2015-08-23T12:22:29Z</time>
      </trkpt>
      <trkpt lat="45.33141" lon="7.0016">
        <ele>1821.0171</ele>
        <time>2015-08-23T12:22:34Z</time>
      </trkpt>
      <trkpt lat="45.33138" lon="7.00148">
        <ele>1817.4426</ele>
        <time>2015-08-23T12:22:44Z</time>
      </trkpt>
      <trkpt lat="45.33137" lon="7.00143">
        <ele>1817.4426</ele>
        <time>2015-08-23T12:22:49Z</time>
      </trkpt>
      <trkpt lat="45.33133" lon="7.00136">
        <ele>1813.9136</ele>
        <time>2015-08-23T12:22:59Z</time>
      </trkpt>
      <trkpt lat="45.33131" lon="7.00133">
        <ele>1813.9136</ele>
        <time>2015-08-23T12:23:04Z</time>
      </trkpt>
      <trkpt lat="45.33126" lon="7.00124">
        <ele>1810.3278</ele>
        <time>2015-08-23T12:23:14Z</time>
      </trkpt>
      <trkpt lat="45.33123" lon="7.00121">
        <ele>1810.3278</ele>
        <time>2015-08-23T12:23:19Z</time>
      </trkpt>
      <trkpt lat="45.3312" lon="7.00111">
        <ele>1806.749</ele>
        <time>2015-08-23T12:23:29Z</time>
      </trkpt>
      <trkpt lat="45.33118" lon="7.00107">
        <ele>1806.749</ele>
        <time>2015-08-23T12:23:34Z</time>
      </trkpt>
      <trkpt lat="45.33115" lon="7.00101">
        <ele>1802.9337</ele>
        <time>2015-08-23T12:23:44Z</time>
      </trkpt>
      <trkpt lat="45.33114" lon="7.00098">
        <ele>1802.9337</ele>
        <time>2015-08-23T12:23:49Z</time>
      </trkpt>
      <trkpt lat="45.33105" lon="7.00088">
        <ele>1798.9883</ele>
        <time>2015-08-23T12:23:59Z</time>
      </trkpt>
      <trkpt lat="45.33101" lon="7.00083">
        <ele>1798.9883</ele>
        <time>2015-08-23T12:24:04Z</time>
      </trkpt>
      <trkpt lat="45.33094" lon="7.00073">
        <ele>1794.896</ele>
        <time>2015-08-23T12:24:19Z</time>
      </trkpt>
      <trkpt lat="45.33092" lon="7.00072">
        <ele>1794.896</ele>
        <time>2015-08-23T12:24:24Z</time>
      </trkpt>
      <trkpt lat="45.33084" lon="7.00063">
        <ele>1790.7719</ele>
        <time>2015-08-23T12:24:34Z</time>
      </trkpt>
      <trkpt lat="45.3308" lon="7.0006">
        <ele>1790.7719</ele>
        <time>2015-08-23T12:24:39Z</time>
      </trkpt>
      <trkpt lat="45.33075" lon="7.00053">
        <ele>1786.9526</ele>
        <time>2015-08-23T12:24:49Z</time>
      </trkpt>
      <trkpt lat="45.33072" lon="7.00046">
        <ele>1786.9526</ele>
        <time>2015-08-23T12:24:54Z</time>
      </trkpt>
      <trkpt lat="45.33068" lon="7.00037">
        <ele>1783.173</ele>
        <time>2015-08-23T12:25:04Z</time>
      </trkpt>
      <trkpt lat="45.33066" lon="7.00034">
        <ele>1783.173</ele>
        <time>2015-08-23T12:25:09Z</time>
      </trkpt>
      <trkpt lat="45.33058" lon="7.00021">
        <ele>1779.3744</ele>
        <time>2015-08-23T12:25:19Z</time>
      </trkpt>
      <trkpt lat="45.33054" lon="7.00017">
        <ele>1779.3744</ele>
        <time>2015-08-23T12:25:24Z</time>
      </trkpt>
      <trkpt lat="45.33048" lon="7.00003">
        <ele>1775.8049</ele>
        <time>2015-08-23T12:25:34Z</time>
      </trkpt>
      <trkpt lat="45.33045" lon="6.99996">
        <ele>1775.8049</ele>
        <time>2015-08-23T12:25:39Z</time>
      </trkpt>
      <trkpt lat="45.33038" lon="6.99986">
        <ele>1772.2617</ele>
        <time>2015-08-23T12:25:49Z</time>
      </trkpt>
      <trkpt lat="45.33035" lon="6.99982">
        <ele>1772.2617</ele>
        <time>2015-08-23T12:25:54Z</time>
      </trkpt>
      <trkpt lat="45.33026" lon="6.99969">
        <ele>1768.931</ele>
        <time>2015-08-23T12:26:04Z</time>
      </trkpt>
      <trkpt lat="45.33022" lon="6.99961">
        <ele>1768.931</ele>
        <time>2015-08-23T12:26:09Z</time>
      </trkpt>
      <trkpt lat="45.33016" lon="6.99952">
        <ele>1765.8698</ele>
        <time>2015-08-23T12:26:19Z</time>
      </trkpt>
      <trkpt lat="45.3301" lon="6.99948">
        <ele>1765.8698</ele>
        <time>2015-08-23T12:26:24Z</time>
      </trkpt>
      <trkpt lat="45.33003" lon="6.99936">
        <ele>1763.086</ele>
        <time>2015-08-23T12:26:34Z</time>
      </trkpt>
      <trkpt lat="45.33" lon="6.99932">
        <ele>1763.086</ele>
        <time>2015-08-23T12:26:39Z</time>
      </trkpt>
      <trkpt lat="45.32992" lon="6.99919">
        <ele>1760.4287</ele>
        <time>2015-08-23T12:26:49Z</time>
      </trkpt>
      <trkpt lat="45.32986" lon="6.99913">
        <ele>1760.4287</ele>
        <time>2015-08-23T12:26:54Z</time>
      </trkpt>
      <trkpt lat="45.32975" lon="6.99893">
        <ele>1757.9442</ele>
        <time>2015-08-23T12:27:09Z</time>
      </trkpt>
      <trkpt lat="45.32972" lon="6.99888">
        <ele>1757.9442</ele>
        <time>2015-08-23T12:27:14Z</time>
      </trkpt>
      <trkpt lat="45.32968" lon="6.99888">
        <ele>1757.9442</ele>
        <time>2015-08-23T12:27:24Z</time>
      </trkpt>
      <trkpt lat="45.32965" lon="6.99889">
        <ele>1755.7615</ele>
        <time>2015-08-23T12:27:29Z</time>
      </trkpt>
      <trkpt lat="45.32962" lon="6.99887">
        <ele>1755.7615</ele>
        <time>2015-08-23T12:27:39Z</time>
      </trkpt>
      <trkpt lat="45.32962" lon="6.99884">
        <ele>1755.7615</ele>
        <time>2015-08-23T12:27:44Z</time>
      </trkpt>
      <trkpt lat="45.32956" lon="6.99882">
        <ele>1753.7688</ele>
        <time>2015-08-23T12:27:54Z</time>
      </trkpt>
      <trkpt lat="45.32951" lon="6.99878">
        <ele>1753.7688</ele>
        <time>2015-08-23T12:27:59Z</time>
      </trkpt>
      <trkpt lat="45.32943" lon="6.99869">
        <ele>1751.833</ele>
        <time>2015-08-23T12:28:09Z</time>
      </trkpt>
      <trkpt lat="45.32938" lon="6.99863">
        <ele>1751.833</ele>
        <time>2015-08-23T12:28:14Z</time>
      </trkpt>
      <trkpt lat="45.32928" lon="6.99853">
        <ele>1749.8163</ele>
        <time>2015-08-23T12:28:29Z</time>
      </trkpt>
      <trkpt lat="45.32926" lon="6.9986">
        <ele>1749.8163</ele>
        <time>2015-08-23T12:28:34Z</time>
      </trkpt>
      <trkpt lat="45.32931" lon="6.99881">
        <ele>1747.7496</ele>
        <time>2015-08-23T12:28:44Z</time>
      </trkpt>
      <trkpt lat="45.32932" lon="6.99885">
        <ele>1747.7496</ele>
        <time>2015-08-23T12:28:49Z</time>
      </trkpt>
      <trkpt lat="45.32935" lon="6.99896">
        <ele>1745.7628</ele>
        <time>2015-08-23T12:28:59Z</time>
      </trkpt>
      <trkpt lat="45.32938" lon="6.99904">
        <ele>1745.7628</ele>
        <time>2015-08-23T12:29:04Z</time>
      </trkpt>
      <trkpt lat="45.32944" lon="6.9992">
        <ele>1743.9758</ele>
        <time>2015-08-23T12:29:14Z</time>
      </trkpt>
      <trkpt lat="45.32945" lon="6.99923">
        <ele>1743.9758</ele>
        <time>2015-08-23T12:29:19Z</time>
      </trkpt>
      <trkpt lat="45.32948" lon="6.9993">
        <ele>1743.9758</ele>
        <time>2015-08-23T12:29:29Z</time>
      </trkpt>
      <trkpt lat="45.32948" lon="6.9993">
        <ele>1743.9758</ele>
        <time>2015-08-23T12:29:34Z</time>
      </trkpt>
      <trkpt lat="45.32949" lon="6.99929">
        <ele>1743.9758</ele>
        <time>2015-08-23T12:29:44Z</time>
      </trkpt>
      <trkpt lat="45.32951" lon="6.99932">
        <ele>1741.7212</ele>
        <time>2015-08-23T12:29:49Z</time>
      </trkpt>
      <trkpt lat="45.3295" lon="6.99941">
        <ele>1741.7212</ele>
        <time>2015-08-23T12:29:59Z</time>
      </trkpt>
      <trkpt lat="45.32946" lon="6.99929">
        <ele>1739.5491</ele>
        <time>2015-08-23T12:30:04Z</time>
      </trkpt>
      <trkpt lat="45.32931" lon="6.99908">
        <ele>1737.5654</ele>
        <time>2015-08-23T12:30:19Z</time>
      </trkpt>
      <trkpt lat="45.32926" lon="6.99903">
        <ele>1737.5654</ele>
        <time>2015-08-23T12:30:24Z</time>
      </trkpt>
      <trkpt lat="45.32916" lon="6.99896">
        <ele>1735.6519</ele>
        <time>2015-08-23T12:30:34Z</time>
      </trkpt>
      <trkpt lat="45.3291" lon="6.99892">
        <ele>1735.6519</ele>
        <time>2015-08-23T12:30:39Z</time>
      </trkpt>
      <trkpt lat="45.32903" lon="6.99877">
        <ele>1733.6555</ele>
        <time>2015-08-23T12:30:49Z</time>
      </trkpt>
      <trkpt lat="45.32902" lon="6.99871">
        <ele>1733.6555</ele>
        <time>2015-08-23T12:30:54Z</time>
      </trkpt>
      <trkpt lat="45.32902" lon="6.99868">
        <ele>1733.6555</ele>
        <time>2015-08-23T12:31:04Z</time>
      </trkpt>
      <trkpt lat="45.32898" lon="6.99864">
        <ele>1731.7229</ele>
        <time>2015-08-23T12:31:09Z</time>
      </trkpt>
      <trkpt lat="45.3289" lon="6.99854">
        <ele>1729.9323</ele>
        <time>2015-08-23T12:31:19Z</time>
      </trkpt>
      <trkpt lat="45.32886" lon="6.99849">
        <ele>1729.9323</ele>
        <time>2015-08-23T12:31:24Z</time>
      </trkpt>
      <trkpt lat="45.32873" lon="6.99836">
        <ele>1728.0387</ele>
        <time>2015-08-23T12:31:39Z</time>
      </trkpt>
      <trkpt lat="45.32874" lon="6.9984">
        <ele>1728.0387</ele>
        <time>2015-08-23T12:31:44Z</time>
      </trkpt>
      <trkpt lat="45.32879" lon="6.99841">
        <ele>1728.0387</ele>
        <time>2015-08-23T12:31:54Z</time>
      </trkpt>
      <trkpt lat="45.32878" lon="6.99842">
        <ele>1728.0387</ele>
        <time>2015-08-23T12:31:59Z</time>
      </trkpt>
      <trkpt lat="45.32876" lon="6.99842">
        <ele>1726.2479</ele>
        <time>2015-08-23T12:32:09Z</time>
      </trkpt>
      <trkpt lat="45.32874" lon="6.99839">
        <ele>1726.2479</ele>
        <time>2015-08-23T12:32:14Z</time>
      </trkpt>
      <trkpt lat="45.32864" lon="6.99826">
        <ele>1724.1595</ele>
        <time>2015-08-23T12:32:24Z</time>
      </trkpt>
      <trkpt lat="45.3286" lon="6.99819">
        <ele>1724.1595</ele>
        <time>2015-08-23T12:32:29Z</time>
      </trkpt>
      <trkpt lat="45.32851" lon="6.99811">
        <ele>1722.2827</ele>
        <time>2015-08-23T12:32:39Z</time>
      </trkpt>
      <trkpt lat="45.32847" lon="6.99808">
        <ele>1722.2827</ele>
        <time>2015-08-23T12:32:44Z</time>
      </trkpt>
      <trkpt lat="45.32838" lon="6.99802">
        <ele>1720.656</ele>
        <time>2015-08-23T12:32:54Z</time>
      </trkpt>
      <trkpt lat="45.32833" lon="6.99798">
        <ele>1720.656</ele>
        <time>2015-08-23T12:32:59Z</time>
      </trkpt>
      <trkpt lat="45.32819" lon="6.99788">
        <ele>1719.2284</ele>
        <time>2015-08-23T12:33:09Z</time>
      </trkpt>
      <trkpt lat="45.32814" lon="6.99785">
        <ele>1719.2284</ele>
        <time>2015-08-23T12:33:14Z</time>
      </trkpt>
      <trkpt lat="45.32799" lon="6.99769">
        <ele>1717.8944</ele>
        <time>2015-08-23T12:33:29Z</time>
      </trkpt>
      <trkpt lat="45.32794" lon="6.99765">
        <ele>1717.8944</ele>
        <time>2015-08-23T12:33:34Z</time>
      </trkpt>
      <trkpt lat="45.32788" lon="6.99762">
        <ele>1716.8011</ele>
        <time>2015-08-23T12:33:44Z</time>
      </trkpt>
      <trkpt lat="45.32784" lon="6.99759">
        <ele>1716.8011</ele>
        <time>2015-08-23T12:33:49Z</time>
      </trkpt>
      <trkpt lat="45.32776" lon="6.99754">
        <ele>1716.041</ele>
        <time>2015-08-23T12:33:59Z</time>
      </trkpt>
      <trkpt lat="45.32771" lon="6.99748">
        <ele>1716.041</ele>
        <time>2015-08-23T12:34:04Z</time>
      </trkpt>
      <trkpt lat="45.32765" lon="6.99739">
        <ele>1715.4109</ele>
        <time>2015-08-23T12:34:14Z</time>
      </trkpt>
      <trkpt lat="45.32762" lon="6.99734">
        <ele>1715.4109</ele>
        <time>2015-08-23T12:34:19Z</time>
      </trkpt>
      <trkpt lat="45.32754" lon="6.99728">
        <ele>1715.1112</ele>
        <time>2015-08-23T12:34:29Z</time>
      </trkpt>
      <trkpt lat="45.32748" lon="6.99727">
        <ele>1715.1112</ele>
        <time>2015-08-23T12:34:34Z</time>
      </trkpt>
      <trkpt lat="45.32734" lon="6.99717">
        <ele>1715.1394</ele>
        <time>2015-08-23T12:34:49Z</time>
      </trkpt>
      <trkpt lat="45.32731" lon="6.99714">
        <ele>1715.1394</ele>
        <time>2015-08-23T12:34:54Z</time>
      </trkpt>
      <trkpt lat="45.3272" lon="6.99709">
        <ele>1715.2189</ele>
        <time>2015-08-23T12:35:04Z</time>
      </trkpt>
      <trkpt lat="45.32713" lon="6.99703">
        <ele>1715.2189</ele>
        <time>2015-08-23T12:35:09Z</time>
      </trkpt>
      <trkpt lat="45.32705" lon="6.99693">
        <ele>1715.3093</ele>
        <time>2015-08-23T12:35:19Z</time>
      </trkpt>
      <trkpt lat="45.32702" lon="6.99689">
        <ele>1715.3093</ele>
        <time>2015-08-23T12:35:24Z</time>
      </trkpt>
      <trkpt lat="45.32691" lon="6.99677">
        <ele>1715.3302</ele>
        <time>2015-08-23T12:35:34Z</time>
      </trkpt>
      <trkpt lat="45.32687" lon="6.99672">
        <ele>1715.3302</ele>
        <time>2015-08-23T12:35:39Z</time>
      </trkpt>
      <trkpt lat="45.32682" lon="6.9966">
        <ele>1715.1787</ele>
        <time>2015-08-23T12:35:49Z</time>
      </trkpt>
      <trkpt lat="45.32679" lon="6.99652">
        <ele>1715.1787</ele>
        <time>2015-08-23T12:35:54Z</time>
      </trkpt>
      <trkpt lat="45.32674" lon="6.99629">
        <ele>1714.5582</ele>
        <time>2015-08-23T12:36:09Z</time>
      </trkpt>
      <trkpt lat="45.32672" lon="6.99626">
        <ele>1714.5582</ele>
        <time>2015-08-23T12:36:14Z</time>
      </trkpt>
      <trkpt lat="45.32667" lon="6.99608">
        <ele>1713.801</ele>
        <time>2015-08-23T12:36:24Z</time>
      </trkpt>
      <trkpt lat="45.32665" lon="6.99601">
        <ele>1713.801</ele>
        <time>2015-08-23T12:36:29Z</time>
      </trkpt>
      <trkpt lat="45.32661" lon="6.9959">
        <ele>1713.0712</ele>
        <time>2015-08-23T12:36:39Z</time>
      </trkpt>
      <trkpt lat="45.32657" lon="6.9958">
        <ele>1713.0712</ele>
        <time>2015-08-23T12:36:44Z</time>
      </trkpt>
      <trkpt lat="45.32652" lon="6.99565">
        <ele>1712.2181</ele>
        <time>2015-08-23T12:36:54Z</time>
      </trkpt>
      <trkpt lat="45.32651" lon="6.99555">
        <ele>1712.2181</ele>
        <time>2015-08-23T12:36:59Z</time>
      </trkpt>
      <trkpt lat="45.32644" lon="6.99541">
        <ele>1711.2904</ele>
        <time>2015-08-23T12:37:09Z</time>
      </trkpt>
      <trkpt lat="45.32641" lon="6.99536">
        <ele>1711.2904</ele>
        <time>2015-08-23T12:37:14Z</time>
      </trkpt>
      <trkpt lat="45.32632" lon="6.99521">
        <ele>1710.4921</ele>
        <time>2015-08-23T12:37:24Z</time>
      </trkpt>
      <trkpt lat="45.32628" lon="6.99515">
        <ele>1710.4921</ele>
        <time>2015-08-23T12:37:29Z</time>
      </trkpt>
      <trkpt lat="45.32615" lon="6.99497">
        <ele>1709.6226</ele>
        <time>2015-08-23T12:37:44Z</time>
      </trkpt>
      <trkpt lat="45.32612" lon="6.99493">
        <ele>1709.6226</ele>
        <time>2015-08-23T12:37:49Z</time>
      </trkpt>
      <trkpt lat="45.32603" lon="6.99483">
        <ele>1708.9</ele>
        <time>2015-08-23T12:37:59Z</time>
      </trkpt>
      <trkpt lat="45.32598" lon="6.99478">
        <ele>1708.9</ele>
        <time>2015-08-23T12:38:04Z</time>
      </trkpt>
      <trkpt lat="45.32592" lon="6.99464">
        <ele>1708.469</ele>
        <time>2015-08-23T12:38:14Z</time>
      </trkpt>
      <trkpt lat="45.32587" lon="6.99458">
        <ele>1708.469</ele>
        <time>2015-08-23T12:38:19Z</time>
      </trkpt>
      <trkpt lat="45.32582" lon="6.99445">
        <ele>1708.131</ele>
        <time>2015-08-23T12:38:29Z</time>
      </trkpt>
      <trkpt lat="45.3258" lon="6.99438">
        <ele>1708.131</ele>
        <time>2015-08-23T12:38:34Z</time>
      </trkpt>
      <trkpt lat="45.32573" lon="6.99423">
        <ele>1707.8029</ele>
        <time>2015-08-23T12:38:44Z</time>
      </trkpt>
      <trkpt lat="45.32569" lon="6.99416">
        <ele>1707.8029</ele>
        <time>2015-08-23T12:38:49Z</time>
      </trkpt>
      <trkpt lat="45.32563" lon="6.99402">
        <ele>1707.6384</ele>
        <time>2015-08-23T12:38:59Z</time>
      </trkpt>
      <trkpt lat="45.3256" lon="6.99396">
        <ele>1707.6384</ele>
        <time>2015-08-23T12:39:04Z</time>
      </trkpt>
      <trkpt lat="45.32552" lon="6.99384">
        <ele>1707.6503</ele>
        <time>2015-08-23T12:39:14Z</time>
      </trkpt>
      <trkpt lat="45.32546" lon="6.99379">
        <ele>1707.6503</ele>
        <time>2015-08-23T12:39:19Z</time>
      </trkpt>
      <trkpt lat="45.32533" lon="6.99362">
        <ele>1707.8209</ele>
        <time>2015-08-23T12:39:34Z</time>
      </trkpt>
      <trkpt lat="45.32525" lon="6.9936">
        <ele>1707.8209</ele>
        <time>2015-08-23T12:39:39Z</time>
      </trkpt>
      <trkpt lat="45.32512" lon="6.99354">
        <ele>1707.9463</ele>
        <time>2015-08-23T12:39:49Z</time>
      </trkpt>
      <trkpt lat="45.32509" lon="6.99351">
        <ele>1707.9463</ele>
        <time>2015-08-23T12:39:54Z</time>
      </trkpt>
      <trkpt lat="45.32499" lon="6.99341">
        <ele>1707.9244</ele>
        <time>2015-08-23T12:40:04Z</time>
      </trkpt>
      <trkpt lat="45.32495" lon="6.99336">
        <ele>1707.9244</ele>
        <time>2015-08-23T12:40:09Z</time>
      </trkpt>
      <trkpt lat="45.32485" lon="6.99326">
        <ele>1707.7043</ele>
        <time>2015-08-23T12:40:19Z</time>
      </trkpt>
      <trkpt lat="45.32479" lon="6.99321">
        <ele>1707.7043</ele>
        <time>2015-08-23T12:40:24Z</time>
      </trkpt>
      <trkpt lat="45.32467" lon="6.99311">
        <ele>1707.6001</ele>
        <time>2015-08-23T12:40:34Z</time>
      </trkpt>
      <trkpt lat="45.32464" lon="6.99309">
        <ele>1707.6001</ele>
        <time>2015-08-23T12:40:39Z</time>
      </trkpt>
      <trkpt lat="45.32453" lon="6.99299">
        <ele>1707.5997</ele>
        <time>2015-08-23T12:40:49Z</time>
      </trkpt>
      <trkpt lat="45.32448" lon="6.99296">
        <ele>1707.5997</ele>
        <time>2015-08-23T12:40:54Z</time>
      </trkpt>
      <trkpt lat="45.32438" lon="6.99293">
        <ele>1707.6055</ele>
        <time>2015-08-23T12:41:04Z</time>
      </trkpt>
      <trkpt lat="45.32433" lon="6.99292">
        <ele>1707.6055</ele>
        <time>2015-08-23T12:41:09Z</time>
      </trkpt>
      <trkpt lat="45.32421" lon="6.99286">
        <ele>1707.7002</ele>
        <time>2015-08-23T12:41:19Z</time>
      </trkpt>
      <trkpt lat="45.32415" lon="6.99285">
        <ele>1707.7002</ele>
        <time>2015-08-23T12:41:24Z</time>
      </trkpt>
      <trkpt lat="45.32398" lon="6.99287">
        <ele>1707.7871</ele>
        <time>2015-08-23T12:41:39Z</time>
      </trkpt>
      <trkpt lat="45.32394" lon="6.99288">
        <ele>1707.7871</ele>
        <time>2015-08-23T12:41:44Z</time>
      </trkpt>
      <trkpt lat="45.32384" lon="6.99289">
        <ele>1707.806</ele>
        <time>2015-08-23T12:41:54Z</time>
      </trkpt>
      <trkpt lat="45.32376" lon="6.99291">
        <ele>1707.806</ele>
        <time>2015-08-23T12:41:59Z</time>
      </trkpt>
      <trkpt lat="45.32366" lon="6.99297">
        <ele>1707.9463</ele>
        <time>2015-08-23T12:42:09Z</time>
      </trkpt>
      <trkpt lat="45.3236" lon="6.99298">
        <ele>1707.9463</ele>
        <time>2015-08-23T12:42:14Z</time>
      </trkpt>
      <trkpt lat="45.32349" lon="6.99302">
        <ele>1707.9364</ele>
        <time>2015-08-23T12:42:24Z</time>
      </trkpt>
      <trkpt lat="45.32344" lon="6.99304">
        <ele>1707.9364</ele>
        <time>2015-08-23T12:42:29Z</time>
      </trkpt>
      <trkpt lat="45.32333" lon="6.9931">
        <ele>1707.9867</ele>
        <time>2015-08-23T12:42:39Z</time>
      </trkpt>
      <trkpt lat="45.32326" lon="6.99311">
        <ele>1707.9867</ele>
        <time>2015-08-23T12:42:44Z</time>
      </trkpt>
      <trkpt lat="45.32316" lon="6.99314">
        <ele>1708.0035</ele>
        <time>2015-08-23T12:42:54Z</time>
      </trkpt>
      <trkpt lat="45.32312" lon="6.99316">
        <ele>1708.0035</ele>
        <time>2015-08-23T12:42:59Z</time>
      </trkpt>
      <trkpt lat="45.323" lon="6.99317">
        <ele>1707.9152</ele>
        <time>2015-08-23T12:43:09Z</time>
      </trkpt>
      <trkpt lat="45.32294" lon="6.99318">
        <ele>1707.9152</ele>
        <time>2015-08-23T12:43:14Z</time>
      </trkpt>
      <trkpt lat="45.32284" lon="6.99319">
        <ele>1707.8425</ele>
        <time>2015-08-23T12:43:24Z</time>
      </trkpt>
      <trkpt lat="45.32282" lon="6.99318">
        <ele>1707.8425</ele>
        <time>2015-08-23T12:43:29Z</time>
      </trkpt>
      <trkpt lat="45.32284" lon="6.99319">
        <ele>1707.8425</ele>
        <time>2015-08-23T12:43:39Z</time>
      </trkpt>
      <trkpt lat="45.32282" lon="6.99323">
        <ele>1707.8425</ele>
        <time>2015-08-23T12:43:44Z</time>
      </trkpt>
      <trkpt lat="45.3227" lon="6.99325">
        <ele>1707.5377</ele>
        <time>2015-08-23T12:43:59Z</time>
      </trkpt>
      <trkpt lat="45.32264" lon="6.99324">
        <ele>1707.5377</ele>
        <time>2015-08-23T12:44:04Z</time>
      </trkpt>
      <trkpt lat="45.32254" lon="6.99322">
        <ele>1707.0455</ele>
        <time>2015-08-23T12:44:14Z</time>
      </trkpt>
      <trkpt lat="45.32248" lon="6.99323">
        <ele>1707.0455</ele>
        <time>2015-08-23T12:44:19Z</time>
      </trkpt>
      <trkpt lat="45.32235" lon="6.99322">
        <ele>1706.5524</ele>
        <time>2015-08-23T12:44:29Z</time>
      </trkpt>
      <trkpt lat="45.32228" lon="6.99322">
        <ele>1706.5524</ele>
        <time>2015-08-23T12:44:34Z</time>
      </trkpt>
      <trkpt lat="45.32217" lon="6.99318">
        <ele>1706.2166</ele>
        <time>2015-08-23T12:44:44Z</time>
      </trkpt>
      <trkpt lat="45.32211" lon="6.99316">
        <ele>1706.2166</ele>
        <time>2015-08-23T12:44:49Z</time>
      </trkpt>
      <trkpt lat="45.322" lon="6.99309">
        <ele>1705.7808</ele>
        <time>2015-08-23T12:44:59Z</time>
      </trkpt>
      <trkpt lat="45.32196" lon="6.99302">
        <ele>1705.7808</ele>
        <time>2015-08-23T12:45:04Z</time>
      </trkpt>
      <trkpt lat="45.32187" lon="6.99292">
        <ele>1705.1947</ele>
        <time>2015-08-23T12:45:14Z</time>
      </trkpt>
      <trkpt lat="45.32184" lon="6.99286">
        <ele>1705.1947</ele>
        <time>2015-08-23T12:45:19Z</time>
      </trkpt>
      <trkpt lat="45.32179" lon="6.99272">
        <ele>1704.5272</ele>
        <time>2015-08-23T12:45:29Z</time>
      </trkpt>
      <trkpt lat="45.32177" lon="6.99266">
        <ele>1704.5272</ele>
        <time>2015-08-23T12:45:34Z</time>
      </trkpt>
      <trkpt lat="45.32174" lon="6.99251">
        <ele>1703.8859</ele>
        <time>2015-08-23T12:45:44Z</time>
      </trkpt>
      <trkpt lat="45.32172" lon="6.99244">
        <ele>1703.8859</ele>
        <time>2015-08-23T12:45:49Z</time>
      </trkpt>
      <trkpt lat="45.32162" lon="6.99225">
        <ele>1703.4277</ele>
        <time>2015-08-23T12:46:04Z</time>
      </trkpt>
      <trkpt lat="45.32158" lon="6.99215">
        <ele>1703.4277</ele>
        <time>2015-08-23T12:46:09Z</time>
      </trkpt>
      <trkpt lat="45.32154" lon="6.99206">
        <ele>1703.2838</ele>
        <time>2015-08-23T12:46:19Z</time>
      </trkpt>
      <trkpt lat="45.32152" lon="6.99202">
        <ele>1703.2838</ele>
        <time>2015-08-23T12:46:24Z</time>
      </trkpt>
      <trkpt lat="45.32153" lon="6.99199">
        <ele>1703.2838</ele>
        <time>2015-08-23T12:46:34Z</time>
      </trkpt>
      <trkpt lat="45.32155" lon="6.99201">
        <ele>1703.2838</ele>
        <time>2015-08-23T12:46:39Z</time>
      </trkpt>
      <trkpt lat="45.32155" lon="6.99207">
        <ele>1703.5167</ele>
        <time>2015-08-23T12:46:49Z</time>
      </trkpt>
      <trkpt lat="45.32153" lon="6.99204">
        <ele>1703.5167</ele>
        <time>2015-08-23T12:46:54Z</time>
      </trkpt>
      <trkpt lat="45.3215" lon="6.99198">
        <ele>1703.5167</ele>
        <time>2015-08-23T12:47:04Z</time>
      </trkpt>
      <trkpt lat="45.32151" lon="6.99191">
        <ele>1704.1836</ele>
        <time>2015-08-23T12:47:09Z</time>
      </trkpt>
      <trkpt lat="45.32153" lon="6.99195">
        <ele>1704.1836</ele>
        <time>2015-08-23T12:47:19Z</time>
      </trkpt>
      <trkpt lat="45.32153" lon="6.99198">
        <ele>1704.1836</ele>
        <time>2015-08-23T12:47:24Z</time>
      </trkpt>
      <trkpt lat="45.32153" lon="6.99203">
        <ele>1704.1836</ele>
        <time>2015-08-23T12:47:34Z</time>
      </trkpt>
      <trkpt lat="45.32152" lon="6.99205">
        <ele>1704.9617</ele>
        <time>2015-08-23T12:47:39Z</time>
      </trkpt>
      <trkpt lat="45.3215" lon="6.99198">
        <ele>1704.9617</ele>
        <time>2015-08-23T12:47:54Z</time>
      </trkpt>
      <trkpt lat="45.32142" lon="6.99199">
        <ele>1705.6378</ele>
        <time>2015-08-23T12:47:59Z</time>
      </trkpt>
      <trkpt lat="45.32136" lon="6.99204">
        <ele>1705.6378</ele>
        <time>2015-08-23T12:48:09Z</time>
      </trkpt>
      <trkpt lat="45.3213" lon="6.9921">
        <ele>1706.1306</ele>
        <time>2015-08-23T12:48:14Z</time>
      </trkpt>
      <trkpt lat="45.3212" lon="6.99215">
        <ele>1706.6385</ele>
        <time>2015-08-23T12:48:24Z</time>
      </trkpt>
      <trkpt lat="45.32117" lon="6.99218">
        <ele>1706.6385</ele>
        <time>2015-08-23T12:48:29Z</time>
      </trkpt>
      <trkpt lat="45.32108" lon="6.99225">
        <ele>1707.101</ele>
        <time>2015-08-23T12:48:39Z</time>
      </trkpt>
      <trkpt lat="45.32103" lon="6.99228">
        <ele>1707.101</ele>
        <time>2015-08-23T12:48:44Z</time>
      </trkpt>
      <trkpt lat="45.32092" lon="6.99238">
        <ele>1707.3895</ele>
        <time>2015-08-23T12:48:54Z</time>
      </trkpt>
      <trkpt lat="45.32089" lon="6.99244">
        <ele>1707.3895</ele>
        <time>2015-08-23T12:48:59Z</time>
      </trkpt>
      <trkpt lat="45.32086" lon="6.99257">
        <ele>1707.6743</ele>
        <time>2015-08-23T12:49:09Z</time>
      </trkpt>
      <trkpt lat="45.32085" lon="6.99263">
        <ele>1707.6743</ele>
        <time>2015-08-23T12:49:14Z</time>
      </trkpt>
      <trkpt lat="45.32082" lon="6.99276">
        <ele>1707.8823</ele>
        <time>2015-08-23T12:49:24Z</time>
      </trkpt>
      <trkpt lat="45.32079" lon="6.99281">
        <ele>1707.8823</ele>
        <time>2015-08-23T12:49:29Z</time>
      </trkpt>
      <trkpt lat="45.32075" lon="6.99292">
        <ele>1707.975</ele>
        <time>2015-08-23T12:49:39Z</time>
      </trkpt>
      <trkpt lat="45.32074" lon="6.99297">
        <ele>1707.975</ele>
        <time>2015-08-23T12:49:44Z</time>
      </trkpt>
      <trkpt lat="45.3207" lon="6.99311">
        <ele>1707.9891</ele>
        <time>2015-08-23T12:49:54Z</time>
      </trkpt>
      <trkpt lat="45.32067" lon="6.99314">
        <ele>1707.9891</ele>
        <time>2015-08-23T12:49:59Z</time>
      </trkpt>
      <trkpt lat="45.32062" lon="6.99318">
        <ele>1708.0166</ele>
        <time>2015-08-23T12:50:09Z</time>
      </trkpt>
      <trkpt lat="45.32055" lon="6.99318">
        <ele>1708.0166</ele>
        <time>2015-08-23T12:50:14Z</time>
      </trkpt>
      <trkpt lat="45.32056" lon="6.99316">
        <ele>1708.0166</ele>
        <time>2015-08-23T12:50:24Z</time>
      </trkpt>
      <trkpt lat="45.32058" lon="6.99315">
        <ele>1707.8257</ele>
        <time>2015-08-23T12:50:29Z</time>
      </trkpt>
      <trkpt lat="45.32056" lon="6.99327">
        <ele>1707.8257</ele>
        <time>2015-08-23T12:50:44Z</time>
      </trkpt>
      <trkpt lat="45.32053" lon="6.99332">
        <ele>1707.6635</ele>
        <time>2015-08-23T12:50:49Z</time>
      </trkpt>
      <trkpt lat="45.32049" lon="6.99344">
        <ele>1707.6434</ele>
        <time>2015-08-23T12:50:59Z</time>
      </trkpt>
      <trkpt lat="45.32047" lon="6.99347">
        <ele>1707.6434</ele>
        <time>2015-08-23T12:51:04Z</time>
      </trkpt>
      <trkpt lat="45.32046" lon="6.99351">
        <ele>1707.6434</ele>
        <time>2015-08-23T12:51:14Z</time>
      </trkpt>
      <trkpt lat="45.32046" lon="6.99351">
        <ele>1707.6434</ele>
        <time>2015-08-23T12:51:19Z</time>
      </trkpt>
      <trkpt lat="45.32046" lon="6.99352">
        <ele>1707.6434</ele>
        <time>2015-08-23T12:51:29Z</time>
      </trkpt>
      <trkpt lat="45.32047" lon="6.99352">
        <ele>1707.6434</ele>
        <time>2015-08-23T12:51:34Z</time>
      </trkpt>
      <trkpt lat="45.32046" lon="6.99351">
        <ele>1707.6434</ele>
        <time>2015-08-23T12:51:44Z</time>
      </trkpt>
      <trkpt lat="45.32046" lon="6.99351">
        <ele>1707.6434</ele>
        <time>2015-08-23T12:51:49Z</time>
      </trkpt>
      <trkpt lat="45.32046" lon="6.99352">
        <ele>1707.6434</ele>
        <time>2015-08-23T12:52:04Z</time>
      </trkpt>
      <trkpt lat="45.32157" lon="6.99183">
        <ele>1708.3173</ele>
        <time>2015-08-23T13:43:33Z</time>
      </trkpt>
      <trkpt lat="45.32156" lon="6.99184">
        <ele>1708.3173</ele>
        <time>2015-08-23T13:43:38Z</time>
      </trkpt>
      <trkpt lat="45.32157" lon="6.99185">
        <ele>1708.3173</ele>
        <time>2015-08-23T13:43:43Z</time>
      </trkpt>
      <trkpt lat="45.32156" lon="6.99186">
        <ele>1708.3173</ele>
        <time>2015-08-23T13:43:48Z</time>
      </trkpt>
      <trkpt lat="45.32155" lon="6.99188">
        <ele>1708.3173</ele>
        <time>2015-08-23T13:43:53Z</time>
      </trkpt>
      <trkpt lat="45.32155" lon="6.99188">
        <ele>1708.3173</ele>
        <time>2015-08-23T13:43:58Z</time>
      </trkpt>
      <trkpt lat="45.32158" lon="6.99186">
        <ele>1709.0414</ele>
        <time>2015-08-23T13:44:03Z</time>
      </trkpt>
      <trkpt lat="45.32161" lon="6.99187">
        <ele>1709.0414</ele>
        <time>2015-08-23T13:44:08Z</time>
      </trkpt>
      <trkpt lat="45.32161" lon="6.99187">
        <ele>1709.0414</ele>
        <time>2015-08-23T13:44:13Z</time>
      </trkpt>
      <trkpt lat="45.32154" lon="6.9917">
        <ele>1709.7668</ele>
        <time>2015-08-23T13:45:03Z</time>
      </trkpt>
      <trkpt lat="45.32149" lon="6.99156">
        <ele>1710.4628</ele>
        <time>2015-08-23T13:45:08Z</time>
      </trkpt>
      <trkpt lat="45.32145" lon="6.99138">
        <ele>1711.1871</ele>
        <time>2015-08-23T13:45:18Z</time>
      </trkpt>
      <trkpt lat="45.32146" lon="6.99133">
        <ele>1711.1871</ele>
        <time>2015-08-23T13:45:23Z</time>
      </trkpt>
      <trkpt lat="45.32145" lon="6.99114">
        <ele>1711.9219</ele>
        <time>2015-08-23T13:45:33Z</time>
      </trkpt>
      <trkpt lat="45.32145" lon="6.99109">
        <ele>1711.9219</ele>
        <time>2015-08-23T13:45:38Z</time>
      </trkpt>
      <trkpt lat="45.32143" lon="6.99093">
        <ele>1712.4193</ele>
        <time>2015-08-23T13:45:48Z</time>
      </trkpt>
      <trkpt lat="45.32142" lon="6.99087">
        <ele>1712.4193</ele>
        <time>2015-08-23T13:45:53Z</time>
      </trkpt>
      <trkpt lat="45.32138" lon="6.9906">
        <ele>1712.7103</ele>
        <time>2015-08-23T13:46:08Z</time>
      </trkpt>
      <trkpt lat="45.32136" lon="6.99052">
        <ele>1712.7103</ele>
        <time>2015-08-23T13:46:13Z</time>
      </trkpt>
      <trkpt lat="45.32134" lon="6.99035">
        <ele>1712.795</ele>
        <time>2015-08-23T13:46:23Z</time>
      </trkpt>
      <trkpt lat="45.32133" lon="6.99025">
        <ele>1712.795</ele>
        <time>2015-08-23T13:46:28Z</time>
      </trkpt>
      <trkpt lat="45.32126" lon="6.99008">
        <ele>1712.6746</ele>
        <time>2015-08-23T13:46:38Z</time>
      </trkpt>
      <trkpt lat="45.32124" lon="6.99001">
        <ele>1712.6746</ele>
        <time>2015-08-23T13:46:43Z</time>
      </trkpt>
      <trkpt lat="45.32121" lon="6.98983">
        <ele>1712.408</ele>
        <time>2015-08-23T13:46:53Z</time>
      </trkpt>
      <trkpt lat="45.3212" lon="6.98975">
        <ele>1712.408</ele>
        <time>2015-08-23T13:46:58Z</time>
      </trkpt>
      <trkpt lat="45.32117" lon="6.98959">
        <ele>1711.9929</ele>
        <time>2015-08-23T13:47:08Z</time>
      </trkpt>
      <trkpt lat="45.32117" lon="6.9895">
        <ele>1711.9929</ele>
        <time>2015-08-23T13:47:13Z</time>
      </trkpt>
      <trkpt lat="45.32117" lon="6.98933">
        <ele>1711.5571</ele>
        <time>2015-08-23T13:47:23Z</time>
      </trkpt>
      <trkpt lat="45.32118" lon="6.98926">
        <ele>1711.5571</ele>
        <time>2015-08-23T13:47:28Z</time>
      </trkpt>
      <trkpt lat="45.32119" lon="6.989">
        <ele>1710.9601</ele>
        <time>2015-08-23T13:47:43Z</time>
      </trkpt>
      <trkpt lat="45.32118" lon="6.98891">
        <ele>1710.9601</ele>
        <time>2015-08-23T13:47:48Z</time>
      </trkpt>
      <trkpt lat="45.32116" lon="6.98875">
        <ele>1710.3597</ele>
        <time>2015-08-23T13:47:58Z</time>
      </trkpt>
      <trkpt lat="45.32115" lon="6.98868">
        <ele>1710.3597</ele>
        <time>2015-08-23T13:48:03Z</time>
      </trkpt>
      <trkpt lat="45.32114" lon="6.98852">
        <ele>1709.73</ele>
        <time>2015-08-23T13:48:13Z</time>
      </trkpt>
      <trkpt lat="45.32111" lon="6.98843">
        <ele>1709.73</ele>
        <time>2015-08-23T13:48:18Z</time>
      </trkpt>
      <trkpt lat="45.32107" lon="6.98823">
        <ele>1709.0753</ele>
        <time>2015-08-23T13:48:28Z</time>
      </trkpt>
      <trkpt lat="45.32106" lon="6.98814">
        <ele>1709.0753</ele>
        <time>2015-08-23T13:48:33Z</time>
      </trkpt>
      <trkpt lat="45.32101" lon="6.98791">
        <ele>1708.3279</ele>
        <time>2015-08-23T13:48:48Z</time>
      </trkpt>
      <trkpt lat="45.32098" lon="6.98781">
        <ele>1708.3279</ele>
        <time>2015-08-23T13:48:53Z</time>
      </trkpt>
      <trkpt lat="45.32094" lon="6.98763">
        <ele>1707.454</ele>
        <time>2015-08-23T13:49:03Z</time>
      </trkpt>
      <trkpt lat="45.32092" lon="6.98754">
        <ele>1707.454</ele>
        <time>2015-08-23T13:49:08Z</time>
      </trkpt>
      <trkpt lat="45.32087" lon="6.98735">
        <ele>1706.5812</ele>
        <time>2015-08-23T13:49:18Z</time>
      </trkpt>
      <trkpt lat="45.32087" lon="6.98727">
        <ele>1706.5812</ele>
        <time>2015-08-23T13:49:23Z</time>
      </trkpt>
      <trkpt lat="45.32085" lon="6.98713">
        <ele>1705.6548</ele>
        <time>2015-08-23T13:49:33Z</time>
      </trkpt>
      <trkpt lat="45.32083" lon="6.98705">
        <ele>1705.6548</ele>
        <time>2015-08-23T13:49:38Z</time>
      </trkpt>
      <trkpt lat="45.32077" lon="6.98686">
        <ele>1704.8403</ele>
        <time>2015-08-23T13:49:48Z</time>
      </trkpt>
      <trkpt lat="45.32076" lon="6.98678">
        <ele>1704.8403</ele>
        <time>2015-08-23T13:49:53Z</time>
      </trkpt>
      <trkpt lat="45.32073" lon="6.9866">
        <ele>1704.1611</ele>
        <time>2015-08-23T13:50:03Z</time>
      </trkpt>
      <trkpt lat="45.32071" lon="6.98653">
        <ele>1704.1611</ele>
        <time>2015-08-23T13:50:08Z</time>
      </trkpt>
      <trkpt lat="45.32067" lon="6.98635">
        <ele>1703.48</ele>
        <time>2015-08-23T13:50:18Z</time>
      </trkpt>
      <trkpt lat="45.32065" lon="6.98624">
        <ele>1703.48</ele>
        <time>2015-08-23T13:50:23Z</time>
      </trkpt>
      <trkpt lat="45.32063" lon="6.98604">
        <ele>1702.8569</ele>
        <time>2015-08-23T13:50:33Z</time>
      </trkpt>
      <trkpt lat="45.3206" lon="6.98599">
        <ele>1702.8569</ele>
        <time>2015-08-23T13:50:38Z</time>
      </trkpt>
      <trkpt lat="45.32053" lon="6.98575">
        <ele>1702.3041</ele>
        <time>2015-08-23T13:50:53Z</time>
      </trkpt>
      <trkpt lat="45.32051" lon="6.98568">
        <ele>1702.3041</ele>
        <time>2015-08-23T13:50:58Z</time>
      </trkpt>
      <trkpt lat="45.32047" lon="6.98554">
        <ele>1701.8037</ele>
        <time>2015-08-23T13:51:08Z</time>
      </trkpt>
      <trkpt lat="45.32044" lon="6.98542">
        <ele>1701.8037</ele>
        <time>2015-08-23T13:51:13Z</time>
      </trkpt>
      <trkpt lat="45.32037" lon="6.98524">
        <ele>1701.3969</ele>
        <time>2015-08-23T13:51:23Z</time>
      </trkpt>
      <trkpt lat="45.32032" lon="6.98515">
        <ele>1701.3969</ele>
        <time>2015-08-23T13:51:28Z</time>
      </trkpt>
      <trkpt lat="45.3203" lon="6.98508">
        <ele>1701.1934</ele>
        <time>2015-08-23T13:51:38Z</time>
      </trkpt>
      <trkpt lat="45.32032" lon="6.98508">
        <ele>1701.1934</ele>
        <time>2015-08-23T13:51:43Z</time>
      </trkpt>
      <trkpt lat="45.32035" lon="6.98501">
        <ele>1701.1934</ele>
        <time>2015-08-23T13:51:53Z</time>
      </trkpt>
      <trkpt lat="45.32035" lon="6.98501">
        <ele>1701.1934</ele>
        <time>2015-08-23T13:51:58Z</time>
      </trkpt>
      <trkpt lat="45.32034" lon="6.98504">
        <ele>1701.1934</ele>
        <time>2015-08-23T13:52:08Z</time>
      </trkpt>
      <trkpt lat="45.32031" lon="6.98498">
        <ele>1700.6599</ele>
        <time>2015-08-23T13:52:13Z</time>
      </trkpt>
      <trkpt lat="45.32021" lon="6.98483">
        <ele>1700.1106</ele>
        <time>2015-08-23T13:52:23Z</time>
      </trkpt>
      <trkpt lat="45.32019" lon="6.98473">
        <ele>1700.1106</ele>
        <time>2015-08-23T13:52:28Z</time>
      </trkpt>
      <trkpt lat="45.32014" lon="6.98453">
        <ele>1699.5337</ele>
        <time>2015-08-23T13:52:43Z</time>
      </trkpt>
      <trkpt lat="45.32012" lon="6.98445">
        <ele>1699.5337</ele>
        <time>2015-08-23T13:52:48Z</time>
      </trkpt>
      <trkpt lat="45.32005" lon="6.98424">
        <ele>1698.9183</ele>
        <time>2015-08-23T13:52:58Z</time>
      </trkpt>
      <trkpt lat="45.32003" lon="6.98416">
        <ele>1698.9183</ele>
        <time>2015-08-23T13:53:03Z</time>
      </trkpt>
      <trkpt lat="45.31996" lon="6.98401">
        <ele>1698.4852</ele>
        <time>2015-08-23T13:53:13Z</time>
      </trkpt>
      <trkpt lat="45.31993" lon="6.98392">
        <ele>1698.4852</ele>
        <time>2015-08-23T13:53:18Z</time>
      </trkpt>
      <trkpt lat="45.31987" lon="6.98377">
        <ele>1698.1355</ele>
        <time>2015-08-23T13:53:28Z</time>
      </trkpt>
      <trkpt lat="45.31986" lon="6.98369">
        <ele>1698.1355</ele>
        <time>2015-08-23T13:53:33Z</time>
      </trkpt>
      <trkpt lat="45.31976" lon="6.98352">
        <ele>1697.7196</ele>
        <time>2015-08-23T13:53:43Z</time>
      </trkpt>
      <trkpt lat="45.31971" lon="6.98346">
        <ele>1697.7196</ele>
        <time>2015-08-23T13:53:48Z</time>
      </trkpt>
      <trkpt lat="45.31959" lon="6.98341">
        <ele>1697.4163</ele>
        <time>2015-08-23T13:53:58Z</time>
      </trkpt>
      <trkpt lat="45.3195" lon="6.98337">
        <ele>1697.4163</ele>
        <time>2015-08-23T13:54:03Z</time>
      </trkpt>
      <trkpt lat="45.3194" lon="6.98327">
        <ele>1697.261</ele>
        <time>2015-08-23T13:54:13Z</time>
      </trkpt>
      <trkpt lat="45.31938" lon="6.9832">
        <ele>1697.261</ele>
        <time>2015-08-23T13:54:18Z</time>
      </trkpt>
      <trkpt lat="45.31926" lon="6.98308">
        <ele>1697.1996</ele>
        <time>2015-08-23T13:54:28Z</time>
      </trkpt>
      <trkpt lat="45.31921" lon="6.98303">
        <ele>1697.1996</ele>
        <time>2015-08-23T13:54:33Z</time>
      </trkpt>
      <trkpt lat="45.31907" lon="6.98289">
        <ele>1697.2107</ele>
        <time>2015-08-23T13:54:48Z</time>
      </trkpt>
      <trkpt lat="45.31902" lon="6.98283">
        <ele>1697.2107</ele>
        <time>2015-08-23T13:54:53Z</time>
      </trkpt>
      <trkpt lat="45.31889" lon="6.98273">
        <ele>1697.2162</ele>
        <time>2015-08-23T13:55:03Z</time>
      </trkpt>
      <trkpt lat="45.31885" lon="6.98266">
        <ele>1697.2162</ele>
        <time>2015-08-23T13:55:08Z</time>
      </trkpt>
      <trkpt lat="45.31876" lon="6.98254">
        <ele>1697.1584</ele>
        <time>2015-08-23T13:55:18Z</time>
      </trkpt>
      <trkpt lat="45.31871" lon="6.98249">
        <ele>1697.1584</ele>
        <time>2015-08-23T13:55:23Z</time>
      </trkpt>
      <trkpt lat="45.31863" lon="6.98236">
        <ele>1696.9985</ele>
        <time>2015-08-23T13:55:33Z</time>
      </trkpt>
      <trkpt lat="45.31859" lon="6.9823">
        <ele>1696.9985</ele>
        <time>2015-08-23T13:55:38Z</time>
      </trkpt>
      <trkpt lat="45.31847" lon="6.98219">
        <ele>1696.787</ele>
        <time>2015-08-23T13:55:48Z</time>
      </trkpt>
      <trkpt lat="45.3184" lon="6.98213">
        <ele>1696.787</ele>
        <time>2015-08-23T13:55:53Z</time>
      </trkpt>
      <trkpt lat="45.31831" lon="6.98203">
        <ele>1696.5997</ele>
        <time>2015-08-23T13:56:03Z</time>
      </trkpt>
      <trkpt lat="45.31825" lon="6.982">
        <ele>1696.5997</ele>
        <time>2015-08-23T13:56:08Z</time>
      </trkpt>
      <trkpt lat="45.31813" lon="6.9819">
        <ele>1696.4492</ele>
        <time>2015-08-23T13:56:18Z</time>
      </trkpt>
      <trkpt lat="45.31808" lon="6.98185">
        <ele>1696.4492</ele>
        <time>2015-08-23T13:56:23Z</time>
      </trkpt>
      <trkpt lat="45.31799" lon="6.98176">
        <ele>1696.419</ele>
        <time>2015-08-23T13:56:33Z</time>
      </trkpt>
      <trkpt lat="45.31793" lon="6.98171">
        <ele>1696.419</ele>
        <time>2015-08-23T13:56:38Z</time>
      </trkpt>
      <trkpt lat="45.3178" lon="6.98153">
        <ele>1696.442</ele>
        <time>2015-08-23T13:56:53Z</time>
      </trkpt>
      <trkpt lat="45.31776" lon="6.98146">
        <ele>1696.442</ele>
        <time>2015-08-23T13:56:58Z</time>
      </trkpt>
      <trkpt lat="45.31768" lon="6.98132">
        <ele>1696.3695</ele>
        <time>2015-08-23T13:57:08Z</time>
      </trkpt>
      <trkpt lat="45.31763" lon="6.98126">
        <ele>1696.3695</ele>
        <time>2015-08-23T13:57:13Z</time>
      </trkpt>
      <trkpt lat="45.31755" lon="6.98112">
        <ele>1696.1791</ele>
        <time>2015-08-23T13:57:23Z</time>
      </trkpt>
      <trkpt lat="45.31749" lon="6.98105">
        <ele>1696.1791</ele>
        <time>2015-08-23T13:57:28Z</time>
      </trkpt>
      <trkpt lat="45.31738" lon="6.98092">
        <ele>1696.0812</ele>
        <time>2015-08-23T13:57:38Z</time>
      </trkpt>
      <trkpt lat="45.31733" lon="6.98087">
        <ele>1696.0812</ele>
        <time>2015-08-23T13:57:43Z</time>
      </trkpt>
      <trkpt lat="45.31725" lon="6.98077">
        <ele>1695.9532</ele>
        <time>2015-08-23T13:57:53Z</time>
      </trkpt>
      <trkpt lat="45.31722" lon="6.98067">
        <ele>1695.9532</ele>
        <time>2015-08-23T13:57:58Z</time>
      </trkpt>
      <trkpt lat="45.31718" lon="6.98044">
        <ele>1695.8978</ele>
        <time>2015-08-23T13:58:13Z</time>
      </trkpt>
      <trkpt lat="45.31717" lon="6.98041">
        <ele>1695.8978</ele>
        <time>2015-08-23T13:58:18Z</time>
      </trkpt>
      <trkpt lat="45.31714" lon="6.98021">
        <ele>1695.866</ele>
        <time>2015-08-23T13:58:28Z</time>
      </trkpt>
      <trkpt lat="45.31712" lon="6.98013">
        <ele>1695.866</ele>
        <time>2015-08-23T13:58:33Z</time>
      </trkpt>
      <trkpt lat="45.31709" lon="6.97995">
        <ele>1695.8552</ele>
        <time>2015-08-23T13:58:43Z</time>
      </trkpt>
      <trkpt lat="45.31709" lon="6.97986">
        <ele>1695.8552</ele>
        <time>2015-08-23T13:58:48Z</time>
      </trkpt>
      <trkpt lat="45.31702" lon="6.97972">
        <ele>1695.8345</ele>
        <time>2015-08-23T13:58:58Z</time>
      </trkpt>
      <trkpt lat="45.31699" lon="6.97962">
        <ele>1695.8345</ele>
        <time>2015-08-23T13:59:03Z</time>
      </trkpt>
      <trkpt lat="45.31691" lon="6.97946">
        <ele>1695.7751</ele>
        <time>2015-08-23T13:59:13Z</time>
      </trkpt>
      <trkpt lat="45.31687" lon="6.9794">
        <ele>1695.7751</ele>
        <time>2015-08-23T13:59:18Z</time>
      </trkpt>
      <trkpt lat="45.31682" lon="6.97927">
        <ele>1695.7225</ele>
        <time>2015-08-23T13:59:28Z</time>
      </trkpt>
      <trkpt lat="45.3168" lon="6.97921">
        <ele>1695.7225</ele>
        <time>2015-08-23T13:59:33Z</time>
      </trkpt>
      <trkpt lat="45.31673" lon="6.97899">
        <ele>1695.6467</ele>
        <time>2015-08-23T13:59:43Z</time>
      </trkpt>
      <trkpt lat="45.3167" lon="6.97891">
        <ele>1695.6467</ele>
        <time>2015-08-23T13:59:48Z</time>
      </trkpt>
      <trkpt lat="45.31665" lon="6.97872">
        <ele>1695.4482</ele>
        <time>2015-08-23T13:59:58Z</time>
      </trkpt>
      <trkpt lat="45.31661" lon="6.97866">
        <ele>1695.4482</ele>
        <time>2015-08-23T14:00:03Z</time>
      </trkpt>
      <trkpt lat="45.31658" lon="6.97872">
        <ele>1695.2368</ele>
        <time>2015-08-23T14:00:18Z</time>
      </trkpt>
      <trkpt lat="45.31658" lon="6.97871">
        <ele>1695.2368</ele>
        <time>2015-08-23T14:00:23Z</time>
      </trkpt>
      <trkpt lat="45.3166" lon="6.97872">
        <ele>1695.2368</ele>
        <time>2015-08-23T14:00:33Z</time>
      </trkpt>
      <trkpt lat="45.31661" lon="6.9787">
        <ele>1695.2368</ele>
        <time>2015-08-23T14:00:38Z</time>
      </trkpt>
      <trkpt lat="45.3166" lon="6.97871">
        <ele>1695.2368</ele>
        <time>2015-08-23T14:00:48Z</time>
      </trkpt>
      <trkpt lat="45.3166" lon="6.97868">
        <ele>1695.2368</ele>
        <time>2015-08-23T14:00:53Z</time>
      </trkpt>
      <trkpt lat="45.3166" lon="6.97866">
        <ele>1694.9987</ele>
        <time>2015-08-23T14:01:03Z</time>
      </trkpt>
      <trkpt lat="45.31662" lon="6.97864">
        <ele>1694.9987</ele>
        <time>2015-08-23T14:01:08Z</time>
      </trkpt>
      <trkpt lat="45.31662" lon="6.97865">
        <ele>1694.9987</ele>
        <time>2015-08-23T14:01:18Z</time>
      </trkpt>
      <trkpt lat="45.31663" lon="6.97864">
        <ele>1694.9987</ele>
        <time>2015-08-23T14:01:23Z</time>
      </trkpt>
      <trkpt lat="45.31663" lon="6.97864">
        <ele>1694.9987</ele>
        <time>2015-08-23T14:01:33Z</time>
      </trkpt>
      <trkpt lat="45.31663" lon="6.97865">
        <ele>1694.9987</ele>
        <time>2015-08-23T14:01:48Z</time>
      </trkpt>
      <trkpt lat="45.31662" lon="6.97865">
        <ele>1694.9987</ele>
        <time>2015-08-23T14:02:18Z</time>
      </trkpt>
      <trkpt lat="45.31655" lon="6.97858">
        <ele>1694.4764</ele>
        <time>2015-08-23T14:02:33Z</time>
      </trkpt>
      <trkpt lat="45.3165" lon="6.97851">
        <ele>1694.4764</ele>
        <time>2015-08-23T14:02:38Z</time>
      </trkpt>
      <trkpt lat="45.31643" lon="6.97836">
        <ele>1694.1818</ele>
        <time>2015-08-23T14:02:48Z</time>
      </trkpt>
      <trkpt lat="45.31639" lon="6.97829">
        <ele>1694.1818</ele>
        <time>2015-08-23T14:02:53Z</time>
      </trkpt>
      <trkpt lat="45.31627" lon="6.97817">
        <ele>1694.1846</ele>
        <time>2015-08-23T14:03:03Z</time>
      </trkpt>
      <trkpt lat="45.31621" lon="6.97812">
        <ele>1694.1846</ele>
        <time>2015-08-23T14:03:08Z</time>
      </trkpt>
      <trkpt lat="45.31606" lon="6.97801">
        <ele>1694.5054</ele>
        <time>2015-08-23T14:03:23Z</time>
      </trkpt>
      <trkpt lat="45.316" lon="6.97797">
        <ele>1694.5054</ele>
        <time>2015-08-23T14:03:28Z</time>
      </trkpt>
      <trkpt lat="45.31592" lon="6.97788">
        <ele>1694.7737</ele>
        <time>2015-08-23T14:03:38Z</time>
      </trkpt>
      <trkpt lat="45.31587" lon="6.97784">
        <ele>1694.7737</ele>
        <time>2015-08-23T14:03:43Z</time>
      </trkpt>
      <trkpt lat="45.31579" lon="6.97776">
        <ele>1694.8907</ele>
        <time>2015-08-23T14:03:53Z</time>
      </trkpt>
      <trkpt lat="45.31574" lon="6.9777">
        <ele>1694.8907</ele>
        <time>2015-08-23T14:03:58Z</time>
      </trkpt>
      <trkpt lat="45.31566" lon="6.97757">
        <ele>1694.7515</ele>
        <time>2015-08-23T14:04:08Z</time>
      </trkpt>
      <trkpt lat="45.31562" lon="6.9775">
        <ele>1694.7515</ele>
        <time>2015-08-23T14:04:13Z</time>
      </trkpt>
      <trkpt lat="45.31555" lon="6.97738">
        <ele>1694.3602</ele>
        <time>2015-08-23T14:04:23Z</time>
      </trkpt>
      <trkpt lat="45.31553" lon="6.97729">
        <ele>1694.3602</ele>
        <time>2015-08-23T14:04:28Z</time>
      </trkpt>
      <trkpt lat="45.31553" lon="6.97716">
        <ele>1693.8799</ele>
        <time>2015-08-23T14:04:38Z</time>
      </trkpt>
      <trkpt lat="45.31552" lon="6.97708">
        <ele>1693.8799</ele>
        <time>2015-08-23T14:04:43Z</time>
      </trkpt>
      <trkpt lat="45.31551" lon="6.9769">
        <ele>1693.3322</ele>
        <time>2015-08-23T14:04:53Z</time>
      </trkpt>
      <trkpt lat="45.31548" lon="6.97684">
        <ele>1693.3322</ele>
        <time>2015-08-23T14:04:58Z</time>
      </trkpt>
      <trkpt lat="45.31545" lon="6.97664">
        <ele>1692.8094</ele>
        <time>2015-08-23T14:05:08Z</time>
      </trkpt>
      <trkpt lat="45.31543" lon="6.97656">
        <ele>1692.8094</ele>
        <time>2015-08-23T14:05:13Z</time>
      </trkpt>
      <trkpt lat="45.31538" lon="6.97638">
        <ele>1692.426</ele>
        <time>2015-08-23T14:05:23Z</time>
      </trkpt>
      <trkpt lat="45.31534" lon="6.97631">
        <ele>1692.426</ele>
        <time>2015-08-23T14:05:28Z</time>
      </trkpt>
      <trkpt lat="45.3153" lon="6.97614">
        <ele>1692.1001</ele>
        <time>2015-08-23T14:05:38Z</time>
      </trkpt>
      <trkpt lat="45.31528" lon="6.97606">
        <ele>1692.1001</ele>
        <time>2015-08-23T14:05:43Z</time>
      </trkpt>
      <trkpt lat="45.31523" lon="6.97581">
        <ele>1691.6549</ele>
        <time>2015-08-23T14:05:58Z</time>
      </trkpt>
      <trkpt lat="45.31519" lon="6.97573">
        <ele>1691.6549</ele>
        <time>2015-08-23T14:06:03Z</time>
      </trkpt>
      <trkpt lat="45.31513" lon="6.97556">
        <ele>1691.287</ele>
        <time>2015-08-23T14:06:13Z</time>
      </trkpt>
      <trkpt lat="45.3151" lon="6.97552">
        <ele>1691.287</ele>
        <time>2015-08-23T14:06:18Z</time>
      </trkpt>
      <trkpt lat="45.315" lon="6.97543">
        <ele>1690.9913</ele>
        <time>2015-08-23T14:06:28Z</time>
      </trkpt>
      <trkpt lat="45.31496" lon="6.9754">
        <ele>1690.9913</ele>
        <time>2015-08-23T14:06:33Z</time>
      </trkpt>
      <trkpt lat="45.31489" lon="6.97534">
        <ele>1690.7771</ele>
        <time>2015-08-23T14:06:43Z</time>
      </trkpt>
      <trkpt lat="45.31486" lon="6.97531">
        <ele>1690.7771</ele>
        <time>2015-08-23T14:06:48Z</time>
      </trkpt>
      <trkpt lat="45.31482" lon="6.97521">
        <ele>1690.6239</ele>
        <time>2015-08-23T14:06:58Z</time>
      </trkpt>
      <trkpt lat="45.3148" lon="6.97516">
        <ele>1690.6239</ele>
        <time>2015-08-23T14:07:03Z</time>
      </trkpt>
      <trkpt lat="45.31472" lon="6.97511">
        <ele>1690.556</ele>
        <time>2015-08-23T14:07:13Z</time>
      </trkpt>
      <trkpt lat="45.31468" lon="6.97509">
        <ele>1690.556</ele>
        <time>2015-08-23T14:07:18Z</time>
      </trkpt>
      <trkpt lat="45.31462" lon="6.97503">
        <ele>1690.7107</ele>
        <time>2015-08-23T14:07:28Z</time>
      </trkpt>
      <trkpt lat="45.3146" lon="6.97498">
        <ele>1690.7107</ele>
        <time>2015-08-23T14:07:33Z</time>
      </trkpt>
      <trkpt lat="45.31458" lon="6.97488">
        <ele>1690.9266</ele>
        <time>2015-08-23T14:07:43Z</time>
      </trkpt>
      <trkpt lat="45.31456" lon="6.97483">
        <ele>1690.9266</ele>
        <time>2015-08-23T14:07:48Z</time>
      </trkpt>
      <trkpt lat="45.31445" lon="6.97468">
        <ele>1691.3997</ele>
        <time>2015-08-23T14:08:03Z</time>
      </trkpt>
      <trkpt lat="45.31442" lon="6.97464">
        <ele>1691.3997</ele>
        <time>2015-08-23T14:08:08Z</time>
      </trkpt>
      <trkpt lat="45.31431" lon="6.97455">
        <ele>1692.0082</ele>
        <time>2015-08-23T14:08:18Z</time>
      </trkpt>
      <trkpt lat="45.31426" lon="6.97451">
        <ele>1692.0082</ele>
        <time>2015-08-23T14:08:23Z</time>
      </trkpt>
      <trkpt lat="45.31416" lon="6.97443">
        <ele>1692.6968</ele>
        <time>2015-08-23T14:08:33Z</time>
      </trkpt>
      <trkpt lat="45.3141" lon="6.97441">
        <ele>1692.6968</ele>
        <time>2015-08-23T14:08:38Z</time>
      </trkpt>
      <trkpt lat="45.31397" lon="6.97438">
        <ele>1693.4425</ele>
        <time>2015-08-23T14:08:48Z</time>
      </trkpt>
      <trkpt lat="45.31391" lon="6.97437">
        <ele>1693.4425</ele>
        <time>2015-08-23T14:08:53Z</time>
      </trkpt>
      <trkpt lat="45.31381" lon="6.97434">
        <ele>1694.1953</ele>
        <time>2015-08-23T14:09:03Z</time>
      </trkpt>
      <trkpt lat="45.31375" lon="6.97435">
        <ele>1694.1953</ele>
        <time>2015-08-23T14:09:08Z</time>
      </trkpt>
      <trkpt lat="45.31362" lon="6.97431">
        <ele>1694.9521</ele>
        <time>2015-08-23T14:09:18Z</time>
      </trkpt>
      <trkpt lat="45.31355" lon="6.97431">
        <ele>1694.9521</ele>
        <time>2015-08-23T14:09:23Z</time>
      </trkpt>
      <trkpt lat="45.31342" lon="6.97428">
        <ele>1695.7965</ele>
        <time>2015-08-23T14:09:33Z</time>
      </trkpt>
      <trkpt lat="45.31336" lon="6.97428">
        <ele>1695.7965</ele>
        <time>2015-08-23T14:09:38Z</time>
      </trkpt>
      <trkpt lat="45.31319" lon="6.97427">
        <ele>1696.6183</ele>
        <time>2015-08-23T14:09:53Z</time>
      </trkpt>
      <trkpt lat="45.31313" lon="6.97425">
        <ele>1696.6183</ele>
        <time>2015-08-23T14:09:58Z</time>
      </trkpt>
      <trkpt lat="45.313" lon="6.9742">
        <ele>1697.4308</ele>
        <time>2015-08-23T14:10:08Z</time>
      </trkpt>
      <trkpt lat="45.31296" lon="6.97421">
        <ele>1697.4308</ele>
        <time>2015-08-23T14:10:13Z</time>
      </trkpt>
      <trkpt lat="45.31286" lon="6.9742">
        <ele>1698.2754</ele>
        <time>2015-08-23T14:10:23Z</time>
      </trkpt>
      <trkpt lat="45.3128" lon="6.97419">
        <ele>1698.2754</ele>
        <time>2015-08-23T14:10:28Z</time>
      </trkpt>
      <trkpt lat="45.31274" lon="6.97418">
        <ele>1699.0605</ele>
        <time>2015-08-23T14:10:38Z</time>
      </trkpt>
      <trkpt lat="45.31268" lon="6.97415">
        <ele>1699.0605</ele>
        <time>2015-08-23T14:10:43Z</time>
      </trkpt>
      <trkpt lat="45.31254" lon="6.97411">
        <ele>1699.745</ele>
        <time>2015-08-23T14:10:53Z</time>
      </trkpt>
      <trkpt lat="45.3125" lon="6.97411">
        <ele>1699.745</ele>
        <time>2015-08-23T14:10:58Z</time>
      </trkpt>
      <trkpt lat="45.31237" lon="6.9741">
        <ele>1700.2764</ele>
        <time>2015-08-23T14:11:08Z</time>
      </trkpt>
      <trkpt lat="45.31232" lon="6.97409">
        <ele>1700.2764</ele>
        <time>2015-08-23T14:11:13Z</time>
      </trkpt>
      <trkpt lat="45.31217" lon="6.97407">
        <ele>1700.8083</ele>
        <time>2015-08-23T14:11:23Z</time>
      </trkpt>
      <trkpt lat="45.3121" lon="6.97406">
        <ele>1700.8083</ele>
        <time>2015-08-23T14:11:28Z</time>
      </trkpt>
      <trkpt lat="45.31199" lon="6.97407">
        <ele>1701.4259</ele>
        <time>2015-08-23T14:11:38Z</time>
      </trkpt>
      <trkpt lat="45.31194" lon="6.97407">
        <ele>1701.4259</ele>
        <time>2015-08-23T14:11:43Z</time>
      </trkpt>
      <trkpt lat="45.31188" lon="6.97405">
        <ele>1702.0922</ele>
        <time>2015-08-23T14:11:58Z</time>
      </trkpt>
      <trkpt lat="45.31174" lon="6.97395">
        <ele>1702.6432</ele>
        <time>2015-08-23T14:12:03Z</time>
      </trkpt>
      <trkpt lat="45.31164" lon="6.97384">
        <ele>1703.0142</ele>
        <time>2015-08-23T14:12:13Z</time>
      </trkpt>
      <trkpt lat="45.31158" lon="6.97377">
        <ele>1703.0142</ele>
        <time>2015-08-23T14:12:18Z</time>
      </trkpt>
      <trkpt lat="45.31151" lon="6.97364">
        <ele>1703.1885</ele>
        <time>2015-08-23T14:12:28Z</time>
      </trkpt>
      <trkpt lat="45.31148" lon="6.97358">
        <ele>1703.1885</ele>
        <time>2015-08-23T14:12:33Z</time>
      </trkpt>
      <trkpt lat="45.31143" lon="6.97345">
        <ele>1703.1515</ele>
        <time>2015-08-23T14:12:43Z</time>
      </trkpt>
      <trkpt lat="45.31138" lon="6.97337">
        <ele>1703.1515</ele>
        <time>2015-08-23T14:12:48Z</time>
      </trkpt>
      <trkpt lat="45.31132" lon="6.97326">
        <ele>1702.9913</ele>
        <time>2015-08-23T14:12:58Z</time>
      </trkpt>
      <trkpt lat="45.3113" lon="6.97318">
        <ele>1702.9913</ele>
        <time>2015-08-23T14:13:03Z</time>
      </trkpt>
      <trkpt lat="45.31125" lon="6.97302">
        <ele>1702.761</ele>
        <time>2015-08-23T14:13:13Z</time>
      </trkpt>
      <trkpt lat="45.31123" lon="6.97293">
        <ele>1702.761</ele>
        <time>2015-08-23T14:13:18Z</time>
      </trkpt>
      <trkpt lat="45.31117" lon="6.97279">
        <ele>1702.6254</ele>
        <time>2015-08-23T14:13:28Z</time>
      </trkpt>
      <trkpt lat="45.31114" lon="6.97274">
        <ele>1702.6254</ele>
        <time>2015-08-23T14:13:33Z</time>
      </trkpt>
      <trkpt lat="45.31107" lon="6.97261">
        <ele>1702.5637</ele>
        <time>2015-08-23T14:13:43Z</time>
      </trkpt>
      <trkpt lat="45.31105" lon="6.97256">
        <ele>1702.5637</ele>
        <time>2015-08-23T14:13:48Z</time>
      </trkpt>
      <trkpt lat="45.311" lon="6.97238">
        <ele>1702.5858</ele>
        <time>2015-08-23T14:13:58Z</time>
      </trkpt>
      <trkpt lat="45.31098" lon="6.97233">
        <ele>1702.5858</ele>
        <time>2015-08-23T14:14:03Z</time>
      </trkpt>
      <trkpt lat="45.3109" lon="6.97219">
        <ele>1702.5994</ele>
        <time>2015-08-23T14:14:13Z</time>
      </trkpt>
      <trkpt lat="45.31087" lon="6.97213">
        <ele>1702.5994</ele>
        <time>2015-08-23T14:14:18Z</time>
      </trkpt>
      <trkpt lat="45.31077" lon="6.9719">
        <ele>1702.5769</ele>
        <time>2015-08-23T14:14:33Z</time>
      </trkpt>
      <trkpt lat="45.31076" lon="6.97185">
        <ele>1702.5769</ele>
        <time>2015-08-23T14:14:38Z</time>
      </trkpt>
      <trkpt lat="45.31073" lon="6.97174">
        <ele>1702.5503</ele>
        <time>2015-08-23T14:14:48Z</time>
      </trkpt>
      <trkpt lat="45.31074" lon="6.97174">
        <ele>1702.5503</ele>
        <time>2015-08-23T14:14:53Z</time>
      </trkpt>
      <trkpt lat="45.31077" lon="6.97172">
        <ele>1702.5503</ele>
        <time>2015-08-23T14:15:03Z</time>
      </trkpt>
      <trkpt lat="45.31078" lon="6.97172">
        <ele>1702.5503</ele>
        <time>2015-08-23T14:15:08Z</time>
      </trkpt>
      <trkpt lat="45.31074" lon="6.97174">
        <ele>1702.5503</ele>
        <time>2015-08-23T14:15:18Z</time>
      </trkpt>
      <trkpt lat="45.31074" lon="6.97175">
        <ele>1702.4053</ele>
        <time>2015-08-23T14:15:23Z</time>
      </trkpt>
      <trkpt lat="45.31076" lon="6.97174">
        <ele>1702.4053</ele>
        <time>2015-08-23T14:15:33Z</time>
      </trkpt>
      <trkpt lat="45.31073" lon="6.97175">
        <ele>1702.4053</ele>
        <time>2015-08-23T14:15:38Z</time>
      </trkpt>
      <trkpt lat="45.31071" lon="6.97175">
        <ele>1702.4053</ele>
        <time>2015-08-23T14:15:48Z</time>
      </trkpt>
      <trkpt lat="45.31072" lon="6.97175">
        <ele>1702.4053</ele>
        <time>2015-08-23T14:15:53Z</time>
      </trkpt>
      <trkpt lat="45.31073" lon="6.97175">
        <ele>1702.3821</ele>
        <time>2015-08-23T14:16:03Z</time>
      </trkpt>
      <trkpt lat="45.31071" lon="6.97173">
        <ele>1702.3821</ele>
        <time>2015-08-23T14:16:08Z</time>
      </trkpt>
      <trkpt lat="45.31072" lon="6.97175">
        <ele>1702.3821</ele>
        <time>2015-08-23T14:16:18Z</time>
      </trkpt>
      <trkpt lat="45.31073" lon="6.97176">
        <ele>1702.3821</ele>
        <time>2015-08-23T14:16:23Z</time>
      </trkpt>
      <trkpt lat="45.31074" lon="6.97175">
        <ele>1702.3821</ele>
        <time>2015-08-23T14:16:33Z</time>
      </trkpt>
      <trkpt lat="45.31075" lon="6.97174">
        <ele>1702.3821</ele>
        <time>2015-08-23T14:16:38Z</time>
      </trkpt>
      <trkpt lat="45.31066" lon="6.97168">
        <ele>1702.3285</ele>
        <time>2015-08-23T14:16:53Z</time>
      </trkpt>
      <trkpt lat="45.31065" lon="6.97166">
        <ele>1702.3285</ele>
        <time>2015-08-23T14:16:58Z</time>
      </trkpt>
      <trkpt lat="45.31062" lon="6.97165">
        <ele>1702.3285</ele>
        <time>2015-08-23T14:17:08Z</time>
      </trkpt>
      <trkpt lat="45.31058" lon="6.9716">
        <ele>1702.0887</ele>
        <time>2015-08-23T14:17:13Z</time>
      </trkpt>
      <trkpt lat="45.31053" lon="6.97149">
        <ele>1701.9086</ele>
        <time>2015-08-23T14:17:23Z</time>
      </trkpt>
      <trkpt lat="45.3105" lon="6.97145">
        <ele>1701.9086</ele>
        <time>2015-08-23T14:17:28Z</time>
      </trkpt>
      <trkpt lat="45.31043" lon="6.97134">
        <ele>1701.7415</ele>
        <time>2015-08-23T14:17:38Z</time>
      </trkpt>
      <trkpt lat="45.31039" lon="6.97126">
        <ele>1701.7415</ele>
        <time>2015-08-23T14:17:43Z</time>
      </trkpt>
      <trkpt lat="45.31031" lon="6.97114">
        <ele>1701.7172</ele>
        <time>2015-08-23T14:17:53Z</time>
      </trkpt>
      <trkpt lat="45.31027" lon="6.9711">
        <ele>1701.7172</ele>
        <time>2015-08-23T14:17:58Z</time>
      </trkpt>
      <trkpt lat="45.31017" lon="6.97098">
        <ele>1701.725</ele>
        <time>2015-08-23T14:18:08Z</time>
      </trkpt>
      <trkpt lat="45.31014" lon="6.97093">
        <ele>1701.725</ele>
        <time>2015-08-23T14:18:13Z</time>
      </trkpt>
      <trkpt lat="45.31007" lon="6.97079">
        <ele>1701.7631</ele>
        <time>2015-08-23T14:18:23Z</time>
      </trkpt>
      <trkpt lat="45.31003" lon="6.97072">
        <ele>1701.7631</ele>
        <time>2015-08-23T14:18:28Z</time>
      </trkpt>
      <trkpt lat="45.30993" lon="6.97061">
        <ele>1701.7002</ele>
        <time>2015-08-23T14:18:38Z</time>
      </trkpt>
      <trkpt lat="45.30991" lon="6.97054">
        <ele>1701.7002</ele>
        <time>2015-08-23T14:18:43Z</time>
      </trkpt>
      <trkpt lat="45.30984" lon="6.9704">
        <ele>1701.6165</ele>
        <time>2015-08-23T14:18:53Z</time>
      </trkpt>
      <trkpt lat="45.30981" lon="6.97034">
        <ele>1701.6165</ele>
        <time>2015-08-23T14:18:58Z</time>
      </trkpt>
      <trkpt lat="45.30976" lon="6.97024">
        <ele>1701.4998</ele>
        <time>2015-08-23T14:19:08Z</time>
      </trkpt>
      <trkpt lat="45.30973" lon="6.97016">
        <ele>1701.4998</ele>
        <time>2015-08-23T14:19:13Z</time>
      </trkpt>
      <trkpt lat="45.30966" lon="6.97004">
        <ele>1701.2815</ele>
        <time>2015-08-23T14:19:23Z</time>
      </trkpt>
      <trkpt lat="45.30961" lon="6.96998">
        <ele>1701.2815</ele>
        <time>2015-08-23T14:19:28Z</time>
      </trkpt>
      <trkpt lat="45.30952" lon="6.96984">
        <ele>1701.0422</ele>
        <time>2015-08-23T14:19:38Z</time>
      </trkpt>
      <trkpt lat="45.30949" lon="6.96976">
        <ele>1701.0422</ele>
        <time>2015-08-23T14:19:43Z</time>
      </trkpt>
      <trkpt lat="45.3094" lon="6.9695">
        <ele>1700.7847</ele>
        <time>2015-08-23T14:19:58Z</time>
      </trkpt>
      <trkpt lat="45.30936" lon="6.9694">
        <ele>1700.7847</ele>
        <time>2015-08-23T14:20:03Z</time>
      </trkpt>
      <trkpt lat="45.30931" lon="6.96923">
        <ele>1700.497</ele>
        <time>2015-08-23T14:20:13Z</time>
      </trkpt>
      <trkpt lat="45.3093" lon="6.96915">
        <ele>1700.497</ele>
        <time>2015-08-23T14:20:18Z</time>
      </trkpt>
      <trkpt lat="45.30925" lon="6.96901">
        <ele>1700.1107</ele>
        <time>2015-08-23T14:20:28Z</time>
      </trkpt>
      <trkpt lat="45.30923" lon="6.96895">
        <ele>1700.1107</ele>
        <time>2015-08-23T14:20:33Z</time>
      </trkpt>
      <trkpt lat="45.30916" lon="6.96878">
        <ele>1699.6058</ele>
        <time>2015-08-23T14:20:43Z</time>
      </trkpt>
      <trkpt lat="45.30914" lon="6.96871">
        <ele>1699.6058</ele>
        <time>2015-08-23T14:20:48Z</time>
      </trkpt>
      <trkpt lat="45.30909" lon="6.96853">
        <ele>1699.2522</ele>
        <time>2015-08-23T14:20:58Z</time>
      </trkpt>
      <trkpt lat="45.30907" lon="6.96845">
        <ele>1699.2522</ele>
        <time>2015-08-23T14:21:03Z</time>
      </trkpt>
      <trkpt lat="45.30904" lon="6.9683">
        <ele>1699.0402</ele>
        <time>2015-08-23T14:21:13Z</time>
      </trkpt>
      <trkpt lat="45.30899" lon="6.96824">
        <ele>1699.0402</ele>
        <time>2015-08-23T14:21:18Z</time>
      </trkpt>
      <trkpt lat="45.30893" lon="6.9681">
        <ele>1698.7152</ele>
        <time>2015-08-23T14:21:28Z</time>
      </trkpt>
      <trkpt lat="45.30889" lon="6.96802">
        <ele>1698.7152</ele>
        <time>2015-08-23T14:21:33Z</time>
      </trkpt>
      <trkpt lat="45.30885" lon="6.96788">
        <ele>1698.46</ele>
        <time>2015-08-23T14:21:43Z</time>
      </trkpt>
      <trkpt lat="45.30882" lon="6.96785">
        <ele>1698.46</ele>
        <time>2015-08-23T14:21:48Z</time>
      </trkpt>
      <trkpt lat="45.30872" lon="6.96761">
        <ele>1698.1694</ele>
        <time>2015-08-23T14:22:03Z</time>
      </trkpt>
      <trkpt lat="45.30868" lon="6.96755">
        <ele>1698.1694</ele>
        <time>2015-08-23T14:22:08Z</time>
      </trkpt>
      <trkpt lat="45.30859" lon="6.96745">
        <ele>1697.7607</ele>
        <time>2015-08-23T14:22:18Z</time>
      </trkpt>
      <trkpt lat="45.30855" lon="6.96742">
        <ele>1697.7607</ele>
        <time>2015-08-23T14:22:23Z</time>
      </trkpt>
      <trkpt lat="45.30848" lon="6.96729">
        <ele>1697.3593</ele>
        <time>2015-08-23T14:22:33Z</time>
      </trkpt>
      <trkpt lat="45.30843" lon="6.96722">
        <ele>1697.3593</ele>
        <time>2015-08-23T14:22:38Z</time>
      </trkpt>
      <trkpt lat="45.30834" lon="6.96705">
        <ele>1697.0522</ele>
        <time>2015-08-23T14:22:48Z</time>
      </trkpt>
      <trkpt lat="45.30828" lon="6.96695">
        <ele>1697.0522</ele>
        <time>2015-08-23T14:22:53Z</time>
      </trkpt>
      <trkpt lat="45.30823" lon="6.96678">
        <ele>1696.733</ele>
        <time>2015-08-23T14:23:03Z</time>
      </trkpt>
      <trkpt lat="45.3082" lon="6.96671">
        <ele>1696.733</ele>
        <time>2015-08-23T14:23:08Z</time>
      </trkpt>
      <trkpt lat="45.30815" lon="6.96654">
        <ele>1696.2017</ele>
        <time>2015-08-23T14:23:18Z</time>
      </trkpt>
      <trkpt lat="45.30813" lon="6.96646">
        <ele>1696.2017</ele>
        <time>2015-08-23T14:23:23Z</time>
      </trkpt>
      <trkpt lat="45.30808" lon="6.96622">
        <ele>1695.8212</ele>
        <time>2015-08-23T14:23:38Z</time>
      </trkpt>
      <trkpt lat="45.30806" lon="6.96617">
        <ele>1695.8212</ele>
        <time>2015-08-23T14:23:43Z</time>
      </trkpt>
      <trkpt lat="45.30799" lon="6.96603">
        <ele>1695.5529</ele>
        <time>2015-08-23T14:23:53Z</time>
      </trkpt>
      <trkpt lat="45.30797" lon="6.96596">
        <ele>1695.5529</ele>
        <time>2015-08-23T14:23:58Z</time>
      </trkpt>
      <trkpt lat="45.30791" lon="6.96582">
        <ele>1695.4468</ele>
        <time>2015-08-23T14:24:08Z</time>
      </trkpt>
      <trkpt lat="45.30788" lon="6.96573">
        <ele>1695.4468</ele>
        <time>2015-08-23T14:24:13Z</time>
      </trkpt>
      <trkpt lat="45.30778" lon="6.96558">
        <ele>1695.2031</ele>
        <time>2015-08-23T14:24:23Z</time>
      </trkpt>
      <trkpt lat="45.30776" lon="6.9655">
        <ele>1695.2031</ele>
        <time>2015-08-23T14:24:28Z</time>
      </trkpt>
      <trkpt lat="45.30772" lon="6.96536">
        <ele>1694.8613</ele>
        <time>2015-08-23T14:24:38Z</time>
      </trkpt>
      <trkpt lat="45.30771" lon="6.96528">
        <ele>1694.8613</ele>
        <time>2015-08-23T14:24:43Z</time>
      </trkpt>
      <trkpt lat="45.30766" lon="6.96514">
        <ele>1694.5449</ele>
        <time>2015-08-23T14:24:53Z</time>
      </trkpt>
      <trkpt lat="45.30763" lon="6.96508">
        <ele>1694.5449</ele>
        <time>2015-08-23T14:24:58Z</time>
      </trkpt>
      <trkpt lat="45.30754" lon="6.9649">
        <ele>1694.1807</ele>
        <time>2015-08-23T14:25:08Z</time>
      </trkpt>
      <trkpt lat="45.30749" lon="6.96481">
        <ele>1694.1807</ele>
        <time>2015-08-23T14:25:13Z</time>
      </trkpt>
      <trkpt lat="45.30739" lon="6.96462">
        <ele>1693.6287</ele>
        <time>2015-08-23T14:25:28Z</time>
      </trkpt>
      <trkpt lat="45.30739" lon="6.96455">
        <ele>1693.6287</ele>
        <time>2015-08-23T14:25:33Z</time>
      </trkpt>
      <trkpt lat="45.30733" lon="6.96437">
        <ele>1693.1205</ele>
        <time>2015-08-23T14:25:43Z</time>
      </trkpt>
      <trkpt lat="45.30733" lon="6.9643">
        <ele>1693.1205</ele>
        <time>2015-08-23T14:25:48Z</time>
      </trkpt>
      <trkpt lat="45.30731" lon="6.96415">
        <ele>1692.769</ele>
        <time>2015-08-23T14:25:58Z</time>
      </trkpt>
      <trkpt lat="45.30728" lon="6.96406">
        <ele>1692.769</ele>
        <time>2015-08-23T14:26:03Z</time>
      </trkpt>
      <trkpt lat="45.30722" lon="6.96391">
        <ele>1692.3188</ele>
        <time>2015-08-23T14:26:13Z</time>
      </trkpt>
      <trkpt lat="45.3072" lon="6.96386">
        <ele>1692.3188</ele>
        <time>2015-08-23T14:26:18Z</time>
      </trkpt>
      <trkpt lat="45.30714" lon="6.96378">
        <ele>1691.9508</ele>
        <time>2015-08-23T14:26:28Z</time>
      </trkpt>
      <trkpt lat="45.3071" lon="6.96371">
        <ele>1691.9508</ele>
        <time>2015-08-23T14:26:33Z</time>
      </trkpt>
      <trkpt lat="45.30704" lon="6.96354">
        <ele>1691.4147</ele>
        <time>2015-08-23T14:26:43Z</time>
      </trkpt>
      <trkpt lat="45.30698" lon="6.96343">
        <ele>1690.868</ele>
        <time>2015-08-23T14:26:48Z</time>
      </trkpt>
      <trkpt lat="45.30692" lon="6.96328">
        <ele>1690.3126</ele>
        <time>2015-08-23T14:26:58Z</time>
      </trkpt>
      <trkpt lat="45.30688" lon="6.96325">
        <ele>1690.3126</ele>
        <time>2015-08-23T14:27:03Z</time>
      </trkpt>
      <trkpt lat="45.30677" lon="6.96314">
        <ele>1689.8656</ele>
        <time>2015-08-23T14:27:13Z</time>
      </trkpt>
      <trkpt lat="45.30673" lon="6.96309">
        <ele>1689.8656</ele>
        <time>2015-08-23T14:27:18Z</time>
      </trkpt>
      <trkpt lat="45.30663" lon="6.96302">
        <ele>1689.3467</ele>
        <time>2015-08-23T14:27:28Z</time>
      </trkpt>
      <trkpt lat="45.30658" lon="6.96296">
        <ele>1689.3467</ele>
        <time>2015-08-23T14:27:33Z</time>
      </trkpt>
      <trkpt lat="45.30653" lon="6.96279">
        <ele>1688.6758</ele>
        <time>2015-08-23T14:27:43Z</time>
      </trkpt>
      <trkpt lat="45.30651" lon="6.96272">
        <ele>1688.6758</ele>
        <time>2015-08-23T14:27:48Z</time>
      </trkpt>
      <trkpt lat="45.30647" lon="6.96249">
        <ele>1687.8075</ele>
        <time>2015-08-23T14:27:58Z</time>
      </trkpt>
      <trkpt lat="45.30647" lon="6.96246">
        <ele>1687.8075</ele>
        <time>2015-08-23T14:28:03Z</time>
      </trkpt>
      <trkpt lat="45.30646" lon="6.96246">
        <ele>1687.8075</ele>
        <time>2015-08-23T14:28:13Z</time>
      </trkpt>
      <trkpt lat="45.30645" lon="6.96232">
        <ele>1687.2483</ele>
        <time>2015-08-23T14:29:48Z</time>
      </trkpt>
      <trkpt lat="45.30644" lon="6.96223">
        <ele>1687.2483</ele>
        <time>2015-08-23T14:29:53Z</time>
      </trkpt>
      <trkpt lat="45.30644" lon="6.96204">
        <ele>1686.9907</ele>
        <time>2015-08-23T14:30:03Z</time>
      </trkpt>
      <trkpt lat="45.30645" lon="6.96198">
        <ele>1686.9907</ele>
        <time>2015-08-23T14:30:08Z</time>
      </trkpt>
      <trkpt lat="45.3064" lon="6.96187">
        <ele>1687.0126</ele>
        <time>2015-08-23T14:30:18Z</time>
      </trkpt>
      <trkpt lat="45.30639" lon="6.96178">
        <ele>1687.0126</ele>
        <time>2015-08-23T14:30:23Z</time>
      </trkpt>
      <trkpt lat="45.30639" lon="6.96164">
        <ele>1686.8026</ele>
        <time>2015-08-23T14:30:33Z</time>
      </trkpt>
      <trkpt lat="45.3064" lon="6.96156">
        <ele>1686.8026</ele>
        <time>2015-08-23T14:30:38Z</time>
      </trkpt>
      <trkpt lat="45.30639" lon="6.96139">
        <ele>1686.1184</ele>
        <time>2015-08-23T14:30:48Z</time>
      </trkpt>
      <trkpt lat="45.30639" lon="6.96131">
        <ele>1686.1184</ele>
        <time>2015-08-23T14:30:53Z</time>
      </trkpt>
      <trkpt lat="45.30638" lon="6.96114">
        <ele>1685.2263</ele>
        <time>2015-08-23T14:31:03Z</time>
      </trkpt>
      <trkpt lat="45.3064" lon="6.96108">
        <ele>1685.2263</ele>
        <time>2015-08-23T14:31:08Z</time>
      </trkpt>
      <trkpt lat="45.30641" lon="6.9609">
        <ele>1684.1721</ele>
        <time>2015-08-23T14:31:18Z</time>
      </trkpt>
      <trkpt lat="45.30641" lon="6.96084">
        <ele>1684.1721</ele>
        <time>2015-08-23T14:31:23Z</time>
      </trkpt>
      <trkpt lat="45.30641" lon="6.96059">
        <ele>1683.1572</ele>
        <time>2015-08-23T14:31:38Z</time>
      </trkpt>
      <trkpt lat="45.30641" lon="6.9605">
        <ele>1683.1572</ele>
        <time>2015-08-23T14:31:43Z</time>
      </trkpt>
      <trkpt lat="45.30639" lon="6.96035">
        <ele>1681.9067</ele>
        <time>2015-08-23T14:31:53Z</time>
      </trkpt>
      <trkpt lat="45.30638" lon="6.96026">
        <ele>1681.9067</ele>
        <time>2015-08-23T14:31:58Z</time>
      </trkpt>
      <trkpt lat="45.30637" lon="6.96009">
        <ele>1680.8442</ele>
        <time>2015-08-23T14:32:08Z</time>
      </trkpt>
      <trkpt lat="45.30637" lon="6.96001">
        <ele>1680.8442</ele>
        <time>2015-08-23T14:32:13Z</time>
      </trkpt>
      <trkpt lat="45.30635" lon="6.95987">
        <ele>1680.0155</ele>
        <time>2015-08-23T14:32:23Z</time>
      </trkpt>
      <trkpt lat="45.30633" lon="6.95977">
        <ele>1680.0155</ele>
        <time>2015-08-23T14:32:28Z</time>
      </trkpt>
      <trkpt lat="45.30628" lon="6.95961">
        <ele>1679.2461</ele>
        <time>2015-08-23T14:32:38Z</time>
      </trkpt>
      <trkpt lat="45.30628" lon="6.95955">
        <ele>1679.2461</ele>
        <time>2015-08-23T14:32:43Z</time>
      </trkpt>
      <trkpt lat="45.30634" lon="6.95938">
        <ele>1678.7488</ele>
        <time>2015-08-23T14:32:53Z</time>
      </trkpt>
      <trkpt lat="45.30632" lon="6.95932">
        <ele>1678.7488</ele>
        <time>2015-08-23T14:32:58Z</time>
      </trkpt>
      <trkpt lat="45.30628" lon="6.95919">
        <ele>1678.3312</ele>
        <time>2015-08-23T14:33:08Z</time>
      </trkpt>
      <trkpt lat="45.30629" lon="6.95911">
        <ele>1678.3312</ele>
        <time>2015-08-23T14:33:13Z</time>
      </trkpt>
      <trkpt lat="45.30633" lon="6.95909">
        <ele>1678.0736</ele>
        <time>2015-08-23T14:33:28Z</time>
      </trkpt>
      <trkpt lat="45.30633" lon="6.95913">
        <ele>1678.0736</ele>
        <time>2015-08-23T14:33:33Z</time>
      </trkpt>
      <trkpt lat="45.3063" lon="6.95918">
        <ele>1678.0736</ele>
        <time>2015-08-23T14:33:43Z</time>
      </trkpt>
      <trkpt lat="45.3063" lon="6.95918">
        <ele>1678.0736</ele>
        <time>2015-08-23T14:33:48Z</time>
      </trkpt>
      <trkpt lat="45.30631" lon="6.95917">
        <ele>1678.0736</ele>
        <time>2015-08-23T14:34:43Z</time>
      </trkpt>
      <trkpt lat="45.30633" lon="6.9591">
        <ele>1678.1946</ele>
        <time>2015-08-23T14:34:48Z</time>
      </trkpt>
      <trkpt lat="45.30633" lon="6.95908">
        <ele>1678.1946</ele>
        <time>2015-08-23T14:34:58Z</time>
      </trkpt>
      <trkpt lat="45.30631" lon="6.95899">
        <ele>1678.1946</ele>
        <time>2015-08-23T14:35:13Z</time>
      </trkpt>
      <trkpt lat="45.30628" lon="6.95884">
        <ele>1678.1892</ele>
        <time>2015-08-23T14:35:18Z</time>
      </trkpt>
      <trkpt lat="45.30626" lon="6.95863">
        <ele>1678.3967</ele>
        <time>2015-08-23T14:35:33Z</time>
      </trkpt>
      <trkpt lat="45.30624" lon="6.95856">
        <ele>1678.3967</ele>
        <time>2015-08-23T14:35:38Z</time>
      </trkpt>
      <trkpt lat="45.30618" lon="6.95836">
        <ele>1678.7566</ele>
        <time>2015-08-23T14:35:48Z</time>
      </trkpt>
      <trkpt lat="45.30616" lon="6.95831">
        <ele>1678.7566</ele>
        <time>2015-08-23T14:35:53Z</time>
      </trkpt>
      <trkpt lat="45.30614" lon="6.95824">
        <ele>1679.2264</ele>
        <time>2015-08-23T14:36:03Z</time>
      </trkpt>
      <trkpt lat="45.30612" lon="6.95816">
        <ele>1679.2264</ele>
        <time>2015-08-23T14:36:08Z</time>
      </trkpt>
      <trkpt lat="45.30608" lon="6.95802">
        <ele>1679.8531</ele>
        <time>2015-08-23T14:36:18Z</time>
      </trkpt>
      <trkpt lat="45.30605" lon="6.95796">
        <ele>1679.8531</ele>
        <time>2015-08-23T14:36:23Z</time>
      </trkpt>
      <trkpt lat="45.30599" lon="6.95785">
        <ele>1680.5789</ele>
        <time>2015-08-23T14:36:33Z</time>
      </trkpt>
      <trkpt lat="45.30596" lon="6.95781">
        <ele>1680.5789</ele>
        <time>2015-08-23T14:36:38Z</time>
      </trkpt>
      <trkpt lat="45.30591" lon="6.95772">
        <ele>1681.5371</ele>
        <time>2015-08-23T14:36:48Z</time>
      </trkpt>
      <trkpt lat="45.30591" lon="6.95768">
        <ele>1681.5371</ele>
        <time>2015-08-23T14:36:53Z</time>
      </trkpt>
      <trkpt lat="45.30587" lon="6.9576">
        <ele>1682.7501</ele>
        <time>2015-08-23T14:37:03Z</time>
      </trkpt>
      <trkpt lat="45.30587" lon="6.95756">
        <ele>1682.7501</ele>
        <time>2015-08-23T14:37:08Z</time>
      </trkpt>
      <trkpt lat="45.30585" lon="6.95747">
        <ele>1684.0792</ele>
        <time>2015-08-23T14:37:18Z</time>
      </trkpt>
      <trkpt lat="45.30585" lon="6.9574">
        <ele>1684.0792</ele>
        <time>2015-08-23T14:37:23Z</time>
      </trkpt>
      <trkpt lat="45.30582" lon="6.95729">
        <ele>1685.6552</ele>
        <time>2015-08-23T14:37:38Z</time>
      </trkpt>
      <trkpt lat="45.30581" lon="6.95725">
        <ele>1685.6552</ele>
        <time>2015-08-23T14:37:43Z</time>
      </trkpt>
      <trkpt lat="45.30576" lon="6.95717">
        <ele>1687.2378</ele>
        <time>2015-08-23T14:37:53Z</time>
      </trkpt>
      <trkpt lat="45.30575" lon="6.95714">
        <ele>1687.2378</ele>
        <time>2015-08-23T14:37:58Z</time>
      </trkpt>
      <trkpt lat="45.30573" lon="6.95708">
        <ele>1687.2378</ele>
        <time>2015-08-23T14:38:08Z</time>
      </trkpt>
      <trkpt lat="45.3057" lon="6.95704">
        <ele>1689.2104</ele>
        <time>2015-08-23T14:38:13Z</time>
      </trkpt>
      <trkpt lat="45.30568" lon="6.95697">
        <ele>1689.2104</ele>
        <time>2015-08-23T14:38:23Z</time>
      </trkpt>
      <trkpt lat="45.30567" lon="6.95696">
        <ele>1689.2104</ele>
        <time>2015-08-23T14:38:28Z</time>
      </trkpt>
      <trkpt lat="45.30564" lon="6.95692">
        <ele>1691.6243</ele>
        <time>2015-08-23T14:38:38Z</time>
      </trkpt>
      <trkpt lat="45.30561" lon="6.95687">
        <ele>1691.6243</ele>
        <time>2015-08-23T14:38:43Z</time>
      </trkpt>
      <trkpt lat="45.30558" lon="6.95678">
        <ele>1694.007</ele>
        <time>2015-08-23T14:38:53Z</time>
      </trkpt>
      <trkpt lat="45.30557" lon="6.95674">
        <ele>1694.007</ele>
        <time>2015-08-23T14:38:58Z</time>
      </trkpt>
      <trkpt lat="45.30553" lon="6.95669">
        <ele>1694.007</ele>
        <time>2015-08-23T14:39:08Z</time>
      </trkpt>
      <trkpt lat="45.30552" lon="6.95666">
        <ele>1696.2666</ele>
        <time>2015-08-23T14:39:13Z</time>
      </trkpt>
      <trkpt lat="45.30546" lon="6.95659">
        <ele>1696.2666</ele>
        <time>2015-08-23T14:39:23Z</time>
      </trkpt>
      <trkpt lat="45.30542" lon="6.95655">
        <ele>1698.4055</ele>
        <time>2015-08-23T14:39:28Z</time>
      </trkpt>
      <trkpt lat="45.30536" lon="6.95646">
        <ele>1698.4055</ele>
        <time>2015-08-23T14:39:38Z</time>
      </trkpt>
      <trkpt lat="45.30536" lon="6.95641">
        <ele>1700.6421</ele>
        <time>2015-08-23T14:39:43Z</time>
      </trkpt>
      <trkpt lat="45.30537" lon="6.95634">
        <ele>1700.6421</ele>
        <time>2015-08-23T14:39:53Z</time>
      </trkpt>
      <trkpt lat="45.30537" lon="6.95631">
        <ele>1700.6421</ele>
        <time>2015-08-23T14:39:58Z</time>
      </trkpt>
      <trkpt lat="45.30542" lon="6.95627">
        <ele>1702.8759</ele>
        <time>2015-08-23T14:40:08Z</time>
      </trkpt>
      <trkpt lat="45.30546" lon="6.95627">
        <ele>1702.8759</ele>
        <time>2015-08-23T14:40:13Z</time>
      </trkpt>
      <trkpt lat="45.30555" lon="6.95628">
        <ele>1705.1295</ele>
        <time>2015-08-23T14:40:28Z</time>
      </trkpt>
      <trkpt lat="45.30558" lon="6.95629">
        <ele>1705.1295</ele>
        <time>2015-08-23T14:40:33Z</time>
      </trkpt>
      <trkpt lat="45.30561" lon="6.95629">
        <ele>1705.1295</ele>
        <time>2015-08-23T14:40:43Z</time>
      </trkpt>
      <trkpt lat="45.30564" lon="6.95629">
        <ele>1707.395</ele>
        <time>2015-08-23T14:40:48Z</time>
      </trkpt>
      <trkpt lat="45.30569" lon="6.95627">
        <ele>1707.395</ele>
        <time>2015-08-23T14:40:58Z</time>
      </trkpt>
      <trkpt lat="45.30566" lon="6.95627">
        <ele>1707.395</ele>
        <time>2015-08-23T14:41:03Z</time>
      </trkpt>
      <trkpt lat="45.30567" lon="6.95627">
        <ele>1709.6654</ele>
        <time>2015-08-23T14:41:13Z</time>
      </trkpt>
      <trkpt lat="45.30569" lon="6.95629">
        <ele>1709.6654</ele>
        <time>2015-08-23T14:41:18Z</time>
      </trkpt>
      <trkpt lat="45.30566" lon="6.95628">
        <ele>1709.6654</ele>
        <time>2015-08-23T14:41:28Z</time>
      </trkpt>
      <trkpt lat="45.30569" lon="6.95628">
        <ele>1709.6654</ele>
        <time>2015-08-23T14:41:33Z</time>
      </trkpt>
      <trkpt lat="45.30573" lon="6.95621">
        <ele>1711.9485</ele>
        <time>2015-08-23T14:41:43Z</time>
      </trkpt>
      <trkpt lat="45.30573" lon="6.95617">
        <ele>1711.9485</ele>
        <time>2015-08-23T14:41:48Z</time>
      </trkpt>
      <trkpt lat="45.30571" lon="6.95607">
        <ele>1714.0787</ele>
        <time>2015-08-23T14:41:58Z</time>
      </trkpt>
      <trkpt lat="45.30571" lon="6.95603">
        <ele>1714.0787</ele>
        <time>2015-08-23T14:42:03Z</time>
      </trkpt>
      <trkpt lat="45.30571" lon="6.95596">
        <ele>1714.0787</ele>
        <time>2015-08-23T14:42:13Z</time>
      </trkpt>
      <trkpt lat="45.30568" lon="6.95593">
        <ele>1716.1199</ele>
        <time>2015-08-23T14:42:18Z</time>
      </trkpt>
      <trkpt lat="45.30564" lon="6.95587">
        <ele>1716.1199</ele>
        <time>2015-08-23T14:42:28Z</time>
      </trkpt>
      <trkpt lat="45.30559" lon="6.95582">
        <ele>1718.5059</ele>
        <time>2015-08-23T14:42:33Z</time>
      </trkpt>
      <trkpt lat="45.30555" lon="6.9558">
        <ele>1718.5059</ele>
        <time>2015-08-23T14:42:48Z</time>
      </trkpt>
      <trkpt lat="45.30554" lon="6.95577">
        <ele>1718.5059</ele>
        <time>2015-08-23T14:42:53Z</time>
      </trkpt>
      <trkpt lat="45.30547" lon="6.95572">
        <ele>1721.2487</ele>
        <time>2015-08-23T14:43:03Z</time>
      </trkpt>
      <trkpt lat="45.30545" lon="6.9557">
        <ele>1721.2487</ele>
        <time>2015-08-23T14:43:08Z</time>
      </trkpt>
      <trkpt lat="45.30542" lon="6.95565">
        <ele>1721.2487</ele>
        <time>2015-08-23T14:43:18Z</time>
      </trkpt>
      <trkpt lat="45.30539" lon="6.95562">
        <ele>1724.0275</ele>
        <time>2015-08-23T14:43:23Z</time>
      </trkpt>
      <trkpt lat="45.30534" lon="6.95554">
        <ele>1724.0275</ele>
        <time>2015-08-23T14:43:33Z</time>
      </trkpt>
      <trkpt lat="45.30535" lon="6.95551">
        <ele>1726.79</ele>
        <time>2015-08-23T14:43:38Z</time>
      </trkpt>
      <trkpt lat="45.30533" lon="6.95543">
        <ele>1726.79</ele>
        <time>2015-08-23T14:43:48Z</time>
      </trkpt>
      <trkpt lat="45.30534" lon="6.9554">
        <ele>1726.79</ele>
        <time>2015-08-23T14:43:53Z</time>
      </trkpt>
      <trkpt lat="45.30533" lon="6.9553">
        <ele>1729.4592</ele>
        <time>2015-08-23T14:44:03Z</time>
      </trkpt>
      <trkpt lat="45.30532" lon="6.95524">
        <ele>1729.4592</ele>
        <time>2015-08-23T14:44:08Z</time>
      </trkpt>
      <trkpt lat="45.30531" lon="6.95518">
        <ele>1729.4592</ele>
        <time>2015-08-23T14:44:18Z</time>
      </trkpt>
      <trkpt lat="45.30529" lon="6.95512">
        <ele>1732.1515</ele>
        <time>2015-08-23T14:44:23Z</time>
      </trkpt>
      <trkpt lat="45.30527" lon="6.95501">
        <ele>1732.1515</ele>
        <time>2015-08-23T14:44:33Z</time>
      </trkpt>
      <trkpt lat="45.30527" lon="6.95496">
        <ele>1734.4993</ele>
        <time>2015-08-23T14:44:38Z</time>
      </trkpt>
      <trkpt lat="45.30524" lon="6.95489">
        <ele>1734.4993</ele>
        <time>2015-08-23T14:44:48Z</time>
      </trkpt>
      <trkpt lat="45.30522" lon="6.95484">
        <ele>1736.7108</ele>
        <time>2015-08-23T14:44:53Z</time>
      </trkpt>
      <trkpt lat="45.30521" lon="6.95474">
        <ele>1736.7108</ele>
        <time>2015-08-23T14:45:03Z</time>
      </trkpt>
      <trkpt lat="45.30518" lon="6.9547">
        <ele>1738.8213</ele>
        <time>2015-08-23T14:45:08Z</time>
      </trkpt>
      <trkpt lat="45.30516" lon="6.95457">
        <ele>1740.7769</ele>
        <time>2015-08-23T14:45:23Z</time>
      </trkpt>
      <trkpt lat="45.30514" lon="6.95452">
        <ele>1740.7769</ele>
        <time>2015-08-23T14:45:28Z</time>
      </trkpt>
      <trkpt lat="45.30511" lon="6.95442">
        <ele>1742.7018</ele>
        <time>2015-08-23T14:45:38Z</time>
      </trkpt>
      <trkpt lat="45.30509" lon="6.95435">
        <ele>1742.7018</ele>
        <time>2015-08-23T14:45:43Z</time>
      </trkpt>
      <trkpt lat="45.30506" lon="6.95425">
        <ele>1744.3795</ele>
        <time>2015-08-23T14:45:53Z</time>
      </trkpt>
      <trkpt lat="45.30507" lon="6.95418">
        <ele>1744.3795</ele>
        <time>2015-08-23T14:45:58Z</time>
      </trkpt>
      <trkpt lat="45.30507" lon="6.95407">
        <ele>1745.5385</ele>
        <time>2015-08-23T14:46:08Z</time>
      </trkpt>
      <trkpt lat="45.30505" lon="6.95402">
        <ele>1745.5385</ele>
        <time>2015-08-23T14:46:13Z</time>
      </trkpt>
      <trkpt lat="45.30498" lon="6.95398">
        <ele>1746.5339</ele>
        <time>2015-08-23T14:46:23Z</time>
      </trkpt>
      <trkpt lat="45.30496" lon="6.954">
        <ele>1746.5339</ele>
        <time>2015-08-23T14:46:28Z</time>
      </trkpt>
      <trkpt lat="45.30489" lon="6.95404">
        <ele>1747.5802</ele>
        <time>2015-08-23T14:46:38Z</time>
      </trkpt>
      <trkpt lat="45.30484" lon="6.95405">
        <ele>1747.5802</ele>
        <time>2015-08-23T14:46:43Z</time>
      </trkpt>
      <trkpt lat="45.3048" lon="6.95402">
        <ele>1748.6888</ele>
        <time>2015-08-23T14:46:53Z</time>
      </trkpt>
      <trkpt lat="45.30477" lon="6.95399">
        <ele>1748.6888</ele>
        <time>2015-08-23T14:46:58Z</time>
      </trkpt>
      <trkpt lat="45.30472" lon="6.95393">
        <ele>1749.7115</ele>
        <time>2015-08-23T14:47:08Z</time>
      </trkpt>
      <trkpt lat="45.30468" lon="6.9539">
        <ele>1749.7115</ele>
        <time>2015-08-23T14:47:13Z</time>
      </trkpt>
      <trkpt lat="45.30464" lon="6.95383">
        <ele>1750.555</ele>
        <time>2015-08-23T14:47:23Z</time>
      </trkpt>
      <trkpt lat="45.30462" lon="6.95381">
        <ele>1750.555</ele>
        <time>2015-08-23T14:47:28Z</time>
      </trkpt>
      <trkpt lat="45.30458" lon="6.95371">
        <ele>1751.4067</ele>
        <time>2015-08-23T14:47:38Z</time>
      </trkpt>
      <trkpt lat="45.30456" lon="6.95365">
        <ele>1751.4067</ele>
        <time>2015-08-23T14:47:43Z</time>
      </trkpt>
      <trkpt lat="45.30456" lon="6.9536">
        <ele>1751.4067</ele>
        <time>2015-08-23T14:47:58Z</time>
      </trkpt>
      <trkpt lat="45.30456" lon="6.95362">
        <ele>1752.1671</ele>
        <time>2015-08-23T14:48:03Z</time>
      </trkpt>
      <trkpt lat="45.30455" lon="6.95364">
        <ele>1752.1671</ele>
        <time>2015-08-23T14:48:13Z</time>
      </trkpt>
      <trkpt lat="45.30454" lon="6.95366">
        <ele>1752.1671</ele>
        <time>2015-08-23T14:48:18Z</time>
      </trkpt>
      <trkpt lat="45.30455" lon="6.95364">
        <ele>1752.1671</ele>
        <time>2015-08-23T14:48:28Z</time>
      </trkpt>
      <trkpt lat="45.30455" lon="6.95363">
        <ele>1752.1671</ele>
        <time>2015-08-23T14:48:33Z</time>
      </trkpt>
      <trkpt lat="45.30451" lon="6.95351">
        <ele>1752.7151</ele>
        <time>2015-08-23T14:48:43Z</time>
      </trkpt>
      <trkpt lat="45.30447" lon="6.95344">
        <ele>1752.7151</ele>
        <time>2015-08-23T14:48:48Z</time>
      </trkpt>
      <trkpt lat="45.30443" lon="6.95333">
        <ele>1752.9391</ele>
        <time>2015-08-23T14:48:58Z</time>
      </trkpt>
      <trkpt lat="45.30443" lon="6.95326">
        <ele>1752.9391</ele>
        <time>2015-08-23T14:49:03Z</time>
      </trkpt>
      <trkpt lat="45.30437" lon="6.95312">
        <ele>1753.0397</ele>
        <time>2015-08-23T14:49:13Z</time>
      </trkpt>
      <trkpt lat="45.30434" lon="6.95306">
        <ele>1753.0397</ele>
        <time>2015-08-23T14:49:18Z</time>
      </trkpt>
      <trkpt lat="45.30427" lon="6.95293">
        <ele>1752.9435</ele>
        <time>2015-08-23T14:49:28Z</time>
      </trkpt>
      <trkpt lat="45.30424" lon="6.95286">
        <ele>1752.9435</ele>
        <time>2015-08-23T14:49:33Z</time>
      </trkpt>
      <trkpt lat="45.3042" lon="6.95276">
        <ele>1752.7992</ele>
        <time>2015-08-23T14:49:43Z</time>
      </trkpt>
      <trkpt lat="45.30416" lon="6.95271">
        <ele>1752.7992</ele>
        <time>2015-08-23T14:49:48Z</time>
      </trkpt>
      <trkpt lat="45.30409" lon="6.95255">
        <ele>1752.2981</ele>
        <time>2015-08-23T14:49:58Z</time>
      </trkpt>
      <trkpt lat="45.30407" lon="6.95247">
        <ele>1752.2981</ele>
        <time>2015-08-23T14:50:03Z</time>
      </trkpt>
      <trkpt lat="45.30399" lon="6.95226">
        <ele>1751.429</ele>
        <time>2015-08-23T14:50:18Z</time>
      </trkpt>
      <trkpt lat="45.30396" lon="6.95221">
        <ele>1751.429</ele>
        <time>2015-08-23T14:50:23Z</time>
      </trkpt>
      <trkpt lat="45.30389" lon="6.95209">
        <ele>1750.4993</ele>
        <time>2015-08-23T14:50:33Z</time>
      </trkpt>
      <trkpt lat="45.30387" lon="6.95201">
        <ele>1750.4993</ele>
        <time>2015-08-23T14:50:38Z</time>
      </trkpt>
      <trkpt lat="45.30381" lon="6.9519">
        <ele>1749.6069</ele>
        <time>2015-08-23T14:50:48Z</time>
      </trkpt>
      <trkpt lat="45.30377" lon="6.95182">
        <ele>1749.6069</ele>
        <time>2015-08-23T14:50:53Z</time>
      </trkpt>
      <trkpt lat="45.30372" lon="6.9517">
        <ele>1748.6837</ele>
        <time>2015-08-23T14:51:03Z</time>
      </trkpt>
      <trkpt lat="45.30371" lon="6.95164">
        <ele>1748.6837</ele>
        <time>2015-08-23T14:51:08Z</time>
      </trkpt>
      <trkpt lat="45.30365" lon="6.95153">
        <ele>1747.7965</ele>
        <time>2015-08-23T14:51:18Z</time>
      </trkpt>
      <trkpt lat="45.30361" lon="6.95147">
        <ele>1747.7965</ele>
        <time>2015-08-23T14:51:23Z</time>
      </trkpt>
      <trkpt lat="45.30354" lon="6.95131">
        <ele>1746.776</ele>
        <time>2015-08-23T14:51:33Z</time>
      </trkpt>
      <trkpt lat="45.30352" lon="6.95124">
        <ele>1746.776</ele>
        <time>2015-08-23T14:51:38Z</time>
      </trkpt>
      <trkpt lat="45.30347" lon="6.95116">
        <ele>1745.7112</ele>
        <time>2015-08-23T14:51:48Z</time>
      </trkpt>
      <trkpt lat="45.30346" lon="6.9511">
        <ele>1745.7112</ele>
        <time>2015-08-23T14:51:53Z</time>
      </trkpt>
      <trkpt lat="45.30346" lon="6.95097">
        <ele>1744.5974</ele>
        <time>2015-08-23T14:52:03Z</time>
      </trkpt>
      <trkpt lat="45.30345" lon="6.95088">
        <ele>1744.5974</ele>
        <time>2015-08-23T14:52:08Z</time>
      </trkpt>
      <trkpt lat="45.30341" lon="6.95075">
        <ele>1743.3733</ele>
        <time>2015-08-23T14:52:18Z</time>
      </trkpt>
      <trkpt lat="45.30339" lon="6.95066">
        <ele>1743.3733</ele>
        <time>2015-08-23T14:52:23Z</time>
      </trkpt>
      <trkpt lat="45.30336" lon="6.95054">
        <ele>1742.1835</ele>
        <time>2015-08-23T14:52:33Z</time>
      </trkpt>
      <trkpt lat="45.30335" lon="6.95048">
        <ele>1742.1835</ele>
        <time>2015-08-23T14:52:38Z</time>
      </trkpt>
      <trkpt lat="45.30331" lon="6.95029">
        <ele>1740.989</ele>
        <time>2015-08-23T14:52:53Z</time>
      </trkpt>
      <trkpt lat="45.3033" lon="6.95022">
        <ele>1740.989</ele>
        <time>2015-08-23T14:52:58Z</time>
      </trkpt>
      <trkpt lat="45.3033" lon="6.95009">
        <ele>1739.7537</ele>
        <time>2015-08-23T14:53:08Z</time>
      </trkpt>
      <trkpt lat="45.3033" lon="6.95003">
        <ele>1739.7537</ele>
        <time>2015-08-23T14:53:13Z</time>
      </trkpt>
      <trkpt lat="45.30332" lon="6.94996">
        <ele>1738.6744</ele>
        <time>2015-08-23T14:53:23Z</time>
      </trkpt>
      <trkpt lat="45.30331" lon="6.94993">
        <ele>1738.6744</ele>
        <time>2015-08-23T14:53:28Z</time>
      </trkpt>
      <trkpt lat="45.30333" lon="6.94983">
        <ele>1737.7744</ele>
        <time>2015-08-23T14:53:38Z</time>
      </trkpt>
      <trkpt lat="45.30332" lon="6.94978">
        <ele>1737.7744</ele>
        <time>2015-08-23T14:53:43Z</time>
      </trkpt>
      <trkpt lat="45.3033" lon="6.94966">
        <ele>1736.8441</ele>
        <time>2015-08-23T14:53:53Z</time>
      </trkpt>
      <trkpt lat="45.30328" lon="6.94962">
        <ele>1736.8441</ele>
        <time>2015-08-23T14:53:58Z</time>
      </trkpt>
      <trkpt lat="45.30328" lon="6.94952">
        <ele>1736.1072</ele>
        <time>2015-08-23T14:54:08Z</time>
      </trkpt>
      <trkpt lat="45.30327" lon="6.94949">
        <ele>1736.1072</ele>
        <time>2015-08-23T14:54:13Z</time>
      </trkpt>
      <trkpt lat="45.30322" lon="6.9494">
        <ele>1735.7266</ele>
        <time>2015-08-23T14:54:28Z</time>
      </trkpt>
      <trkpt lat="45.3032" lon="6.94935">
        <ele>1735.7266</ele>
        <time>2015-08-23T14:54:33Z</time>
      </trkpt>
      <trkpt lat="45.30316" lon="6.94927">
        <ele>1735.7517</ele>
        <time>2015-08-23T14:54:43Z</time>
      </trkpt>
      <trkpt lat="45.30314" lon="6.94923">
        <ele>1735.7517</ele>
        <time>2015-08-23T14:54:48Z</time>
      </trkpt>
      <trkpt lat="45.30309" lon="6.94917">
        <ele>1736.1401</ele>
        <time>2015-08-23T14:54:58Z</time>
      </trkpt>
      <trkpt lat="45.30307" lon="6.94915">
        <ele>1736.1401</ele>
        <time>2015-08-23T14:55:03Z</time>
      </trkpt>
      <trkpt lat="45.30304" lon="6.94909">
        <ele>1736.1401</ele>
        <time>2015-08-23T14:55:13Z</time>
      </trkpt>
      <trkpt lat="45.30302" lon="6.94907">
        <ele>1737.0535</ele>
        <time>2015-08-23T14:55:18Z</time>
      </trkpt>
      <trkpt lat="45.30295" lon="6.94904">
        <ele>1737.0535</ele>
        <time>2015-08-23T14:55:28Z</time>
      </trkpt>
      <trkpt lat="45.30289" lon="6.94902">
        <ele>1738.3945</ele>
        <time>2015-08-23T14:55:33Z</time>
      </trkpt>
      <trkpt lat="45.30282" lon="6.94901">
        <ele>1738.3945</ele>
        <time>2015-08-23T14:55:43Z</time>
      </trkpt>
      <trkpt lat="45.30278" lon="6.94899">
        <ele>1739.928</ele>
        <time>2015-08-23T14:55:48Z</time>
      </trkpt>
      <trkpt lat="45.30272" lon="6.94897">
        <ele>1739.928</ele>
        <time>2015-08-23T14:55:58Z</time>
      </trkpt>
      <trkpt lat="45.3027" lon="6.94898">
        <ele>1739.928</ele>
        <time>2015-08-23T14:56:03Z</time>
      </trkpt>
      <trkpt lat="45.30268" lon="6.94895">
        <ele>1741.4784</ele>
        <time>2015-08-23T14:56:18Z</time>
      </trkpt>
      <trkpt lat="45.30268" lon="6.9489">
        <ele>1741.4784</ele>
        <time>2015-08-23T14:56:23Z</time>
      </trkpt>
      <trkpt lat="45.30269" lon="6.94898">
        <ele>1741.4784</ele>
        <time>2015-08-23T14:56:33Z</time>
      </trkpt>
      <trkpt lat="45.30269" lon="6.94897">
        <ele>1741.4784</ele>
        <time>2015-08-23T14:56:38Z</time>
      </trkpt>
      <trkpt lat="45.30268" lon="6.94891">
        <ele>1742.9838</ele>
        <time>2015-08-23T14:56:48Z</time>
      </trkpt>
      <trkpt lat="45.30272" lon="6.94888">
        <ele>1742.9838</ele>
        <time>2015-08-23T14:56:53Z</time>
      </trkpt>
      <trkpt lat="45.30274" lon="6.94887">
        <ele>1742.9838</ele>
        <time>2015-08-23T14:57:03Z</time>
      </trkpt>
      <trkpt lat="45.30273" lon="6.94883">
        <ele>1744.4011</ele>
        <time>2015-08-23T14:57:08Z</time>
      </trkpt>
      <trkpt lat="45.30269" lon="6.94882">
        <ele>1744.4011</ele>
        <time>2015-08-23T14:57:18Z</time>
      </trkpt>
      <trkpt lat="45.30266" lon="6.94881">
        <ele>1744.4011</ele>
        <time>2015-08-23T14:57:23Z</time>
      </trkpt>
      <trkpt lat="45.30265" lon="6.94878">
        <ele>1744.4011</ele>
        <time>2015-08-23T14:57:33Z</time>
      </trkpt>
      <trkpt lat="45.30265" lon="6.94873">
        <ele>1745.8641</ele>
        <time>2015-08-23T14:57:38Z</time>
      </trkpt>
      <trkpt lat="45.30261" lon="6.94861">
        <ele>1745.8641</ele>
        <time>2015-08-23T14:57:48Z</time>
      </trkpt>
      <trkpt lat="45.30259" lon="6.94858">
        <ele>1747.2941</ele>
        <time>2015-08-23T14:57:53Z</time>
      </trkpt>
      <trkpt lat="45.30256" lon="6.94855">
        <ele>1747.2941</ele>
        <time>2015-08-23T14:58:03Z</time>
      </trkpt>
      <trkpt lat="45.30257" lon="6.94854">
        <ele>1747.2941</ele>
        <time>2015-08-23T14:58:08Z</time>
      </trkpt>
      <trkpt lat="45.3026" lon="6.94854">
        <ele>1747.2941</ele>
        <time>2015-08-23T14:58:18Z</time>
      </trkpt>
      <trkpt lat="45.30262" lon="6.94853">
        <ele>1748.6329</ele>
        <time>2015-08-23T14:58:23Z</time>
      </trkpt>
      <trkpt lat="45.30261" lon="6.94854">
        <ele>1748.6329</ele>
        <time>2015-08-23T14:58:38Z</time>
      </trkpt>
      <trkpt lat="45.30261" lon="6.94852">
        <ele>1748.6329</ele>
        <time>2015-08-23T14:58:43Z</time>
      </trkpt>
      <trkpt lat="45.3026" lon="6.94852">
        <ele>1748.6329</ele>
        <time>2015-08-23T14:58:53Z</time>
      </trkpt>
      <trkpt lat="45.3026" lon="6.94852">
        <ele>1748.6329</ele>
        <time>2015-08-23T14:58:58Z</time>
      </trkpt>
      <trkpt lat="45.3026" lon="6.94853">
        <ele>1748.6329</ele>
        <time>2015-08-23T14:59:08Z</time>
      </trkpt>
      <trkpt lat="45.3026" lon="6.94853">
        <ele>1748.6329</ele>
        <time>2015-08-23T14:59:13Z</time>
      </trkpt>
      <trkpt lat="45.3026" lon="6.94855">
        <ele>1748.6329</ele>
        <time>2015-08-23T14:59:23Z</time>
      </trkpt>
      <trkpt lat="45.30259" lon="6.94855">
        <ele>1748.6329</ele>
        <time>2015-08-23T14:59:28Z</time>
      </trkpt>
      <trkpt lat="45.30259" lon="6.94856">
        <ele>1748.6329</ele>
        <time>2015-08-23T14:59:38Z</time>
      </trkpt>
      <trkpt lat="45.30258" lon="6.94857">
        <ele>1748.6329</ele>
        <time>2015-08-23T14:59:43Z</time>
      </trkpt>
      <trkpt lat="45.30257" lon="6.94857">
        <ele>1748.6329</ele>
        <time>2015-08-23T14:59:53Z</time>
      </trkpt>
      <trkpt lat="45.30257" lon="6.94858">
        <ele>1750.1871</ele>
        <time>2015-08-23T14:59:58Z</time>
      </trkpt>
      <trkpt lat="45.30256" lon="6.94852">
        <ele>1750.1871</ele>
        <time>2015-08-23T15:00:08Z</time>
      </trkpt>
      <trkpt lat="45.30255" lon="6.94844">
        <ele>1751.8081</ele>
        <time>2015-08-23T15:00:13Z</time>
      </trkpt>
      <trkpt lat="45.30262" lon="6.94836">
        <ele>1753.17</ele>
        <time>2015-08-23T15:00:23Z</time>
      </trkpt>
      <trkpt lat="45.30262" lon="6.94835">
        <ele>1753.17</ele>
        <time>2015-08-23T15:00:28Z</time>
      </trkpt>
      <trkpt lat="45.30265" lon="6.94833">
        <ele>1753.17</ele>
        <time>2015-08-23T15:00:38Z</time>
      </trkpt>
      <trkpt lat="45.30265" lon="6.94835">
        <ele>1753.17</ele>
        <time>2015-08-23T15:00:43Z</time>
      </trkpt>
      <trkpt lat="45.30262" lon="6.94833">
        <ele>1754.3325</ele>
        <time>2015-08-23T15:00:58Z</time>
      </trkpt>
      <trkpt lat="45.30262" lon="6.94834">
        <ele>1754.3325</ele>
        <time>2015-08-23T15:01:03Z</time>
      </trkpt>
      <trkpt lat="45.30267" lon="6.94835">
        <ele>1754.3325</ele>
        <time>2015-08-23T15:01:13Z</time>
      </trkpt>
      <trkpt lat="45.3027" lon="6.94835">
        <ele>1755.4376</ele>
        <time>2015-08-23T15:01:18Z</time>
      </trkpt>
      <trkpt lat="45.30277" lon="6.94826">
        <ele>1756.2712</ele>
        <time>2015-08-23T15:01:28Z</time>
      </trkpt>
      <trkpt lat="45.30281" lon="6.94825">
        <ele>1756.2712</ele>
        <time>2015-08-23T15:01:33Z</time>
      </trkpt>
      <trkpt lat="45.30286" lon="6.94821">
        <ele>1757.0682</ele>
        <time>2015-08-23T15:01:43Z</time>
      </trkpt>
      <trkpt lat="45.30289" lon="6.94817">
        <ele>1757.0682</ele>
        <time>2015-08-23T15:01:48Z</time>
      </trkpt>
      <trkpt lat="45.30292" lon="6.94811">
        <ele>1757.7435</ele>
        <time>2015-08-23T15:01:58Z</time>
      </trkpt>
      <trkpt lat="45.30293" lon="6.94807">
        <ele>1757.7435</ele>
        <time>2015-08-23T15:02:03Z</time>
      </trkpt>
      <trkpt lat="45.30294" lon="6.94811">
        <ele>1757.7435</ele>
        <time>2015-08-23T15:02:13Z</time>
      </trkpt>
      <trkpt lat="45.30294" lon="6.94812">
        <ele>1757.7435</ele>
        <time>2015-08-23T15:02:18Z</time>
      </trkpt>
      <trkpt lat="45.30293" lon="6.94806">
        <ele>1758.7521</ele>
        <time>2015-08-23T15:02:28Z</time>
      </trkpt>
      <trkpt lat="45.30296" lon="6.94804">
        <ele>1758.7521</ele>
        <time>2015-08-23T15:02:33Z</time>
      </trkpt>
      <trkpt lat="45.3029" lon="6.94803">
        <ele>1759.765</ele>
        <time>2015-08-23T15:02:43Z</time>
      </trkpt>
      <trkpt lat="45.3029" lon="6.948">
        <ele>1759.765</ele>
        <time>2015-08-23T15:02:48Z</time>
      </trkpt>
      <trkpt lat="45.30294" lon="6.94798">
        <ele>1759.765</ele>
        <time>2015-08-23T15:03:03Z</time>
      </trkpt>
      <trkpt lat="45.30299" lon="6.94797">
        <ele>1760.6794</ele>
        <time>2015-08-23T15:03:08Z</time>
      </trkpt>
      <trkpt lat="45.30303" lon="6.94791">
        <ele>1760.6794</ele>
        <time>2015-08-23T15:03:18Z</time>
      </trkpt>
      <trkpt lat="45.30303" lon="6.94787">
        <ele>1761.7173</ele>
        <time>2015-08-23T15:03:23Z</time>
      </trkpt>
      <trkpt lat="45.30303" lon="6.94785">
        <ele>1761.7173</ele>
        <time>2015-08-23T15:03:33Z</time>
      </trkpt>
      <trkpt lat="45.30305" lon="6.94779">
        <ele>1761.7173</ele>
        <time>2015-08-23T15:05:23Z</time>
      </trkpt>
      <trkpt lat="45.30308" lon="6.94772">
        <ele>1763.9631</ele>
        <time>2015-08-23T15:05:28Z</time>
      </trkpt>
      <trkpt lat="45.30308" lon="6.94771">
        <ele>1763.9631</ele>
        <time>2015-08-23T15:05:38Z</time>
      </trkpt>
      <trkpt lat="45.30307" lon="6.94771">
        <ele>1763.9631</ele>
        <time>2015-08-23T15:05:43Z</time>
      </trkpt>
      <trkpt lat="45.30307" lon="6.94771">
        <ele>1763.9631</ele>
        <time>2015-08-23T15:05:48Z</time>
      </trkpt>
      <trkpt lat="45.30308" lon="6.94771">
        <ele>1763.9631</ele>
        <time>2015-08-23T15:05:53Z</time>
      </trkpt>
      <trkpt lat="45.30308" lon="6.94771">
        <ele>1763.9631</ele>
        <time>2015-08-23T15:05:58Z</time>
      </trkpt>
      <trkpt lat="45.30308" lon="6.94772">
        <ele>1763.9631</ele>
        <time>2015-08-23T15:06:03Z</time>
      </trkpt>
      <trkpt lat="45.30308" lon="6.94772">
        <ele>1763.9631</ele>
        <time>2015-08-23T15:06:08Z</time>
      </trkpt>
      <trkpt lat="45.30308" lon="6.94771">
        <ele>1763.9631</ele>
        <time>2015-08-23T15:06:13Z</time>
      </trkpt>
      <trkpt lat="45.30312" lon="6.94766">
        <ele>1763.9631</ele>
        <time>2015-08-23T15:06:23Z</time>
      </trkpt>
      <trkpt lat="45.30313" lon="6.94765">
        <ele>1766.415</ele>
        <time>2015-08-23T15:06:28Z</time>
      </trkpt>
      <trkpt lat="45.30316" lon="6.94761">
        <ele>1766.415</ele>
        <time>2015-08-23T15:06:38Z</time>
      </trkpt>
      <trkpt lat="45.30316" lon="6.9476">
        <ele>1766.415</ele>
        <time>2015-08-23T15:06:43Z</time>
      </trkpt>
      <trkpt lat="45.30319" lon="6.94757">
        <ele>1766.415</ele>
        <time>2015-08-23T15:06:53Z</time>
      </trkpt>
      <trkpt lat="45.3032" lon="6.94746">
        <ele>1769.1245</ele>
        <time>2015-08-23T15:07:08Z</time>
      </trkpt>
      <trkpt lat="45.30319" lon="6.94738">
        <ele>1769.1245</ele>
        <time>2015-08-23T15:07:13Z</time>
      </trkpt>
      <trkpt lat="45.3032" lon="6.94731">
        <ele>1771.8934</ele>
        <time>2015-08-23T15:07:23Z</time>
      </trkpt>
      <trkpt lat="45.3032" lon="6.9473">
        <ele>1771.8934</ele>
        <time>2015-08-23T15:07:28Z</time>
      </trkpt>
      <trkpt lat="45.30322" lon="6.94726">
        <ele>1771.8934</ele>
        <time>2015-08-23T15:07:38Z</time>
      </trkpt>
      <trkpt lat="45.30322" lon="6.94723">
        <ele>1771.8934</ele>
        <time>2015-08-23T15:07:53Z</time>
      </trkpt>
      <trkpt lat="45.30322" lon="6.94723">
        <ele>1771.8934</ele>
        <time>2015-08-23T15:07:58Z</time>
      </trkpt>
      <trkpt lat="45.30322" lon="6.94717">
        <ele>1774.7255</ele>
        <time>2015-08-23T15:08:13Z</time>
      </trkpt>
      <trkpt lat="45.30321" lon="6.94712">
        <ele>1774.7255</ele>
        <time>2015-08-23T15:08:18Z</time>
      </trkpt>
      <trkpt lat="45.30321" lon="6.94712">
        <ele>1774.7255</ele>
        <time>2015-08-23T15:08:28Z</time>
      </trkpt>
      <trkpt lat="45.30325" lon="6.94709">
        <ele>1774.7255</ele>
        <time>2015-08-23T15:08:43Z</time>
      </trkpt>
      <trkpt lat="45.30325" lon="6.94709">
        <ele>1774.7255</ele>
        <time>2015-08-23T15:08:48Z</time>
      </trkpt>
      <trkpt lat="45.30326" lon="6.94704">
        <ele>1778.1284</ele>
        <time>2015-08-23T15:09:13Z</time>
      </trkpt>
      <trkpt lat="45.30328" lon="6.94702">
        <ele>1778.1284</ele>
        <time>2015-08-23T15:09:18Z</time>
      </trkpt>
      <trkpt lat="45.30334" lon="6.94684">
        <ele>1781.5767</ele>
        <time>2015-08-23T15:09:28Z</time>
      </trkpt>
      <trkpt lat="45.30335" lon="6.94682">
        <ele>1781.5767</ele>
        <time>2015-08-23T15:09:33Z</time>
      </trkpt>
      <trkpt lat="45.30335" lon="6.94682">
        <ele>1781.5767</ele>
        <time>2015-08-23T15:09:43Z</time>
      </trkpt>
      <trkpt lat="45.30337" lon="6.9467">
        <ele>1785.0447</ele>
        <time>2015-08-23T15:09:48Z</time>
      </trkpt>
      <trkpt lat="45.30341" lon="6.94646">
        <ele>1788.2781</ele>
        <time>2015-08-23T15:10:03Z</time>
      </trkpt>
      <trkpt lat="45.30341" lon="6.94645">
        <ele>1788.2781</ele>
        <time>2015-08-23T15:10:23Z</time>
      </trkpt>
      <trkpt lat="45.30342" lon="6.94638">
        <ele>1788.2781</ele>
        <time>2015-08-23T15:10:33Z</time>
      </trkpt>
      <trkpt lat="45.30343" lon="6.94636">
        <ele>1788.2781</ele>
        <time>2015-08-23T15:10:38Z</time>
      </trkpt>
      <trkpt lat="45.30342" lon="6.94632">
        <ele>1791.4456</ele>
        <time>2015-08-23T15:10:48Z</time>
      </trkpt>
      <trkpt lat="45.30341" lon="6.94628">
        <ele>1791.4456</ele>
        <time>2015-08-23T15:10:53Z</time>
      </trkpt>
      <trkpt lat="45.30341" lon="6.94627">
        <ele>1791.4456</ele>
        <time>2015-08-23T15:11:03Z</time>
      </trkpt>
      <trkpt lat="45.3034" lon="6.94625">
        <ele>1791.4456</ele>
        <time>2015-08-23T15:11:08Z</time>
      </trkpt>
      <trkpt lat="45.30339" lon="6.94623">
        <ele>1791.4456</ele>
        <time>2015-08-23T15:11:18Z</time>
      </trkpt>
      <trkpt lat="45.30339" lon="6.94623">
        <ele>1791.4456</ele>
        <time>2015-08-23T15:11:38Z</time>
      </trkpt>
      <trkpt lat="45.30339" lon="6.94616">
        <ele>1794.7183</ele>
        <time>2015-08-23T15:11:53Z</time>
      </trkpt>
      <trkpt lat="45.30339" lon="6.94616">
        <ele>1794.7183</ele>
        <time>2015-08-23T15:11:58Z</time>
      </trkpt>
      <trkpt lat="45.30339" lon="6.94602">
        <ele>1797.7933</ele>
        <time>2015-08-23T15:12:08Z</time>
      </trkpt>
      <trkpt lat="45.30339" lon="6.94601">
        <ele>1797.7933</ele>
        <time>2015-08-23T15:12:13Z</time>
      </trkpt>
      <trkpt lat="45.3034" lon="6.94599">
        <ele>1797.7933</ele>
        <time>2015-08-23T15:12:23Z</time>
      </trkpt>
      <trkpt lat="45.30341" lon="6.946">
        <ele>1797.7933</ele>
        <time>2015-08-23T15:12:28Z</time>
      </trkpt>
      <trkpt lat="45.30343" lon="6.94604">
        <ele>1797.7933</ele>
        <time>2015-08-23T15:12:38Z</time>
      </trkpt>
      <trkpt lat="45.30343" lon="6.94604">
        <ele>1797.7933</ele>
        <time>2015-08-23T15:12:43Z</time>
      </trkpt>
      <trkpt lat="45.30344" lon="6.94608">
        <ele>1801.5726</ele>
        <time>2015-08-23T15:12:53Z</time>
      </trkpt>
      <trkpt lat="45.30344" lon="6.94609">
        <ele>1801.5726</ele>
        <time>2015-08-23T15:12:58Z</time>
      </trkpt>
      <trkpt lat="45.30345" lon="6.94609">
        <ele>1801.5726</ele>
        <time>2015-08-23T15:13:08Z</time>
      </trkpt>
      <trkpt lat="45.30345" lon="6.94614">
        <ele>1801.5726</ele>
        <time>2015-08-23T15:13:23Z</time>
      </trkpt>
      <trkpt lat="45.30346" lon="6.94619">
        <ele>1801.5726</ele>
        <time>2015-08-23T15:13:28Z</time>
      </trkpt>
      <trkpt lat="45.30346" lon="6.94622">
        <ele>1805.9966</ele>
        <time>2015-08-23T15:13:38Z</time>
      </trkpt>
      <trkpt lat="45.30348" lon="6.94623">
        <ele>1805.9966</ele>
        <time>2015-08-23T15:13:43Z</time>
      </trkpt>
      <trkpt lat="45.30354" lon="6.94622">
        <ele>1805.9966</ele>
        <time>2015-08-23T15:13:58Z</time>
      </trkpt>
      <trkpt lat="45.30355" lon="6.94623">
        <ele>1805.9966</ele>
        <time>2015-08-23T15:14:03Z</time>
      </trkpt>
      <trkpt lat="45.30356" lon="6.94623">
        <ele>1810.403</ele>
        <time>2015-08-23T15:14:13Z</time>
      </trkpt>
      <trkpt lat="45.30356" lon="6.94624">
        <ele>1810.403</ele>
        <time>2015-08-23T15:14:18Z</time>
      </trkpt>
      <trkpt lat="45.3036" lon="6.94628">
        <ele>1810.403</ele>
        <time>2015-08-23T15:14:28Z</time>
      </trkpt>
      <trkpt lat="45.30361" lon="6.94629">
        <ele>1810.403</ele>
        <time>2015-08-23T15:14:33Z</time>
      </trkpt>
      <trkpt lat="45.30361" lon="6.94629">
        <ele>1810.403</ele>
        <time>2015-08-23T15:14:43Z</time>
      </trkpt>
      <trkpt lat="45.30365" lon="6.94638">
        <ele>1814.7549</ele>
        <time>2015-08-23T15:14:58Z</time>
      </trkpt>
      <trkpt lat="45.30365" lon="6.94638">
        <ele>1814.7549</ele>
        <time>2015-08-23T15:15:03Z</time>
      </trkpt>
      <trkpt lat="45.30366" lon="6.94641">
        <ele>1814.7549</ele>
        <time>2015-08-23T15:15:33Z</time>
      </trkpt>
      <trkpt lat="45.30367" lon="6.94648">
        <ele>1814.7549</ele>
        <time>2015-08-23T15:15:43Z</time>
      </trkpt>
      <trkpt lat="45.30368" lon="6.94649">
        <ele>1814.7549</ele>
        <time>2015-08-23T15:15:48Z</time>
      </trkpt>
      <trkpt lat="45.30369" lon="6.94651">
        <ele>1819.7682</ele>
        <time>2015-08-23T15:15:58Z</time>
      </trkpt>
      <trkpt lat="45.30374" lon="6.94654">
        <ele>1819.7682</ele>
        <time>2015-08-23T15:16:03Z</time>
      </trkpt>
      <trkpt lat="45.30376" lon="6.94661">
        <ele>1824.2452</ele>
        <time>2015-08-23T15:16:13Z</time>
      </trkpt>
      <trkpt lat="45.30378" lon="6.94666">
        <ele>1824.2452</ele>
        <time>2015-08-23T15:16:18Z</time>
      </trkpt>
      <trkpt lat="45.30378" lon="6.94666">
        <ele>1824.2452</ele>
        <time>2015-08-23T15:16:33Z</time>
      </trkpt>
      <trkpt lat="45.30378" lon="6.94669">
        <ele>1824.2452</ele>
        <time>2015-08-23T15:16:48Z</time>
      </trkpt>
      <trkpt lat="45.30378" lon="6.94669">
        <ele>1824.2452</ele>
        <time>2015-08-23T15:16:53Z</time>
      </trkpt>
      <trkpt lat="45.30379" lon="6.94674">
        <ele>1828.4902</ele>
        <time>2015-08-23T15:17:03Z</time>
      </trkpt>
      <trkpt lat="45.30379" lon="6.94674">
        <ele>1828.4902</ele>
        <time>2015-08-23T15:17:08Z</time>
      </trkpt>
      <trkpt lat="45.30379" lon="6.94691">
        <ele>1832.2244</ele>
        <time>2015-08-23T15:17:18Z</time>
      </trkpt>
      <trkpt lat="45.3038" lon="6.94695">
        <ele>1832.2244</ele>
        <time>2015-08-23T15:17:23Z</time>
      </trkpt>
      <trkpt lat="45.30381" lon="6.94705">
        <ele>1835.7526</ele>
        <time>2015-08-23T15:17:33Z</time>
      </trkpt>
      <trkpt lat="45.30383" lon="6.94708">
        <ele>1835.7526</ele>
        <time>2015-08-23T15:17:38Z</time>
      </trkpt>
      <trkpt lat="45.30387" lon="6.94711">
        <ele>1835.7526</ele>
        <time>2015-08-23T15:17:48Z</time>
      </trkpt>
      <trkpt lat="45.30389" lon="6.94711">
        <ele>1838.9117</ele>
        <time>2015-08-23T15:17:53Z</time>
      </trkpt>
      <trkpt lat="45.30389" lon="6.94711">
        <ele>1838.9117</ele>
        <time>2015-08-23T15:18:03Z</time>
      </trkpt>
      <trkpt lat="45.3039" lon="6.94711">
        <ele>1838.9117</ele>
        <time>2015-08-23T15:20:58Z</time>
      </trkpt>
      <trkpt lat="45.3039" lon="6.94712">
        <ele>1838.9117</ele>
        <time>2015-08-23T15:21:03Z</time>
      </trkpt>
      <trkpt lat="45.30389" lon="6.94712">
        <ele>1838.9117</ele>
        <time>2015-08-23T15:21:13Z</time>
      </trkpt>
      <trkpt lat="45.30389" lon="6.94712">
        <ele>1838.9117</ele>
        <time>2015-08-23T15:22:08Z</time>
      </trkpt>
      <trkpt lat="45.30389" lon="6.94711">
        <ele>1838.9117</ele>
        <time>2015-08-23T15:22:18Z</time>
      </trkpt>
      <trkpt lat="45.30391" lon="6.94709">
        <ele>1838.9117</ele>
        <time>2015-08-23T15:22:23Z</time>
      </trkpt>
      <trkpt lat="45.30394" lon="6.94705">
        <ele>1842.9066</ele>
        <time>2015-08-23T15:22:33Z</time>
      </trkpt>
      <trkpt lat="45.30396" lon="6.94702">
        <ele>1842.9066</ele>
        <time>2015-08-23T15:22:38Z</time>
      </trkpt>
      <trkpt lat="45.30397" lon="6.947">
        <ele>1842.9066</ele>
        <time>2015-08-23T15:22:48Z</time>
      </trkpt>
      <trkpt lat="45.30397" lon="6.94699">
        <ele>1842.9066</ele>
        <time>2015-08-23T15:22:53Z</time>
      </trkpt>
      <trkpt lat="45.30397" lon="6.94699">
        <ele>1842.9066</ele>
        <time>2015-08-23T15:23:03Z</time>
      </trkpt>
      <trkpt lat="45.30398" lon="6.94697">
        <ele>1842.9066</ele>
        <time>2015-08-23T15:23:08Z</time>
      </trkpt>
      <trkpt lat="45.30398" lon="6.94697">
        <ele>1842.9066</ele>
        <time>2015-08-23T15:23:18Z</time>
      </trkpt>
      <trkpt lat="45.30401" lon="6.94698">
        <ele>1847.5542</ele>
        <time>2015-08-23T15:24:08Z</time>
      </trkpt>
      <trkpt lat="45.30406" lon="6.94701">
        <ele>1847.5542</ele>
        <time>2015-08-23T15:24:23Z</time>
      </trkpt>
      <trkpt lat="45.30407" lon="6.94702">
        <ele>1847.5542</ele>
        <time>2015-08-23T15:24:28Z</time>
      </trkpt>
      <trkpt lat="45.30408" lon="6.94705">
        <ele>1847.5542</ele>
        <time>2015-08-23T15:24:38Z</time>
      </trkpt>
      <trkpt lat="45.30412" lon="6.94709">
        <ele>1851.7756</ele>
        <time>2015-08-23T15:24:43Z</time>
      </trkpt>
      <trkpt lat="45.30417" lon="6.94715">
        <ele>1851.7756</ele>
        <time>2015-08-23T15:24:53Z</time>
      </trkpt>
      <trkpt lat="45.30417" lon="6.94721">
        <ele>1855.5239</ele>
        <time>2015-08-23T15:24:58Z</time>
      </trkpt>
      <trkpt lat="45.3042" lon="6.94724">
        <ele>1855.5239</ele>
        <time>2015-08-23T15:25:08Z</time>
      </trkpt>
      <trkpt lat="45.30421" lon="6.94723">
        <ele>1855.5239</ele>
        <time>2015-08-23T15:25:13Z</time>
      </trkpt>
      <trkpt lat="45.30422" lon="6.94718">
        <ele>1855.5239</ele>
        <time>2015-08-23T15:25:23Z</time>
      </trkpt>
      <trkpt lat="45.30422" lon="6.94714">
        <ele>1859.0884</ele>
        <time>2015-08-23T15:25:28Z</time>
      </trkpt>
      <trkpt lat="45.30423" lon="6.94715">
        <ele>1859.0884</ele>
        <time>2015-08-23T15:25:43Z</time>
      </trkpt>
      <trkpt lat="45.30422" lon="6.9471">
        <ele>1859.0884</ele>
        <time>2015-08-23T15:25:48Z</time>
      </trkpt>
      <trkpt lat="45.30421" lon="6.947">
        <ele>1862.4785</ele>
        <time>2015-08-23T15:25:58Z</time>
      </trkpt>
      <trkpt lat="45.30421" lon="6.94695">
        <ele>1862.4785</ele>
        <time>2015-08-23T15:26:03Z</time>
      </trkpt>
      <trkpt lat="45.30421" lon="6.94684">
        <ele>1865.5597</ele>
        <time>2015-08-23T15:26:13Z</time>
      </trkpt>
      <trkpt lat="45.30421" lon="6.94679">
        <ele>1865.5597</ele>
        <time>2015-08-23T15:26:18Z</time>
      </trkpt>
      <trkpt lat="45.30421" lon="6.94672">
        <ele>1865.5597</ele>
        <time>2015-08-23T15:26:28Z</time>
      </trkpt>
      <trkpt lat="45.3042" lon="6.94668">
        <ele>1868.3813</ele>
        <time>2015-08-23T15:26:33Z</time>
      </trkpt>
      <trkpt lat="45.3042" lon="6.94659">
        <ele>1868.3813</ele>
        <time>2015-08-23T15:26:43Z</time>
      </trkpt>
      <trkpt lat="45.30419" lon="6.94655">
        <ele>1870.9324</ele>
        <time>2015-08-23T15:26:48Z</time>
      </trkpt>
      <trkpt lat="45.30418" lon="6.94647">
        <ele>1870.9324</ele>
        <time>2015-08-23T15:26:58Z</time>
      </trkpt>
      <trkpt lat="45.30418" lon="6.94644">
        <ele>1870.9324</ele>
        <time>2015-08-23T15:27:03Z</time>
      </trkpt>
      <trkpt lat="45.30418" lon="6.94634">
        <ele>1873.6504</ele>
        <time>2015-08-23T15:27:13Z</time>
      </trkpt>
      <trkpt lat="45.30418" lon="6.94629">
        <ele>1873.6504</ele>
        <time>2015-08-23T15:27:18Z</time>
      </trkpt>
      <trkpt lat="45.30415" lon="6.94618">
        <ele>1876.0181</ele>
        <time>2015-08-23T15:27:33Z</time>
      </trkpt>
      <trkpt lat="45.30412" lon="6.94614">
        <ele>1876.0181</ele>
        <time>2015-08-23T15:27:38Z</time>
      </trkpt>
      <trkpt lat="45.3041" lon="6.94606">
        <ele>1878.1195</ele>
        <time>2015-08-23T15:27:48Z</time>
      </trkpt>
      <trkpt lat="45.3041" lon="6.94604">
        <ele>1878.1195</ele>
        <time>2015-08-23T15:27:53Z</time>
      </trkpt>
      <trkpt lat="45.30409" lon="6.94597">
        <ele>1878.1195</ele>
        <time>2015-08-23T15:28:03Z</time>
      </trkpt>
      <trkpt lat="45.30409" lon="6.94593">
        <ele>1880.3071</ele>
        <time>2015-08-23T15:28:08Z</time>
      </trkpt>
      <trkpt lat="45.3041" lon="6.94585">
        <ele>1880.3071</ele>
        <time>2015-08-23T15:28:18Z</time>
      </trkpt>
      <trkpt lat="45.30411" lon="6.94585">
        <ele>1880.3071</ele>
        <time>2015-08-23T15:28:23Z</time>
      </trkpt>
      <trkpt lat="45.30414" lon="6.94587">
        <ele>1882.2014</ele>
        <time>2015-08-23T15:28:33Z</time>
      </trkpt>
      <trkpt lat="45.30414" lon="6.94587">
        <ele>1882.2014</ele>
        <time>2015-08-23T15:28:38Z</time>
      </trkpt>
      <trkpt lat="45.30416" lon="6.94584">
        <ele>1882.2014</ele>
        <time>2015-08-23T15:28:48Z</time>
      </trkpt>
      <trkpt lat="45.30418" lon="6.94589">
        <ele>1882.2014</ele>
        <time>2015-08-23T15:28:53Z</time>
      </trkpt>
      <trkpt lat="45.30418" lon="6.94592">
        <ele>1883.8551</ele>
        <time>2015-08-23T15:29:08Z</time>
      </trkpt>
      <trkpt lat="45.30417" lon="6.94589">
        <ele>1883.8551</ele>
        <time>2015-08-23T15:29:13Z</time>
      </trkpt>
      <trkpt lat="45.30419" lon="6.94584">
        <ele>1883.8551</ele>
        <time>2015-08-23T15:29:23Z</time>
      </trkpt>
      <trkpt lat="45.30419" lon="6.94581">
        <ele>1883.8551</ele>
        <time>2015-08-23T15:29:28Z</time>
      </trkpt>
      <trkpt lat="45.30419" lon="6.94575">
        <ele>1885.4907</ele>
        <time>2015-08-23T15:29:38Z</time>
      </trkpt>
      <trkpt lat="45.3042" lon="6.94573">
        <ele>1885.4907</ele>
        <time>2015-08-23T15:29:43Z</time>
      </trkpt>
      <trkpt lat="45.30421" lon="6.9457">
        <ele>1885.4907</ele>
        <time>2015-08-23T15:29:53Z</time>
      </trkpt>
      <trkpt lat="45.3042" lon="6.94567">
        <ele>1885.4907</ele>
        <time>2015-08-23T15:29:58Z</time>
      </trkpt>
      <trkpt lat="45.30419" lon="6.94558">
        <ele>1887.4877</ele>
        <time>2015-08-23T15:30:08Z</time>
      </trkpt>
      <trkpt lat="45.30419" lon="6.94553">
        <ele>1887.4877</ele>
        <time>2015-08-23T15:30:13Z</time>
      </trkpt>
      <trkpt lat="45.30419" lon="6.94551">
        <ele>1887.4877</ele>
        <time>2015-08-23T15:30:23Z</time>
      </trkpt>
      <trkpt lat="45.30419" lon="6.9455">
        <ele>1887.4877</ele>
        <time>2015-08-23T15:30:28Z</time>
      </trkpt>
      <trkpt lat="45.30421" lon="6.94544">
        <ele>1889.6199</ele>
        <time>2015-08-23T15:30:38Z</time>
      </trkpt>
      <trkpt lat="45.30422" lon="6.94541">
        <ele>1889.6199</ele>
        <time>2015-08-23T15:30:43Z</time>
      </trkpt>
      <trkpt lat="45.30421" lon="6.94536">
        <ele>1889.6199</ele>
        <time>2015-08-23T15:30:58Z</time>
      </trkpt>
      <trkpt lat="45.30422" lon="6.94535">
        <ele>1889.6199</ele>
        <time>2015-08-23T15:31:03Z</time>
      </trkpt>
      <trkpt lat="45.30425" lon="6.9453">
        <ele>1891.9949</ele>
        <time>2015-08-23T15:31:13Z</time>
      </trkpt>
      <trkpt lat="45.30425" lon="6.94527">
        <ele>1891.9949</ele>
        <time>2015-08-23T15:31:18Z</time>
      </trkpt>
      <trkpt lat="45.30423" lon="6.94522">
        <ele>1891.9949</ele>
        <time>2015-08-23T15:31:28Z</time>
      </trkpt>
      <trkpt lat="45.30425" lon="6.94521">
        <ele>1891.9949</ele>
        <time>2015-08-23T15:31:33Z</time>
      </trkpt>
      <trkpt lat="45.30429" lon="6.94515">
        <ele>1894.4233</ele>
        <time>2015-08-23T15:31:43Z</time>
      </trkpt>
      <trkpt lat="45.30428" lon="6.9451">
        <ele>1894.4233</ele>
        <time>2015-08-23T15:31:48Z</time>
      </trkpt>
      <trkpt lat="45.30427" lon="6.94506">
        <ele>1894.4233</ele>
        <time>2015-08-23T15:31:58Z</time>
      </trkpt>
      <trkpt lat="45.30427" lon="6.94505">
        <ele>1894.4233</ele>
        <time>2015-08-23T15:32:03Z</time>
      </trkpt>
      <trkpt lat="45.30426" lon="6.945">
        <ele>1896.7728</ele>
        <time>2015-08-23T15:32:13Z</time>
      </trkpt>
      <trkpt lat="45.30425" lon="6.94496">
        <ele>1896.7728</ele>
        <time>2015-08-23T15:32:18Z</time>
      </trkpt>
      <trkpt lat="45.30423" lon="6.94491">
        <ele>1896.7728</ele>
        <time>2015-08-23T15:32:28Z</time>
      </trkpt>
      <trkpt lat="45.30423" lon="6.94488">
        <ele>1898.9933</ele>
        <time>2015-08-23T15:32:33Z</time>
      </trkpt>
      <trkpt lat="45.30427" lon="6.94487">
        <ele>1898.9933</ele>
        <time>2015-08-23T15:32:43Z</time>
      </trkpt>
      <trkpt lat="45.30429" lon="6.94488">
        <ele>1898.9933</ele>
        <time>2015-08-23T15:32:48Z</time>
      </trkpt>
      <trkpt lat="45.30431" lon="6.94496">
        <ele>1901.269</ele>
        <time>2015-08-23T15:32:58Z</time>
      </trkpt>
      <trkpt lat="45.30433" lon="6.94498">
        <ele>1901.269</ele>
        <time>2015-08-23T15:33:03Z</time>
      </trkpt>
      <trkpt lat="45.30436" lon="6.94499">
        <ele>1901.269</ele>
        <time>2015-08-23T15:33:13Z</time>
      </trkpt>
      <trkpt lat="45.30437" lon="6.94497">
        <ele>1901.269</ele>
        <time>2015-08-23T15:33:18Z</time>
      </trkpt>
      <trkpt lat="45.30434" lon="6.94486">
        <ele>1903.5544</ele>
        <time>2015-08-23T15:33:28Z</time>
      </trkpt>
      <trkpt lat="45.30433" lon="6.94482">
        <ele>1903.5544</ele>
        <time>2015-08-23T15:33:33Z</time>
      </trkpt>
      <trkpt lat="45.30429" lon="6.94472">
        <ele>1906.0382</ele>
        <time>2015-08-23T15:33:48Z</time>
      </trkpt>
      <trkpt lat="45.30428" lon="6.94467">
        <ele>1906.0382</ele>
        <time>2015-08-23T15:33:53Z</time>
      </trkpt>
      <trkpt lat="45.30425" lon="6.94462">
        <ele>1906.0382</ele>
        <time>2015-08-23T15:34:03Z</time>
      </trkpt>
      <trkpt lat="45.30423" lon="6.9446">
        <ele>1908.3755</ele>
        <time>2015-08-23T15:34:08Z</time>
      </trkpt>
      <trkpt lat="45.3043" lon="6.9446">
        <ele>1908.3755</ele>
        <time>2015-08-23T15:34:18Z</time>
      </trkpt>
      <trkpt lat="45.30432" lon="6.94462">
        <ele>1908.3755</ele>
        <time>2015-08-23T15:34:23Z</time>
      </trkpt>
      <trkpt lat="45.30436" lon="6.94463">
        <ele>1910.4923</ele>
        <time>2015-08-23T15:34:33Z</time>
      </trkpt>
      <trkpt lat="45.30437" lon="6.9446">
        <ele>1910.4923</ele>
        <time>2015-08-23T15:34:38Z</time>
      </trkpt>
      <trkpt lat="45.30436" lon="6.94454">
        <ele>1910.4923</ele>
        <time>2015-08-23T15:34:48Z</time>
      </trkpt>
      <trkpt lat="45.30433" lon="6.9445">
        <ele>1912.364</ele>
        <time>2015-08-23T15:34:53Z</time>
      </trkpt>
      <trkpt lat="45.30426" lon="6.94445">
        <ele>1912.364</ele>
        <time>2015-08-23T15:35:03Z</time>
      </trkpt>
      <trkpt lat="45.30425" lon="6.94443">
        <ele>1914.242</ele>
        <time>2015-08-23T15:35:08Z</time>
      </trkpt>
      <trkpt lat="45.30421" lon="6.94436">
        <ele>1914.242</ele>
        <time>2015-08-23T15:35:18Z</time>
      </trkpt>
      <trkpt lat="45.30421" lon="6.94433">
        <ele>1914.242</ele>
        <time>2015-08-23T15:35:23Z</time>
      </trkpt>
      <trkpt lat="45.30418" lon="6.94426">
        <ele>1916.3882</ele>
        <time>2015-08-23T15:35:33Z</time>
      </trkpt>
      <trkpt lat="45.30416" lon="6.94423">
        <ele>1916.3882</ele>
        <time>2015-08-23T15:35:38Z</time>
      </trkpt>
      <trkpt lat="45.30413" lon="6.94413">
        <ele>1918.6411</ele>
        <time>2015-08-23T15:35:48Z</time>
      </trkpt>
      <trkpt lat="45.30413" lon="6.94408">
        <ele>1918.6411</ele>
        <time>2015-08-23T15:35:53Z</time>
      </trkpt>
      <trkpt lat="45.30413" lon="6.94397">
        <ele>1920.8938</ele>
        <time>2015-08-23T15:36:08Z</time>
      </trkpt>
      <trkpt lat="45.30414" lon="6.94393">
        <ele>1920.8938</ele>
        <time>2015-08-23T15:36:13Z</time>
      </trkpt>
      <trkpt lat="45.30413" lon="6.94385">
        <ele>1920.8938</ele>
        <time>2015-08-23T15:36:23Z</time>
      </trkpt>
      <trkpt lat="45.30414" lon="6.94381">
        <ele>1923.0615</ele>
        <time>2015-08-23T15:36:28Z</time>
      </trkpt>
      <trkpt lat="45.30415" lon="6.94372">
        <ele>1923.0615</ele>
        <time>2015-08-23T15:36:38Z</time>
      </trkpt>
      <trkpt lat="45.30413" lon="6.94365">
        <ele>1925.1383</ele>
        <time>2015-08-23T15:36:43Z</time>
      </trkpt>
      <trkpt lat="45.30412" lon="6.94353">
        <ele>1925.1383</ele>
        <time>2015-08-23T15:36:53Z</time>
      </trkpt>
      <trkpt lat="45.30413" lon="6.94347">
        <ele>1927.0466</ele>
        <time>2015-08-23T15:36:58Z</time>
      </trkpt>
      <trkpt lat="45.30415" lon="6.94337">
        <ele>1927.0466</ele>
        <time>2015-08-23T15:37:08Z</time>
      </trkpt>
      <trkpt lat="45.30416" lon="6.94334">
        <ele>1928.5564</ele>
        <time>2015-08-23T15:37:13Z</time>
      </trkpt>
      <trkpt lat="45.30419" lon="6.94328">
        <ele>1928.5564</ele>
        <time>2015-08-23T15:37:23Z</time>
      </trkpt>
      <trkpt lat="45.30419" lon="6.94325">
        <ele>1928.5564</ele>
        <time>2015-08-23T15:37:28Z</time>
      </trkpt>
      <trkpt lat="45.3042" lon="6.94315">
        <ele>1929.9167</ele>
        <time>2015-08-23T15:37:38Z</time>
      </trkpt>
      <trkpt lat="45.3042" lon="6.9431">
        <ele>1929.9167</ele>
        <time>2015-08-23T15:37:43Z</time>
      </trkpt>
      <trkpt lat="45.3042" lon="6.94304">
        <ele>1929.9167</ele>
        <time>2015-08-23T15:37:58Z</time>
      </trkpt>
      <trkpt lat="45.30419" lon="6.94303">
        <ele>1929.9167</ele>
        <time>2015-08-23T15:38:03Z</time>
      </trkpt>
      <trkpt lat="45.30421" lon="6.94302">
        <ele>1931.3014</ele>
        <time>2015-08-23T15:38:13Z</time>
      </trkpt>
      <trkpt lat="45.30421" lon="6.94303">
        <ele>1931.3014</ele>
        <time>2015-08-23T15:38:18Z</time>
      </trkpt>
      <trkpt lat="45.30419" lon="6.94302">
        <ele>1931.3014</ele>
        <time>2015-08-23T15:38:28Z</time>
      </trkpt>
      <trkpt lat="45.30418" lon="6.94303">
        <ele>1931.3014</ele>
        <time>2015-08-23T15:38:33Z</time>
      </trkpt>
      <trkpt lat="45.30419" lon="6.94301">
        <ele>1931.3014</ele>
        <time>2015-08-23T15:38:43Z</time>
      </trkpt>
      <trkpt lat="45.30419" lon="6.94301">
        <ele>1931.3014</ele>
        <time>2015-08-23T15:38:48Z</time>
      </trkpt>
      <trkpt lat="45.30422" lon="6.94301">
        <ele>1932.5253</ele>
        <time>2015-08-23T15:38:58Z</time>
      </trkpt>
      <trkpt lat="45.30423" lon="6.94301">
        <ele>1932.5253</ele>
        <time>2015-08-23T15:39:03Z</time>
      </trkpt>
      <trkpt lat="45.30423" lon="6.94297">
        <ele>1932.5253</ele>
        <time>2015-08-23T15:39:13Z</time>
      </trkpt>
      <trkpt lat="45.30425" lon="6.94302">
        <ele>1932.5253</ele>
        <time>2015-08-23T15:39:18Z</time>
      </trkpt>
      <trkpt lat="45.30426" lon="6.94312">
        <ele>1933.7052</ele>
        <time>2015-08-23T15:39:28Z</time>
      </trkpt>
      <trkpt lat="45.30427" lon="6.94316">
        <ele>1933.7052</ele>
        <time>2015-08-23T15:39:33Z</time>
      </trkpt>
      <trkpt lat="45.30434" lon="6.94325">
        <ele>1934.6903</ele>
        <time>2015-08-23T15:39:48Z</time>
      </trkpt>
      <trkpt lat="45.30435" lon="6.94326">
        <ele>1934.6903</ele>
        <time>2015-08-23T15:39:53Z</time>
      </trkpt>
      <trkpt lat="45.30436" lon="6.9434">
        <ele>1935.5431</ele>
        <time>2015-08-23T15:40:03Z</time>
      </trkpt>
      <trkpt lat="45.30437" lon="6.94344">
        <ele>1935.5431</ele>
        <time>2015-08-23T15:40:08Z</time>
      </trkpt>
      <trkpt lat="45.30438" lon="6.94349">
        <ele>1935.5431</ele>
        <time>2015-08-23T15:40:18Z</time>
      </trkpt>
      <trkpt lat="45.30439" lon="6.94354">
        <ele>1936.4225</ele>
        <time>2015-08-23T15:40:23Z</time>
      </trkpt>
      <trkpt lat="45.30441" lon="6.94358">
        <ele>1936.4225</ele>
        <time>2015-08-23T15:40:33Z</time>
      </trkpt>
      <trkpt lat="45.3044" lon="6.94357">
        <ele>1936.4225</ele>
        <time>2015-08-23T15:40:38Z</time>
      </trkpt>
      <trkpt lat="45.3044" lon="6.94349">
        <ele>1937.5332</ele>
        <time>2015-08-23T15:40:48Z</time>
      </trkpt>
      <trkpt lat="45.30442" lon="6.94346">
        <ele>1937.5332</ele>
        <time>2015-08-23T15:40:53Z</time>
      </trkpt>
      <trkpt lat="45.30441" lon="6.94342">
        <ele>1937.5332</ele>
        <time>2015-08-23T15:41:03Z</time>
      </trkpt>
      <trkpt lat="45.3044" lon="6.9434">
        <ele>1937.5332</ele>
        <time>2015-08-23T15:41:08Z</time>
      </trkpt>
      <trkpt lat="45.30441" lon="6.94334">
        <ele>1939.194</ele>
        <time>2015-08-23T15:41:18Z</time>
      </trkpt>
      <trkpt lat="45.30441" lon="6.94331">
        <ele>1939.194</ele>
        <time>2015-08-23T15:41:23Z</time>
      </trkpt>
      <trkpt lat="45.30442" lon="6.94319">
        <ele>1941.0209</ele>
        <time>2015-08-23T15:41:33Z</time>
      </trkpt>
      <trkpt lat="45.30442" lon="6.94314">
        <ele>1941.0209</ele>
        <time>2015-08-23T15:41:38Z</time>
      </trkpt>
      <trkpt lat="45.30443" lon="6.94303">
        <ele>1942.8597</ele>
        <time>2015-08-23T15:41:48Z</time>
      </trkpt>
      <trkpt lat="45.30443" lon="6.94298">
        <ele>1942.8597</ele>
        <time>2015-08-23T15:41:53Z</time>
      </trkpt>
      <trkpt lat="45.30445" lon="6.94286">
        <ele>1944.8556</ele>
        <time>2015-08-23T15:42:08Z</time>
      </trkpt>
      <trkpt lat="45.30444" lon="6.94283">
        <ele>1944.8556</ele>
        <time>2015-08-23T15:42:13Z</time>
      </trkpt>
      <trkpt lat="45.30445" lon="6.94276">
        <ele>1944.8556</ele>
        <time>2015-08-23T15:42:23Z</time>
      </trkpt>
      <trkpt lat="45.30445" lon="6.94272">
        <ele>1946.8396</ele>
        <time>2015-08-23T15:42:28Z</time>
      </trkpt>
      <trkpt lat="45.30445" lon="6.94263">
        <ele>1946.8396</ele>
        <time>2015-08-23T15:42:38Z</time>
      </trkpt>
      <trkpt lat="45.30445" lon="6.94257">
        <ele>1948.857</ele>
        <time>2015-08-23T15:42:43Z</time>
      </trkpt>
      <trkpt lat="45.30444" lon="6.94247">
        <ele>1948.857</ele>
        <time>2015-08-23T15:42:53Z</time>
      </trkpt>
      <trkpt lat="45.30443" lon="6.94244">
        <ele>1950.8778</ele>
        <time>2015-08-23T15:42:58Z</time>
      </trkpt>
      <trkpt lat="45.30443" lon="6.94236">
        <ele>1950.8778</ele>
        <time>2015-08-23T15:43:08Z</time>
      </trkpt>
      <trkpt lat="45.30443" lon="6.94229">
        <ele>1952.8159</ele>
        <time>2015-08-23T15:43:13Z</time>
      </trkpt>
      <trkpt lat="45.30443" lon="6.94215">
        <ele>1954.5632</ele>
        <time>2015-08-23T15:43:28Z</time>
      </trkpt>
      <trkpt lat="45.30443" lon="6.94213">
        <ele>1954.5632</ele>
        <time>2015-08-23T15:43:33Z</time>
      </trkpt>
      <trkpt lat="45.30443" lon="6.94204">
        <ele>1954.5632</ele>
        <time>2015-08-23T15:43:43Z</time>
      </trkpt>
      <trkpt lat="45.30444" lon="6.942">
        <ele>1956.0922</ele>
        <time>2015-08-23T15:43:48Z</time>
      </trkpt>
      <trkpt lat="45.30446" lon="6.94194">
        <ele>1956.0922</ele>
        <time>2015-08-23T15:43:58Z</time>
      </trkpt>
      <trkpt lat="45.30447" lon="6.94191">
        <ele>1956.0922</ele>
        <time>2015-08-23T15:44:03Z</time>
      </trkpt>
      <trkpt lat="45.3045" lon="6.94186">
        <ele>1957.5647</ele>
        <time>2015-08-23T15:44:13Z</time>
      </trkpt>
      <trkpt lat="45.30451" lon="6.94183">
        <ele>1957.5647</ele>
        <time>2015-08-23T15:44:18Z</time>
      </trkpt>
      <trkpt lat="45.30452" lon="6.94175">
        <ele>1957.5647</ele>
        <time>2015-08-23T15:44:28Z</time>
      </trkpt>
      <trkpt lat="45.30453" lon="6.94172">
        <ele>1959.0881</ele>
        <time>2015-08-23T15:44:33Z</time>
      </trkpt>
      <trkpt lat="45.30455" lon="6.94167">
        <ele>1959.0881</ele>
        <time>2015-08-23T15:44:43Z</time>
      </trkpt>
      <trkpt lat="45.30456" lon="6.94163">
        <ele>1959.0881</ele>
        <time>2015-08-23T15:44:48Z</time>
      </trkpt>
      <trkpt lat="45.30456" lon="6.94158">
        <ele>1960.747</ele>
        <time>2015-08-23T15:44:58Z</time>
      </trkpt>
      <trkpt lat="45.30458" lon="6.94157">
        <ele>1960.747</ele>
        <time>2015-08-23T15:45:03Z</time>
      </trkpt>
      <trkpt lat="45.30459" lon="6.9415">
        <ele>1960.747</ele>
        <time>2015-08-23T15:45:13Z</time>
      </trkpt>
      <trkpt lat="45.3046" lon="6.94147">
        <ele>1960.747</ele>
        <time>2015-08-23T15:45:18Z</time>
      </trkpt>
      <trkpt lat="45.3046" lon="6.9414">
        <ele>1962.72</ele>
        <time>2015-08-23T15:45:28Z</time>
      </trkpt>
      <trkpt lat="45.30461" lon="6.94139">
        <ele>1962.72</ele>
        <time>2015-08-23T15:45:33Z</time>
      </trkpt>
      <trkpt lat="45.30462" lon="6.94137">
        <ele>1962.72</ele>
        <time>2015-08-23T15:45:43Z</time>
      </trkpt>
      <trkpt lat="45.30464" lon="6.94136">
        <ele>1962.72</ele>
        <time>2015-08-23T15:45:48Z</time>
      </trkpt>
      <trkpt lat="45.30466" lon="6.94134">
        <ele>1962.72</ele>
        <time>2015-08-23T15:46:03Z</time>
      </trkpt>
      <trkpt lat="45.30465" lon="6.94133">
        <ele>1962.72</ele>
        <time>2015-08-23T15:46:08Z</time>
      </trkpt>
      <trkpt lat="45.30465" lon="6.94134">
        <ele>1964.7684</ele>
        <time>2015-08-23T15:46:18Z</time>
      </trkpt>
      <trkpt lat="45.30466" lon="6.94139">
        <ele>1964.7684</ele>
        <time>2015-08-23T15:46:23Z</time>
      </trkpt>
      <trkpt lat="45.30467" lon="6.94149">
        <ele>1966.5698</ele>
        <time>2015-08-23T15:46:33Z</time>
      </trkpt>
      <trkpt lat="45.30468" lon="6.94151">
        <ele>1966.5698</ele>
        <time>2015-08-23T15:46:38Z</time>
      </trkpt>
      <trkpt lat="45.30469" lon="6.9416">
        <ele>1966.5698</ele>
        <time>2015-08-23T15:46:48Z</time>
      </trkpt>
      <trkpt lat="45.30469" lon="6.94166">
        <ele>1968.273</ele>
        <time>2015-08-23T15:46:53Z</time>
      </trkpt>
      <trkpt lat="45.3047" lon="6.94173">
        <ele>1968.273</ele>
        <time>2015-08-23T15:47:03Z</time>
      </trkpt>
      <trkpt lat="45.3047" lon="6.94177">
        <ele>1968.273</ele>
        <time>2015-08-23T15:47:08Z</time>
      </trkpt>
      <trkpt lat="45.3047" lon="6.94188">
        <ele>1970.0156</ele>
        <time>2015-08-23T15:47:18Z</time>
      </trkpt>
      <trkpt lat="45.30468" lon="6.94193">
        <ele>1970.0156</ele>
        <time>2015-08-23T15:47:23Z</time>
      </trkpt>
      <trkpt lat="45.30469" lon="6.94203">
        <ele>1971.6371</ele>
        <time>2015-08-23T15:47:33Z</time>
      </trkpt>
      <trkpt lat="45.30471" lon="6.94208">
        <ele>1971.6371</ele>
        <time>2015-08-23T15:47:38Z</time>
      </trkpt>
      <trkpt lat="45.30475" lon="6.94215">
        <ele>1973.2628</ele>
        <time>2015-08-23T15:47:48Z</time>
      </trkpt>
      <trkpt lat="45.30476" lon="6.94217">
        <ele>1973.2628</ele>
        <time>2015-08-23T15:47:53Z</time>
      </trkpt>
      <trkpt lat="45.30478" lon="6.94224">
        <ele>1973.2628</ele>
        <time>2015-08-23T15:48:03Z</time>
      </trkpt>
      <trkpt lat="45.30479" lon="6.94228">
        <ele>1974.8646</ele>
        <time>2015-08-23T15:48:08Z</time>
      </trkpt>
      <trkpt lat="45.30482" lon="6.94245">
        <ele>1976.7192</ele>
        <time>2015-08-23T15:48:23Z</time>
      </trkpt>
      <trkpt lat="45.30482" lon="6.94247">
        <ele>1976.7192</ele>
        <time>2015-08-23T15:48:28Z</time>
      </trkpt>
      <trkpt lat="45.30483" lon="6.94252">
        <ele>1976.7192</ele>
        <time>2015-08-23T15:48:38Z</time>
      </trkpt>
      <trkpt lat="45.30484" lon="6.94254">
        <ele>1976.7192</ele>
        <time>2015-08-23T15:48:43Z</time>
      </trkpt>
      <trkpt lat="45.30485" lon="6.9426">
        <ele>1978.7504</ele>
        <time>2015-08-23T15:48:53Z</time>
      </trkpt>
      <trkpt lat="45.30486" lon="6.94264">
        <ele>1978.7504</ele>
        <time>2015-08-23T15:48:58Z</time>
      </trkpt>
      <trkpt lat="45.30487" lon="6.9427">
        <ele>1978.7504</ele>
        <time>2015-08-23T15:49:08Z</time>
      </trkpt>
      <trkpt lat="45.30489" lon="6.94272">
        <ele>1980.8298</ele>
        <time>2015-08-23T15:49:13Z</time>
      </trkpt>
      <trkpt lat="45.30494" lon="6.94279">
        <ele>1980.8298</ele>
        <time>2015-08-23T15:49:23Z</time>
      </trkpt>
      <trkpt lat="45.30496" lon="6.9428">
        <ele>1982.8668</ele>
        <time>2015-08-23T15:49:28Z</time>
      </trkpt>
      <trkpt lat="45.30502" lon="6.94279">
        <ele>1982.8668</ele>
        <time>2015-08-23T15:49:38Z</time>
      </trkpt>
      <trkpt lat="45.30505" lon="6.94279">
        <ele>1982.8668</ele>
        <time>2015-08-23T15:49:43Z</time>
      </trkpt>
      <trkpt lat="45.30507" lon="6.94282">
        <ele>1984.994</ele>
        <time>2015-08-23T15:49:53Z</time>
      </trkpt>
      <trkpt lat="45.30508" lon="6.94284">
        <ele>1984.994</ele>
        <time>2015-08-23T15:49:58Z</time>
      </trkpt>
      <trkpt lat="45.30512" lon="6.94292">
        <ele>1984.994</ele>
        <time>2015-08-23T15:50:08Z</time>
      </trkpt>
      <trkpt lat="45.30514" lon="6.94292">
        <ele>1987.3624</ele>
        <time>2015-08-23T15:50:13Z</time>
      </trkpt>
      <trkpt lat="45.30518" lon="6.943">
        <ele>1987.3624</ele>
        <time>2015-08-23T15:50:28Z</time>
      </trkpt>
      <trkpt lat="45.3052" lon="6.94304">
        <ele>1989.7657</ele>
        <time>2015-08-23T15:50:33Z</time>
      </trkpt>
      <trkpt lat="45.30525" lon="6.94307">
        <ele>1989.7657</ele>
        <time>2015-08-23T15:50:43Z</time>
      </trkpt>
      <trkpt lat="45.30526" lon="6.9431">
        <ele>1989.7657</ele>
        <time>2015-08-23T15:50:48Z</time>
      </trkpt>
      <trkpt lat="45.30529" lon="6.94318">
        <ele>1992.3151</ele>
        <time>2015-08-23T15:50:58Z</time>
      </trkpt>
      <trkpt lat="45.3053" lon="6.94321">
        <ele>1992.3151</ele>
        <time>2015-08-23T15:51:03Z</time>
      </trkpt>
      <trkpt lat="45.30532" lon="6.94325">
        <ele>1992.3151</ele>
        <time>2015-08-23T15:51:13Z</time>
      </trkpt>
      <trkpt lat="45.30534" lon="6.94326">
        <ele>1992.3151</ele>
        <time>2015-08-23T15:51:18Z</time>
      </trkpt>
      <trkpt lat="45.30536" lon="6.94331">
        <ele>1995.0121</ele>
        <time>2015-08-23T15:51:28Z</time>
      </trkpt>
      <trkpt lat="45.30536" lon="6.94333">
        <ele>1995.0121</ele>
        <time>2015-08-23T15:51:33Z</time>
      </trkpt>
      <trkpt lat="45.30538" lon="6.94334">
        <ele>1995.0121</ele>
        <time>2015-08-23T15:51:43Z</time>
      </trkpt>
      <trkpt lat="45.30538" lon="6.94334">
        <ele>1995.0121</ele>
        <time>2015-08-23T15:51:48Z</time>
      </trkpt>
      <trkpt lat="45.30538" lon="6.94332">
        <ele>1995.0121</ele>
        <time>2015-08-23T15:51:58Z</time>
      </trkpt>
      <trkpt lat="45.30539" lon="6.94332">
        <ele>1995.0121</ele>
        <time>2015-08-23T15:52:03Z</time>
      </trkpt>
      <trkpt lat="45.30542" lon="6.94333">
        <ele>1997.9012</ele>
        <time>2015-08-23T15:52:13Z</time>
      </trkpt>
      <trkpt lat="45.30542" lon="6.94333">
        <ele>1997.9012</ele>
        <time>2015-08-23T15:52:18Z</time>
      </trkpt>
      <trkpt lat="45.30543" lon="6.94332">
        <ele>1997.9012</ele>
        <time>2015-08-23T15:52:28Z</time>
      </trkpt>
      <trkpt lat="45.30542" lon="6.94333">
        <ele>1997.9012</ele>
        <time>2015-08-23T15:52:33Z</time>
      </trkpt>
      <trkpt lat="45.30542" lon="6.94333">
        <ele>1997.9012</ele>
        <time>2015-08-23T15:52:43Z</time>
      </trkpt>
      <trkpt lat="45.30542" lon="6.94332">
        <ele>1997.9012</ele>
        <time>2015-08-23T15:52:48Z</time>
      </trkpt>
      <trkpt lat="45.30542" lon="6.94335">
        <ele>1997.9012</ele>
        <time>2015-08-23T15:53:03Z</time>
      </trkpt>
      <trkpt lat="45.30543" lon="6.94335">
        <ele>1997.9012</ele>
        <time>2015-08-23T15:53:08Z</time>
      </trkpt>
      <trkpt lat="45.30544" lon="6.94336">
        <ele>1997.9012</ele>
        <time>2015-08-23T15:53:18Z</time>
      </trkpt>
      <trkpt lat="45.30545" lon="6.94335">
        <ele>1997.9012</ele>
        <time>2015-08-23T15:53:23Z</time>
      </trkpt>
      <trkpt lat="45.30545" lon="6.94335">
        <ele>2001.0952</ele>
        <time>2015-08-23T15:53:33Z</time>
      </trkpt>
      <trkpt lat="45.30544" lon="6.94334">
        <ele>2001.0952</ele>
        <time>2015-08-23T15:53:38Z</time>
      </trkpt>
      <trkpt lat="45.30542" lon="6.94333">
        <ele>2001.0952</ele>
        <time>2015-08-23T15:53:48Z</time>
      </trkpt>
      <trkpt lat="45.30542" lon="6.94335">
        <ele>2001.0952</ele>
        <time>2015-08-23T15:53:53Z</time>
      </trkpt>
      <trkpt lat="45.30541" lon="6.94334">
        <ele>2001.0952</ele>
        <time>2015-08-23T15:54:03Z</time>
      </trkpt>
      <trkpt lat="45.3054" lon="6.94336">
        <ele>2001.0952</ele>
        <time>2015-08-23T15:54:08Z</time>
      </trkpt>
      <trkpt lat="45.30542" lon="6.94336">
        <ele>2001.0952</ele>
        <time>2015-08-23T15:54:18Z</time>
      </trkpt>
      <trkpt lat="45.30542" lon="6.94336">
        <ele>2001.0952</ele>
        <time>2015-08-23T15:54:23Z</time>
      </trkpt>
      <trkpt lat="45.30542" lon="6.94339">
        <ele>2004.0779</ele>
        <time>2015-08-23T15:54:33Z</time>
      </trkpt>
      <trkpt lat="45.30543" lon="6.94341">
        <ele>2004.0779</ele>
        <time>2015-08-23T15:54:38Z</time>
      </trkpt>
      <trkpt lat="45.30546" lon="6.94347">
        <ele>2004.0779</ele>
        <time>2015-08-23T15:54:48Z</time>
      </trkpt>
      <trkpt lat="45.30547" lon="6.94351">
        <ele>2006.775</ele>
        <time>2015-08-23T15:54:53Z</time>
      </trkpt>
      <trkpt lat="45.30549" lon="6.94356">
        <ele>2006.775</ele>
        <time>2015-08-23T15:55:03Z</time>
      </trkpt>
      <trkpt lat="45.30551" lon="6.94355">
        <ele>2006.775</ele>
        <time>2015-08-23T15:55:08Z</time>
      </trkpt>
      <trkpt lat="45.30554" lon="6.94353">
        <ele>2009.2919</ele>
        <time>2015-08-23T15:55:18Z</time>
      </trkpt>
      <trkpt lat="45.30555" lon="6.94354">
        <ele>2009.2919</ele>
        <time>2015-08-23T15:55:23Z</time>
      </trkpt>
      <trkpt lat="45.30558" lon="6.94358">
        <ele>2009.2919</ele>
        <time>2015-08-23T15:55:33Z</time>
      </trkpt>
      <trkpt lat="45.30559" lon="6.9436">
        <ele>2009.2919</ele>
        <time>2015-08-23T15:55:38Z</time>
      </trkpt>
      <trkpt lat="45.30562" lon="6.94367">
        <ele>2011.9424</ele>
        <time>2015-08-23T15:55:48Z</time>
      </trkpt>
      <trkpt lat="45.30564" lon="6.9437">
        <ele>2011.9424</ele>
        <time>2015-08-23T15:55:53Z</time>
      </trkpt>
      <trkpt lat="45.30568" lon="6.94365">
        <ele>2011.9424</ele>
        <time>2015-08-23T15:56:08Z</time>
      </trkpt>
      <trkpt lat="45.3057" lon="6.94363">
        <ele>2014.5704</ele>
        <time>2015-08-23T15:56:13Z</time>
      </trkpt>
      <trkpt lat="45.30571" lon="6.94356">
        <ele>2014.5704</ele>
        <time>2015-08-23T15:56:23Z</time>
      </trkpt>
      <trkpt lat="45.30568" lon="6.94352">
        <ele>2014.5704</ele>
        <time>2015-08-23T15:56:28Z</time>
      </trkpt>
      <trkpt lat="45.30568" lon="6.94344">
        <ele>2017.4352</ele>
        <time>2015-08-23T15:56:38Z</time>
      </trkpt>
      <trkpt lat="45.30567" lon="6.94342">
        <ele>2017.4352</ele>
        <time>2015-08-23T15:56:43Z</time>
      </trkpt>
      <trkpt lat="45.30563" lon="6.94338">
        <ele>2017.4352</ele>
        <time>2015-08-23T15:56:53Z</time>
      </trkpt>
      <trkpt lat="45.30561" lon="6.94334">
        <ele>2020.2858</ele>
        <time>2015-08-23T15:56:58Z</time>
      </trkpt>
      <trkpt lat="45.30562" lon="6.94327">
        <ele>2020.2858</ele>
        <time>2015-08-23T15:57:08Z</time>
      </trkpt>
      <trkpt lat="45.30563" lon="6.94323">
        <ele>2020.2858</ele>
        <time>2015-08-23T15:57:13Z</time>
      </trkpt>
      <trkpt lat="45.30567" lon="6.94315">
        <ele>2023.0775</ele>
        <time>2015-08-23T15:57:28Z</time>
      </trkpt>
      <trkpt lat="45.3057" lon="6.94317">
        <ele>2023.0775</ele>
        <time>2015-08-23T15:57:33Z</time>
      </trkpt>
      <trkpt lat="45.30569" lon="6.94323">
        <ele>2023.0775</ele>
        <time>2015-08-23T15:57:43Z</time>
      </trkpt>
      <trkpt lat="45.3057" lon="6.94326">
        <ele>2025.7404</ele>
        <time>2015-08-23T15:57:48Z</time>
      </trkpt>
      <trkpt lat="45.30572" lon="6.94333">
        <ele>2025.7404</ele>
        <time>2015-08-23T15:57:58Z</time>
      </trkpt>
      <trkpt lat="45.30575" lon="6.94334">
        <ele>2025.7404</ele>
        <time>2015-08-23T15:58:03Z</time>
      </trkpt>
      <trkpt lat="45.30581" lon="6.94336">
        <ele>2028.3536</ele>
        <time>2015-08-23T15:58:13Z</time>
      </trkpt>
      <trkpt lat="45.30582" lon="6.94339">
        <ele>2028.3536</ele>
        <time>2015-08-23T15:58:18Z</time>
      </trkpt>
      <trkpt lat="45.30586" lon="6.94349">
        <ele>2030.7322</ele>
        <time>2015-08-23T15:58:28Z</time>
      </trkpt>
      <trkpt lat="45.30587" lon="6.94352">
        <ele>2030.7322</ele>
        <time>2015-08-23T15:58:33Z</time>
      </trkpt>
      <trkpt lat="45.30589" lon="6.94359">
        <ele>2030.7322</ele>
        <time>2015-08-23T15:58:43Z</time>
      </trkpt>
      <trkpt lat="45.30591" lon="6.94365">
        <ele>2033.0071</ele>
        <time>2015-08-23T15:58:48Z</time>
      </trkpt>
      <trkpt lat="45.30594" lon="6.94373">
        <ele>2033.0071</ele>
        <time>2015-08-23T15:58:58Z</time>
      </trkpt>
      <trkpt lat="45.30594" lon="6.94376">
        <ele>2033.0071</ele>
        <time>2015-08-23T15:59:03Z</time>
      </trkpt>
      <trkpt lat="45.30596" lon="6.94382">
        <ele>2035.4017</ele>
        <time>2015-08-23T15:59:13Z</time>
      </trkpt>
      <trkpt lat="45.30597" lon="6.94384">
        <ele>2035.4017</ele>
        <time>2015-08-23T15:59:18Z</time>
      </trkpt>
      <trkpt lat="45.30601" lon="6.94385">
        <ele>2035.4017</ele>
        <time>2015-08-23T15:59:28Z</time>
      </trkpt>
      <trkpt lat="45.30602" lon="6.94386">
        <ele>2035.4017</ele>
        <time>2015-08-23T15:59:33Z</time>
      </trkpt>
      <trkpt lat="45.30606" lon="6.94389">
        <ele>2037.7188</ele>
        <time>2015-08-23T15:59:43Z</time>
      </trkpt>
      <trkpt lat="45.30607" lon="6.94391">
        <ele>2037.7188</ele>
        <time>2015-08-23T15:59:48Z</time>
      </trkpt>
      <trkpt lat="45.30609" lon="6.94397">
        <ele>2037.7188</ele>
        <time>2015-08-23T15:59:58Z</time>
      </trkpt>
      <trkpt lat="45.30609" lon="6.94401">
        <ele>2037.7188</ele>
        <time>2015-08-23T16:00:03Z</time>
      </trkpt>
      <trkpt lat="45.30609" lon="6.94415">
        <ele>2040.266</ele>
        <time>2015-08-23T16:00:18Z</time>
      </trkpt>
      <trkpt lat="45.30609" lon="6.94419">
        <ele>2040.266</ele>
        <time>2015-08-23T16:00:23Z</time>
      </trkpt>
      <trkpt lat="45.30608" lon="6.94427">
        <ele>2040.266</ele>
        <time>2015-08-23T16:00:33Z</time>
      </trkpt>
      <trkpt lat="45.30607" lon="6.94435">
        <ele>2042.6647</ele>
        <time>2015-08-23T16:00:38Z</time>
      </trkpt>
      <trkpt lat="45.30608" lon="6.94443">
        <ele>2042.6647</ele>
        <time>2015-08-23T16:00:48Z</time>
      </trkpt>
      <trkpt lat="45.30609" lon="6.94446">
        <ele>2042.6647</ele>
        <time>2015-08-23T16:00:53Z</time>
      </trkpt>
      <trkpt lat="45.3061" lon="6.94455">
        <ele>2044.9249</ele>
        <time>2015-08-23T16:01:03Z</time>
      </trkpt>
      <trkpt lat="45.30611" lon="6.9446">
        <ele>2044.9249</ele>
        <time>2015-08-23T16:01:08Z</time>
      </trkpt>
      <trkpt lat="45.30612" lon="6.9447">
        <ele>2047.0133</ele>
        <time>2015-08-23T16:01:18Z</time>
      </trkpt>
      <trkpt lat="45.30613" lon="6.94476">
        <ele>2047.0133</ele>
        <time>2015-08-23T16:01:23Z</time>
      </trkpt>
      <trkpt lat="45.30615" lon="6.94484">
        <ele>2048.9714</ele>
        <time>2015-08-23T16:01:33Z</time>
      </trkpt>
      <trkpt lat="45.30616" lon="6.94487">
        <ele>2048.9714</ele>
        <time>2015-08-23T16:01:38Z</time>
      </trkpt>
      <trkpt lat="45.3062" lon="6.94501">
        <ele>2050.8955</ele>
        <time>2015-08-23T16:01:53Z</time>
      </trkpt>
      <trkpt lat="45.30623" lon="6.94503">
        <ele>2050.8955</ele>
        <time>2015-08-23T16:01:58Z</time>
      </trkpt>
      <trkpt lat="45.30627" lon="6.94503">
        <ele>2050.8955</ele>
        <time>2015-08-23T16:02:08Z</time>
      </trkpt>
      <trkpt lat="45.3063" lon="6.94504">
        <ele>2052.6594</ele>
        <time>2015-08-23T16:02:13Z</time>
      </trkpt>
      <trkpt lat="45.30635" lon="6.94506">
        <ele>2052.6594</ele>
        <time>2015-08-23T16:02:23Z</time>
      </trkpt>
      <trkpt lat="45.30638" lon="6.94507">
        <ele>2052.6594</ele>
        <time>2015-08-23T16:02:28Z</time>
      </trkpt>
      <trkpt lat="45.30643" lon="6.94507">
        <ele>2054.3767</ele>
        <time>2015-08-23T16:02:38Z</time>
      </trkpt>
      <trkpt lat="45.30647" lon="6.94508">
        <ele>2054.3767</ele>
        <time>2015-08-23T16:02:43Z</time>
      </trkpt>
      <trkpt lat="45.30652" lon="6.94504">
        <ele>2055.9368</ele>
        <time>2015-08-23T16:02:53Z</time>
      </trkpt>
      <trkpt lat="45.30654" lon="6.94503">
        <ele>2055.9368</ele>
        <time>2015-08-23T16:02:58Z</time>
      </trkpt>
      <trkpt lat="45.3065" lon="6.94496">
        <ele>2057.5115</ele>
        <time>2015-08-23T16:03:08Z</time>
      </trkpt>
      <trkpt lat="45.30648" lon="6.94491">
        <ele>2057.5115</ele>
        <time>2015-08-23T16:03:13Z</time>
      </trkpt>
      <trkpt lat="45.30649" lon="6.94484">
        <ele>2057.5115</ele>
        <time>2015-08-23T16:03:23Z</time>
      </trkpt>
      <trkpt lat="45.30653" lon="6.94482">
        <ele>2059.1016</ele>
        <time>2015-08-23T16:03:28Z</time>
      </trkpt>
      <trkpt lat="45.30657" lon="6.94481">
        <ele>2059.1016</ele>
        <time>2015-08-23T16:03:38Z</time>
      </trkpt>
      <trkpt lat="45.30659" lon="6.94482">
        <ele>2059.1016</ele>
        <time>2015-08-23T16:03:43Z</time>
      </trkpt>
      <trkpt lat="45.30661" lon="6.94486">
        <ele>2060.9236</ele>
        <time>2015-08-23T16:03:58Z</time>
      </trkpt>
      <trkpt lat="45.3066" lon="6.94486">
        <ele>2060.9236</ele>
        <time>2015-08-23T16:04:03Z</time>
      </trkpt>
      <trkpt lat="45.3066" lon="6.94486">
        <ele>2060.9236</ele>
        <time>2015-08-23T16:04:13Z</time>
      </trkpt>
      <trkpt lat="45.3066" lon="6.94487">
        <ele>2060.9236</ele>
        <time>2015-08-23T16:04:18Z</time>
      </trkpt>
      <trkpt lat="45.3066" lon="6.94486">
        <ele>2060.9236</ele>
        <time>2015-08-23T16:04:28Z</time>
      </trkpt>
      <trkpt lat="45.3066" lon="6.94487">
        <ele>2060.9236</ele>
        <time>2015-08-23T16:04:33Z</time>
      </trkpt>
      <trkpt lat="45.30662" lon="6.94486">
        <ele>2060.9236</ele>
        <time>2015-08-23T16:04:43Z</time>
      </trkpt>
      <trkpt lat="45.30663" lon="6.94486">
        <ele>2060.9236</ele>
        <time>2015-08-23T16:04:48Z</time>
      </trkpt>
      <trkpt lat="45.30668" lon="6.94491">
        <ele>2063.1633</ele>
        <time>2015-08-23T16:04:58Z</time>
      </trkpt>
      <trkpt lat="45.30672" lon="6.94493">
        <ele>2063.1633</ele>
        <time>2015-08-23T16:05:03Z</time>
      </trkpt>
      <trkpt lat="45.30675" lon="6.94499">
        <ele>2063.1633</ele>
        <time>2015-08-23T16:05:13Z</time>
      </trkpt>
      <trkpt lat="45.30677" lon="6.94503">
        <ele>2065.271</ele>
        <time>2015-08-23T16:05:18Z</time>
      </trkpt>
      <trkpt lat="45.30683" lon="6.94508">
        <ele>2065.271</ele>
        <time>2015-08-23T16:05:28Z</time>
      </trkpt>
      <trkpt lat="45.30685" lon="6.9451">
        <ele>2067.286</ele>
        <time>2015-08-23T16:05:33Z</time>
      </trkpt>
      <trkpt lat="45.30691" lon="6.9451">
        <ele>2067.286</ele>
        <time>2015-08-23T16:05:43Z</time>
      </trkpt>
      <trkpt lat="45.30693" lon="6.94509">
        <ele>2067.286</ele>
        <time>2015-08-23T16:05:48Z</time>
      </trkpt>
      <trkpt lat="45.30699" lon="6.94509">
        <ele>2069.1572</ele>
        <time>2015-08-23T16:05:58Z</time>
      </trkpt>
      <trkpt lat="45.30701" lon="6.94509">
        <ele>2069.1572</ele>
        <time>2015-08-23T16:06:03Z</time>
      </trkpt>
      <trkpt lat="45.30704" lon="6.94515">
        <ele>2069.1572</ele>
        <time>2015-08-23T16:06:18Z</time>
      </trkpt>
      <trkpt lat="45.30704" lon="6.94517">
        <ele>2071.0837</ele>
        <time>2015-08-23T16:06:23Z</time>
      </trkpt>
      <trkpt lat="45.30705" lon="6.94523">
        <ele>2071.0837</ele>
        <time>2015-08-23T16:06:33Z</time>
      </trkpt>
      <trkpt lat="45.30706" lon="6.94525">
        <ele>2071.0837</ele>
        <time>2015-08-23T16:06:38Z</time>
      </trkpt>
      <trkpt lat="45.30709" lon="6.94534">
        <ele>2073.048</ele>
        <time>2015-08-23T16:06:48Z</time>
      </trkpt>
      <trkpt lat="45.30709" lon="6.94538">
        <ele>2073.048</ele>
        <time>2015-08-23T16:06:53Z</time>
      </trkpt>
      <trkpt lat="45.3071" lon="6.94546">
        <ele>2073.048</ele>
        <time>2015-08-23T16:07:03Z</time>
      </trkpt>
      <trkpt lat="45.30711" lon="6.9455">
        <ele>2074.9468</ele>
        <time>2015-08-23T16:07:08Z</time>
      </trkpt>
      <trkpt lat="45.30713" lon="6.94558">
        <ele>2074.9468</ele>
        <time>2015-08-23T16:07:18Z</time>
      </trkpt>
      <trkpt lat="45.30714" lon="6.94563">
        <ele>2076.7136</ele>
        <time>2015-08-23T16:07:23Z</time>
      </trkpt>
      <trkpt lat="45.30712" lon="6.94563">
        <ele>2076.7136</ele>
        <time>2015-08-23T16:07:33Z</time>
      </trkpt>
      <trkpt lat="45.30712" lon="6.94564">
        <ele>2076.7136</ele>
        <time>2015-08-23T16:07:38Z</time>
      </trkpt>
      <trkpt lat="45.30714" lon="6.94565">
        <ele>2076.7136</ele>
        <time>2015-08-23T16:07:53Z</time>
      </trkpt>
      <trkpt lat="45.30714" lon="6.94565">
        <ele>2076.7136</ele>
        <time>2015-08-23T16:07:58Z</time>
      </trkpt>
      <trkpt lat="45.30714" lon="6.94565">
        <ele>2076.7136</ele>
        <time>2015-08-23T16:08:03Z</time>
      </trkpt>
      <trkpt lat="45.30715" lon="6.94564">
        <ele>2076.7136</ele>
        <time>2015-08-23T16:08:08Z</time>
      </trkpt>
      <trkpt lat="45.30714" lon="6.94566">
        <ele>2076.7136</ele>
        <time>2015-08-23T16:08:13Z</time>
      </trkpt>
      <trkpt lat="45.30714" lon="6.94566">
        <ele>2076.7136</ele>
        <time>2015-08-23T16:08:18Z</time>
      </trkpt>
      <trkpt lat="45.30716" lon="6.94567">
        <ele>2078.5037</ele>
        <time>2015-08-23T16:08:28Z</time>
      </trkpt>
      <trkpt lat="45.30718" lon="6.94568">
        <ele>2078.5037</ele>
        <time>2015-08-23T16:08:33Z</time>
      </trkpt>
      <trkpt lat="45.30721" lon="6.94572">
        <ele>2078.5037</ele>
        <time>2015-08-23T16:08:43Z</time>
      </trkpt>
      <trkpt lat="45.30722" lon="6.94574">
        <ele>2078.5037</ele>
        <time>2015-08-23T16:08:48Z</time>
      </trkpt>
      <trkpt lat="45.30723" lon="6.94569">
        <ele>2080.2874</ele>
        <time>2015-08-23T16:08:58Z</time>
      </trkpt>
      <trkpt lat="45.30722" lon="6.94565">
        <ele>2080.2874</ele>
        <time>2015-08-23T16:09:03Z</time>
      </trkpt>
      <trkpt lat="45.30722" lon="6.94557">
        <ele>2080.2874</ele>
        <time>2015-08-23T16:09:13Z</time>
      </trkpt>
      <trkpt lat="45.30721" lon="6.94555">
        <ele>2082.1382</ele>
        <time>2015-08-23T16:09:18Z</time>
      </trkpt>
      <trkpt lat="45.30721" lon="6.94547">
        <ele>2082.1382</ele>
        <time>2015-08-23T16:09:28Z</time>
      </trkpt>
      <trkpt lat="45.30722" lon="6.94543">
        <ele>2082.1382</ele>
        <time>2015-08-23T16:09:33Z</time>
      </trkpt>
      <trkpt lat="45.30725" lon="6.94545">
        <ele>2084.0378</ele>
        <time>2015-08-23T16:09:43Z</time>
      </trkpt>
      <trkpt lat="45.30726" lon="6.94548">
        <ele>2084.0378</ele>
        <time>2015-08-23T16:09:48Z</time>
      </trkpt>
      <trkpt lat="45.30731" lon="6.94555">
        <ele>2085.9688</ele>
        <time>2015-08-23T16:10:03Z</time>
      </trkpt>
      <trkpt lat="45.30733" lon="6.94558">
        <ele>2085.9688</ele>
        <time>2015-08-23T16:10:08Z</time>
      </trkpt>
      <trkpt lat="45.30735" lon="6.94564">
        <ele>2085.9688</ele>
        <time>2015-08-23T16:10:18Z</time>
      </trkpt>
      <trkpt lat="45.30737" lon="6.94567">
        <ele>2087.9873</ele>
        <time>2015-08-23T16:10:23Z</time>
      </trkpt>
      <trkpt lat="45.30742" lon="6.94572">
        <ele>2087.9873</ele>
        <time>2015-08-23T16:10:33Z</time>
      </trkpt>
      <trkpt lat="45.30743" lon="6.94574">
        <ele>2087.9873</ele>
        <time>2015-08-23T16:10:38Z</time>
      </trkpt>
      <trkpt lat="45.30746" lon="6.94577">
        <ele>2090.0872</ele>
        <time>2015-08-23T16:10:48Z</time>
      </trkpt>
      <trkpt lat="45.30747" lon="6.94581">
        <ele>2090.0872</ele>
        <time>2015-08-23T16:10:53Z</time>
      </trkpt>
      <trkpt lat="45.30751" lon="6.9459">
        <ele>2092.032</ele>
        <time>2015-08-23T16:11:03Z</time>
      </trkpt>
      <trkpt lat="45.30752" lon="6.94589">
        <ele>2092.032</ele>
        <time>2015-08-23T16:11:08Z</time>
      </trkpt>
      <trkpt lat="45.30753" lon="6.94582">
        <ele>2092.032</ele>
        <time>2015-08-23T16:11:18Z</time>
      </trkpt>
      <trkpt lat="45.30753" lon="6.94579">
        <ele>2093.9634</ele>
        <time>2015-08-23T16:11:23Z</time>
      </trkpt>
      <trkpt lat="45.30754" lon="6.94573">
        <ele>2093.9634</ele>
        <time>2015-08-23T16:11:33Z</time>
      </trkpt>
      <trkpt lat="45.30757" lon="6.94573">
        <ele>2093.9634</ele>
        <time>2015-08-23T16:11:38Z</time>
      </trkpt>
      <trkpt lat="45.30761" lon="6.94577">
        <ele>2095.9116</ele>
        <time>2015-08-23T16:11:48Z</time>
      </trkpt>
      <trkpt lat="45.30763" lon="6.94582">
        <ele>2095.9116</ele>
        <time>2015-08-23T16:11:53Z</time>
      </trkpt>
      <trkpt lat="45.30764" lon="6.94584">
        <ele>2095.9116</ele>
        <time>2015-08-23T16:11:58Z</time>
      </trkpt>
      <trkpt lat="45.30764" lon="6.94585">
        <ele>2095.9116</ele>
        <time>2015-08-23T16:12:03Z</time>
      </trkpt>
      <trkpt lat="45.30765" lon="6.94587">
        <ele>2095.9116</ele>
        <time>2015-08-23T16:12:08Z</time>
      </trkpt>
      <trkpt lat="45.30765" lon="6.94598">
        <ele>2097.9478</ele>
        <time>2015-08-23T16:12:18Z</time>
      </trkpt>
      <trkpt lat="45.30765" lon="6.94601">
        <ele>2097.9478</ele>
        <time>2015-08-23T16:12:23Z</time>
      </trkpt>
      <trkpt lat="45.30769" lon="6.94608">
        <ele>2097.9478</ele>
        <time>2015-08-23T16:12:33Z</time>
      </trkpt>
      <trkpt lat="45.30769" lon="6.9461">
        <ele>2099.9507</ele>
        <time>2015-08-23T16:12:38Z</time>
      </trkpt>
      <trkpt lat="45.30774" lon="6.94616">
        <ele>2099.9507</ele>
        <time>2015-08-23T16:12:48Z</time>
      </trkpt>
      <trkpt lat="45.30774" lon="6.94618">
        <ele>2099.9507</ele>
        <time>2015-08-23T16:12:53Z</time>
      </trkpt>
      <trkpt lat="45.30775" lon="6.94623">
        <ele>2102.1104</ele>
        <time>2015-08-23T16:13:03Z</time>
      </trkpt>
      <trkpt lat="45.30778" lon="6.94628">
        <ele>2102.1104</ele>
        <time>2015-08-23T16:13:08Z</time>
      </trkpt>
      <trkpt lat="45.30784" lon="6.94628">
        <ele>2104.2998</ele>
        <time>2015-08-23T16:13:23Z</time>
      </trkpt>
      <trkpt lat="45.30786" lon="6.94624">
        <ele>2104.2998</ele>
        <time>2015-08-23T16:13:28Z</time>
      </trkpt>
      <trkpt lat="45.30784" lon="6.94621">
        <ele>2104.2998</ele>
        <time>2015-08-23T16:13:38Z</time>
      </trkpt>
      <trkpt lat="45.30783" lon="6.94618">
        <ele>2104.2998</ele>
        <time>2015-08-23T16:13:43Z</time>
      </trkpt>
      <trkpt lat="45.30785" lon="6.94615">
        <ele>2106.6028</ele>
        <time>2015-08-23T16:13:53Z</time>
      </trkpt>
      <trkpt lat="45.30787" lon="6.94615">
        <ele>2106.6028</ele>
        <time>2015-08-23T16:13:58Z</time>
      </trkpt>
      <trkpt lat="45.30786" lon="6.94607">
        <ele>2106.6028</ele>
        <time>2015-08-23T16:14:08Z</time>
      </trkpt>
      <trkpt lat="45.30786" lon="6.94607">
        <ele>2106.6028</ele>
        <time>2015-08-23T16:14:13Z</time>
      </trkpt>
      <trkpt lat="45.30788" lon="6.94613">
        <ele>2109.0393</ele>
        <time>2015-08-23T16:14:23Z</time>
      </trkpt>
      <trkpt lat="45.30788" lon="6.94614">
        <ele>2109.0393</ele>
        <time>2015-08-23T16:14:28Z</time>
      </trkpt>
      <trkpt lat="45.30794" lon="6.94617">
        <ele>2109.0393</ele>
        <time>2015-08-23T16:14:38Z</time>
      </trkpt>
      <trkpt lat="45.30795" lon="6.9462">
        <ele>2111.4546</ele>
        <time>2015-08-23T16:14:43Z</time>
      </trkpt>
      <trkpt lat="45.308" lon="6.94622">
        <ele>2111.4546</ele>
        <time>2015-08-23T16:14:58Z</time>
      </trkpt>
      <trkpt lat="45.308" lon="6.94623">
        <ele>2111.4546</ele>
        <time>2015-08-23T16:15:03Z</time>
      </trkpt>
      <trkpt lat="45.30799" lon="6.94623">
        <ele>2111.4546</ele>
        <time>2015-08-23T16:15:13Z</time>
      </trkpt>
      <trkpt lat="45.30798" lon="6.94622">
        <ele>2111.4546</ele>
        <time>2015-08-23T16:15:18Z</time>
      </trkpt>
      <trkpt lat="45.30798" lon="6.94621">
        <ele>2111.4546</ele>
        <time>2015-08-23T16:15:28Z</time>
      </trkpt>
      <trkpt lat="45.30798" lon="6.94621">
        <ele>2111.4546</ele>
        <time>2015-08-23T16:15:33Z</time>
      </trkpt>
      <trkpt lat="45.30798" lon="6.94621">
        <ele>2113.8635</ele>
        <time>2015-08-23T16:15:43Z</time>
      </trkpt>
      <trkpt lat="45.30798" lon="6.94619">
        <ele>2113.8635</ele>
        <time>2015-08-23T16:15:48Z</time>
      </trkpt>
      <trkpt lat="45.30796" lon="6.9462">
        <ele>2113.8635</ele>
        <time>2015-08-23T16:15:58Z</time>
      </trkpt>
      <trkpt lat="45.30797" lon="6.9462">
        <ele>2113.8635</ele>
        <time>2015-08-23T16:16:03Z</time>
      </trkpt>
      <trkpt lat="45.30796" lon="6.94622">
        <ele>2113.8635</ele>
        <time>2015-08-23T16:16:13Z</time>
      </trkpt>
      <trkpt lat="45.30796" lon="6.94622">
        <ele>2113.8635</ele>
        <time>2015-08-23T16:16:18Z</time>
      </trkpt>
      <trkpt lat="45.30797" lon="6.94622">
        <ele>2113.8635</ele>
        <time>2015-08-23T16:16:23Z</time>
      </trkpt>
      <trkpt lat="45.30796" lon="6.9462">
        <ele>2116.41</ele>
        <time>2015-08-23T16:16:28Z</time>
      </trkpt>
      <trkpt lat="45.30798" lon="6.94619">
        <ele>2116.41</ele>
        <time>2015-08-23T16:16:33Z</time>
      </trkpt>
      <trkpt lat="45.30799" lon="6.94619">
        <ele>2116.41</ele>
        <time>2015-08-23T16:16:38Z</time>
      </trkpt>
      <trkpt lat="45.30799" lon="6.9462">
        <ele>2116.41</ele>
        <time>2015-08-23T16:16:43Z</time>
      </trkpt>
      <trkpt lat="45.308" lon="6.94621">
        <ele>2116.41</ele>
        <time>2015-08-23T16:16:48Z</time>
      </trkpt>
      <trkpt lat="45.308" lon="6.9462">
        <ele>2116.41</ele>
        <time>2015-08-23T16:16:58Z</time>
      </trkpt>
      <trkpt lat="45.30799" lon="6.9462">
        <ele>2116.41</ele>
        <time>2015-08-23T16:17:03Z</time>
      </trkpt>
      <trkpt lat="45.30798" lon="6.94618">
        <ele>2116.41</ele>
        <time>2015-08-23T16:17:13Z</time>
      </trkpt>
      <trkpt lat="45.30798" lon="6.94618">
        <ele>2116.41</ele>
        <time>2015-08-23T16:17:18Z</time>
      </trkpt>
      <trkpt lat="45.30795" lon="6.94617">
        <ele>2118.7942</ele>
        <time>2015-08-23T16:17:33Z</time>
      </trkpt>
      <trkpt lat="45.30795" lon="6.94617">
        <ele>2118.7942</ele>
        <time>2015-08-23T16:17:38Z</time>
      </trkpt>
      <trkpt lat="45.30796" lon="6.94617">
        <ele>2118.7942</ele>
        <time>2015-08-23T16:17:48Z</time>
      </trkpt>
      <trkpt lat="45.30796" lon="6.94617">
        <ele>2118.7942</ele>
        <time>2015-08-23T16:17:53Z</time>
      </trkpt>
      <trkpt lat="45.30796" lon="6.94618">
        <ele>2118.7942</ele>
        <time>2015-08-23T16:18:03Z</time>
      </trkpt>
      <trkpt lat="45.30795" lon="6.94617">
        <ele>2118.7942</ele>
        <time>2015-08-23T16:18:08Z</time>
      </trkpt>
      <trkpt lat="45.30796" lon="6.94617">
        <ele>2118.7942</ele>
        <time>2015-08-23T16:18:18Z</time>
      </trkpt>
      <trkpt lat="45.30795" lon="6.94614">
        <ele>2118.7942</ele>
        <time>2015-08-23T16:18:23Z</time>
      </trkpt>
      <trkpt lat="45.30795" lon="6.94614">
        <ele>2118.7942</ele>
        <time>2015-08-23T16:18:33Z</time>
      </trkpt>
      <trkpt lat="45.30797" lon="6.94614">
        <ele>2118.7942</ele>
        <time>2015-08-23T16:18:38Z</time>
      </trkpt>
      <trkpt lat="45.30803" lon="6.94617">
        <ele>2121.1711</ele>
        <time>2015-08-23T16:18:53Z</time>
      </trkpt>
      <trkpt lat="45.30805" lon="6.94619">
        <ele>2121.1711</ele>
        <time>2015-08-23T16:18:58Z</time>
      </trkpt>
      <trkpt lat="45.30806" lon="6.94623">
        <ele>2121.1711</ele>
        <time>2015-08-23T16:19:08Z</time>
      </trkpt>
      <trkpt lat="45.30806" lon="6.94627">
        <ele>2121.1711</ele>
        <time>2015-08-23T16:19:13Z</time>
      </trkpt>
      <trkpt lat="45.30808" lon="6.94635">
        <ele>2123.4111</ele>
        <time>2015-08-23T16:19:23Z</time>
      </trkpt>
      <trkpt lat="45.3081" lon="6.9464">
        <ele>2123.4111</ele>
        <time>2015-08-23T16:19:28Z</time>
      </trkpt>
      <trkpt lat="45.30814" lon="6.94646">
        <ele>2125.4373</ele>
        <time>2015-08-23T16:19:38Z</time>
      </trkpt>
      <trkpt lat="45.30818" lon="6.94647">
        <ele>2125.4373</ele>
        <time>2015-08-23T16:19:43Z</time>
      </trkpt>
      <trkpt lat="45.30826" lon="6.94649">
        <ele>2127.2654</ele>
        <time>2015-08-23T16:19:53Z</time>
      </trkpt>
      <trkpt lat="45.3083" lon="6.94649">
        <ele>2127.2654</ele>
        <time>2015-08-23T16:19:58Z</time>
      </trkpt>
      <trkpt lat="45.30834" lon="6.94658">
        <ele>2128.925</ele>
        <time>2015-08-23T16:20:08Z</time>
      </trkpt>
      <trkpt lat="45.30838" lon="6.94661">
        <ele>2128.925</ele>
        <time>2015-08-23T16:20:13Z</time>
      </trkpt>
      <trkpt lat="45.30843" lon="6.94666">
        <ele>2130.502</ele>
        <time>2015-08-23T16:20:23Z</time>
      </trkpt>
      <trkpt lat="45.30846" lon="6.94669">
        <ele>2130.502</ele>
        <time>2015-08-23T16:20:28Z</time>
      </trkpt>
      <trkpt lat="45.30849" lon="6.94673">
        <ele>2130.502</ele>
        <time>2015-08-23T16:20:38Z</time>
      </trkpt>
      <trkpt lat="45.30851" lon="6.94676">
        <ele>2132.0183</ele>
        <time>2015-08-23T16:20:43Z</time>
      </trkpt>
      <trkpt lat="45.30854" lon="6.94683">
        <ele>2132.0183</ele>
        <time>2015-08-23T16:20:53Z</time>
      </trkpt>
      <trkpt lat="45.30856" lon="6.94685">
        <ele>2132.0183</ele>
        <time>2015-08-23T16:20:58Z</time>
      </trkpt>
      <trkpt lat="45.3086" lon="6.9469">
        <ele>2133.552</ele>
        <time>2015-08-23T16:21:08Z</time>
      </trkpt>
      <trkpt lat="45.30863" lon="6.94693">
        <ele>2133.552</ele>
        <time>2015-08-23T16:21:13Z</time>
      </trkpt>
      <trkpt lat="45.3087" lon="6.94695">
        <ele>2135.0024</ele>
        <time>2015-08-23T16:21:23Z</time>
      </trkpt>
      <trkpt lat="45.30872" lon="6.94696">
        <ele>2135.0024</ele>
        <time>2015-08-23T16:21:28Z</time>
      </trkpt>
      <trkpt lat="45.30874" lon="6.94702">
        <ele>2135.0024</ele>
        <time>2015-08-23T16:21:38Z</time>
      </trkpt>
      <trkpt lat="45.30876" lon="6.94706">
        <ele>2136.3918</ele>
        <time>2015-08-23T16:21:43Z</time>
      </trkpt>
      <trkpt lat="45.3088" lon="6.94722">
        <ele>2137.698</ele>
        <time>2015-08-23T16:21:58Z</time>
      </trkpt>
      <trkpt lat="45.30882" lon="6.94725">
        <ele>2137.698</ele>
        <time>2015-08-23T16:22:03Z</time>
      </trkpt>
      <trkpt lat="45.30885" lon="6.94729">
        <ele>2137.698</ele>
        <time>2015-08-23T16:22:13Z</time>
      </trkpt>
      <trkpt lat="45.30886" lon="6.94733">
        <ele>2139.0588</ele>
        <time>2015-08-23T16:22:18Z</time>
      </trkpt>
      <trkpt lat="45.3089" lon="6.94739">
        <ele>2139.0588</ele>
        <time>2015-08-23T16:22:28Z</time>
      </trkpt>
      <trkpt lat="45.30893" lon="6.94743">
        <ele>2140.357</ele>
        <time>2015-08-23T16:22:33Z</time>
      </trkpt>
      <trkpt lat="45.30895" lon="6.94751">
        <ele>2140.357</ele>
        <time>2015-08-23T16:22:43Z</time>
      </trkpt>
      <trkpt lat="45.30895" lon="6.94756">
        <ele>2141.599</ele>
        <time>2015-08-23T16:22:48Z</time>
      </trkpt>
      <trkpt lat="45.30895" lon="6.94759">
        <ele>2141.599</ele>
        <time>2015-08-23T16:22:58Z</time>
      </trkpt>
      <trkpt lat="45.30894" lon="6.9476">
        <ele>2141.599</ele>
        <time>2015-08-23T16:23:03Z</time>
      </trkpt>
      <trkpt lat="45.30893" lon="6.9476">
        <ele>2141.599</ele>
        <time>2015-08-23T16:23:08Z</time>
      </trkpt>
      <trkpt lat="45.30893" lon="6.94759">
        <ele>2141.599</ele>
        <time>2015-08-23T16:23:13Z</time>
      </trkpt>
      <trkpt lat="45.30893" lon="6.9476">
        <ele>2141.599</ele>
        <time>2015-08-23T16:23:18Z</time>
      </trkpt>
      <trkpt lat="45.30893" lon="6.9476">
        <ele>2141.599</ele>
        <time>2015-08-23T16:23:28Z</time>
      </trkpt>
      <trkpt lat="45.30893" lon="6.94761">
        <ele>2141.599</ele>
        <time>2015-08-23T16:23:33Z</time>
      </trkpt>
      <trkpt lat="45.30894" lon="6.94762">
        <ele>2141.599</ele>
        <time>2015-08-23T16:23:38Z</time>
      </trkpt>
      <trkpt lat="45.30895" lon="6.94765">
        <ele>2142.9644</ele>
        <time>2015-08-23T16:23:43Z</time>
      </trkpt>
      <trkpt lat="45.30898" lon="6.9477">
        <ele>2142.9644</ele>
        <time>2015-08-23T16:23:53Z</time>
      </trkpt>
      <trkpt lat="45.30898" lon="6.94775">
        <ele>2142.9644</ele>
        <time>2015-08-23T16:23:58Z</time>
      </trkpt>
      <trkpt lat="45.30902" lon="6.94782">
        <ele>2144.0854</ele>
        <time>2015-08-23T16:24:08Z</time>
      </trkpt>
      <trkpt lat="45.30905" lon="6.94785">
        <ele>2144.0854</ele>
        <time>2015-08-23T16:24:13Z</time>
      </trkpt>
      <trkpt lat="45.3091" lon="6.94791">
        <ele>2145.1125</ele>
        <time>2015-08-23T16:24:23Z</time>
      </trkpt>
      <trkpt lat="45.30913" lon="6.94795">
        <ele>2145.1125</ele>
        <time>2015-08-23T16:24:28Z</time>
      </trkpt>
      <trkpt lat="45.3092" lon="6.94796">
        <ele>2146.084</ele>
        <time>2015-08-23T16:24:38Z</time>
      </trkpt>
      <trkpt lat="45.30922" lon="6.94797">
        <ele>2146.084</ele>
        <time>2015-08-23T16:24:43Z</time>
      </trkpt>
      <trkpt lat="45.30927" lon="6.94795">
        <ele>2146.084</ele>
        <time>2015-08-23T16:24:53Z</time>
      </trkpt>
      <trkpt lat="45.30929" lon="6.94796">
        <ele>2147.1362</ele>
        <time>2015-08-23T16:24:58Z</time>
      </trkpt>
      <trkpt lat="45.30931" lon="6.94801">
        <ele>2147.1362</ele>
        <time>2015-08-23T16:25:08Z</time>
      </trkpt>
      <trkpt lat="45.30934" lon="6.94803">
        <ele>2147.1362</ele>
        <time>2015-08-23T16:25:13Z</time>
      </trkpt>
      <trkpt lat="45.30938" lon="6.94805">
        <ele>2148.3525</ele>
        <time>2015-08-23T16:25:23Z</time>
      </trkpt>
      <trkpt lat="45.30942" lon="6.94806">
        <ele>2148.3525</ele>
        <time>2015-08-23T16:25:28Z</time>
      </trkpt>
      <trkpt lat="45.30945" lon="6.9481">
        <ele>2148.3525</ele>
        <time>2015-08-23T16:25:38Z</time>
      </trkpt>
      <trkpt lat="45.30946" lon="6.94812">
        <ele>2149.6797</ele>
        <time>2015-08-23T16:25:43Z</time>
      </trkpt>
      <trkpt lat="45.3095" lon="6.94816">
        <ele>2149.6797</ele>
        <time>2015-08-23T16:25:53Z</time>
      </trkpt>
      <trkpt lat="45.30952" lon="6.94819">
        <ele>2149.6797</ele>
        <time>2015-08-23T16:25:58Z</time>
      </trkpt>
      <trkpt lat="45.30956" lon="6.94825">
        <ele>2151.2551</ele>
        <time>2015-08-23T16:26:13Z</time>
      </trkpt>
      <trkpt lat="45.30959" lon="6.94826">
        <ele>2151.2551</ele>
        <time>2015-08-23T16:26:18Z</time>
      </trkpt>
      <trkpt lat="45.30962" lon="6.94826">
        <ele>2151.2551</ele>
        <time>2015-08-23T16:26:28Z</time>
      </trkpt>
      <trkpt lat="45.30964" lon="6.94828">
        <ele>2151.2551</ele>
        <time>2015-08-23T16:26:33Z</time>
      </trkpt>
      <trkpt lat="45.30967" lon="6.94833">
        <ele>2153.2634</ele>
        <time>2015-08-23T16:26:43Z</time>
      </trkpt>
      <trkpt lat="45.30967" lon="6.94834">
        <ele>2153.2634</ele>
        <time>2015-08-23T16:26:48Z</time>
      </trkpt>
      <trkpt lat="45.30968" lon="6.94838">
        <ele>2153.2634</ele>
        <time>2015-08-23T16:26:58Z</time>
      </trkpt>
      <trkpt lat="45.30969" lon="6.94838">
        <ele>2153.2634</ele>
        <time>2015-08-23T16:27:03Z</time>
      </trkpt>
      <trkpt lat="45.30972" lon="6.94843">
        <ele>2155.456</ele>
        <time>2015-08-23T16:27:13Z</time>
      </trkpt>
      <trkpt lat="45.30973" lon="6.94844">
        <ele>2155.456</ele>
        <time>2015-08-23T16:27:18Z</time>
      </trkpt>
      <trkpt lat="45.30978" lon="6.94847">
        <ele>2155.456</ele>
        <time>2015-08-23T16:27:28Z</time>
      </trkpt>
      <trkpt lat="45.30977" lon="6.94848">
        <ele>2155.456</ele>
        <time>2015-08-23T16:27:33Z</time>
      </trkpt>
      <trkpt lat="45.30976" lon="6.94845">
        <ele>2157.5593</ele>
        <time>2015-08-23T16:27:48Z</time>
      </trkpt>
      <trkpt lat="45.30977" lon="6.94846">
        <ele>2157.5593</ele>
        <time>2015-08-23T16:27:53Z</time>
      </trkpt>
      <trkpt lat="45.3098" lon="6.9485">
        <ele>2157.5593</ele>
        <time>2015-08-23T16:28:03Z</time>
      </trkpt>
      <trkpt lat="45.30981" lon="6.94851">
        <ele>2157.5593</ele>
        <time>2015-08-23T16:28:08Z</time>
      </trkpt>
      <trkpt lat="45.30984" lon="6.94851">
        <ele>2159.4348</ele>
        <time>2015-08-23T16:28:18Z</time>
      </trkpt>
      <trkpt lat="45.30985" lon="6.94852">
        <ele>2159.4348</ele>
        <time>2015-08-23T16:28:23Z</time>
      </trkpt>
      <trkpt lat="45.30987" lon="6.94858">
        <ele>2159.4348</ele>
        <time>2015-08-23T16:28:33Z</time>
      </trkpt>
      <trkpt lat="45.30988" lon="6.94861">
        <ele>2159.4348</ele>
        <time>2015-08-23T16:28:38Z</time>
      </trkpt>
      <trkpt lat="45.3099" lon="6.94863">
        <ele>2161.6035</ele>
        <time>2015-08-23T16:28:48Z</time>
      </trkpt>
      <trkpt lat="45.30989" lon="6.94862">
        <ele>2161.6035</ele>
        <time>2015-08-23T16:28:53Z</time>
      </trkpt>
      <trkpt lat="45.30991" lon="6.94865">
        <ele>2161.6035</ele>
        <time>2015-08-23T16:29:03Z</time>
      </trkpt>
      <trkpt lat="45.30992" lon="6.94865">
        <ele>2161.6035</ele>
        <time>2015-08-23T16:29:08Z</time>
      </trkpt>
      <trkpt lat="45.30993" lon="6.94867">
        <ele>2161.6035</ele>
        <time>2015-08-23T16:29:18Z</time>
      </trkpt>
      <trkpt lat="45.30993" lon="6.9487">
        <ele>2161.6035</ele>
        <time>2015-08-23T16:29:23Z</time>
      </trkpt>
      <trkpt lat="45.30995" lon="6.94881">
        <ele>2164.2014</ele>
        <time>2015-08-23T16:29:38Z</time>
      </trkpt>
      <trkpt lat="45.30996" lon="6.94884">
        <ele>2164.2014</ele>
        <time>2015-08-23T16:29:43Z</time>
      </trkpt>
      <trkpt lat="45.30999" lon="6.94891">
        <ele>2164.2014</ele>
        <time>2015-08-23T16:29:53Z</time>
      </trkpt>
      <trkpt lat="45.30999" lon="6.94894">
        <ele>2166.964</ele>
        <time>2015-08-23T16:29:58Z</time>
      </trkpt>
      <trkpt lat="45.31" lon="6.949">
        <ele>2166.964</ele>
        <time>2015-08-23T16:30:08Z</time>
      </trkpt>
      <trkpt lat="45.31002" lon="6.949">
        <ele>2166.964</ele>
        <time>2015-08-23T16:30:13Z</time>
      </trkpt>
      <trkpt lat="45.31008" lon="6.94901">
        <ele>2169.7615</ele>
        <time>2015-08-23T16:30:23Z</time>
      </trkpt>
      <trkpt lat="45.31009" lon="6.94901">
        <ele>2169.7615</ele>
        <time>2015-08-23T16:30:28Z</time>
      </trkpt>
      <trkpt lat="45.31015" lon="6.94903">
        <ele>2169.7615</ele>
        <time>2015-08-23T16:30:38Z</time>
      </trkpt>
      <trkpt lat="45.31016" lon="6.94904">
        <ele>2169.7615</ele>
        <time>2015-08-23T16:30:43Z</time>
      </trkpt>
      <trkpt lat="45.31019" lon="6.94908">
        <ele>2172.7903</ele>
        <time>2015-08-23T16:30:53Z</time>
      </trkpt>
      <trkpt lat="45.3102" lon="6.94909">
        <ele>2172.7903</ele>
        <time>2015-08-23T16:30:58Z</time>
      </trkpt>
      <trkpt lat="45.31025" lon="6.94911">
        <ele>2172.7903</ele>
        <time>2015-08-23T16:31:08Z</time>
      </trkpt>
      <trkpt lat="45.31027" lon="6.94913">
        <ele>2172.7903</ele>
        <time>2015-08-23T16:31:13Z</time>
      </trkpt>
      <trkpt lat="45.3103" lon="6.94916">
        <ele>2175.9575</ele>
        <time>2015-08-23T16:31:23Z</time>
      </trkpt>
      <trkpt lat="45.31032" lon="6.94916">
        <ele>2175.9575</ele>
        <time>2015-08-23T16:31:28Z</time>
      </trkpt>
      <trkpt lat="45.31033" lon="6.94917">
        <ele>2175.9575</ele>
        <time>2015-08-23T16:31:43Z</time>
      </trkpt>
      <trkpt lat="45.31033" lon="6.9492">
        <ele>2175.9575</ele>
        <time>2015-08-23T16:31:48Z</time>
      </trkpt>
      <trkpt lat="45.31032" lon="6.94919">
        <ele>2175.9575</ele>
        <time>2015-08-23T16:31:58Z</time>
      </trkpt>
      <trkpt lat="45.31032" lon="6.94921">
        <ele>2175.9575</ele>
        <time>2015-08-23T16:32:03Z</time>
      </trkpt>
      <trkpt lat="45.31031" lon="6.94924">
        <ele>2178.716</ele>
        <time>2015-08-23T16:32:13Z</time>
      </trkpt>
      <trkpt lat="45.31031" lon="6.94924">
        <ele>2178.716</ele>
        <time>2015-08-23T16:32:18Z</time>
      </trkpt>
      <trkpt lat="45.31032" lon="6.94923">
        <ele>2178.716</ele>
        <time>2015-08-23T16:32:28Z</time>
      </trkpt>
      <trkpt lat="45.3103" lon="6.9492">
        <ele>2178.716</ele>
        <time>2015-08-23T16:32:33Z</time>
      </trkpt>
      <trkpt lat="45.31031" lon="6.94921">
        <ele>2178.716</ele>
        <time>2015-08-23T16:32:43Z</time>
      </trkpt>
      <trkpt lat="45.31031" lon="6.94917">
        <ele>2178.716</ele>
        <time>2015-08-23T16:32:48Z</time>
      </trkpt>
      <trkpt lat="45.3103" lon="6.94915">
        <ele>2181.3525</ele>
        <time>2015-08-23T16:32:58Z</time>
      </trkpt>
      <trkpt lat="45.3103" lon="6.94913">
        <ele>2181.3525</ele>
        <time>2015-08-23T16:33:03Z</time>
      </trkpt>
      <trkpt lat="45.31034" lon="6.94902">
        <ele>2183.8596</ele>
        <time>2015-08-23T16:33:13Z</time>
      </trkpt>
      <trkpt lat="45.31034" lon="6.94896">
        <ele>2183.8596</ele>
        <time>2015-08-23T16:33:18Z</time>
      </trkpt>
      <trkpt lat="45.31039" lon="6.94881">
        <ele>2186.2156</ele>
        <time>2015-08-23T16:33:33Z</time>
      </trkpt>
      <trkpt lat="45.3104" lon="6.94877">
        <ele>2186.2156</ele>
        <time>2015-08-23T16:33:38Z</time>
      </trkpt>
      <trkpt lat="45.31043" lon="6.94872">
        <ele>2186.2156</ele>
        <time>2015-08-23T16:33:48Z</time>
      </trkpt>
      <trkpt lat="45.31043" lon="6.94869">
        <ele>2188.5168</ele>
        <time>2015-08-23T16:33:53Z</time>
      </trkpt>
      <trkpt lat="45.31045" lon="6.94859">
        <ele>2188.5168</ele>
        <time>2015-08-23T16:34:03Z</time>
      </trkpt>
      <trkpt lat="45.31044" lon="6.94857">
        <ele>2188.5168</ele>
        <time>2015-08-23T16:34:08Z</time>
      </trkpt>
      <trkpt lat="45.31044" lon="6.94847">
        <ele>2190.9387</ele>
        <time>2015-08-23T16:34:18Z</time>
      </trkpt>
      <trkpt lat="45.31044" lon="6.94844">
        <ele>2190.9387</ele>
        <time>2015-08-23T16:34:23Z</time>
      </trkpt>
      <trkpt lat="45.31045" lon="6.94837">
        <ele>2190.9387</ele>
        <time>2015-08-23T16:34:33Z</time>
      </trkpt>
      <trkpt lat="45.31046" lon="6.94834">
        <ele>2193.4133</ele>
        <time>2015-08-23T16:34:38Z</time>
      </trkpt>
      <trkpt lat="45.31046" lon="6.94824">
        <ele>2193.4133</ele>
        <time>2015-08-23T16:34:48Z</time>
      </trkpt>
      <trkpt lat="45.31045" lon="6.94821">
        <ele>2195.791</ele>
        <time>2015-08-23T16:34:53Z</time>
      </trkpt>
      <trkpt lat="45.31044" lon="6.94815">
        <ele>2195.791</ele>
        <time>2015-08-23T16:35:03Z</time>
      </trkpt>
      <trkpt lat="45.31044" lon="6.94811">
        <ele>2195.791</ele>
        <time>2015-08-23T16:35:08Z</time>
      </trkpt>
      <trkpt lat="45.31045" lon="6.94799">
        <ele>2198.3657</ele>
        <time>2015-08-23T16:35:23Z</time>
      </trkpt>
      <trkpt lat="45.31045" lon="6.94797">
        <ele>2198.3657</ele>
        <time>2015-08-23T16:35:28Z</time>
      </trkpt>
      <trkpt lat="45.31048" lon="6.94791">
        <ele>2198.3657</ele>
        <time>2015-08-23T16:35:38Z</time>
      </trkpt>
      <trkpt lat="45.31048" lon="6.94788">
        <ele>2198.3657</ele>
        <time>2015-08-23T16:35:43Z</time>
      </trkpt>
      <trkpt lat="45.31049" lon="6.94782">
        <ele>2200.8328</ele>
        <time>2015-08-23T16:35:53Z</time>
      </trkpt>
      <trkpt lat="45.3105" lon="6.94779">
        <ele>2200.8328</ele>
        <time>2015-08-23T16:35:58Z</time>
      </trkpt>
      <trkpt lat="45.31053" lon="6.94773">
        <ele>2200.8328</ele>
        <time>2015-08-23T16:36:08Z</time>
      </trkpt>
      <trkpt lat="45.31053" lon="6.94772">
        <ele>2200.8328</ele>
        <time>2015-08-23T16:36:13Z</time>
      </trkpt>
      <trkpt lat="45.31054" lon="6.94764">
        <ele>2203.242</ele>
        <time>2015-08-23T16:36:23Z</time>
      </trkpt>
      <trkpt lat="45.31055" lon="6.9476">
        <ele>2203.242</ele>
        <time>2015-08-23T16:36:28Z</time>
      </trkpt>
      <trkpt lat="45.31056" lon="6.94753">
        <ele>2203.242</ele>
        <time>2015-08-23T16:36:38Z</time>
      </trkpt>
      <trkpt lat="45.31056" lon="6.94749">
        <ele>2205.5813</ele>
        <time>2015-08-23T16:36:43Z</time>
      </trkpt>
      <trkpt lat="45.31057" lon="6.9474">
        <ele>2205.5813</ele>
        <time>2015-08-23T16:36:58Z</time>
      </trkpt>
      <trkpt lat="45.31058" lon="6.94736">
        <ele>2207.9275</ele>
        <time>2015-08-23T16:37:03Z</time>
      </trkpt>
      <trkpt lat="45.31054" lon="6.9473">
        <ele>2207.9275</ele>
        <time>2015-08-23T16:37:13Z</time>
      </trkpt>
      <trkpt lat="45.31052" lon="6.94727">
        <ele>2207.9275</ele>
        <time>2015-08-23T16:37:18Z</time>
      </trkpt>
      <trkpt lat="45.31052" lon="6.94717">
        <ele>2210.293</ele>
        <time>2015-08-23T16:37:28Z</time>
      </trkpt>
      <trkpt lat="45.31051" lon="6.94713">
        <ele>2210.293</ele>
        <time>2015-08-23T16:37:33Z</time>
      </trkpt>
      <trkpt lat="45.31051" lon="6.94706">
        <ele>2210.293</ele>
        <time>2015-08-23T16:37:43Z</time>
      </trkpt>
      <trkpt lat="45.31049" lon="6.947">
        <ele>2212.5027</ele>
        <time>2015-08-23T16:37:48Z</time>
      </trkpt>
      <trkpt lat="45.31042" lon="6.94695">
        <ele>2212.5027</ele>
        <time>2015-08-23T16:37:58Z</time>
      </trkpt>
      <trkpt lat="45.3104" lon="6.94692">
        <ele>2214.5957</ele>
        <time>2015-08-23T16:38:03Z</time>
      </trkpt>
      <trkpt lat="45.31036" lon="6.94687">
        <ele>2214.5957</ele>
        <time>2015-08-23T16:38:13Z</time>
      </trkpt>
      <trkpt lat="45.31033" lon="6.94682">
        <ele>2216.797</ele>
        <time>2015-08-23T16:38:18Z</time>
      </trkpt>
      <trkpt lat="45.31031" lon="6.94677">
        <ele>2216.797</ele>
        <time>2015-08-23T16:38:28Z</time>
      </trkpt>
      <trkpt lat="45.3103" lon="6.94675">
        <ele>2216.797</ele>
        <time>2015-08-23T16:38:33Z</time>
      </trkpt>
      <trkpt lat="45.31024" lon="6.94666">
        <ele>2219.689</ele>
        <time>2015-08-23T16:38:48Z</time>
      </trkpt>
      <trkpt lat="45.31023" lon="6.94662">
        <ele>2219.689</ele>
        <time>2015-08-23T16:38:53Z</time>
      </trkpt>
      <trkpt lat="45.31025" lon="6.94658">
        <ele>2219.689</ele>
        <time>2015-08-23T16:39:03Z</time>
      </trkpt>
      <trkpt lat="45.31026" lon="6.94654">
        <ele>2219.689</ele>
        <time>2015-08-23T16:39:08Z</time>
      </trkpt>
      <trkpt lat="45.31026" lon="6.94647">
        <ele>2222.4834</ele>
        <time>2015-08-23T16:39:18Z</time>
      </trkpt>
      <trkpt lat="45.31026" lon="6.94643">
        <ele>2222.4834</ele>
        <time>2015-08-23T16:39:23Z</time>
      </trkpt>
      <trkpt lat="45.31027" lon="6.94638">
        <ele>2222.4834</ele>
        <time>2015-08-23T16:39:33Z</time>
      </trkpt>
      <trkpt lat="45.31027" lon="6.94635">
        <ele>2225.0703</ele>
        <time>2015-08-23T16:39:38Z</time>
      </trkpt>
      <trkpt lat="45.31026" lon="6.9463">
        <ele>2225.0703</ele>
        <time>2015-08-23T16:39:48Z</time>
      </trkpt>
      <trkpt lat="45.31025" lon="6.94627">
        <ele>2225.0703</ele>
        <time>2015-08-23T16:39:53Z</time>
      </trkpt>
      <trkpt lat="45.31025" lon="6.94621">
        <ele>2227.5496</ele>
        <time>2015-08-23T16:40:03Z</time>
      </trkpt>
      <trkpt lat="45.31025" lon="6.94617">
        <ele>2227.5496</ele>
        <time>2015-08-23T16:40:08Z</time>
      </trkpt>
      <trkpt lat="45.31022" lon="6.94614">
        <ele>2227.5496</ele>
        <time>2015-08-23T16:40:18Z</time>
      </trkpt>
      <trkpt lat="45.31022" lon="6.9461">
        <ele>2227.5496</ele>
        <time>2015-08-23T16:40:23Z</time>
      </trkpt>
      <trkpt lat="45.31022" lon="6.94601">
        <ele>2229.914</ele>
        <time>2015-08-23T16:40:33Z</time>
      </trkpt>
      <trkpt lat="45.31022" lon="6.94597">
        <ele>2229.914</ele>
        <time>2015-08-23T16:40:38Z</time>
      </trkpt>
      <trkpt lat="45.31023" lon="6.94587">
        <ele>2232.2</ele>
        <time>2015-08-23T16:40:48Z</time>
      </trkpt>
      <trkpt lat="45.31025" lon="6.94583">
        <ele>2232.2</ele>
        <time>2015-08-23T16:40:53Z</time>
      </trkpt>
      <trkpt lat="45.31026" lon="6.94574">
        <ele>2234.3694</ele>
        <time>2015-08-23T16:41:03Z</time>
      </trkpt>
      <trkpt lat="45.31026" lon="6.94569">
        <ele>2234.3694</ele>
        <time>2015-08-23T16:41:08Z</time>
      </trkpt>
      <trkpt lat="45.31027" lon="6.94552">
        <ele>2236.4167</ele>
        <time>2015-08-23T16:41:23Z</time>
      </trkpt>
      <trkpt lat="45.31028" lon="6.94547">
        <ele>2236.4167</ele>
        <time>2015-08-23T16:41:28Z</time>
      </trkpt>
      <trkpt lat="45.3103" lon="6.94538">
        <ele>2238.2932</ele>
        <time>2015-08-23T16:41:38Z</time>
      </trkpt>
      <trkpt lat="45.31032" lon="6.94533">
        <ele>2238.2932</ele>
        <time>2015-08-23T16:41:43Z</time>
      </trkpt>
      <trkpt lat="45.31035" lon="6.94524">
        <ele>2240.0557</ele>
        <time>2015-08-23T16:41:53Z</time>
      </trkpt>
      <trkpt lat="45.31036" lon="6.94521">
        <ele>2240.0557</ele>
        <time>2015-08-23T16:41:58Z</time>
      </trkpt>
      <trkpt lat="45.31039" lon="6.94512">
        <ele>2241.6272</ele>
        <time>2015-08-23T16:42:08Z</time>
      </trkpt>
      <trkpt lat="45.3104" lon="6.94508">
        <ele>2241.6272</ele>
        <time>2015-08-23T16:42:13Z</time>
      </trkpt>
      <trkpt lat="45.31041" lon="6.945">
        <ele>2241.6272</ele>
        <time>2015-08-23T16:42:23Z</time>
      </trkpt>
      <trkpt lat="45.31041" lon="6.94493">
        <ele>2243.1099</ele>
        <time>2015-08-23T16:42:28Z</time>
      </trkpt>
      <trkpt lat="45.3104" lon="6.94485">
        <ele>2243.1099</ele>
        <time>2015-08-23T16:42:38Z</time>
      </trkpt>
      <trkpt lat="45.31041" lon="6.9448">
        <ele>2244.4114</ele>
        <time>2015-08-23T16:42:43Z</time>
      </trkpt>
      <trkpt lat="45.31042" lon="6.94468">
        <ele>2244.4114</ele>
        <time>2015-08-23T16:42:58Z</time>
      </trkpt>
      <trkpt lat="45.31043" lon="6.94466">
        <ele>2245.6052</ele>
        <time>2015-08-23T16:43:03Z</time>
      </trkpt>
      <trkpt lat="45.31044" lon="6.9446">
        <ele>2245.6052</ele>
        <time>2015-08-23T16:43:13Z</time>
      </trkpt>
      <trkpt lat="45.31044" lon="6.94456">
        <ele>2245.6052</ele>
        <time>2015-08-23T16:43:18Z</time>
      </trkpt>
      <trkpt lat="45.31046" lon="6.94449">
        <ele>2246.8318</ele>
        <time>2015-08-23T16:43:28Z</time>
      </trkpt>
      <trkpt lat="45.31048" lon="6.94445">
        <ele>2246.8318</ele>
        <time>2015-08-23T16:43:33Z</time>
      </trkpt>
      <trkpt lat="45.31047" lon="6.9444">
        <ele>2246.8318</ele>
        <time>2015-08-23T16:43:43Z</time>
      </trkpt>
      <trkpt lat="45.31047" lon="6.94436">
        <ele>2248.1204</ele>
        <time>2015-08-23T16:43:48Z</time>
      </trkpt>
      <trkpt lat="45.3105" lon="6.94428">
        <ele>2248.1204</ele>
        <time>2015-08-23T16:43:58Z</time>
      </trkpt>
      <trkpt lat="45.3105" lon="6.94426">
        <ele>2248.1204</ele>
        <time>2015-08-23T16:44:03Z</time>
      </trkpt>
      <trkpt lat="45.31052" lon="6.94417">
        <ele>2249.512</ele>
        <time>2015-08-23T16:44:13Z</time>
      </trkpt>
      <trkpt lat="45.31053" lon="6.94413">
        <ele>2249.512</ele>
        <time>2015-08-23T16:44:18Z</time>
      </trkpt>
      <trkpt lat="45.31052" lon="6.94402">
        <ele>2250.8572</ele>
        <time>2015-08-23T16:44:33Z</time>
      </trkpt>
      <trkpt lat="45.31052" lon="6.94398">
        <ele>2250.8572</ele>
        <time>2015-08-23T16:44:38Z</time>
      </trkpt>
      <trkpt lat="45.31052" lon="6.94389">
        <ele>2252.1328</ele>
        <time>2015-08-23T16:44:48Z</time>
      </trkpt>
      <trkpt lat="45.31051" lon="6.94384">
        <ele>2252.1328</ele>
        <time>2015-08-23T16:44:53Z</time>
      </trkpt>
      <trkpt lat="45.31049" lon="6.94372">
        <ele>2253.3901</ele>
        <time>2015-08-23T16:45:03Z</time>
      </trkpt>
      <trkpt lat="45.31048" lon="6.94368">
        <ele>2253.3901</ele>
        <time>2015-08-23T16:45:08Z</time>
      </trkpt>
      <trkpt lat="45.31046" lon="6.94363">
        <ele>2253.3901</ele>
        <time>2015-08-23T16:45:18Z</time>
      </trkpt>
      <trkpt lat="45.31047" lon="6.94361">
        <ele>2253.3901</ele>
        <time>2015-08-23T16:45:23Z</time>
      </trkpt>
      <trkpt lat="45.31049" lon="6.94352">
        <ele>2254.8054</ele>
        <time>2015-08-23T16:45:33Z</time>
      </trkpt>
      <trkpt lat="45.31049" lon="6.9435">
        <ele>2254.8054</ele>
        <time>2015-08-23T16:45:38Z</time>
      </trkpt>
      <trkpt lat="45.31049" lon="6.94341">
        <ele>2254.8054</ele>
        <time>2015-08-23T16:45:48Z</time>
      </trkpt>
      <trkpt lat="45.31048" lon="6.94336">
        <ele>2256.2827</ele>
        <time>2015-08-23T16:45:53Z</time>
      </trkpt>
      <trkpt lat="45.31049" lon="6.94331">
        <ele>2256.2827</ele>
        <time>2015-08-23T16:46:03Z</time>
      </trkpt>
      <trkpt lat="45.31051" lon="6.94329">
        <ele>2256.2827</ele>
        <time>2015-08-23T16:46:08Z</time>
      </trkpt>
      <trkpt lat="45.31048" lon="6.9432">
        <ele>2257.8772</ele>
        <time>2015-08-23T16:46:18Z</time>
      </trkpt>
      <trkpt lat="45.31046" lon="6.94317">
        <ele>2257.8772</ele>
        <time>2015-08-23T16:46:23Z</time>
      </trkpt>
      <trkpt lat="45.31047" lon="6.94307">
        <ele>2259.3364</ele>
        <time>2015-08-23T16:46:33Z</time>
      </trkpt>
      <trkpt lat="45.31047" lon="6.94302">
        <ele>2259.3364</ele>
        <time>2015-08-23T16:46:38Z</time>
      </trkpt>
      <trkpt lat="45.31048" lon="6.94292">
        <ele>2260.802</ele>
        <time>2015-08-23T16:46:48Z</time>
      </trkpt>
      <trkpt lat="45.31049" lon="6.94288">
        <ele>2260.802</ele>
        <time>2015-08-23T16:46:53Z</time>
      </trkpt>
      <trkpt lat="45.31052" lon="6.94275">
        <ele>2262.174</ele>
        <time>2015-08-23T16:47:08Z</time>
      </trkpt>
      <trkpt lat="45.31052" lon="6.94269">
        <ele>2262.174</ele>
        <time>2015-08-23T16:47:13Z</time>
      </trkpt>
      <trkpt lat="45.31054" lon="6.94258">
        <ele>2263.4185</ele>
        <time>2015-08-23T16:47:23Z</time>
      </trkpt>
      <trkpt lat="45.31054" lon="6.94254">
        <ele>2263.4185</ele>
        <time>2015-08-23T16:47:28Z</time>
      </trkpt>
      <trkpt lat="45.31054" lon="6.94246">
        <ele>2263.4185</ele>
        <time>2015-08-23T16:47:38Z</time>
      </trkpt>
      <trkpt lat="45.31054" lon="6.9424">
        <ele>2264.6472</ele>
        <time>2015-08-23T16:47:43Z</time>
      </trkpt>
      <trkpt lat="45.31054" lon="6.9423">
        <ele>2264.6472</ele>
        <time>2015-08-23T16:47:53Z</time>
      </trkpt>
      <trkpt lat="45.31055" lon="6.94225">
        <ele>2265.8064</ele>
        <time>2015-08-23T16:47:58Z</time>
      </trkpt>
      <trkpt lat="45.31056" lon="6.94216">
        <ele>2265.8064</ele>
        <time>2015-08-23T16:48:08Z</time>
      </trkpt>
      <trkpt lat="45.31056" lon="6.9421">
        <ele>2266.9036</ele>
        <time>2015-08-23T16:48:13Z</time>
      </trkpt>
      <trkpt lat="45.31056" lon="6.94203">
        <ele>2266.9036</ele>
        <time>2015-08-23T16:48:23Z</time>
      </trkpt>
      <trkpt lat="45.31056" lon="6.942">
        <ele>2266.9036</ele>
        <time>2015-08-23T16:48:28Z</time>
      </trkpt>
      <trkpt lat="45.31057" lon="6.94191">
        <ele>2267.9165</ele>
        <time>2015-08-23T16:48:38Z</time>
      </trkpt>
      <trkpt lat="45.31058" lon="6.94187">
        <ele>2267.9165</ele>
        <time>2015-08-23T16:48:43Z</time>
      </trkpt>
      <trkpt lat="45.31059" lon="6.9418">
        <ele>2267.9165</ele>
        <time>2015-08-23T16:48:53Z</time>
      </trkpt>
      <trkpt lat="45.3106" lon="6.94177">
        <ele>2268.9407</ele>
        <time>2015-08-23T16:48:58Z</time>
      </trkpt>
      <trkpt lat="45.31063" lon="6.94171">
        <ele>2268.9407</ele>
        <time>2015-08-23T16:49:08Z</time>
      </trkpt>
      <trkpt lat="45.31064" lon="6.94167">
        <ele>2268.9407</ele>
        <time>2015-08-23T16:49:13Z</time>
      </trkpt>
      <trkpt lat="45.31067" lon="6.94159">
        <ele>2270.2805</ele>
        <time>2015-08-23T16:49:28Z</time>
      </trkpt>
      <trkpt lat="45.31068" lon="6.94155">
        <ele>2270.2805</ele>
        <time>2015-08-23T16:49:33Z</time>
      </trkpt>
      <trkpt lat="45.31071" lon="6.94148">
        <ele>2270.2805</ele>
        <time>2015-08-23T16:49:43Z</time>
      </trkpt>
      <trkpt lat="45.31072" lon="6.94145">
        <ele>2271.8135</ele>
        <time>2015-08-23T16:49:48Z</time>
      </trkpt>
      <trkpt lat="45.31072" lon="6.94143">
        <ele>2271.8135</ele>
        <time>2015-08-23T16:49:58Z</time>
      </trkpt>
      <trkpt lat="45.31072" lon="6.94144">
        <ele>2271.8135</ele>
        <time>2015-08-23T16:50:03Z</time>
      </trkpt>
      <trkpt lat="45.3107" lon="6.94144">
        <ele>2271.8135</ele>
        <time>2015-08-23T16:50:13Z</time>
      </trkpt>
      <trkpt lat="45.31071" lon="6.94143">
        <ele>2271.8135</ele>
        <time>2015-08-23T16:50:18Z</time>
      </trkpt>
      <trkpt lat="45.31072" lon="6.94137">
        <ele>2271.8135</ele>
        <time>2015-08-23T16:50:28Z</time>
      </trkpt>
      <trkpt lat="45.31073" lon="6.94136">
        <ele>2273.4543</ele>
        <time>2015-08-23T16:50:33Z</time>
      </trkpt>
      <trkpt lat="45.31077" lon="6.9413">
        <ele>2273.4543</ele>
        <time>2015-08-23T16:50:43Z</time>
      </trkpt>
      <trkpt lat="45.31077" lon="6.94125">
        <ele>2273.4543</ele>
        <time>2015-08-23T16:50:48Z</time>
      </trkpt>
      <trkpt lat="45.31078" lon="6.94118">
        <ele>2275.1812</ele>
        <time>2015-08-23T16:50:58Z</time>
      </trkpt>
      <trkpt lat="45.31078" lon="6.94115">
        <ele>2275.1812</ele>
        <time>2015-08-23T16:51:03Z</time>
      </trkpt>
      <trkpt lat="45.31076" lon="6.94109">
        <ele>2275.1812</ele>
        <time>2015-08-23T16:51:13Z</time>
      </trkpt>
      <trkpt lat="45.31076" lon="6.94104">
        <ele>2277.046</ele>
        <time>2015-08-23T16:51:18Z</time>
      </trkpt>
      <trkpt lat="45.31075" lon="6.94099">
        <ele>2277.046</ele>
        <time>2015-08-23T16:51:28Z</time>
      </trkpt>
      <trkpt lat="45.31074" lon="6.94095">
        <ele>2277.046</ele>
        <time>2015-08-23T16:51:33Z</time>
      </trkpt>
      <trkpt lat="45.31073" lon="6.94092">
        <ele>2277.046</ele>
        <time>2015-08-23T16:51:48Z</time>
      </trkpt>
      <trkpt lat="45.31072" lon="6.94091">
        <ele>2279.1963</ele>
        <time>2015-08-23T16:51:53Z</time>
      </trkpt>
      <trkpt lat="45.31071" lon="6.94094">
        <ele>2279.1963</ele>
        <time>2015-08-23T16:52:03Z</time>
      </trkpt>
      <trkpt lat="45.31072" lon="6.94093">
        <ele>2279.1963</ele>
        <time>2015-08-23T16:52:08Z</time>
      </trkpt>
      <trkpt lat="45.31072" lon="6.94092">
        <ele>2279.1963</ele>
        <time>2015-08-23T16:52:18Z</time>
      </trkpt>
      <trkpt lat="45.31073" lon="6.94089">
        <ele>2279.1963</ele>
        <time>2015-08-23T16:52:23Z</time>
      </trkpt>
      <trkpt lat="45.31075" lon="6.94081">
        <ele>2281.5823</ele>
        <time>2015-08-23T16:52:33Z</time>
      </trkpt>
      <trkpt lat="45.31075" lon="6.94076">
        <ele>2281.5823</ele>
        <time>2015-08-23T16:52:38Z</time>
      </trkpt>
      <trkpt lat="45.31073" lon="6.94067">
        <ele>2283.8816</ele>
        <time>2015-08-23T16:52:48Z</time>
      </trkpt>
      <trkpt lat="45.31072" lon="6.94064">
        <ele>2283.8816</ele>
        <time>2015-08-23T16:52:53Z</time>
      </trkpt>
      <trkpt lat="45.31073" lon="6.94057">
        <ele>2283.8816</ele>
        <time>2015-08-23T16:53:03Z</time>
      </trkpt>
      <trkpt lat="45.31075" lon="6.94052">
        <ele>2285.9983</ele>
        <time>2015-08-23T16:53:08Z</time>
      </trkpt>
      <trkpt lat="45.31076" lon="6.94047">
        <ele>2285.9983</ele>
        <time>2015-08-23T16:53:18Z</time>
      </trkpt>
      <trkpt lat="45.31076" lon="6.94043">
        <ele>2285.9983</ele>
        <time>2015-08-23T16:53:23Z</time>
      </trkpt>
      <trkpt lat="45.31077" lon="6.94035">
        <ele>2287.9883</ele>
        <time>2015-08-23T16:53:33Z</time>
      </trkpt>
      <trkpt lat="45.31077" lon="6.94031">
        <ele>2287.9883</ele>
        <time>2015-08-23T16:53:38Z</time>
      </trkpt>
      <trkpt lat="45.31081" lon="6.94017">
        <ele>2289.7593</ele>
        <time>2015-08-23T16:53:48Z</time>
      </trkpt>
      <trkpt lat="45.31082" lon="6.94012">
        <ele>2289.7593</ele>
        <time>2015-08-23T16:53:53Z</time>
      </trkpt>
      <trkpt lat="45.31085" lon="6.93999">
        <ele>2291.154</ele>
        <time>2015-08-23T16:54:03Z</time>
      </trkpt>
      <trkpt lat="45.31085" lon="6.93993">
        <ele>2291.154</ele>
        <time>2015-08-23T16:54:08Z</time>
      </trkpt>
      <trkpt lat="45.31081" lon="6.93977">
        <ele>2292.389</ele>
        <time>2015-08-23T16:54:23Z</time>
      </trkpt>
      <trkpt lat="45.31078" lon="6.93967">
        <ele>2292.389</ele>
        <time>2015-08-23T16:54:28Z</time>
      </trkpt>
      <trkpt lat="45.31073" lon="6.93954">
        <ele>2293.5774</ele>
        <time>2015-08-23T16:54:38Z</time>
      </trkpt>
      <trkpt lat="45.31071" lon="6.93946">
        <ele>2293.5774</ele>
        <time>2015-08-23T16:54:43Z</time>
      </trkpt>
      <trkpt lat="45.31068" lon="6.93933">
        <ele>2294.249</ele>
        <time>2015-08-23T16:54:53Z</time>
      </trkpt>
      <trkpt lat="45.31067" lon="6.93926">
        <ele>2294.249</ele>
        <time>2015-08-23T16:54:58Z</time>
      </trkpt>
      <trkpt lat="45.31066" lon="6.93909">
        <ele>2294.4592</ele>
        <time>2015-08-23T16:55:08Z</time>
      </trkpt>
      <trkpt lat="45.31066" lon="6.93903">
        <ele>2294.4592</ele>
        <time>2015-08-23T16:55:13Z</time>
      </trkpt>
      <trkpt lat="45.31069" lon="6.93891">
        <ele>2294.433</ele>
        <time>2015-08-23T16:55:23Z</time>
      </trkpt>
      <trkpt lat="45.31069" lon="6.93884">
        <ele>2294.433</ele>
        <time>2015-08-23T16:55:28Z</time>
      </trkpt>
      <trkpt lat="45.31068" lon="6.93874">
        <ele>2294.121</ele>
        <time>2015-08-23T16:55:38Z</time>
      </trkpt>
      <trkpt lat="45.31067" lon="6.93867">
        <ele>2294.121</ele>
        <time>2015-08-23T16:55:43Z</time>
      </trkpt>
      <trkpt lat="45.31067" lon="6.93855">
        <ele>2293.3765</ele>
        <time>2015-08-23T16:55:53Z</time>
      </trkpt>
      <trkpt lat="45.31067" lon="6.93852">
        <ele>2293.3765</ele>
        <time>2015-08-23T16:55:58Z</time>
      </trkpt>
      <trkpt lat="45.31067" lon="6.93851">
        <ele>2293.3765</ele>
        <time>2015-08-23T16:56:08Z</time>
      </trkpt>
      <trkpt lat="45.31068" lon="6.93853">
        <ele>2293.3765</ele>
        <time>2015-08-23T16:56:13Z</time>
      </trkpt>
      <trkpt lat="45.31069" lon="6.93852">
        <ele>2293.3765</ele>
        <time>2015-08-23T16:56:28Z</time>
      </trkpt>
      <trkpt lat="45.31069" lon="6.93854">
        <ele>2293.3765</ele>
        <time>2015-08-23T16:56:33Z</time>
      </trkpt>
      <trkpt lat="45.31067" lon="6.93853">
        <ele>2293.3765</ele>
        <time>2015-08-23T16:56:43Z</time>
      </trkpt>
      <trkpt lat="45.31067" lon="6.93854">
        <ele>2293.3765</ele>
        <time>2015-08-23T16:56:48Z</time>
      </trkpt>
      <trkpt lat="45.31067" lon="6.93853">
        <ele>2292.3384</ele>
        <time>2015-08-23T16:56:58Z</time>
      </trkpt>
      <trkpt lat="45.31066" lon="6.93854">
        <ele>2292.3384</ele>
        <time>2015-08-23T16:57:03Z</time>
      </trkpt>
      <trkpt lat="45.31066" lon="6.93851">
        <ele>2292.3384</ele>
        <time>2015-08-23T16:57:13Z</time>
      </trkpt>
      <trkpt lat="45.31067" lon="6.93846">
        <ele>2292.3384</ele>
        <time>2015-08-23T16:57:18Z</time>
      </trkpt>
      <trkpt lat="45.31062" lon="6.9383">
        <ele>2291.022</ele>
        <time>2015-08-23T16:57:28Z</time>
      </trkpt>
      <trkpt lat="45.31061" lon="6.93822">
        <ele>2291.022</ele>
        <time>2015-08-23T16:57:33Z</time>
      </trkpt>
      <trkpt lat="45.31056" lon="6.93809">
        <ele>2289.5127</ele>
        <time>2015-08-23T16:57:43Z</time>
      </trkpt>
      <trkpt lat="45.31053" lon="6.93802">
        <ele>2289.5127</ele>
        <time>2015-08-23T16:57:48Z</time>
      </trkpt>
      <trkpt lat="45.31048" lon="6.93787">
        <ele>2287.8193</ele>
        <time>2015-08-23T16:57:58Z</time>
      </trkpt>
      <trkpt lat="45.31046" lon="6.93783">
        <ele>2287.8193</ele>
        <time>2015-08-23T16:58:03Z</time>
      </trkpt>
      <trkpt lat="45.31041" lon="6.93774">
        <ele>2286.0364</ele>
        <time>2015-08-23T16:58:13Z</time>
      </trkpt>
      <trkpt lat="45.31039" lon="6.93767">
        <ele>2286.0364</ele>
        <time>2015-08-23T16:58:18Z</time>
      </trkpt>
      <trkpt lat="45.31036" lon="6.93757">
        <ele>2284.1934</ele>
        <time>2015-08-23T16:58:28Z</time>
      </trkpt>
      <trkpt lat="45.31036" lon="6.9375">
        <ele>2284.1934</ele>
        <time>2015-08-23T16:58:33Z</time>
      </trkpt>
      <trkpt lat="45.31032" lon="6.93736">
        <ele>2282.2031</ele>
        <time>2015-08-23T16:58:48Z</time>
      </trkpt>
      <trkpt lat="45.31031" lon="6.93735">
        <ele>2282.2031</ele>
        <time>2015-08-23T16:58:53Z</time>
      </trkpt>
      <trkpt lat="45.31031" lon="6.93731">
        <ele>2282.2031</ele>
        <time>2015-08-23T16:59:03Z</time>
      </trkpt>
      <trkpt lat="45.31031" lon="6.93733">
        <ele>2282.2031</ele>
        <time>2015-08-23T16:59:08Z</time>
      </trkpt>
      <trkpt lat="45.31031" lon="6.93734">
        <ele>2282.2031</ele>
        <time>2015-08-23T16:59:18Z</time>
      </trkpt>
      <trkpt lat="45.3103" lon="6.93734">
        <ele>2282.2031</ele>
        <time>2015-08-23T16:59:23Z</time>
      </trkpt>
      <trkpt lat="45.3103" lon="6.93734">
        <ele>2282.2031</ele>
        <time>2015-08-23T16:59:33Z</time>
      </trkpt>
      <trkpt lat="45.3103" lon="6.93732">
        <ele>2282.2031</ele>
        <time>2015-08-23T16:59:38Z</time>
      </trkpt>
      <trkpt lat="45.31028" lon="6.93726">
        <ele>2280.1868</ele>
        <time>2015-08-23T16:59:48Z</time>
      </trkpt>
      <trkpt lat="45.31029" lon="6.93723">
        <ele>2280.1868</ele>
        <time>2015-08-23T16:59:53Z</time>
      </trkpt>
      <trkpt lat="45.3103" lon="6.93722">
        <ele>2280.1868</ele>
        <time>2015-08-23T17:00:03Z</time>
      </trkpt>
      <trkpt lat="45.3103" lon="6.93722">
        <ele>2280.1868</ele>
        <time>2015-08-23T17:00:08Z</time>
      </trkpt>
      <trkpt lat="45.3103" lon="6.93722">
        <ele>2280.1868</ele>
        <time>2015-08-23T17:00:18Z</time>
      </trkpt>
      <trkpt lat="45.31033" lon="6.9372">
        <ele>2280.1868</ele>
        <time>2015-08-23T17:01:23Z</time>
      </trkpt>
      <trkpt lat="45.31027" lon="6.93723">
        <ele>2277.6504</ele>
        <time>2015-08-23T17:01:28Z</time>
      </trkpt>
      <trkpt lat="45.31016" lon="6.93727">
        <ele>2275.1619</ele>
        <time>2015-08-23T17:01:33Z</time>
      </trkpt>
      <trkpt lat="45.31001" lon="6.93733">
        <ele>2272.7996</ele>
        <time>2015-08-23T17:01:38Z</time>
      </trkpt>
      <trkpt lat="45.30973" lon="6.93747">
        <ele>2272.7996</ele>
        <time>2015-08-23T17:01:38Z</time>
      </trkpt>
    </trkseg>
  </trk>
</gpx>